# Wetter Temperatur Luftdruck Luftfeuchtigkeit Sichtweite Windgeschwindigkeit Windrichtung Zeit
1 Clouds 23 1015 90 10000 0.88 90 08:53 02.10.2022
2 Clouds 21 1013 99 10000 0.94 107 07:29 02.10.2022
3 Rain 20 1012 99 10000 0.89 29 02:54 02.10.2022
4 Rain 21 1011 96 10000 1.42 63 00:45 02.10.2022
5 Clouds 21 1011 92 10000 1.3 60 00:20 02.10.2022
6 Rain 22 1011 88 10000 1.09 47 22:36 01.10.2022
7 Clouds 25 1008 72 10000 0.95 354 20:21 01.10.2022
8 Clouds 27 1007 69 10000 0.34 231 17:55 01.10.2022
9 Clouds 28 1007 67 10000 0.74 189 16:30 01.10.2022
10 Rain 33 1008 45 10000 0.9 247 14:25 01.10.2022
11 Clouds 34 1009 40 10000 0.61 258 12:59 01.10.2022
12 Clouds 34 1009 40 10000 0.61 258 12:30 01.10.2022
13 Clouds 32 1012 47 10000 0.44 277 11:19 01.10.2022
14 Clouds 32 1012 47 10000 0.44 277 10:31 01.10.2022
15 Clouds 28 1013 63 10000 0.41 74 09:27 01.10.2022
16 Clouds 28 1013 63 10000 0.41 74 08:57 01.10.2022
17 Clouds 20 1011 93 10000 0.75 155 04:19 01.10.2022
18 Clouds 20 1011 92 10000 0.72 158 03:29 01.10.2022
19 Clouds 22 1012 89 10000 0.06 85 23:59 30.09.2022
20 Clouds 22 1012 88 10000 0.45 5 22:36 30.09.2022
21 Clouds 22 1011 87 10000 0.45 334 21:28 30.09.2022
22 Clouds 22 1011 87 10000 0.45 334 20:43 30.09.2022
23 Clouds 23 1010 86 10000 0.19 8 19:43 30.09.2022
24 Clouds 27 1008 73 10000 1.18 326 17:28 30.09.2022
25 Clouds 29 1008 62 10000 1.32 309 15:32 30.09.2022
26 Rain 31 1010 54 10000 1.36 264 13:29 30.09.2022
27 Rain 30 1011 59 10000 0.97 248 11:57 30.09.2022
28 Rain 27 1012 78 10000 0.68 232 10:30 30.09.2022
29 Mist 22 1014 94 3000 0 0 08:24 30.09.2022
30 Clouds 21 1012 99 10000 0.68 350 05:47 30.09.2022
31 Rain 21 1010 97 10000 0.3 295 02:31 30.09.2022
32 Rain 22 1011 94 10000 0.87 321 22:26 29.09.2022
33 Rain 22 1011 93 10000 0.67 263 21:26 29.09.2022
34 Rain 22 1011 93 10000 0.67 263 20:35 29.09.2022
35 Rain 22 1010 93 10000 0.8 221 18:34 29.09.2022
36 Rain 27 1008 76 10000 1.55 212 17:23 29.09.2022
37 Clouds 29 1008 60 10000 0.57 170 16:28 29.09.2022
38 Clouds 29 1008 60 10000 0.57 170 15:35 29.09.2022
39 Clouds 32 1009 45 10000 1.35 299 14:25 29.09.2022
40 Clouds 27 1014 64 10000 1.54 292 09:45 29.09.2022
41 Clouds 20 1014 99 10000 0.37 321 06:46 29.09.2022
42 Clouds 19 1012 99 10000 0.46 253 02:47 29.09.2022
43 Clouds 20 1013 99 10000 0.64 236 23:54 28.09.2022
44 Clouds 20 1013 99 10000 0.6 228 22:32 28.09.2022
45 Clouds 21 1012 99 10000 1.27 230 21:29 28.09.2022
46 Clouds 20 1012 94 10000 1.03 238 20:22 28.09.2022
47 Clouds 20 1012 93 10000 1.3 241 18:31 28.09.2022
48 Clouds 24 1011 79 10000 2.17 265 14:52 28.09.2022
49 Clouds 22 1012 98 10000 1.93 269 12:56 28.09.2022
50 Rain 21 1015 99 10000 1.24 259 10:51 28.09.2022
51 Rain 21 1015 99 6457 0.99 108 08:33 28.09.2022
52 Rain 21 1014 99 1843 0.8 171 06:50 28.09.2022
53 Rain 21 1011 100 7581 0.93 350 02:36 28.09.2022
54 Rain 21 1011 99 10000 0.9 324 01:33 28.09.2022
55 Clouds 22 1012 99 10000 1.2 297 23:20 27.09.2022
56 Rain 21 1012 99 10000 0.86 301 21:44 27.09.2022
57 Rain 22 1012 98 10000 0.9 282 20:38 27.09.2022
58 Clouds 25 1010 83 8000 0 0 19:47 27.09.2022
59 Rain 23 1009 96 10000 1.55 263 18:40 27.09.2022
60 Rain 24 1008 87 10000 1.2 258 17:44 27.09.2022
61 Rain 27 1007 75 10000 1.99 264 15:31 27.09.2022
62 Rain 29 1011 65 10000 2.06 350 14:55 27.09.2022
63 Rain 26 1013 78 10000 5.14 200 12:50 27.09.2022
64 Clouds 31 1010 53 10000 1.74 284 11:34 27.09.2022
65 Clouds 25 1013 83 10000 1.24 328 08:50 27.09.2022
66 Clouds 21 1012 99 10000 0.69 26 06:46 27.09.2022
67 Rain 21 1009 90 10000 1.39 20 01:57 27.09.2022
68 Clouds 22 1009 86 10000 0.95 357 01:29 27.09.2022
69 Clouds 23 1009 78 10000 0.71 306 23:26 26.09.2022
70 Clouds 23 1009 78 10000 0.71 306 22:38 26.09.2022
71 Clouds 25 1008 71 10000 0.2 283 20:46 26.09.2022
72 Clouds 28 1008 78 10000 0 0 19:31 26.09.2022
73 Clouds 25 1007 74 10000 1.69 104 18:32 26.09.2022
74 Clouds 29 1006 62 10000 0.74 335 16:36 26.09.2022
75 Clouds 33 1006 43 10000 1.01 120 14:37 26.09.2022
76 Clouds 33 1009 46 10000 0.36 129 11:30 26.09.2022
77 Clouds 32 1011 51 10000 0.53 152 10:39 26.09.2022
78 Clouds 29 1012 59 10000 0.73 136 10:20 26.09.2022
79 Clouds 29 1012 59 10000 0.73 136 09:55 26.09.2022
80 Clouds 26 1012 71 10000 0.44 149 09:24 26.09.2022
81 Clouds 23 1012 87 10000 0.41 297 07:56 26.09.2022
82 Clouds 19 1009 96 10000 0.81 31 02:54 26.09.2022
83 Clouds 20 1009 96 10000 1.08 134 23:57 25.09.2022
84 Clouds 21 1010 97 10000 1.3 148 22:45 25.09.2022
85 Rain 21 1010 97 10000 0.47 135 21:35 25.09.2022
86 Clouds 22 1009 89 10000 1.39 117 20:48 25.09.2022
87 Clouds 23 1009 80 10000 0.67 111 19:43 25.09.2022
88 Clouds 24 1007 73 10000 0.95 146 18:43 25.09.2022
89 Clouds 26 1007 70 10000 0.82 56 18:20 25.09.2022
90 Clouds 30 1006 57 10000 0.99 173 16:36 25.09.2022
91 Clouds 32 1006 45 10000 0.67 154 15:45 25.09.2022
92 Clouds 25 1009 81 10000 0.92 134 14:22 25.09.2022
93 Clouds 29 1012 70 10000 3.09 50 12:57 25.09.2022
94 Clouds 26 1014 73 8000 3.09 0 10:36 25.09.2022
95 Clouds 21 1013 99 10000 0.68 349 08:24 25.09.2022
96 Clouds 21 1011 99 10000 0.21 276 05:47 25.09.2022
97 Rain 21 1010 100 5989 1.15 60 01:55 25.09.2022
98 Clouds 21 1011 96 10000 0.58 318 22:35 24.09.2022
99 Rain 22 1011 95 10000 0.94 299 20:55 24.09.2022
100 Clouds 22 1010 95 10000 0.91 310 19:23 24.09.2022
101 Rain 23 1009 93 10000 1.03 316 17:50 24.09.2022
102 Rain 27 1007 78 10000 1.07 319 16:27 24.09.2022
103 Rain 27 1008 75 10000 1.18 313 15:21 24.09.2022
104 Rain 29 1008 64 10000 1.4 311 13:35 24.09.2022
105 Rain 30 1009 58 10000 2.18 295 12:51 24.09.2022
106 Clouds 28 1013 64 10000 1.96 297 11:21 24.09.2022
107 Clouds 25 1014 78 10000 1.7 294 09:46 24.09.2022
108 Rain 23 1014 94 10000 1.52 281 08:45 24.09.2022
109 Rain 21 1014 99 2697 1.05 267 07:38 24.09.2022
110 Rain 20 1012 100 10000 0.93 311 04:46 24.09.2022
111 Rain 20 1011 100 10000 0.49 11 02:24 24.09.2022
112 Clouds 22 1011 94 10000 1.06 21 22:36 23.09.2022
113 Clouds 23 1010 87 10000 0.21 60 21:28 23.09.2022
114 Clouds 23 1010 87 10000 0.21 60 20:56 23.09.2022
115 Clouds 23 1010 84 10000 0.35 95 20:20 23.09.2022
116 Clouds 24 1009 80 10000 0.36 202 18:50 23.09.2022
117 Clouds 32 1007 45 10000 0.73 286 14:33 23.09.2022
118 Clouds 24 1013 87 10000 1.17 288 10:55 23.09.2022
119 Rain 21 1014 98 10000 0.76 277 09:32 23.09.2022
120 Rain 21 1012 99 10000 1.02 184 05:20 23.09.2022
121 Clouds 21 1010 98 10000 0.78 229 00:31 23.09.2022
122 Rain 22 1011 94 10000 1.53 233 23:21 22.09.2022
123 Rain 22 1011 94 10000 1.55 245 22:26 22.09.2022
124 Clouds 22 1010 93 10000 1.53 229 20:46 22.09.2022
125 Clouds 24 1008 87 10000 1.15 213 19:27 22.09.2022
126 Rain 27 1007 74 10000 1.44 250 16:57 22.09.2022
127 Clouds 28 1011 63 10000 1.32 236 12:19 22.09.2022
128 Clouds 25 1013 84 10000 1.17 251 10:20 22.09.2022
129 Clouds 22 1013 96 10000 1.05 238 08:46 22.09.2022
130 Rain 21 1012 97 10000 0.32 27 06:42 22.09.2022
131 Clouds 21 1010 98 10000 0.12 42 02:43 22.09.2022
132 Rain 22 1011 97 10000 0.62 44 23:25 21.09.2022
133 Rain 22 1011 97 10000 0.64 118 21:41 21.09.2022
134 Clouds 22 1009 87 10000 0.8 352 19:55 21.09.2022
135 Clouds 25 1007 77 10000 1.74 350 17:48 21.09.2022
136 Clouds 30 1007 58 10000 1.4 322 16:30 21.09.2022
137 Clouds 31 1008 48 10000 2 317 14:00 21.09.2022
138 Clouds 30 1009 51 10000 2.25 329 12:42 21.09.2022
139 Clouds 27 1013 69 10000 1.86 347 11:29 21.09.2022
140 Clouds 23 1014 91 10000 0.99 359 09:50 21.09.2022
141 Clouds 22 1013 97 10000 0.83 358 09:00 21.09.2022
142 Clouds 22 1011 99 10000 1.47 326 07:18 21.09.2022
143 Rain 21 1010 99 6263 0.69 63 02:47 21.09.2022
144 Rain 22 1009 99 10000 1.09 357 02:25 21.09.2022
145 Rain 22 1010 99 10000 1.48 86 00:34 21.09.2022
146 Rain 22 1011 99 10000 0.69 328 22:43 20.09.2022
147 Rain 23 1010 96 10000 1 52 20:51 20.09.2022
148 Rain 24 1008 86 10000 0.32 94 19:32 20.09.2022
149 Clouds 32 1005 48 10000 1.47 234 16:25 20.09.2022
150 Clouds 33 1006 43 10000 1.28 224 14:45 20.09.2022
151 Clouds 33 1008 46 10000 1.83 324 12:58 20.09.2022
152 Rain 30 1011 63 10000 0.18 20 09:34 20.09.2022
153 Clouds 23 1012 93 10000 0.52 123 08:26 20.09.2022
154 Rain 21 1010 99 10000 0.3 165 04:50 20.09.2022
155 Rain 21 1009 99 10000 0.5 135 03:48 20.09.2022
156 Clouds 24 1010 82 10000 1.02 223 22:55 19.09.2022
157 Clouds 24 1010 81 10000 0.73 216 21:40 19.09.2022
158 Clouds 25 1009 79 10000 0.55 120 20:51 19.09.2022
159 Clouds 25 1009 76 10000 0.68 165 20:30 19.09.2022
160 Clouds 27 1007 72 10000 0.62 122 17:44 19.09.2022
161 Clouds 32 1007 49 10000 0.94 159 14:54 19.09.2022
162 Clouds 32 1010 50 10000 1.26 167 13:18 19.09.2022
163 Clouds 28 1013 64 10000 1.49 150 11:25 19.09.2022
164 Clouds 24 1014 91 10000 1.03 152 08:51 19.09.2022
165 Clouds 21 1013 99 10000 0.3 164 06:42 19.09.2022
166 Clouds 21 1011 99 10000 0.5 262 01:54 19.09.2022
167 Clouds 22 1012 99 10000 0.56 306 23:22 18.09.2022
168 Clouds 22 1012 98 10000 0.61 285 21:44 18.09.2022
169 Clouds 22 1011 98 10000 0.87 286 20:25 18.09.2022
170 Rain 23 1010 94 10000 1.12 297 18:18 18.09.2022
171 Rain 23 1010 94 10000 1.12 297 17:37 18.09.2022
172 Rain 27 1008 74 10000 1.52 341 15:44 18.09.2022
173 Rain 27 1010 72 10000 1.82 323 13:50 18.09.2022
174 Clouds 24 1012 87 10000 1.14 340 12:35 18.09.2022
175 Rain 23 1014 91 10000 1.52 10 10:55 18.09.2022
176 Rain 21 1010 99 10000 1.01 346 04:26 18.09.2022
177 Rain 21 1010 99 10000 0.76 331 01:25 18.09.2022
178 Rain 21 1011 98 6787 1.52 347 00:23 18.09.2022
179 Clouds 23 1009 86 10000 0.88 66 21:40 17.09.2022
180 Clouds 26 1008 75 10000 0.76 58 19:43 17.09.2022
181 Clouds 26 1008 75 10000 0.76 58 19:43 17.09.2022
182 Clouds 26 1007 74 10000 0.54 5 18:57 17.09.2022
183 Clouds 26 1007 74 10000 0.54 5 18:57 17.09.2022
184 Clouds 28 1006 66 10000 0.67 265 16:18 17.09.2022
185 Clouds 33 1007 42 10000 1.19 354 13:56 17.09.2022
186 Clouds 32 1010 49 10000 1.33 334 11:31 17.09.2022
187 Clouds 25 1012 75 10000 1.2 4 09:27 17.09.2022
188 Rain 20 1011 98 10000 0.79 22 06:25 17.09.2022
189 Clouds 21 1011 94 10000 0.68 59 00:20 17.09.2022
190 Clouds 21 1011 94 10000 0.98 66 22:52 16.09.2022
191 Clouds 22 1011 97 10000 0.88 101 21:23 16.09.2022
192 Rain 22 1010 94 10000 2.07 128 19:50 16.09.2022
193 Clouds 30 1006 56 10000 1.49 336 16:56 16.09.2022
194 Clouds 33 1007 40 10000 1.21 344 15:26 16.09.2022
195 Clouds 30 1012 66 9000 4.12 270 13:57 16.09.2022
196 Clouds 31 1011 53 10000 1.04 0 11:31 16.09.2022
197 Clouds 23 1013 90 10000 0.49 12 08:26 16.09.2022
198 Clouds 21 1012 96 10000 0.05 120 07:19 16.09.2022
199 Clouds 21 1012 96 10000 0.05 120 06:47 16.09.2022
200 Clear 21 1011 97 10000 0.95 138 02:40 16.09.2022
201 Clouds 22 1012 88 10000 1.27 114 22:52 15.09.2022
202 Clouds 23 1011 83 10000 0.7 114 21:18 15.09.2022
203 Clouds 27 1011 78 8000 0 0 19:49 15.09.2022
204 Clouds 25 1009 84 10000 1.01 152 18:29 15.09.2022
205 Clouds 25 1009 84 10000 1.01 152 17:32 15.09.2022
206 Clouds 28 1009 71 10000 1.12 170 16:42 15.09.2022
207 Rain 29 1009 63 10000 0.91 187 14:30 15.09.2022
208 Clouds 31 1012 53 10000 1.36 153 12:21 15.09.2022
209 Clouds 29 1014 60 10000 0.95 155 09:54 15.09.2022
210 Clouds 23 1014 83 10000 0.93 153 07:50 15.09.2022
211 Clouds 20 1012 99 10000 0.59 246 03:52 15.09.2022
212 Clouds 21 1013 99 10000 0.87 245 23:44 14.09.2022
213 Clouds 21 1013 98 10000 0.52 286 21:30 14.09.2022
214 Rain 22 1011 94 10000 0.67 318 19:34 14.09.2022
215 Rain 22 1011 94 10000 0.67 318 19:34 14.09.2022
216 Clouds 23 1011 88 10000 0.9 321 18:32 14.09.2022
217 Clouds 26 1009 76 10000 0.84 305 16:46 14.09.2022
218 Clouds 27 1009 67 10000 1.12 314 15:38 14.09.2022
219 Rain 28 1011 66 10000 1.03 228 13:54 14.09.2022
220 Clouds 23 1015 90 10000 0.92 189 11:30 14.09.2022
221 Clouds 21 1016 97 10000 0.73 156 09:48 14.09.2022
222 Rain 21 1014 99 6239 0.96 129 07:29 14.09.2022
223 Rain 21 1014 99 6239 0.96 129 06:34 14.09.2022
224 Rain 21 1011 99 10000 0.81 43 04:24 14.09.2022
225 Rain 20 1011 99 10000 0.67 56 01:46 14.09.2022
226 Rain 20 1012 99 10000 1.18 18 01:27 14.09.2022
227 Rain 20 1012 99 10000 1.18 18 00:42 14.09.2022
228 Rain 21 1012 99 9863 0.78 25 23:54 13.09.2022
229 Rain 21 1012 99 9863 0.78 25 23:36 13.09.2022
230 Rain 21 1012 98 10000 1.32 48 23:18 13.09.2022
231 Rain 21 1012 98 10000 1.23 59 21:45 13.09.2022
232 Clouds 22 1010 90 10000 1.35 47 19:38 13.09.2022
233 Clouds 24 1008 82 10000 1.56 83 17:41 13.09.2022
234 Clouds 28 1007 68 10000 0.33 106 15:54 13.09.2022
235 Clouds 26 1009 68 10000 1.27 351 14:31 13.09.2022
236 Clouds 23 1011 92 10000 1.75 355 12:30 13.09.2022
237 Rain 22 1015 99 10000 0.97 86 08:34 13.09.2022
238 Rain 21 1011 99 10000 0.75 96 05:22 13.09.2022
239 Rain 22 1012 98 10000 1.11 38 23:37 12.09.2022
240 Rain 22 1012 98 10000 0.63 58 22:49 12.09.2022
241 Rain 22 1012 96 10000 0.82 18 21:37 12.09.2022
242 Rain 22 1011 96 10000 0.32 317 20:25 12.09.2022
243 Rain 23 1010 95 10000 0.94 297 18:43 12.09.2022
244 Rain 29 1008 66 10000 1.56 250 16:23 12.09.2022
245 Rain 29 1009 64 10000 1.49 254 13:57 12.09.2022
246 Clouds 27 1013 69 10000 1.89 274 11:29 12.09.2022
247 Clouds 26 1014 75 10000 1.69 266 09:45 12.09.2022
248 Rain 21 1011 98 10000 1.03 265 04:49 12.09.2022
249 Clouds 21 1011 98 10000 1.06 252 03:33 12.09.2022
250 Clouds 22 1012 95 10000 0.82 282 23:23 11.09.2022
251 Rain 22 1012 95 10000 0.59 220 21:59 11.09.2022
252 Rain 22 1012 94 10000 0.6 245 20:47 11.09.2022
253 Clouds 22 1011 96 10000 0.98 290 19:53 11.09.2022
254 Clouds 23 1010 95 10000 1.11 282 19:22 11.09.2022
255 Rain 23 1009 94 10000 1.2 297 18:20 11.09.2022
256 Rain 25 1009 91 10000 1.11 261 16:34 11.09.2022
257 Rain 27 1009 81 6679 0.97 286 14:33 11.09.2022
258 Rain 29 1011 74 10000 1.3 272 12:40 11.09.2022
259 Mist 22 1015 94 4000 0 0 08:48 11.09.2022
260 Clouds 21 1013 98 10000 0.16 278 06:56 11.09.2022
261 Clouds 21 1012 98 10000 0.42 67 00:50 11.09.2022
262 Rain 21 1013 99 10000 0.66 149 22:55 10.09.2022
263 Rain 22 1012 97 10000 1.25 138 21:25 10.09.2022
264 Rain 23 1011 94 10000 0.39 165 19:47 10.09.2022
265 Rain 23 1010 92 10000 0.37 173 19:28 10.09.2022
266 Rain 23 1010 92 10000 0.37 173 18:51 10.09.2022
267 Rain 29 1008 68 10000 1.23 349 16:39 10.09.2022
268 Rain 31 1009 56 10000 1.23 350 14:42 10.09.2022
269 Rain 30 1011 61 10000 1.08 341 12:52 10.09.2022
270 Clouds 30 1014 58 10000 1.1 347 10:58 10.09.2022
271 Clouds 28 1015 66 10000 0.8 351 09:37 10.09.2022
272 Clouds 26 1015 78 10000 1.14 324 08:36 10.09.2022
273 Clouds 21 1014 98 10000 0.65 356 06:43 10.09.2022
274 Clouds 21 1012 99 10000 1.18 24 00:40 10.09.2022
275 Clouds 21 1012 99 10000 1.11 13 23:32 09.09.2022
276 Rain 22 1013 99 10000 1.38 336 21:50 09.09.2022
277 Rain 22 1013 99 10000 1.24 315 20:41 09.09.2022
278 Rain 22 1011 97 9002 1.59 282 19:24 09.09.2022
279 Rain 22 1011 97 9002 1.59 282 18:46 09.09.2022
280 Rain 29 1008 66 10000 0.85 227 16:23 09.09.2022
281 Clouds 33 1008 46 10000 0.54 263 13:48 09.09.2022
282 Clouds 32 1010 50 10000 0.37 332 12:30 09.09.2022
283 Clouds 26 1014 76 10000 0.77 325 09:53 09.09.2022
284 Rain 20 1012 99 10000 0.73 253 04:57 09.09.2022
285 Rain 20 1011 99 10000 2.38 276 02:54 09.09.2022
286 Rain 22 1011 98 10000 1.73 265 21:52 08.09.2022
287 Rain 23 1010 96 5241 0.88 203 20:51 08.09.2022
288 Rain 22 1010 98 10000 1.87 286 20:31 08.09.2022
289 Rain 22 1009 97 10000 0.31 115 19:49 08.09.2022
290 Rain 24 1006 87 10000 1.29 321 18:22 08.09.2022
291 Rain 30 1004 56 10000 1.73 64 16:19 08.09.2022
292 Clouds 32 1018 58 10000 3.09 270 14:40 08.09.2022
293 Clouds 33 1008 46 10000 1.43 353 13:26 08.09.2022
294 Clouds 30 1012 66 10000 3.09 360 11:57 08.09.2022
295 Clouds 31 1011 57 10000 1.83 7 10:52 08.09.2022
296 Haze 24 1012 88 5000 0 0 08:21 08.09.2022
297 Clouds 22 1012 97 10000 1.29 353 06:41 08.09.2022
298 Clouds 22 1009 91 10000 0.43 202 02:36 08.09.2022
299 Clouds 22 1009 90 10000 0.51 108 02:18 08.09.2022
300 Clouds 23 1010 88 10000 1.13 89 00:27 08.09.2022
301 Clouds 23 1010 86 10000 1.32 90 22:42 07.09.2022
302 Clouds 24 1010 85 10000 0.69 105 21:42 07.09.2022
303 Clouds 24 1009 83 10000 0.4 145 20:42 07.09.2022
304 Clouds 25 1008 77 10000 0.67 235 19:40 07.09.2022
305 Clouds 27 1008 75 10000 0.83 234 17:49 07.09.2022
306 Clouds 34 1009 43 10000 0.35 356 12:52 07.09.2022
307 Clouds 31 1013 55 10000 1.58 29 10:47 07.09.2022
308 Clouds 26 1014 75 10000 1.21 34 08:38 07.09.2022
309 Clouds 23 1012 89 10000 0.39 29 06:57 07.09.2022
310 Clouds 23 1011 84 10000 0.35 247 02:46 07.09.2022
311 Clouds 25 1012 79 10000 0.87 242 22:44 06.09.2022
312 Clouds 25 1011 77 10000 0.59 313 21:39 06.09.2022
313 Clouds 25 1010 82 10000 1.03 5 20:24 06.09.2022
314 Clouds 27 1010 74 9000 2.06 0 18:45 06.09.2022
315 Clouds 27 1008 74 10000 0.35 265 18:21 06.09.2022
316 Clouds 29 1008 64 10000 0.91 300 17:21 06.09.2022
317 Clouds 29 1008 64 10000 0.91 300 16:37 06.09.2022
318 Clouds 30 1008 57 10000 0.56 321 14:59 06.09.2022
319 Clouds 33 1009 44 10000 0.2 313 13:45 06.09.2022
320 Clear 35 1011 40 10000 0.41 352 13:22 06.09.2022
321 Clear 34 1013 44 10000 0.8 10 11:54 06.09.2022
322 Clear 32 1014 50 10000 1.27 16 10:41 06.09.2022
323 Clear 27 1015 70 10000 1.37 28 08:41 06.09.2022
324 Clouds 25 1015 82 10000 1.07 27 07:37 06.09.2022
325 Clouds 23 1012 89 10000 0.41 273 02:43 06.09.2022
326 Clouds 24 1014 80 10000 0.72 303 23:22 05.09.2022
327 Clouds 25 1014 78 10000 0.25 276 21:52 05.09.2022
328 Clouds 25 1012 76 10000 0.47 4 20:33 05.09.2022
329 Clouds 26 1011 71 10000 0.75 69 19:19 05.09.2022
330 Clouds 30 1012 62 10000 0 0 18:45 05.09.2022
331 Clouds 26 1010 69 10000 0.32 134 18:21 05.09.2022
332 Clouds 28 1009 65 10000 0.79 288 16:35 05.09.2022
333 Clouds 30 1009 57 10000 1.01 265 15:46 05.09.2022
334 Clouds 34 1012 39 10000 0.58 199 13:25 05.09.2022
335 Clouds 33 1013 42 10000 0.62 231 12:27 05.09.2022
336 Clouds 30 1015 53 10000 0.95 311 09:44 05.09.2022
337 Clouds 21 1015 88 10000 0.66 318 06:40 05.09.2022
338 Clouds 21 1014 88 10000 0.22 185 01:56 05.09.2022
339 Clear 22 1015 84 10000 0.51 276 22:59 04.09.2022
340 Clear 22 1015 82 10000 0.49 264 22:27 04.09.2022
341 Clouds 23 1014 83 10000 0.17 86 20:44 04.09.2022
342 Clouds 24 1012 78 10000 0.53 190 19:29 04.09.2022
343 Clouds 25 1011 75 10000 0.36 209 17:50 04.09.2022
344 Clouds 31 1013 51 8888 2.06 120 16:42 04.09.2022
345 Clouds 32 1012 44 10000 1.53 281 14:29 04.09.2022
346 Clouds 32 1013 45 10000 1.11 280 13:28 04.09.2022
347 Clouds 32 1013 45 10000 1.11 280 13:28 04.09.2022
348 Clouds 31 1014 49 10000 0.78 254 11:52 04.09.2022
349 Clouds 24 1018 88 10000 2.06 120 09:56 04.09.2022
350 Clouds 20 1016 97 10000 0.45 208 07:29 04.09.2022
351 Clouds 20 1014 99 10000 0.63 246 04:44 04.09.2022
352 Clouds 20 1015 98 10000 0.44 309 00:42 04.09.2022
353 Clouds 20 1015 96 10000 0.32 250 22:21 03.09.2022
354 Clouds 21 1015 94 10000 0.3 231 21:23 03.09.2022
355 Clouds 21 1013 92 10000 0.79 132 18:59 03.09.2022
356 Clouds 24 1012 82 10000 0.75 129 17:26 03.09.2022
357 Clouds 25 1012 74 10000 0.53 147 16:27 03.09.2022
358 Clouds 27 1014 74 10000 0 0 14:44 03.09.2022
359 Clouds 26 1014 65 10000 1.3 218 13:55 03.09.2022
360 Clouds 23 1017 83 10000 1.06 180 11:51 03.09.2022
361 Clouds 20 1018 95 10000 0.79 164 09:56 03.09.2022
362 Clouds 19 1017 98 10000 0.43 158 08:27 03.09.2022
363 Clouds 19 1017 99 10000 0.78 157 06:53 03.09.2022
364 Clouds 19 1016 99 10000 1.06 136 04:31 03.09.2022
365 Clouds 19 1015 99 10000 0.38 112 23:49 02.09.2022
366 Clouds 19 1015 100 10000 0.12 251 22:45 02.09.2022
367 Clouds 20 1014 99 10000 1.08 271 20:59 02.09.2022
368 Clouds 20 1014 99 10000 1.08 271 20:59 02.09.2022
369 Clouds 20 1013 99 10000 1.17 292 20:27 02.09.2022
370 Clouds 20 1013 98 10000 1.09 268 18:59 02.09.2022
371 Clouds 20 1014 97 10000 1.4 279 18:28 02.09.2022
372 Clouds 20 1014 97 10000 1.4 279 17:36 02.09.2022
373 Clouds 21 1013 97 10000 1.19 292 16:46 02.09.2022
374 Rain 21 1014 97 10000 1.08 275 13:51 02.09.2022
375 Rain 21 1016 99 10000 1.34 272 12:24 02.09.2022
376 Rain 20 1017 100 2030 0.98 254 09:50 02.09.2022
377 Rain 20 1015 99 4027 0.55 36 08:56 02.09.2022
378 Rain 20 1014 99 8028 1.39 157 07:24 02.09.2022
379 Rain 20 1014 99 8028 1.39 157 06:35 02.09.2022
380 Rain 21 1010 99 1280 0.88 47 02:37 02.09.2022
381 Rain 21 1011 99 7817 0.9 55 22:30 01.09.2022
382 Rain 22 1011 98 10000 1.22 11 21:43 01.09.2022
383 Rain 22 1010 96 7442 1.37 33 21:23 01.09.2022
384 Rain 22 1010 96 7442 1.37 33 20:37 01.09.2022
385 Clouds 26 1007 74 10000 0.65 141 18:49 01.09.2022
386 Clouds 28 1006 68 10000 0.89 123 17:21 01.09.2022
387 Clouds 30 1005 56 10000 0.83 105 15:47 01.09.2022
388 Clouds 30 1007 58 10000 1.94 98 13:55 01.09.2022
389 Clouds 31 1009 52 10000 1.52 88 12:57 01.09.2022
390 Clouds 29 1012 70 10000 1.54 0 11:52 01.09.2022
391 Clouds 31 1010 52 10000 1.2 69 11:30 01.09.2022
392 Clouds 27 1012 71 10000 1.33 35 10:19 01.09.2022
393 Clouds 22 1012 96 10000 1.15 72 07:51 01.09.2022
394 Clouds 20 1011 99 10000 1.17 30 06:21 01.09.2022
395 Rain 21 1010 98 10000 0.91 11 01:31 01.09.2022
396 Clouds 22 1012 96 10000 1.11 51 23:19 31.08.2022
397 Clouds 22 1012 95 10000 1.05 44 21:30 31.08.2022
398 Clouds 23 1010 91 10000 0.91 13 19:46 31.08.2022
399 Clouds 25 1008 81 10000 0.71 14 17:52 31.08.2022
400 Clouds 29 1008 61 10000 1.07 359 15:44 31.08.2022
401 Rain 31 1012 62 10000 0 0 13:56 31.08.2022
402 Rain 27 1012 76 7947 2.47 28 12:20 31.08.2022
403 Rain 27 1013 69 10000 1.98 57 10:30 31.08.2022
404 Clouds 24 1014 85 10000 0.95 92 08:34 31.08.2022
405 Clouds 21 1010 98 10000 0.66 160 03:46 31.08.2022
406 Clouds 22 1013 98 10000 0.81 161 22:44 30.08.2022
407 Clouds 22 1013 98 10000 0.83 157 21:33 30.08.2022
408 Clouds 22 1012 97 10000 0.94 151 20:38 30.08.2022
409 Rain 26 1009 80 10000 1.45 210 17:25 30.08.2022
410 Rain 27 1010 75 10000 1.82 183 14:41 30.08.2022
411 Rain 28 1015 65 10000 4.12 200 12:54 30.08.2022
412 Rain 25 1014 85 10000 1.08 157 11:20 30.08.2022
413 Rain 25 1014 85 10000 1.08 157 10:35 30.08.2022
414 Rain 21 1014 99 10000 0.33 209 06:49 30.08.2022
415 Rain 20 1012 99 10000 0.78 301 01:45 30.08.2022
416 Rain 21 1013 98 10000 2.5 238 22:47 29.08.2022
417 Rain 21 1013 98 10000 2.31 241 22:18 29.08.2022
418 Rain 22 1011 98 10000 1.05 225 21:23 29.08.2022
419 Rain 22 1011 97 5568 1.68 227 19:42 29.08.2022
420 Rain 23 1009 91 10000 0.86 249 17:42 29.08.2022
421 Rain 24 1008 85 10000 0.84 203 17:24 29.08.2022
422 Rain 24 1008 89 10000 0.99 184 15:42 29.08.2022
423 Rain 31 1008 51 10000 0.64 326 14:18 29.08.2022
424 Clouds 32 1009 46 10000 1.26 339 12:42 29.08.2022
425 Clouds 30 1012 55 10000 1.47 353 10:51 29.08.2022
426 Clouds 25 1014 88 10000 4.12 130 09:41 29.08.2022
427 Clouds 23 1014 92 10000 0.88 51 08:27 29.08.2022
428 Clouds 21 1011 99 10000 0.49 229 02:42 29.08.2022
429 Clouds 22 1013 98 10000 0.85 249 23:52 28.08.2022
430 Rain 22 1013 96 10000 0.53 53 22:22 28.08.2022
431 Rain 22 1013 98 10000 1.69 140 21:32 28.08.2022
432 Rain 22 1012 96 10000 1.44 113 20:39 28.08.2022
433 Rain 23 1010 95 10000 1.11 43 18:51 28.08.2022
434 Rain 23 1009 94 10000 1.06 55 18:19 28.08.2022
435 Rain 25 1008 92 10000 0.83 39 16:55 28.08.2022
436 Rain 26 1008 87 5886 0.47 310 15:50 28.08.2022
437 Rain 28 1008 67 10000 1.74 240 13:47 28.08.2022
438 Rain 30 1009 60 10000 1.71 275 12:31 28.08.2022
439 Rain 29 1012 56 10000 1.59 354 10:40 28.08.2022
440 Rain 28 1012 64 10000 1.56 1 09:40 28.08.2022
441 Clouds 24 1013 83 10000 1.29 2 08:32 28.08.2022
442 Clouds 22 1013 93 10000 1.11 353 07:34 28.08.2022
443 Clouds 21 1010 96 10000 0.82 354 01:28 28.08.2022
444 Clouds 21 1011 96 10000 0.37 53 00:20 28.08.2022
445 Clouds 21 1011 95 10000 0.63 56 22:31 27.08.2022
446 Rain 22 1010 93 10000 0.8 73 20:53 27.08.2022
447 Rain 22 1009 91 10000 0.41 100 19:38 27.08.2022
448 Clouds 30 1006 56 10000 0.6 74 16:37 27.08.2022
449 Clouds 31 1006 50 10000 0.94 91 15:31 27.08.2022
450 Clouds 31 1008 48 10000 1.47 117 14:18 27.08.2022
451 Clouds 30 1011 53 10000 1.18 129 12:22 27.08.2022
452 Clouds 28 1012 60 10000 1.1 115 10:33 27.08.2022
453 Clouds 25 1013 75 10000 0.9 116 09:40 27.08.2022
454 Clouds 25 1013 75 10000 0.9 116 09:40 27.08.2022
455 Clouds 20 1012 98 10000 0.59 87 06:55 27.08.2022
456 Clouds 20 1010 99 10000 0.48 187 02:31 27.08.2022
457 Clouds 20 1012 99 10000 0.26 256 23:51 26.08.2022
458 Clouds 21 1012 98 10000 0.16 26 22:24 26.08.2022
459 Clouds 21 1011 97 10000 0.52 4 20:25 26.08.2022
460 Clouds 21 1011 97 10000 0.45 350 18:59 26.08.2022
461 Clouds 22 1011 96 10000 0.92 318 16:42 26.08.2022
462 Rain 22 1011 96 10000 1.59 301 15:27 26.08.2022
463 Rain 24 1011 88 10000 2.07 306 13:44 26.08.2022
464 Rain 24 1013 88 10000 2.32 303 12:35 26.08.2022
465 Rain 23 1015 90 10000 2.19 301 11:22 26.08.2022
466 Clouds 23 1015 91 10000 2.09 296 09:59 26.08.2022
467 Rain 20 1012 99 10000 1.21 288 05:26 26.08.2022
468 Clouds 21 1011 96 10000 0.82 244 01:18 26.08.2022
469 Rain 20 1011 96 10000 1.16 324 22:57 25.08.2022
470 Rain 22 1011 98 10000 2.3 92 20:59 25.08.2022
471 Rain 23 1010 92 10000 0.87 121 19:54 25.08.2022
472 Rain 25 1008 79 10000 0.45 335 18:47 25.08.2022
473 Clouds 27 1007 72 10000 1.11 315 17:32 25.08.2022
474 Clouds 31 1006 55 10000 1.17 315 16:46 25.08.2022
475 Clouds 31 1006 49 10000 1.53 315 15:37 25.08.2022
476 Clouds 32 1007 49 10000 1.45 286 14:30 25.08.2022
477 Rain 30 1011 61 10000 0.87 271 11:34 25.08.2022
478 Rain 29 1012 66 10000 1.3 3 10:45 25.08.2022
479 Clouds 25 1014 82 10000 1.77 9 08:41 25.08.2022
480 Rain 21 1012 99 10000 0.89 12 04:40 25.08.2022
481 Rain 21 1012 97 10000 1.34 326 23:56 24.08.2022
482 Rain 21 1013 98 10000 0.52 228 23:25 24.08.2022
483 Rain 21 1013 98 10000 1.48 197 21:59 24.08.2022
484 Rain 21 1013 98 10000 1.48 197 21:31 24.08.2022
485 Rain 22 1011 95 10000 2.38 158 20:18 24.08.2022
486 Rain 24 1009 89 10000 1.79 166 17:32 24.08.2022
487 Clouds 29 1007 60 10000 0.8 222 16:22 24.08.2022
488 Clouds 29 1007 60 10000 0.8 222 15:40 24.08.2022
489 Clouds 35 1009 39 10000 0.96 84 12:52 24.08.2022
490 Clouds 31 1011 50 10000 1.27 58 11:22 24.08.2022
491 Clouds 26 1013 65 10000 0.83 44 09:19 24.08.2022
492 Clouds 20 1013 87 10000 0.73 17 06:52 24.08.2022
493 Clouds 20 1012 91 10000 0.96 51 01:43 24.08.2022
494 Clouds 20 1013 92 10000 0.92 34 22:51 23.08.2022
495 Clouds 21 1013 92 10000 1.05 29 22:21 23.08.2022
496 Clouds 21 1013 90 10000 1.29 6 21:21 23.08.2022
497 Clouds 23 1012 86 10000 1.45 3 19:28 23.08.2022
498 Clouds 23 1012 86 10000 1.45 3 18:30 23.08.2022
499 Clouds 25 1012 78 10000 1.49 346 17:43 23.08.2022
500 Clouds 26 1011 72 10000 1.37 344 16:31 23.08.2022
501 Clouds 25 1013 78 10000 4.12 20 14:54 23.08.2022
502 Clouds 25 1013 75 10000 1.77 339 13:25 23.08.2022
503 Clouds 23 1015 86 10000 1.43 359 11:19 23.08.2022
504 Clouds 23 1015 86 10000 1.43 359 10:33 23.08.2022
505 Clouds 22 1014 91 10000 1.05 10 09:46 23.08.2022
506 Clouds 21 1014 96 10000 0.73 8 08:47 23.08.2022
507 Clouds 20 1013 98 10000 0.83 305 08:19 23.08.2022
508 Mist 20 1014 100 3000 0 0 07:33 23.08.2022
509 Rain 20 1012 99 10000 1.65 269 06:26 23.08.2022
510 Rain 21 1011 99 6337 0.81 186 01:52 23.08.2022
511 Rain 21 1012 98 8285 2.02 191 00:27 23.08.2022
512 Rain 21 1012 98 8285 2.02 191 23:32 22.08.2022
513 Rain 23 1011 94 7091 1.86 195 22:29 22.08.2022
514 Rain 22 1010 97 3751 0.75 257 20:58 22.08.2022
515 Rain 23 1009 94 10000 1.71 281 19:46 22.08.2022
516 Rain 24 1008 85 10000 0.74 304 18:38 22.08.2022
517 Clouds 29 1004 65 10000 1.04 329 16:26 22.08.2022
518 Clouds 29 1004 65 10000 1.04 329 15:36 22.08.2022
519 Clouds 34 1008 45 10000 0.82 291 12:56 22.08.2022
520 Clouds 28 1012 65 10000 1.36 356 09:57 22.08.2022
521 Clouds 21 1011 98 10000 0.53 316 07:21 22.08.2022
522 Clouds 22 1008 91 10000 0.09 140 02:42 22.08.2022
523 Clouds 22 1009 90 10000 0.16 274 00:37 22.08.2022
524 Clouds 22 1010 91 10000 0.28 211 23:43 21.08.2022
525 Rain 22 1010 94 10000 0.67 307 21:57 21.08.2022
526 Rain 23 1010 90 10000 1.72 18 21:21 21.08.2022
527 Rain 25 1009 77 10000 1.36 51 20:21 21.08.2022
528 Clouds 27 1008 67 10000 0.53 115 19:18 21.08.2022
529 Clouds 32 1009 48 8000 3.09 340 16:52 21.08.2022
530 Clouds 34 1006 39 10000 0.85 224 15:53 21.08.2022
531 Clouds 35 1006 38 10000 0.66 226 14:59 21.08.2022
532 Clouds 34 1008 39 10000 0.62 286 13:51 21.08.2022
533 Clouds 34 1010 41 10000 0.47 335 12:57 21.08.2022
534 Clouds 31 1012 51 10000 1.07 21 10:48 21.08.2022
535 Clouds 26 1013 68 10000 0.92 43 09:21 21.08.2022
536 Clouds 26 1013 68 10000 0.92 43 08:56 21.08.2022
537 Clouds 26 1014 73 10000 1.4 45 08:38 21.08.2022
538 Clouds 20 1014 93 10000 0.97 35 07:26 21.08.2022
539 Rain 20 1013 93 10000 0.3 51 02:52 21.08.2022
540 Clouds 21 1014 91 10000 0.7 96 23:44 20.08.2022
541 Clouds 21 1013 93 10000 0.73 38 22:23 20.08.2022
542 Clouds 22 1013 91 10000 0.95 20 21:26 20.08.2022
543 Clouds 22 1012 90 10000 0.77 29 19:58 20.08.2022
544 Clouds 22 1012 90 10000 0.77 29 19:39 20.08.2022
545 Clouds 26 1011 76 10000 1.15 47 18:27 20.08.2022
546 Clouds 29 1010 62 10000 0.78 47 17:25 20.08.2022
547 Clouds 30 1010 55 10000 0.91 12 16:23 20.08.2022
548 Clouds 29 1013 61 10000 2.06 0 14:55 20.08.2022
549 Clouds 25 1015 75 10000 1.3 27 12:28 20.08.2022
550 Clouds 27 1015 69 10000 3.09 30 11:46 20.08.2022
551 Clouds 22 1016 93 10000 1.97 55 09:25 20.08.2022
552 Clouds 21 1015 96 10000 1.91 55 07:31 20.08.2022
553 Clouds 21 1014 98 10000 1.6 52 05:48 20.08.2022
554 Clouds 21 1013 97 10000 1.03 346 00:58 20.08.2022
555 Rain 21 1014 96 10000 1.25 334 23:51 19.08.2022
556 Rain 22 1013 92 10000 1.24 20 22:48 19.08.2022
557 Clouds 22 1013 91 10000 1.47 55 21:34 19.08.2022
558 Clouds 22 1012 94 10000 1.07 54 19:40 19.08.2022
559 Clouds 26 1010 75 10000 0.95 64 16:28 19.08.2022
560 Rain 25 1011 86 10000 1.26 147 14:22 19.08.2022
561 Rain 28 1012 65 10000 0.26 262 12:19 19.08.2022
562 Rain 25 1014 79 10000 0.33 51 10:39 19.08.2022
563 Clouds 24 1014 83 10000 0.2 96 09:36 19.08.2022
564 Clouds 20 1012 99 10000 0.56 325 04:56 19.08.2022
565 Clouds 20 1012 93 10000 0.92 301 00:43 19.08.2022
566 Clouds 20 1012 91 10000 0.96 273 00:19 19.08.2022
567 Clear 20 1012 89 10000 1.06 286 22:58 18.08.2022
568 Clear 21 1012 88 10000 0.78 252 22:26 18.08.2022
569 Clear 21 1012 88 10000 0.78 252 21:50 18.08.2022
570 Clear 21 1011 87 10000 1.01 218 20:55 18.08.2022
571 Clouds 21 1011 88 10000 0.74 209 19:40 18.08.2022
572 Clouds 22 1010 87 10000 1.14 181 19:20 18.08.2022
573 Clouds 22 1009 86 10000 1.36 177 17:38 18.08.2022
574 Rain 25 1009 73 10000 1.86 190 16:18 18.08.2022
575 Clouds 29 1010 56 10000 2.29 189 14:22 18.08.2022
576 Clouds 29 1009 53 10000 1.23 226 13:44 18.08.2022
577 Clouds 29 1009 53 10000 1.23 226 13:44 18.08.2022
578 Clouds 29 1009 53 10000 1.23 226 13:44 18.08.2022
579 Clouds 30 1010 52 10000 0.51 240 12:30 18.08.2022
580 Clouds 27 1013 64 10000 1.07 105 11:21 18.08.2022
581 Clouds 24 1014 80 10000 1.27 122 09:43 18.08.2022
582 Clouds 21 1014 96 10000 0.56 143 07:53 18.08.2022
583 Clouds 20 1013 98 10000 0.73 156 06:37 18.08.2022
584 Clouds 20 1012 98 10000 0.73 183 02:22 18.08.2022
585 Clouds 20 1013 99 10000 0.93 158 22:47 17.08.2022
586 Clouds 20 1011 99 10000 0.82 83 20:37 17.08.2022
587 Clouds 20 1011 98 10000 0.83 76 19:59 17.08.2022
588 Clouds 21 1011 98 10000 0.82 88 18:37 17.08.2022
589 Clouds 21 1011 97 10000 0.36 102 17:21 17.08.2022
590 Clouds 22 1011 96 10000 0.31 100 16:20 17.08.2022
591 Rain 22 1012 95 10000 0.44 97 14:41 17.08.2022
592 Rain 21 1013 96 10000 0.86 95 12:30 17.08.2022
593 Rain 22 1015 91 10000 1.62 72 11:25 17.08.2022
594 Clouds 22 1015 95 10000 1.49 64 09:22 17.08.2022
595 Rain 21 1014 99 10000 0.97 49 06:34 17.08.2022
596 Clouds 21 1013 99 10000 0.94 330 01:22 17.08.2022
597 Rain 21 1014 99 10000 1.2 350 23:32 16.08.2022
598 Clouds 21 1014 98 10000 1.49 7 21:33 16.08.2022
599 Clouds 21 1013 98 10000 1.16 355 20:22 16.08.2022
600 Clouds 22 1012 97 10000 0.93 354 19:27 16.08.2022
601 Clouds 23 1011 93 10000 1.06 338 17:56 16.08.2022
602 Rain 23 1011 88 10000 0.86 332 16:55 16.08.2022
603 Rain 25 1010 81 10000 1.19 304 15:45 16.08.2022
604 Clouds 28 1013 69 8000 0 0 14:54 16.08.2022
605 Clouds 28 1013 69 8000 0 0 14:36 16.08.2022
606 Rain 22 1013 93 10000 1.63 24 12:39 16.08.2022
607 Clouds 22 1015 91 10000 0.69 1 10:23 16.08.2022
608 Mist 22 1014 94 4000 0 0 08:55 16.08.2022
609 Mist 22 1014 94 4000 0 0 08:26 16.08.2022
610 Clouds 20 1014 98 10000 0.82 73 06:48 16.08.2022
611 Rain 21 1012 99 10000 2 270 00:32 16.08.2022
612 Rain 21 1013 99 9992 0.74 278 22:24 15.08.2022
613 Rain 21 1013 99 9992 0.74 278 21:50 15.08.2022
614 Rain 21 1012 98 8420 0.36 268 20:32 15.08.2022
615 Rain 21 1011 96 8690 1.8 200 19:59 15.08.2022
616 Rain 23 1009 93 10000 1.54 139 17:59 15.08.2022
617 Rain 25 1008 80 10000 1.72 46 16:25 15.08.2022
618 Rain 25 1008 80 10000 1.72 46 15:52 15.08.2022
619 Clouds 33 1008 44 10000 0.81 225 13:50 15.08.2022
620 Clouds 30 1012 56 10000 0.5 257 11:24 15.08.2022
621 Clouds 27 1013 67 10000 0.66 307 09:40 15.08.2022
622 Clouds 22 1012 94 10000 0.29 311 07:32 15.08.2022
623 Clouds 20 1010 99 10000 0.45 351 04:34 15.08.2022
624 Clouds 21 1011 99 10000 0.64 329 00:33 15.08.2022
625 Clouds 21 1012 98 10000 0.95 277 22:30 14.08.2022
626 Clouds 21 1012 98 10000 1.26 268 21:37 14.08.2022
627 Rain 22 1010 94 9200 0.43 252 19:47 14.08.2022
628 Rain 23 1009 87 10000 0.36 206 18:57 14.08.2022
629 Clouds 25 1008 78 10000 0.64 154 18:18 14.08.2022
630 Clouds 28 1007 63 10000 0.72 165 16:52 14.08.2022
631 Clouds 29 1008 58 10000 0.46 160 15:48 14.08.2022
632 Rain 24 1011 83 10000 0.83 305 14:24 14.08.2022
633 Rain 24 1011 83 10000 0.83 305 13:49 14.08.2022
634 Clouds 24 1012 83 10000 0.66 347 13:19 14.08.2022
635 Clouds 23 1012 84 10000 0.98 24 11:56 14.08.2022
636 Clouds 24 1013 82 10000 1.2 34 10:40 14.08.2022
637 Clouds 23 1013 84 10000 0.81 44 08:50 14.08.2022
638 Clouds 21 1012 94 10000 1.01 40 06:21 14.08.2022
639 Clouds 21 1011 97 10000 0.42 92 02:47 14.08.2022
640 Clouds 21 1013 96 10000 0.5 290 23:49 13.08.2022
641 Clouds 21 1013 97 10000 0.1 115 22:52 13.08.2022
642 Clouds 21 1012 98 10000 0.42 196 20:58 13.08.2022
643 Clouds 21 1012 98 10000 0.42 196 20:31 13.08.2022
644 Clouds 21 1011 95 10000 0.83 115 19:29 13.08.2022
645 Clouds 23 1010 89 10000 0.89 123 17:40 13.08.2022
646 Clouds 24 1011 87 10000 1.37 87 15:23 13.08.2022
647 Rain 23 1012 93 10000 1.53 71 14:26 13.08.2022
648 Clouds 24 1011 81 10000 1.78 54 13:38 13.08.2022
649 Clouds 23 1014 92 10000 1.31 47 11:52 13.08.2022
650 Clouds 23 1014 91 10000 1.41 40 10:21 13.08.2022
651 Clouds 22 1013 96 10000 0.99 23 08:23 13.08.2022
652 Clouds 22 1013 96 10000 0.99 23 08:23 13.08.2022
653 Clouds 22 1013 96 10000 0.99 23 08:23 13.08.2022
654 Rain 21 1012 97 10000 0.91 100 05:22 13.08.2022
655 Rain 21 1014 98 10000 1.34 265 23:52 12.08.2022
656 Rain 22 1014 99 2960 2.25 245 21:42 12.08.2022
657 Rain 22 1013 98 7609 2.17 227 20:51 12.08.2022
658 Rain 26 1010 89 6000 0 0 19:39 12.08.2022
659 Rain 24 1009 86 10000 1.46 337 18:46 12.08.2022
660 Clouds 28 1008 66 10000 1.36 341 16:37 12.08.2022
661 Clouds 28 1010 74 8000 3.09 340 15:49 12.08.2022
662 Clouds 33 1008 45 10000 1.12 340 14:29 12.08.2022
663 Rain 28 1012 69 8000 4.12 280 12:53 12.08.2022
664 Clouds 27 1012 66 10000 1.18 5 10:35 12.08.2022
665 Clouds 24 1011 81 10000 1.1 24 07:47 12.08.2022
666 Clouds 22 1011 93 10000 0.89 20 06:38 12.08.2022
667 Clouds 21 1008 95 10000 0.56 0 02:33 12.08.2022
668 Clouds 22 1010 90 10000 1.33 5 00:24 12.08.2022
669 Clouds 22 1010 90 10000 1.33 5 23:35 11.08.2022
670 Clouds 23 1010 87 10000 0.97 14 22:26 11.08.2022
671 Clouds 23 1010 87 10000 0.97 14 21:40 11.08.2022
672 Clouds 24 1010 83 10000 1.62 47 20:51 11.08.2022
673 Clouds 24 1009 79 10000 1.88 51 20:19 11.08.2022
674 Clouds 25 1008 74 10000 0.97 48 19:32 11.08.2022
675 Clouds 27 1007 70 10000 1.26 12 17:48 11.08.2022
676 Clouds 28 1006 63 10000 1.88 329 16:35 11.08.2022
677 Clouds 33 1005 44 10000 0.49 214 15:24 11.08.2022
678 Clouds 26 1012 78 6000 2.06 330 13:37 11.08.2022
679 Clouds 25 1013 78 6000 2.06 330 10:27 11.08.2022
680 Clouds 25 1010 70 10000 0.73 342 07:38 11.08.2022
681 Clouds 23 1008 80 10000 1.05 318 03:52 11.08.2022
682 Clouds 24 1009 73 10000 0.71 11 00:50 11.08.2022
683 Clouds 25 1009 68 10000 0.77 7 22:32 10.08.2022
684 Clouds 26 1009 63 10000 0.4 292 21:25 10.08.2022
685 Clouds 26 1009 63 10000 0.4 292 20:55 10.08.2022
686 Clouds 27 1008 58 10000 0.33 98 19:31 10.08.2022
687 Clouds 29 1006 55 10000 0.19 246 18:22 10.08.2022
688 Clouds 32 1006 47 10000 0.36 67 16:41 10.08.2022
689 Haze 31 1010 66 5000 4.12 300 13:36 10.08.2022
690 Clouds 31 1011 66 5000 3.09 300 12:44 10.08.2022
691 Clouds 28 1012 56 10000 0.76 175 09:25 10.08.2022
692 Clouds 28 1012 56 10000 0.76 175 08:34 10.08.2022
693 Clouds 22 1011 79 10000 0.59 67 07:19 10.08.2022
694 Clouds 22 1010 77 10000 0.52 1 03:32 10.08.2022
695 Clouds 24 1010 66 10000 0.37 145 23:51 09.08.2022
696 Clouds 24 1011 65 10000 0.41 105 23:24 09.08.2022
697 Clouds 25 1010 63 10000 0.45 119 21:36 09.08.2022
698 Clouds 25 1010 61 10000 0.54 115 20:36 09.08.2022
699 Clouds 30 1009 66 6000 0 0 18:45 09.08.2022
700 Clouds 29 1007 55 10000 0.9 358 17:31 09.08.2022
701 Clouds 33 1007 42 10000 0.85 338 16:42 09.08.2022
702 Clouds 33 1009 52 6000 2.06 360 15:59 09.08.2022
703 Clouds 35 1007 32 10000 0.9 205 14:28 09.08.2022
704 Clouds 32 1012 44 10000 0.77 279 10:39 09.08.2022
705 Clear 28 1013 60 10000 0.4 272 08:51 09.08.2022
706 Clouds 25 1012 70 10000 0.45 350 07:54 09.08.2022
707 Clouds 21 1010 82 10000 0.27 227 04:28 09.08.2022
708 Clouds 23 1010 78 10000 0.43 10 23:46 08.08.2022
709 Clouds 24 1013 94 6000 0 0 22:57 08.08.2022
710 Clouds 24 1013 94 6000 0 0 22:35 08.08.2022
711 Clouds 25 1010 69 10000 0.56 320 21:27 08.08.2022
712 Haze 27 1010 89 5000 0 0 19:57 08.08.2022
713 Clouds 25 1009 72 10000 0.65 332 19:22 08.08.2022
714 Clouds 27 1008 67 10000 1.16 293 17:34 08.08.2022
715 Clouds 31 1006 49 10000 0.62 168 15:45 08.08.2022
716 Clouds 32 1007 49 10000 1.01 190 14:33 08.08.2022
717 Clouds 33 1010 44 10000 1.09 220 12:29 08.08.2022
718 Clouds 30 1012 57 10000 0.4 226 10:19 08.08.2022
719 Clouds 22 1011 90 10000 0.28 285 06:56 08.08.2022
720 Clouds 21 1009 91 10000 0.88 293 03:34 08.08.2022
721 Clouds 23 1010 84 10000 0.88 287 22:44 07.08.2022
722 Clouds 24 1010 81 10000 0.42 309 21:40 07.08.2022
723 Clouds 23 1010 89 10000 0.99 329 20:42 07.08.2022
724 Clouds 24 1009 85 10000 0.61 32 20:18 07.08.2022
725 Clouds 24 1009 85 10000 0.61 32 19:41 07.08.2022
726 Rain 26 1011 78 6000 0 0 18:36 07.08.2022
727 Rain 28 1007 69 10000 1.27 232 16:55 07.08.2022
728 Rain 28 1007 69 10000 1.27 232 16:35 07.08.2022
729 Clouds 31 1007 53 10000 1.63 166 15:24 07.08.2022
730 Clouds 31 1008 52 10000 2.26 158 13:37 07.08.2022
731 Clouds 32 1010 51 10000 0.45 277 11:58 07.08.2022
732 Clouds 30 1011 57 10000 0.56 304 10:35 07.08.2022
733 Clouds 22 1012 95 10000 0.99 3 07:59 07.08.2022
734 Clouds 21 1010 97 10000 0.86 338 03:32 07.08.2022
735 Clouds 21 1010 98 10000 0.96 355 01:45 07.08.2022
736 Rain 21 1012 98 10000 1.24 358 22:25 06.08.2022
737 Rain 21 1012 97 10000 1.11 359 21:28 06.08.2022
738 Rain 22 1011 96 10000 0.88 316 19:41 06.08.2022
739 Rain 23 1010 94 10000 1.34 337 18:33 06.08.2022
740 Rain 24 1010 89 10000 1.49 18 17:37 06.08.2022
741 Rain 30 1008 62 10000 0.68 65 14:52 06.08.2022
742 Rain 28 1010 77 10000 0.81 270 13:49 06.08.2022
743 Rain 29 1011 65 4921 1.52 304 12:19 06.08.2022
744 Clouds 28 1012 69 10000 1.59 327 10:33 06.08.2022
745 Clouds 24 1013 88 10000 1.11 360 09:21 06.08.2022
746 Clouds 21 1010 96 10000 0.68 333 03:54 06.08.2022
747 Clouds 23 1011 86 10000 0.82 320 23:54 05.08.2022
748 Clouds 24 1011 85 10000 0.83 307 22:33 05.08.2022
749 Clouds 25 1009 78 10000 0.54 312 19:59 05.08.2022
750 Clouds 25 1008 73 10000 0.28 121 18:47 05.08.2022
751 Clouds 27 1008 69 10000 0.65 119 18:27 05.08.2022
752 Clouds 28 1007 64 10000 0.77 102 16:50 05.08.2022
753 Clouds 31 1010 66 10000 3.09 230 15:23 05.08.2022
754 Clouds 29 1007 59 10000 0.71 115 14:32 05.08.2022
755 Clouds 34 1009 41 10000 1.08 187 13:25 05.08.2022
756 Clouds 34 1009 41 10000 1.08 187 12:44 05.08.2022
757 Clouds 32 1011 50 10000 0.87 119 10:55 05.08.2022
758 Clouds 27 1012 69 10000 0.1 310 08:36 05.08.2022
759 Clouds 22 1011 92 10000 0.48 305 07:28 05.08.2022
760 Clouds 22 1011 91 10000 0.46 326 01:46 05.08.2022
761 Clouds 22 1012 89 10000 0.94 314 22:40 04.08.2022
762 Clouds 23 1011 87 10000 0.94 73 21:27 04.08.2022
763 Clouds 23 1011 87 10000 0.94 73 20:45 04.08.2022
764 Rain 24 1010 84 10000 0.77 135 19:58 04.08.2022
765 Rain 24 1009 84 10000 0.92 115 18:52 04.08.2022
766 Rain 24 1009 84 10000 0.92 115 18:32 04.08.2022
767 Clouds 30 1007 57 10000 1.29 276 14:45 04.08.2022
768 Rain 34 1009 41 10000 0.98 235 13:22 04.08.2022
769 Clear 33 1010 44 10000 0.43 196 11:37 04.08.2022
770 Clouds 30 1012 60 10000 0.61 145 09:58 04.08.2022
771 Clouds 23 1012 88 10000 0.33 189 07:31 04.08.2022
772 Clouds 22 1010 91 10000 0.73 206 02:42 04.08.2022
773 Clouds 24 1011 78 10000 0.81 167 23:52 03.08.2022
774 Clouds 24 1011 78 10000 0.81 167 23:33 03.08.2022
775 Clouds 24 1011 76 10000 0.45 45 21:26 03.08.2022
776 Clouds 25 1010 74 10000 0.69 161 20:19 03.08.2022
777 Clouds 26 1009 71 10000 0.82 84 18:40 03.08.2022
778 Clouds 28 1008 63 10000 0.81 211 16:27 03.08.2022
779 Clouds 28 1008 63 10000 0.81 211 15:53 03.08.2022
780 Clouds 31 1009 50 10000 0.57 179 13:32 03.08.2022
781 Clouds 31 1012 51 10000 0.65 69 10:44 03.08.2022
782 Clouds 23 1012 80 10000 0.36 348 07:21 03.08.2022
783 Clouds 23 1011 81 10000 0.59 318 04:22 03.08.2022
784 Clouds 23 1011 81 10000 0.71 304 03:22 03.08.2022
785 Clouds 22 1011 83 10000 0.41 238 00:46 03.08.2022
786 Clouds 23 1012 80 10000 0.24 58 22:33 02.08.2022
787 Clouds 23 1012 78 10000 0.59 37 21:50 02.08.2022
788 Clouds 24 1011 73 10000 0.24 36 20:27 02.08.2022
789 Clouds 30 1008 51 10000 0.37 339 16:52 02.08.2022
790 Clouds 32 1008 42 10000 0.37 325 14:39 02.08.2022
791 Clouds 28 1014 59 10000 1.32 24 10:49 02.08.2022
792 Clouds 23 1015 79 10000 0.91 42 08:38 02.08.2022
793 Clouds 21 1015 87 10000 0.97 44 07:51 02.08.2022
794 Clouds 19 1013 98 10000 0.72 41 04:57 02.08.2022
795 Clouds 19 1013 99 10000 0.66 37 03:30 02.08.2022
796 Clouds 19 1013 97 10000 1.14 136 23:26 01.08.2022
797 Clouds 20 1013 97 10000 1.5 131 21:53 01.08.2022
798 Clouds 20 1013 96 10000 1.28 140 20:34 01.08.2022
799 Clouds 21 1012 95 10000 0.53 124 19:22 01.08.2022
800 Clouds 22 1011 94 10000 1.2 125 17:22 01.08.2022
801 Clouds 22 1011 94 10000 1.2 125 16:49 01.08.2022
802 Clouds 22 1011 94 10000 1.26 95 15:48 01.08.2022
803 Clouds 22 1012 95 10000 0.72 88 15:28 01.08.2022
804 Clouds 22 1013 94 10000 0.74 294 13:44 01.08.2022
805 Rain 21 1016 95 10000 0.09 114 11:38 01.08.2022
806 Rain 21 1017 100 7000 0 0 09:38 01.08.2022
807 Rain 21 1016 99 8304 0.65 120 08:20 01.08.2022
808 Rain 21 1014 99 6578 0.24 324 04:44 01.08.2022
809 Rain 21 1013 97 10000 1.26 256 02:31 01.08.2022
810 Rain 22 1014 97 10000 0.84 338 22:54 31.07.2022
811 Rain 22 1014 97 10000 0.84 338 22:36 31.07.2022
812 Rain 22 1013 95 10000 0.9 30 20:46 31.07.2022
813 Rain 22 1012 94 10000 0.96 3 18:52 31.07.2022
814 Clouds 24 1011 91 10000 0.94 25 17:43 31.07.2022
815 Rain 25 1011 87 10000 1.06 303 15:30 31.07.2022
816 Rain 28 1012 72 6150 0.92 301 13:21 31.07.2022
817 Rain 25 1016 83 8000 1.54 0 11:45 31.07.2022
818 Rain 24 1015 89 10000 0.8 62 09:18 31.07.2022
819 Rain 21 1013 99 10000 0.32 8 06:31 31.07.2022
820 Rain 21 1013 99 10000 0.58 43 02:56 31.07.2022
821 Clouds 21 1014 97 10000 0.25 49 23:23 30.07.2022
822 Clouds 22 1014 96 10000 0.92 101 21:55 30.07.2022
823 Clouds 22 1014 96 10000 0.92 101 21:37 30.07.2022
824 Clouds 22 1013 95 10000 1.09 85 20:38 30.07.2022
825 Clouds 22 1013 95 10000 1.04 93 19:57 30.07.2022
826 Clouds 25 1011 75 10000 1.02 58 18:23 30.07.2022
827 Clouds 27 1011 63 10000 1.46 56 16:44 30.07.2022
828 Clouds 28 1012 78 8000 2.06 160 15:34 30.07.2022
829 Clouds 29 1012 56 10000 1.78 30 14:26 30.07.2022
830 Clouds 26 1013 70 10000 1.98 28 12:43 30.07.2022
831 Clouds 24 1015 81 10000 1.87 24 11:55 30.07.2022
832 Clouds 22 1016 93 10000 1.06 34 10:20 30.07.2022
833 Clouds 22 1016 93 10000 1.06 34 09:42 30.07.2022
834 Clouds 21 1014 98 10000 1.32 44 07:44 30.07.2022
835 Rain 21 1012 98 10000 0.39 111 02:34 30.07.2022
836 Clouds 21 1013 97 10000 0.66 302 01:21 30.07.2022
837 Rain 22 1014 96 10000 0.14 290 21:39 29.07.2022
838 Clouds 22 1013 95 10000 0.3 142 20:58 29.07.2022
839 Clouds 25 1013 94 6000 0 0 19:48 29.07.2022
840 Clouds 24 1011 85 10000 0.59 77 17:40 29.07.2022
841 Clouds 28 1010 62 10000 1.31 320 14:53 29.07.2022
842 Clouds 24 1013 83 10000 0.85 51 12:59 29.07.2022
843 Clouds 23 1015 87 10000 1.33 357 09:49 29.07.2022
844 Clouds 23 1014 90 10000 1.78 353 08:48 29.07.2022
845 Clouds 22 1014 96 10000 1.59 21 07:39 29.07.2022
846 Rain 21 1012 98 10000 1.09 297 01:46 29.07.2022
847 Clouds 22 1013 96 10000 0.66 287 21:57 28.07.2022
848 Clouds 22 1013 96 10000 1 294 20:59 28.07.2022
849 Clouds 22 1012 96 10000 0.64 342 20:27 28.07.2022
850 Clouds 22 1012 96 10000 0.64 342 19:42 28.07.2022
851 Clouds 23 1011 95 10000 0.32 98 18:27 28.07.2022
852 Clouds 23 1011 95 10000 0.32 98 17:43 28.07.2022
853 Rain 23 1010 93 10000 0.35 77 16:41 28.07.2022
854 Rain 25 1010 86 10000 0.49 314 15:24 28.07.2022
855 Rain 23 1011 92 10000 1.06 331 12:51 28.07.2022
856 Rain 25 1013 80 10000 1.3 297 09:45 28.07.2022
857 Clouds 21 1011 98 10000 0.9 341 06:25 28.07.2022
858 Clouds 21 1010 98 10000 1.04 348 05:27 28.07.2022
859 Clouds 21 1010 98 10000 0.95 315 00:45 28.07.2022
860 Rain 21 1012 98 10000 0.06 340 22:34 27.07.2022
861 Clouds 22 1010 95 10000 1.21 33 21:27 27.07.2022
862 Rain 22 1009 94 10000 0.96 5 19:37 27.07.2022
863 Rain 25 1009 85 10000 0.99 322 17:39 27.07.2022
864 Clouds 28 1007 64 10000 1.28 313 15:52 27.07.2022
865 Rain 25 1011 78 7000 1.54 0 14:55 27.07.2022
866 Rain 28 1008 65 10000 1.11 334 14:33 27.07.2022
867 Rain 26 1010 79 10000 1.09 9 12:49 27.07.2022
868 Clouds 22 1011 96 10000 0.87 2 07:53 27.07.2022
869 Clouds 22 1012 94 10000 1.06 359 07:53 27.07.2022
870 Clouds 21 1011 99 10000 0.62 33 06:19 27.07.2022
871 Clouds 21 1010 98 10000 1.04 344 01:34 27.07.2022
872 Rain 21 1011 98 10000 1.27 343 22:26 26.07.2022
873 Rain 22 1012 98 9623 1.27 258 21:20 26.07.2022
874 Rain 22 1011 96 10000 1.24 285 20:25 26.07.2022
875 Rain 23 1010 92 10000 1.08 327 18:42 26.07.2022
876 Rain 23 1009 91 10000 0.87 33 17:58 26.07.2022
877 Haze 29 1009 70 5000 5.14 330 15:59 26.07.2022
878 Rain 26 1008 85 10000 0.66 66 15:18 26.07.2022
879 Rain 30 1010 62 10000 0.72 230 13:20 26.07.2022
880 Rain 26 1012 79 10000 0.08 242 11:20 26.07.2022
881 Clouds 24 1012 89 10000 1.2 339 08:55 26.07.2022
882 Clouds 21 1010 98 10000 0.38 74 05:49 26.07.2022
883 Clouds 22 1010 97 10000 0.48 270 00:37 26.07.2022
884 Clouds 22 1011 96 10000 0.86 8 22:53 25.07.2022
885 Clouds 22 1011 97 10000 1.07 110 22:25 25.07.2022
886 Clouds 22 1011 97 10000 1.07 110 21:41 25.07.2022
887 Rain 23 1011 96 10000 0.99 281 20:41 25.07.2022
888 Rain 22 1010 96 10000 0.68 183 19:33 25.07.2022
889 Rain 22 1009 96 10000 1.2 355 18:18 25.07.2022
890 Rain 22 1009 94 7211 2.27 27 17:27 25.07.2022
891 Rain 32 1010 58 10000 5.14 280 14:59 25.07.2022
892 Rain 30 1010 64 10000 1.79 199 12:22 25.07.2022
893 Clouds 29 1012 64 10000 1.39 18 09:50 25.07.2022
894 Clouds 22 1010 93 10000 0.67 134 04:25 25.07.2022
895 Clouds 23 1011 85 10000 0.33 144 23:54 24.07.2022
896 Clouds 24 1011 84 10000 0.1 186 22:59 24.07.2022
897 Clouds 24 1011 82 10000 0.52 120 22:29 24.07.2022
898 Clouds 25 1010 78 10000 0.71 98 21:23 24.07.2022
899 Clouds 25 1010 78 10000 0.71 98 20:50 24.07.2022
900 Clouds 25 1010 77 10000 1.03 107 20:26 24.07.2022
901 Clouds 26 1009 76 10000 1.08 111 18:46 24.07.2022
902 Clouds 28 1008 69 10000 0.52 110 16:29 24.07.2022
903 Clouds 30 1010 62 10000 3.09 250 15:50 24.07.2022
904 Clouds 31 1011 58 10000 3.09 230 14:35 24.07.2022
905 Clouds 30 1013 62 8000 3.09 270 12:54 24.07.2022
906 Rain 31 1011 52 10000 0.9 324 11:40 24.07.2022
907 Rain 30 1012 57 10000 0.83 284 11:18 24.07.2022
908 Clouds 25 1014 82 10000 0.39 283 08:33 24.07.2022
909 Fog 20 1013 100 800 0 0 07:52 24.07.2022
910 Clouds 21 1012 98 10000 0.65 341 06:18 24.07.2022
911 Clouds 21 1011 97 10000 1.1 354 01:27 24.07.2022
912 Rain 22 1012 96 10000 0.86 337 22:21 23.07.2022
913 Rain 22 1011 93 10000 0.69 343 20:28 23.07.2022
914 Rain 26 1011 65 7000 0 0 18:51 23.07.2022
915 Rain 25 1009 82 10000 0.04 76 17:29 23.07.2022
916 Rain 25 1009 82 10000 0.04 76 16:36 23.07.2022
917 Rain 27 1008 71 10000 0.46 142 15:32 23.07.2022
918 Clouds 30 1008 53 10000 0.11 171 14:59 23.07.2022
919 Clouds 30 1008 53 10000 0.11 171 14:30 23.07.2022
920 Clouds 25 1013 83 10000 3.09 260 13:39 23.07.2022
921 Clouds 29 1013 59 10000 1.87 340 11:18 23.07.2022
922 Clouds 26 1014 71 10000 1.69 345 10:22 23.07.2022
923 Clouds 24 1014 83 10000 1.1 352 08:50 23.07.2022
924 Rain 21 1010 97 10000 1.07 297 03:40 23.07.2022
925 Clouds 22 1010 96 10000 1.33 318 01:58 23.07.2022
926 Clouds 23 1012 94 10000 1.31 304 23:19 22.07.2022
927 Clouds 23 1011 93 10000 1.34 317 20:57 22.07.2022
928 Clouds 22 1011 95 10000 0.99 274 19:46 22.07.2022
929 Clouds 24 1009 90 10000 0.88 283 18:28 22.07.2022
930 Clouds 25 1009 84 10000 1.18 300 17:28 22.07.2022
931 Rain 25 1009 83 10000 1.46 307 14:57 22.07.2022
932 Rain 25 1014 83 8000 3.09 340 11:49 22.07.2022
933 Clouds 22 1012 93 10000 0.99 7 09:27 22.07.2022
934 Rain 23 1022 94 6000 2.06 320 08:43 22.07.2022
935 Clouds 22 1012 97 10000 1.4 22 07:20 22.07.2022
936 Clouds 22 1010 95 10000 1.05 31 03:59 22.07.2022
937 Clouds 22 1012 95 10000 0.39 344 22:53 21.07.2022
938 Rain 22 1011 94 10000 0.62 122 21:34 21.07.2022
939 Clouds 24 1009 82 10000 1.21 170 19:30 21.07.2022
940 Clouds 26 1008 75 10000 1.42 182 17:45 21.07.2022
941 Clouds 28 1008 64 10000 1.64 172 17:19 21.07.2022
942 Clouds 30 1007 54 10000 1.47 157 15:39 21.07.2022
943 Clouds 32 1008 49 10000 0.94 128 14:39 21.07.2022
944 Rain 28 1011 69 10000 0.33 8 12:46 21.07.2022
945 Rain 26 1012 75 10000 0.74 349 11:19 21.07.2022
946 Clouds 25 1013 78 10000 0.86 48 09:41 21.07.2022
947 Clouds 24 1012 86 10000 0.74 47 08:52 21.07.2022
948 Clouds 22 1012 92 10000 0.98 32 07:50 21.07.2022
949 Clouds 20 1011 97 10000 1.24 32 06:24 21.07.2022
950 Clouds 21 1010 96 10000 1.02 357 01:42 21.07.2022
951 Clouds 22 1011 94 10000 0.98 5 22:22 20.07.2022
952 Clouds 22 1011 94 10000 0.98 5 21:30 20.07.2022
953 Clouds 23 1010 92 10000 1.07 359 19:54 20.07.2022
954 Clouds 23 1009 91 10000 1.12 2 19:25 20.07.2022
955 Clouds 23 1009 91 10000 1.12 2 18:52 20.07.2022
956 Rain 25 1009 86 10000 1.15 5 18:27 20.07.2022
957 Rain 25 1008 80 10000 1.18 23 16:46 20.07.2022
958 Rain 27 1008 71 10000 0.55 66 15:32 20.07.2022
959 Clouds 32 1009 48 10000 0.63 109 14:26 20.07.2022
960 Clouds 32 1010 47 10000 0.48 60 12:34 20.07.2022
961 Clouds 27 1013 67 10000 0.42 59 10:24 20.07.2022
962 Clouds 20 1012 99 10000 0.34 341 04:50 20.07.2022
963 Clouds 21 1013 97 10000 0.73 285 00:54 20.07.2022
964 Clouds 21 1013 95 10000 0.75 291 00:25 20.07.2022
965 Clouds 21 1014 95 10000 0.56 309 22:34 19.07.2022
966 Clouds 21 1013 94 10000 0.69 349 21:53 19.07.2022
967 Clouds 21 1013 94 10000 0.37 359 20:48 19.07.2022
968 Clouds 21 1012 94 10000 0.43 61 19:21 19.07.2022
969 Clouds 21 1012 94 10000 0.43 61 18:34 19.07.2022
970 Clouds 22 1012 92 10000 0.33 36 17:51 19.07.2022
971 Clouds 22 1012 89 10000 0.91 307 15:21 19.07.2022
972 Rain 21 1015 96 10000 0.98 316 12:27 19.07.2022
973 Rain 21 1015 96 10000 0.98 316 11:31 19.07.2022
974 Clouds 21 1016 97 10000 0.67 326 09:51 19.07.2022
975 Rain 21 1016 98 10000 1 318 08:42 19.07.2022
976 Rain 21 1014 99 10000 0.97 350 07:19 19.07.2022
977 Rain 21 1013 99 10000 0.82 315 05:50 19.07.2022
978 Rain 21 1013 99 10000 0.69 304 05:18 19.07.2022
979 Rain 21 1013 99 10000 0.7 333 02:33 19.07.2022
980 Clouds 21 1014 97 10000 0.73 277 23:50 18.07.2022
981 Clouds 21 1014 97 10000 1.01 273 23:19 18.07.2022
982 Rain 21 1014 98 10000 1.17 292 22:23 18.07.2022
983 Rain 22 1014 97 10000 1.15 287 21:20 18.07.2022
984 Rain 22 1013 97 10000 1.09 296 19:54 18.07.2022
985 Clouds 23 1011 95 10000 0.78 291 18:24 18.07.2022
986 Rain 24 1010 90 10000 1.08 317 16:28 18.07.2022
987 Rain 24 1011 88 10000 1.33 314 15:26 18.07.2022
988 Rain 27 1011 69 10000 1.49 288 13:31 18.07.2022
989 Rain 24 1013 90 10000 1.42 352 11:34 18.07.2022
990 Rain 25 1014 80 10000 1.1 327 09:54 18.07.2022
991 Clouds 22 1013 94 10000 0.25 227 07:54 18.07.2022
992 Clouds 21 1012 96 10000 1.43 294 03:32 18.07.2022
993 Rain 22 1013 97 10000 1.03 140 22:56 17.07.2022
994 Rain 22 1013 95 10000 1.48 162 22:29 17.07.2022
995 Rain 22 1013 95 10000 1.48 162 21:35 17.07.2022
996 Rain 23 1012 91 10000 2.24 209 20:45 17.07.2022
997 Rain 22 1011 94 10000 1.03 202 19:49 17.07.2022
998 Rain 23 1010 91 8901 1.36 222 19:20 17.07.2022
999 Rain 26 1009 77 10000 0.52 168 17:43 17.07.2022
1000 Rain 28 1008 68 10000 0.66 53 17:25 17.07.2022
1001 Rain 28 1008 68 10000 0.66 53 16:32 17.07.2022
1002 Rain 28 1009 69 10000 1.13 96 15:49 17.07.2022
1003 Rain 27 1011 71 10000 1.45 175 13:51 17.07.2022
1004 Clouds 28 1011 65 10000 1.27 190 12:42 17.07.2022
1005 Clouds 26 1014 71 10000 0.39 311 10:20 17.07.2022
1006 Clouds 22 1012 94 10000 0.64 347 06:59 17.07.2022
1007 Clouds 22 1012 94 10000 0.64 347 06:59 17.07.2022
1008 Clouds 21 1011 95 10000 1.16 343 02:35 17.07.2022
1009 Clouds 21 1012 94 10000 0.81 328 23:26 16.07.2022
1010 Clouds 21 1012 95 10000 0.69 281 22:20 16.07.2022
1011 Rain 21 1012 94 10000 1.51 84 20:40 16.07.2022
1012 Rain 21 1010 92 10000 0.4 189 18:58 16.07.2022
1013 Rain 22 1010 88 10000 1.47 333 17:38 16.07.2022
1014 Rain 25 1008 75 10000 3.75 227 15:54 16.07.2022
1015 Rain 30 1011 62 10000 1.25 301 12:37 16.07.2022
1016 Clouds 28 1013 67 10000 1.6 17 10:28 16.07.2022
1017 Clouds 25 1013 80 10000 1.71 18 09:25 16.07.2022
1018 Clouds 25 1013 80 10000 1.71 18 08:40 16.07.2022
1019 Clouds 22 1012 95 10000 1.2 31 06:59 16.07.2022
1020 Clouds 22 1010 95 10000 0.5 62 03:33 16.07.2022
1021 Clouds 22 1011 91 10000 1.03 33 00:23 16.07.2022
1022 Clouds 22 1012 91 10000 1.13 37 22:54 15.07.2022
1023 Clouds 23 1011 89 10000 0.53 69 21:55 15.07.2022
1024 Rain 23 1011 88 10000 0.81 95 20:40 15.07.2022
1025 Clouds 26 1009 72 10000 0.51 227 18:55 15.07.2022
1026 Clouds 28 1008 64 10000 0.67 280 18:22 15.07.2022
1027 Clouds 31 1007 51 10000 0.11 306 16:46 15.07.2022
1028 Clouds 34 1009 39 10000 0.31 132 14:19 15.07.2022
1029 Clouds 33 1011 44 10000 0.73 23 12:28 15.07.2022
1030 Clouds 31 1012 50 10000 0.97 33 10:52 15.07.2022
1031 Mist 19 1013 100 2000 0 0 07:48 15.07.2022
1032 Clouds 20 1010 96 10000 1.11 318 02:51 15.07.2022
1033 Clouds 21 1011 95 10000 0.66 333 00:40 15.07.2022
1034 Clouds 21 1012 94 10000 1.06 322 22:56 14.07.2022
1035 Clouds 21 1012 93 10000 1.22 319 22:19 14.07.2022
1036 Clouds 21 1012 93 10000 1.22 319 21:39 14.07.2022
1037 Clouds 22 1012 92 10000 1.34 300 21:19 14.07.2022
1038 Clouds 22 1012 92 10000 1.34 300 20:42 14.07.2022
1039 Clouds 22 1011 91 10000 1.17 302 20:18 14.07.2022
1040 Rain 24 1010 82 10000 2.38 300 17:59 14.07.2022
1041 Rain 27 1008 67 10000 1.22 327 16:19 14.07.2022
1042 Clouds 26 1009 71 10000 0.46 32 14:56 14.07.2022
1043 Rain 24 1011 83 10000 0.9 34 13:51 14.07.2022
1044 Rain 24 1012 83 10000 1.94 62 12:34 14.07.2022
1045 Clouds 28 1013 63 10000 1.62 53 11:26 14.07.2022
1046 Clouds 28 1013 63 10000 1.62 53 10:51 14.07.2022
1047 Clouds 27 1014 67 10000 1.11 36 08:52 14.07.2022
1048 Clouds 21 1012 90 10000 0.54 115 04:45 14.07.2022
1049 Clouds 23 1011 79 10000 1.11 12 01:19 14.07.2022
1050 Clouds 23 1011 79 10000 1.11 12 00:51 14.07.2022
1051 Clouds 23 1012 80 10000 1.13 61 22:31 13.07.2022
1052 Clouds 23 1012 79 10000 1 46 21:42 13.07.2022
1053 Clouds 23 1012 77 10000 1.02 33 20:41 13.07.2022
1054 Clouds 25 1011 70 10000 1.3 60 18:40 13.07.2022
1055 Clouds 28 1009 59 10000 1.27 110 17:31 13.07.2022
1056 Clouds 28 1009 59 10000 1.27 110 17:31 13.07.2022
1057 Clouds 28 1009 59 10000 1.27 110 17:31 13.07.2022
1058 Clouds 30 1008 48 10000 0.57 70 16:19 13.07.2022
1059 Clouds 33 1008 38 10000 0.23 114 14:46 13.07.2022
1060 Clouds 33 1008 38 10000 0.23 114 14:46 13.07.2022
1061 Rain 30 1013 52 10000 0.96 307 11:54 13.07.2022
1062 Clouds 25 1014 80 10000 1.08 324 10:45 13.07.2022
1063 Rain 22 1014 92 10000 0.16 24 09:54 13.07.2022
1064 Clouds 22 1014 94 10000 0.44 333 09:20 13.07.2022
1065 Clouds 22 1011 95 10000 0.65 303 05:22 13.07.2022
1066 Clouds 22 1012 94 10000 0.76 339 01:22 13.07.2022
1067 Clouds 22 1012 94 10000 0.69 267 23:35 12.07.2022
1068 Rain 22 1012 95 10000 1.02 55 21:53 12.07.2022
1069 Rain 22 1013 95 10000 1.16 52 20:58 12.07.2022
1070 Rain 22 1013 95 10000 1.16 52 20:37 12.07.2022
1071 Rain 24 1011 84 10000 1.76 217 18:53 12.07.2022
1072 Clouds 28 1009 58 10000 1.55 226 17:32 12.07.2022
1073 Clouds 32 1008 42 10000 1.83 261 15:37 12.07.2022
1074 Clouds 31 1010 48 10000 1.22 291 13:55 12.07.2022
1075 Clouds 26 1013 74 10000 0.84 32 11:59 12.07.2022
1076 Clouds 25 1014 80 10000 0.65 45 10:47 12.07.2022
1077 Clouds 23 1014 92 10000 0.62 163 09:22 12.07.2022
1078 Clouds 22 1013 93 10000 0.52 28 08:18 12.07.2022
1079 Clouds 22 1012 92 10000 0.92 43 05:57 12.07.2022
1080 Clouds 22 1012 92 10000 0.92 43 05:39 12.07.2022
1081 Clouds 22 1010 92 10000 0.76 7 01:56 12.07.2022
1082 Clouds 22 1010 92 10000 0.76 7 01:56 12.07.2022
1083 Clouds 22 1010 92 10000 0.76 7 01:56 12.07.2022
1084 Clouds 23 1011 89 10000 0.7 312 22:59 11.07.2022
1085 Clouds 23 1011 88 10000 1.23 3 21:45 11.07.2022
1086 Rain 23 1011 87 10000 1.59 343 20:33 11.07.2022
1087 Clouds 24 1010 83 10000 1.14 24 19:33 11.07.2022
1088 Clouds 24 1009 83 10000 1 5 18:32 11.07.2022
1089 Clouds 25 1009 79 10000 1.43 348 17:36 11.07.2022
1090 Clouds 31 1007 47 10000 1.65 307 16:18 11.07.2022
1091 Clouds 33 1008 39 10000 0.74 83 14:32 11.07.2022
1092 Clouds 30 1011 49 10000 0.58 205 11:40 11.07.2022
1093 Clouds 29 1013 53 10000 0.47 48 10:22 11.07.2022
1094 Clouds 30 1012 52 10000 0.3 295 09:42 11.07.2022
1095 Clouds 27 1012 61 10000 0.19 172 08:33 11.07.2022
1096 Clouds 21 1010 79 10000 0.78 38 04:34 11.07.2022
1097 Clouds 23 1011 70 10000 0.76 339 00:20 11.07.2022
1098 Clouds 23 1011 68 10000 0.38 318 22:56 10.07.2022
1099 Clouds 24 1011 67 10000 0.26 280 21:41 10.07.2022
1100 Clouds 25 1010 64 10000 0.31 38 20:54 10.07.2022
1101 Clouds 25 1009 67 10000 1.01 15 19:50 10.07.2022
1102 Clouds 25 1009 65 10000 1.46 35 18:48 10.07.2022
1103 Clouds 28 1008 57 10000 0.94 31 17:37 10.07.2022
1104 Clouds 30 1007 48 10000 0.06 165 16:45 10.07.2022
1105 Clouds 31 1007 44 10000 1.03 154 15:28 10.07.2022
1106 Clouds 33 1008 40 10000 1.57 141 14:21 10.07.2022
1107 Rain 33 1011 48 10000 0.79 119 12:28 10.07.2022
1108 Rain 27 1013 73 10000 0.72 68 10:20 10.07.2022
1109 Rain 25 1014 80 10000 0.77 43 08:45 10.07.2022
1110 Rain 25 1014 80 10000 0.77 43 08:45 10.07.2022
1111 Clouds 23 1013 85 10000 0.75 45 07:30 10.07.2022
1112 Clouds 24 1010 68 10000 0.76 318 02:47 10.07.2022
1113 Clouds 26 1011 42 10000 1.12 308 22:51 09.07.2022
1114 Clouds 25 1011 42 10000 0.51 162 22:24 09.07.2022
1115 Clear 26 1010 41 10000 0.66 160 20:50 09.07.2022
1116 Clouds 27 1009 37 10000 0.95 20 18:38 09.07.2022
1117 Clouds 30 1008 35 10000 0.51 18 17:45 09.07.2022
1118 Clouds 34 1008 24 10000 0.57 297 16:44 09.07.2022
1119 Clouds 35 1008 21 10000 1.21 273 15:41 09.07.2022
1120 Clouds 36 1008 20 10000 1.48 265 14:43 09.07.2022
1121 Clouds 36 1009 21 10000 1.94 242 13:51 09.07.2022
1122 Clouds 35 1010 21 10000 1.85 232 12:48 09.07.2022
1123 Clouds 35 1012 24 10000 1.58 206 11:32 09.07.2022
1124 Clouds 30 1013 34 10000 1.89 181 10:23 09.07.2022
1125 Clouds 25 1013 53 10000 0.63 213 07:54 09.07.2022
1126 Clouds 21 1012 67 10000 0.09 111 05:37 09.07.2022
1127 Clouds 22 1011 64 10000 0.54 165 03:29 09.07.2022
1128 Clouds 25 1012 51 10000 0.93 195 23:18 08.07.2022
1129 Clouds 26 1012 50 10000 0.86 188 21:59 08.07.2022
1130 Clouds 26 1011 49 10000 0.73 197 20:55 08.07.2022
1131 Clouds 27 1011 47 10000 0.8 179 20:24 08.07.2022
1132 Clouds 29 1009 44 10000 1 181 18:29 08.07.2022
1133 Clouds 33 1008 32 10000 1.32 188 17:25 08.07.2022
1134 Clouds 36 1008 26 10000 1.92 177 14:55 08.07.2022
1135 Clouds 35 1010 28 10000 2.17 186 13:56 08.07.2022
1136 Clouds 34 1012 32 10000 1.71 171 12:28 08.07.2022
1137 Clouds 33 1012 37 10000 1.37 159 10:37 08.07.2022
1138 Clouds 28 1013 53 10000 0.33 184 08:51 08.07.2022
1139 Clouds 21 1014 77 10000 0.21 175 06:54 08.07.2022
1140 Clouds 22 1012 73 10000 0.16 218 02:53 08.07.2022
1141 Clouds 23 1012 73 10000 0.79 355 23:41 07.07.2022
1142 Clouds 23 1012 72 10000 0.94 10 22:40 07.07.2022
1143 Clouds 24 1011 67 10000 0.97 338 20:56 07.07.2022
1144 Clouds 26 1010 59 10000 0.9 317 18:42 07.07.2022
1145 Clouds 29 1009 54 10000 0.55 236 17:41 07.07.2022
1146 Clouds 34 1009 35 10000 1.84 196 15:22 07.07.2022
1147 Clouds 35 1010 30 10000 1.66 164 13:26 07.07.2022
1148 Clouds 35 1010 30 10000 1.66 164 12:40 07.07.2022
1149 Clear 35 1012 33 10000 1.44 169 12:20 07.07.2022
1150 Clear 35 1012 33 10000 1.44 169 11:31 07.07.2022
1151 Clear 33 1012 38 10000 1.25 185 10:44 07.07.2022
1152 Clear 31 1013 46 10000 1.05 175 10:25 07.07.2022
1153 Clear 25 1013 68 10000 0.55 341 07:40 07.07.2022
1154 Clear 22 1012 80 10000 0.52 324 04:42 07.07.2022
1155 Clouds 24 1012 67 10000 0.5 150 23:37 06.07.2022
1156 Clouds 24 1012 66 10000 0.72 159 23:19 06.07.2022
1157 Clouds 24 1012 66 10000 0.72 159 22:57 06.07.2022
1158 Clouds 24 1012 66 10000 0.72 159 22:38 06.07.2022
1159 Clouds 24 1012 64 10000 1.06 148 21:46 06.07.2022
1160 Clouds 26 1011 58 10000 0.17 281 19:41 06.07.2022
1161 Clouds 27 1010 57 10000 0.48 207 18:32 06.07.2022
1162 Clouds 29 1009 55 10000 1.21 219 16:27 06.07.2022
1163 Clouds 31 1009 49 10000 1.51 221 15:28 06.07.2022
1164 Clear 35 1011 36 10000 0.7 259 12:43 06.07.2022
1165 Clear 34 1013 41 10000 0.56 242 11:49 06.07.2022
1166 Clear 30 1014 55 10000 0.62 319 10:20 06.07.2022
1167 Clouds 24 1014 74 10000 0.25 305 08:26 06.07.2022
1168 Clouds 24 1014 71 10000 0.15 337 07:36 06.07.2022
1169 Clouds 20 1012 87 10000 0.71 334 05:31 06.07.2022
1170 Clear 23 1012 74 10000 0.56 51 22:48 05.07.2022
1171 Clear 23 1012 74 10000 0.78 42 21:59 05.07.2022
1172 Clear 23 1011 74 10000 0.8 43 20:41 05.07.2022
1173 Clouds 24 1011 70 10000 1.04 43 19:43 05.07.2022
1174 Clouds 25 1010 69 10000 1.21 12 19:22 05.07.2022
1175 Clouds 28 1009 59 10000 1.98 16 17:48 05.07.2022
1176 Clouds 32 1008 41 10000 1.6 42 16:56 05.07.2022
1177 Clouds 33 1008 35 10000 0.65 171 15:37 05.07.2022
1178 Clouds 33 1009 37 10000 0.8 213 14:31 05.07.2022
1179 Clouds 34 1012 38 10000 0.36 144 12:47 05.07.2022
1180 Clouds 33 1013 44 10000 0.51 28 11:49 05.07.2022
1181 Clouds 31 1014 51 10000 0.79 45 10:40 05.07.2022
1182 Clouds 27 1014 67 10000 0.97 136 09:24 05.07.2022
1183 Clouds 24 1014 79 10000 0.54 52 07:52 05.07.2022
1184 Clear 21 1012 92 10000 0.88 8 05:29 05.07.2022
1185 Clear 21 1011 91 10000 1.09 25 04:24 05.07.2022
1186 Clouds 23 1012 77 10000 0.75 24 00:26 05.07.2022
1187 Clouds 23 1012 77 10000 0.75 24 23:31 04.07.2022
1188 Clouds 23 1013 74 10000 1.03 30 22:47 04.07.2022
1189 Clouds 24 1012 68 10000 0.95 29 21:46 04.07.2022
1190 Clouds 25 1012 64 10000 0.15 171 20:53 04.07.2022
1191 Clouds 25 1012 64 10000 0.15 171 20:34 04.07.2022
1192 Clouds 25 1011 60 10000 0.51 141 19:55 04.07.2022
1193 Clouds 25 1011 60 10000 0.48 98 19:35 04.07.2022
1194 Clouds 26 1010 61 10000 1.03 219 17:58 04.07.2022
1195 Clouds 29 1010 55 10000 1.12 157 15:58 04.07.2022
1196 Clouds 29 1010 55 10000 1.12 157 15:33 04.07.2022
1197 Clouds 34 1012 40 10000 0.97 149 13:29 04.07.2022
1198 Clouds 34 1012 40 10000 0.97 149 12:30 04.07.2022
1199 Clouds 31 1014 48 10000 1.14 136 10:34 04.07.2022
1200 Clouds 30 1014 54 10000 1.12 111 09:52 04.07.2022
1201 Clouds 24 1014 75 10000 0.46 61 07:37 04.07.2022
1202 Clear 21 1013 86 10000 0.89 6 04:57 04.07.2022
1203 Clouds 22 1012 80 10000 0.77 23 00:39 04.07.2022
1204 Clouds 23 1013 75 10000 0.51 139 22:59 03.07.2022
1205 Clouds 25 1012 67 10000 0.96 193 20:58 03.07.2022
1206 Clouds 25 1012 67 10000 0.96 193 20:31 03.07.2022
1207 Clouds 25 1012 79 10000 0.43 359 19:28 03.07.2022
1208 Clouds 25 1012 79 10000 0.43 359 18:43 03.07.2022
1209 Clouds 26 1011 77 10000 0.71 12 17:44 03.07.2022
1210 Clouds 27 1011 69 10000 0.9 35 15:54 03.07.2022
1211 Clouds 27 1011 66 10000 0.77 70 14:59 03.07.2022
1212 Clouds 31 1011 49 10000 0.72 108 14:18 03.07.2022
1213 Clouds 32 1012 43 10000 0.98 132 13:48 03.07.2022
1214 Clouds 33 1013 42 10000 0.6 124 12:33 03.07.2022
1215 Clouds 30 1015 52 10000 0.18 332 11:28 03.07.2022
1216 Clouds 30 1015 52 10000 0.18 332 10:38 03.07.2022
1217 Clouds 28 1015 58 10000 0.3 133 09:42 03.07.2022
1218 Clouds 23 1015 86 10000 0.17 14 07:35 03.07.2022
1219 Clouds 21 1013 96 10000 0.8 315 03:46 03.07.2022
1220 Clouds 21 1014 96 10000 0.99 316 00:21 03.07.2022
1221 Clouds 21 1014 96 10000 1.23 325 22:33 02.07.2022
1222 Clouds 22 1014 94 10000 0.84 262 21:28 02.07.2022
1223 Clouds 22 1014 95 10000 0.3 330 19:52 02.07.2022
1224 Clouds 22 1012 95 10000 1.02 217 19:20 02.07.2022
1225 Rain 23 1012 94 10000 1.39 282 17:42 02.07.2022
1226 Rain 24 1011 91 10000 1.68 261 16:53 02.07.2022
1227 Rain 26 1011 83 7606 1.49 257 14:40 02.07.2022
1228 Rain 30 1013 61 10000 1.15 259 12:21 02.07.2022
1229 Clouds 30 1014 58 10000 0.94 259 11:27 02.07.2022
1230 Clouds 30 1014 58 10000 0.94 259 10:43 02.07.2022
1231 Clouds 25 1015 84 10000 1.37 353 09:25 02.07.2022
1232 Rain 23 1014 93 10000 1.29 341 08:20 02.07.2022
1233 Mist 21 1015 100 2500 2.06 320 07:48 02.07.2022
1234 Clouds 21 1011 95 10000 0.93 329 02:50 02.07.2022
1235 Clouds 21 1012 94 10000 1.05 331 23:59 01.07.2022
1236 Clouds 22 1013 94 10000 1.07 299 22:41 01.07.2022
1237 Clouds 22 1013 91 10000 0.5 339 21:49 01.07.2022
1238 Rain 23 1012 88 10000 1.24 106 21:29 01.07.2022
1239 Rain 23 1012 88 10000 1.24 106 20:43 01.07.2022
1240 Clouds 24 1011 84 10000 1.32 127 19:47 01.07.2022
1241 Rain 24 1010 80 10000 0.85 65 17:53 01.07.2022
1242 Rain 28 1009 61 10000 2.07 54 16:22 01.07.2022
1243 Clouds 32 1010 44 10000 1.99 161 13:55 01.07.2022
1244 Clouds 33 1011 45 10000 1.19 171 12:55 01.07.2022
1245 Clouds 27 1014 65 10000 0.54 53 10:20 01.07.2022
1246 Clouds 27 1014 65 10000 0.54 53 09:47 01.07.2022
1247 Clear 21 1011 82 10000 1.24 339 05:25 01.07.2022
1248 Clouds 23 1011 71 10000 0.64 161 00:42 01.07.2022
1249 Clouds 23 1011 69 10000 0.57 161 23:22 30.06.2022
1250 Clouds 23 1011 69 10000 0.57 161 22:44 30.06.2022
1251 Clouds 24 1011 68 10000 1.04 142 22:25 30.06.2022
1252 Clouds 24 1011 68 10000 1.04 142 21:45 30.06.2022
1253 Clouds 24 1011 66 10000 1.2 151 20:30 30.06.2022
1254 Clouds 25 1010 64 10000 1.14 169 19:55 30.06.2022
1255 Clouds 26 1010 62 10000 1.33 172 19:26 30.06.2022
1256 Clouds 26 1010 62 10000 1.33 172 18:42 30.06.2022
1257 Clouds 28 1009 57 10000 1.33 157 17:44 30.06.2022
1258 Clouds 32 1008 43 10000 1.28 154 16:55 30.06.2022
1259 Clouds 33 1008 35 10000 1.25 136 15:44 30.06.2022
1260 Clouds 35 1009 35 10000 0.64 130 13:49 30.06.2022
1261 Clouds 34 1010 37 10000 0.36 137 12:36 30.06.2022
1262 Clouds 33 1011 40 10000 0.54 55 11:56 30.06.2022
1263 Clouds 29 1013 56 10000 0.8 46 09:55 30.06.2022
1264 Clouds 29 1013 56 10000 0.8 46 09:37 30.06.2022
1265 Clouds 23 1013 83 10000 0.65 41 08:19 30.06.2022
1266 Clouds 23 1013 83 10000 0.65 41 08:19 30.06.2022
1267 Clouds 21 1013 92 10000 0.84 58 07:24 30.06.2022
1268 Clouds 21 1011 95 10000 0.57 60 02:49 30.06.2022
1269 Clouds 21 1012 94 10000 0.81 82 23:38 29.06.2022
1270 Clouds 21 1013 94 10000 0.45 92 22:41 29.06.2022
1271 Clouds 21 1013 94 10000 0.29 52 21:58 29.06.2022
1272 Clouds 22 1013 94 10000 0.48 78 20:34 29.06.2022
1273 Clouds 22 1012 92 10000 0.79 37 19:55 29.06.2022
1274 Rain 24 1011 83 10000 1.44 359 17:55 29.06.2022
1275 Clouds 26 1011 73 10000 1.09 31 16:51 29.06.2022
1276 Clouds 28 1010 61 10000 0.54 78 15:33 29.06.2022
1277 Clouds 31 1010 46 10000 1.48 145 13:36 29.06.2022
1278 Rain 31 1013 50 10000 0.7 240 12:24 29.06.2022
1279 Clouds 28 1015 64 10000 0.34 306 09:43 29.06.2022
1280 Clouds 24 1015 79 10000 0.35 5 09:21 29.06.2022
1281 Clouds 20 1014 97 10000 0.76 3 06:27 29.06.2022
1282 Clouds 20 1013 91 10000 0.78 277 02:21 29.06.2022
1283 Clouds 21 1013 81 10000 0.61 309 00:38 29.06.2022
1284 Clouds 22 1013 70 10000 0.82 317 23:55 28.06.2022
1285 Clouds 22 1013 65 10000 1.4 328 22:48 28.06.2022
1286 Clouds 22 1013 64 10000 0.5 321 21:55 28.06.2022
1287 Clouds 22 1013 64 10000 0.5 321 21:33 28.06.2022
1288 Clouds 22 1013 64 10000 0.29 295 20:57 28.06.2022
1289 Clouds 23 1011 83 10000 0.18 47 19:50 28.06.2022
1290 Clouds 23 1010 84 10000 0.38 80 19:24 28.06.2022
1291 Clouds 23 1010 84 10000 0.38 80 18:37 28.06.2022
1292 Clouds 25 1010 76 10000 0.85 31 16:35 28.06.2022
1293 Clouds 24 1010 82 10000 0.85 29 15:54 28.06.2022
1294 Clouds 24 1010 83 10000 1 69 14:48 28.06.2022
1295 Clouds 25 1011 78 10000 1.31 64 14:18 28.06.2022
1296 Clouds 26 1011 76 10000 0.82 74 13:45 28.06.2022
1297 Clouds 26 1012 70 10000 0.89 78 11:58 28.06.2022
1298 Clouds 27 1013 67 10000 0.82 40 09:50 28.06.2022
1299 Clouds 26 1014 72 10000 0.73 35 08:54 28.06.2022
1300 Clouds 23 1013 84 10000 0.33 83 07:58 28.06.2022
1301 Clouds 21 1013 93 10000 0.93 180 07:20 28.06.2022
1302 Clouds 22 1010 92 10000 0.5 354 02:41 28.06.2022
1303 Clouds 21 1012 90 10000 0.31 16 23:49 27.06.2022
1304 Clouds 22 1012 89 10000 0.57 57 22:56 27.06.2022
1305 Clouds 22 1012 88 10000 0.23 58 21:39 27.06.2022
1306 Clouds 22 1012 87 10000 0.23 73 21:21 27.06.2022
1307 Clouds 23 1011 86 10000 0.44 263 19:54 27.06.2022
1308 Rain 23 1011 86 10000 0.17 0 18:45 27.06.2022
1309 Rain 29 1009 60 10000 0.95 312 17:26 27.06.2022
1310 Clouds 30 1009 53 10000 1.37 265 15:43 27.06.2022
1311 Clouds 31 1010 48 10000 2.01 339 14:18 27.06.2022
1312 Clouds 30 1011 52 10000 1.52 341 12:58 27.06.2022
1313 Clouds 29 1012 60 10000 1.39 351 11:30 27.06.2022
1314 Clouds 28 1013 65 10000 0.48 35 09:45 27.06.2022
1315 Clouds 24 1014 80 10000 0.46 105 08:40 27.06.2022
1316 Mist 21 1013 94 1500 2.06 20 07:39 27.06.2022
1317 Clouds 20 1012 95 10000 0.74 61 05:19 27.06.2022
1318 Clouds 21 1012 93 10000 0.44 146 01:21 27.06.2022
1319 Clouds 22 1012 93 10000 0.41 219 22:58 26.06.2022
1320 Clouds 21 1013 93 10000 1.01 215 21:37 26.06.2022
1321 Rain 21 1012 94 10000 0.98 49 20:28 26.06.2022
1322 Rain 21 1011 93 10000 1.35 67 18:33 26.06.2022
1323 Rain 22 1011 93 10000 0.79 252 17:38 26.06.2022
1324 Rain 26 1009 77 10000 1.44 78 15:36 26.06.2022
1325 Clouds 32 1010 45 10000 1.41 62 13:59 26.06.2022
1326 Clouds 33 1011 43 10000 0.93 110 13:23 26.06.2022
1327 Clouds 32 1012 45 10000 0.75 117 11:39 26.06.2022
1328 Clouds 31 1013 51 10000 0.79 84 10:42 26.06.2022
1329 Clouds 29 1013 59 10000 0.87 59 09:55 26.06.2022
1330 Clouds 22 1014 95 10000 0.78 10 07:47 26.06.2022
1331 Clouds 22 1014 95 10000 0.78 10 07:47 26.06.2022
1332 Rain 21 1012 96 10000 1.39 25 05:26 26.06.2022
1333 Clouds 21 1012 93 10000 0.39 72 00:36 26.06.2022
1334 Clouds 22 1012 92 10000 0.82 56 00:18 26.06.2022
1335 Clouds 22 1013 93 10000 0.8 43 23:29 25.06.2022
1336 Clouds 22 1013 93 10000 0.8 43 22:42 25.06.2022
1337 Rain 22 1012 93 10000 0.77 38 22:24 25.06.2022
1338 Rain 23 1012 90 10000 0.99 74 21:21 25.06.2022
1339 Rain 23 1012 90 10000 0.99 74 20:36 25.06.2022
1340 Clouds 23 1011 87 10000 1.06 75 19:56 25.06.2022
1341 Clouds 23 1010 83 10000 0.9 94 18:22 25.06.2022
1342 Clouds 24 1010 81 10000 0.59 35 17:26 25.06.2022
1343 Clouds 25 1010 76 10000 0.85 359 16:26 25.06.2022
1344 Clouds 26 1011 66 10000 0.6 61 14:29 25.06.2022
1345 Clouds 26 1012 67 10000 0.84 31 12:45 25.06.2022
1346 Clouds 25 1013 70 10000 1.01 29 11:55 25.06.2022
1347 Clouds 23 1014 83 10000 1.71 32 09:24 25.06.2022
1348 Clouds 23 1014 83 10000 1.71 32 08:49 25.06.2022
1349 Clouds 23 1013 87 10000 1.83 41 08:20 25.06.2022
1350 Rain 21 1013 97 10000 1.57 31 06:34 25.06.2022
1351 Clouds 23 1010 84 10000 1.23 44 00:44 25.06.2022
1352 Clouds 23 1010 84 10000 1.23 44 00:44 25.06.2022
1353 Clouds 23 1011 82 10000 1.08 20 23:46 24.06.2022
1354 Clouds 24 1011 74 10000 1.32 25 22:25 24.06.2022
1355 Clouds 25 1010 70 10000 0.32 348 21:22 24.06.2022
1356 Clouds 25 1009 73 10000 0.78 346 20:23 24.06.2022
1357 Clouds 25 1008 73 10000 0.85 326 19:24 24.06.2022
1358 Clouds 25 1008 73 10000 0.85 326 18:51 24.06.2022
1359 Clouds 25 1008 73 10000 0.85 326 18:31 24.06.2022
1360 Clouds 27 1008 69 10000 1.07 318 17:47 24.06.2022
1361 Clouds 29 1007 62 10000 0.76 321 16:34 24.06.2022
1362 Clouds 32 1008 47 10000 0.92 223 14:30 24.06.2022
1363 Clouds 33 1008 41 10000 1.18 207 13:58 24.06.2022
1364 Clouds 33 1008 41 10000 1.18 207 13:58 24.06.2022
1365 Clouds 33 1010 44 10000 0.91 219 12:49 24.06.2022
1366 Clouds 32 1011 49 10000 0.86 226 11:40 24.06.2022
1367 Clouds 30 1012 55 10000 0.97 212 10:34 24.06.2022
1368 Clouds 28 1012 66 10000 0.84 230 09:41 24.06.2022
1369 Clouds 25 1012 81 10000 0.71 261 08:53 24.06.2022
1370 Clouds 25 1012 81 10000 0.71 261 08:53 24.06.2022
1371 Mist 22 1012 94 3000 0 0 07:39 24.06.2022
1372 Clouds 21 1012 95 10000 0.73 241 06:42 24.06.2022
1373 Clouds 20 1012 97 10000 0.4 271 06:18 24.06.2022
1374 Clouds 21 1010 96 10000 0.43 310 03:33 24.06.2022
1375 Clouds 21 1011 95 10000 0.28 243 22:59 23.06.2022
1376 Clouds 21 1011 95 10000 0.28 243 22:40 23.06.2022
1377 Clouds 22 1011 95 10000 1.33 226 20:58 23.06.2022
1378 Clouds 22 1011 95 10000 1.33 226 20:35 23.06.2022
1379 Rain 22 1011 95 10000 0.62 270 19:40 23.06.2022
1380 Rain 24 1010 88 10000 1.23 266 17:53 23.06.2022
1381 Rain 26 1009 78 10000 1.08 190 17:23 23.06.2022
1382 Clouds 27 1008 68 10000 1.22 192 15:57 23.06.2022
1383 Clouds 31 1008 54 10000 1.43 213 15:24 23.06.2022
1384 Clouds 33 1009 43 10000 0.82 187 13:45 23.06.2022
1385 Clouds 29 1012 61 10000 0.87 328 11:27 23.06.2022
1386 Clouds 29 1012 61 10000 0.87 328 10:37 23.06.2022
1387 Clouds 25 1012 80 10000 0.62 1 09:18 23.06.2022
1388 Rain 21 1010 99 10000 0.34 312 03:40 23.06.2022
1389 Clouds 22 1011 96 10000 0.78 153 00:27 23.06.2022
1390 Clouds 22 1011 96 10000 0.78 153 23:41 22.06.2022
1391 Rain 22 1011 96 10000 1.02 167 22:41 22.06.2022
1392 Rain 23 1010 86 10000 0.62 166 21:22 22.06.2022
1393 Rain 23 1010 86 10000 0.62 166 20:45 22.06.2022
1394 Rain 23 1009 87 10000 0.94 273 19:58 22.06.2022
1395 Rain 23 1009 85 10000 1.39 263 18:49 22.06.2022
1396 Clouds 25 1008 78 10000 0.7 76 17:28 22.06.2022
1397 Clouds 25 1008 78 10000 0.7 76 17:28 22.06.2022
1398 Clouds 25 1008 78 10000 0.7 76 16:33 22.06.2022
1399 Clouds 29 1008 60 10000 1.46 140 15:27 22.06.2022
1400 Clouds 32 1008 49 10000 1.38 173 14:21 22.06.2022
1401 Clouds 33 1008 45 10000 0.56 194 13:42 22.06.2022
1402 Clouds 33 1009 45 10000 0.47 214 13:23 22.06.2022
1403 Rain 32 1010 50 10000 0.31 313 11:50 22.06.2022
1404 Rain 32 1010 50 10000 0.31 313 11:50 22.06.2022
1405 Rain 32 1010 50 10000 0.31 313 11:50 22.06.2022
1406 Rain 30 1011 57 10000 1.27 1 10:57 22.06.2022
1407 Clouds 28 1012 64 10000 1.37 21 10:19 22.06.2022
1408 Clouds 25 1012 80 10000 0.93 10 08:37 22.06.2022
1409 Rain 20 1011 97 10000 0.99 50 05:38 22.06.2022
1410 Clouds 21 1010 88 10000 0.97 19 01:39 22.06.2022
1411 Clouds 22 1010 85 10000 0.51 317 00:36 22.06.2022
1412 Clouds 22 1011 84 10000 0.57 201 22:37 21.06.2022
1413 Clouds 23 1010 83 10000 1.58 197 19:57 21.06.2022
1414 Clouds 23 1010 81 10000 1.41 182 18:51 21.06.2022
1415 Clouds 25 1009 76 10000 1.32 166 17:40 21.06.2022
1416 Clouds 29 1009 57 10000 1.41 206 14:42 21.06.2022
1417 Rain 28 1012 73 6571 0.49 104 11:52 21.06.2022
1418 Rain 28 1014 68 10000 0.46 279 10:19 21.06.2022
1419 Clouds 24 1014 85 10000 0.34 219 08:48 21.06.2022
1420 Clouds 22 1014 93 10000 0.57 81 07:35 21.06.2022
1421 Clouds 21 1013 97 10000 0.75 183 02:27 21.06.2022
1422 Rain 21 1014 98 10000 0.71 142 23:26 20.06.2022
1423 Rain 21 1014 97 10000 0.79 173 21:58 20.06.2022
1424 Rain 21 1014 97 10000 0.79 173 21:30 20.06.2022
1425 Clouds 22 1012 91 10000 0.86 162 19:49 20.06.2022
1426 Clouds 23 1012 90 10000 1.01 185 18:53 20.06.2022
1427 Clouds 24 1012 87 10000 1.14 180 18:23 20.06.2022
1428 Clouds 24 1012 87 10000 1.14 180 17:36 20.06.2022
1429 Rain 28 1011 69 10000 0.96 191 15:58 20.06.2022
1430 Clouds 28 1012 63 10000 0.38 13 14:18 20.06.2022
1431 Clouds 26 1015 70 10000 0.37 293 11:30 20.06.2022
1432 Clouds 25 1016 81 10000 0.27 168 09:48 20.06.2022
1433 Clouds 23 1016 89 10000 0.16 128 08:45 20.06.2022
1434 Clouds 21 1014 98 10000 0.56 83 06:59 20.06.2022
1435 Clouds 20 1013 99 10000 0.72 108 03:29 20.06.2022
1436 Clouds 21 1013 98 10000 0.19 316 00:37 20.06.2022
1437 Clouds 21 1014 98 10000 0.4 20 23:25 19.06.2022
1438 Clouds 21 1014 98 10000 0.54 30 22:19 19.06.2022
1439 Clouds 21 1014 98 10000 0.54 30 21:41 19.06.2022
1440 Rain 21 1014 97 10000 0.79 59 20:46 19.06.2022
1441 Rain 22 1013 95 10000 0.56 294 19:48 19.06.2022
1442 Rain 22 1012 93 10000 0.85 295 19:24 19.06.2022
1443 Rain 22 1012 93 10000 0.85 295 18:31 19.06.2022
1444 Rain 24 1012 87 10000 0.9 306 17:39 19.06.2022
1445 Rain 26 1011 74 10000 1.4 302 16:38 19.06.2022
1446 Rain 27 1011 70 10000 1.53 310 15:44 19.06.2022
1447 Rain 27 1011 72 10000 1.43 316 15:26 19.06.2022
1448 Rain 27 1011 73 10000 0.94 296 14:30 19.06.2022
1449 Rain 26 1012 76 10000 1.2 283 13:43 19.06.2022
1450 Clouds 25 1014 77 10000 0.17 208 11:53 19.06.2022
1451 Clouds 24 1015 86 10000 0.54 41 10:52 19.06.2022
1452 Clouds 22 1015 94 10000 0.49 332 08:55 19.06.2022
1453 Clouds 22 1015 94 10000 0.49 332 08:30 19.06.2022
1454 Clouds 20 1014 99 10000 0.49 2 06:48 19.06.2022
1455 Clouds 20 1013 99 10000 0.57 321 03:37 19.06.2022
1456 Clouds 20 1013 99 10000 0.86 261 00:28 19.06.2022
1457 Clouds 20 1013 99 10000 0.86 261 23:52 18.06.2022
1458 Clouds 20 1013 99 10000 0.86 261 23:34 18.06.2022
1459 Clouds 20 1013 99 10000 0.68 295 21:54 18.06.2022
1460 Clouds 21 1013 99 10000 1.02 282 20:51 18.06.2022
1461 Rain 21 1013 99 10000 1.14 294 20:18 18.06.2022
1462 Rain 21 1012 99 10000 1.37 350 18:55 18.06.2022
1463 Rain 21 1012 99 10000 1.37 350 18:30 18.06.2022
1464 Rain 21 1012 98 10000 1.84 340 17:29 18.06.2022
1465 Rain 22 1011 96 7898 1.42 324 15:46 18.06.2022
1466 Rain 24 1011 90 7801 1.56 311 14:54 18.06.2022
1467 Rain 24 1011 90 7801 1.56 311 14:35 18.06.2022
1468 Rain 24 1013 81 10000 1.82 275 12:30 18.06.2022
1469 Clouds 24 1014 85 10000 1.45 288 11:20 18.06.2022
1470 Clouds 22 1014 93 10000 1.07 309 09:39 18.06.2022
1471 Rain 21 1014 98 10000 1.13 326 08:46 18.06.2022
1472 Rain 21 1013 99 10000 1.4 290 07:34 18.06.2022
1473 Rain 21 1011 99 5683 0.89 206 05:20 18.06.2022
1474 Clouds 21 1010 99 10000 0.69 283 01:50 18.06.2022
1475 Rain 21 1011 99 10000 0.87 341 01:21 18.06.2022
1476 Clouds 21 1011 98 10000 1.21 313 00:23 18.06.2022
1477 Clouds 21 1011 98 10000 1.21 313 00:23 18.06.2022
1478 Clouds 21 1011 98 10000 1.21 313 23:37 17.06.2022
1479 Rain 22 1011 98 10000 1.53 280 22:29 17.06.2022
1480 Rain 22 1009 97 10000 1.04 50 20:29 17.06.2022
1481 Rain 23 1007 93 10000 0.64 213 19:24 17.06.2022
1482 Rain 23 1007 93 10000 0.64 213 19:24 17.06.2022
1483 Rain 24 1007 91 10000 1.2 255 17:58 17.06.2022
1484 Rain 24 1006 89 10000 2.37 239 16:44 17.06.2022
1485 Rain 24 1007 86 10000 1.86 227 16:25 17.06.2022
1486 Rain 24 1007 86 10000 1.86 227 15:40 17.06.2022
1487 Clouds 33 1008 45 10000 1.34 260 14:23 17.06.2022
1488 Clouds 33 1008 45 10000 1.34 260 13:58 17.06.2022
1489 Clouds 33 1008 45 10000 1.34 260 13:38 17.06.2022
1490 Clouds 30 1010 55 10000 1.43 270 12:28 17.06.2022
1491 Clouds 30 1010 55 10000 1.43 270 11:55 17.06.2022
1492 Clouds 30 1010 55 10000 1.43 270 11:33 17.06.2022
1493 Clouds 23 1012 94 10000 0.72 326 09:36 17.06.2022
1494 Clouds 23 1010 94 10000 1.07 331 08:26 17.06.2022
1495 Rain 22 1010 98 10000 0.68 298 06:45 17.06.2022
1496 Rain 21 1009 98 10000 0.59 319 03:59 17.06.2022
1497 Clouds 22 1009 96 10000 0.86 4 01:56 17.06.2022
1498 Clouds 22 1010 95 10000 1.15 8 23:47 16.06.2022
1499 Clouds 22 1010 92 10000 0.33 323 22:42 16.06.2022
1500 Rain 22 1010 91 10000 0.91 346 21:22 16.06.2022
1501 Rain 22 1010 91 10000 0.91 346 20:52 16.06.2022
1502 Rain 22 1010 91 10000 0.91 346 20:33 16.06.2022
1503 Rain 25 1008 75 10000 1.6 99 19:41 16.06.2022
1504 Clouds 28 1006 63 10000 1.23 162 18:24 16.06.2022
1505 Clouds 28 1006 63 10000 1.23 162 17:42 16.06.2022
1506 Clouds 32 1005 47 10000 2.15 134 16:35 16.06.2022
1507 Clouds 33 1005 42 10000 1.28 123 15:22 16.06.2022
1508 Clouds 33 1005 42 10000 1.28 123 14:37 16.06.2022
1509 Clouds 35 1008 38 10000 0.95 145 13:20 16.06.2022
1510 Clouds 30 1011 70 7000 2.06 150 12:36 16.06.2022
1511 Clouds 34 1009 43 10000 0.69 153 11:51 16.06.2022
1512 Clouds 32 1010 50 10000 0.57 131 10:55 16.06.2022
1513 Clouds 29 1011 61 10000 0.6 69 09:53 16.06.2022
1514 Clouds 25 1011 81 10000 0.37 51 09:21 16.06.2022
1515 Clouds 23 1011 94 10000 0.45 12 08:28 16.06.2022
1516 Clouds 21 1011 97 10000 0.77 16 07:24 16.06.2022
1517 Clouds 21 1009 98 10000 0.19 22 04:50 16.06.2022
1518 Rain 21 1009 96 10000 0.62 330 02:20 16.06.2022
1519 Rain 21 1009 96 10000 0.62 330 01:35 16.06.2022
1520 Rain 21 1009 96 10000 0.62 330 01:35 16.06.2022
1521 Rain 22 1010 91 10000 0.33 338 00:56 16.06.2022
1522 Clouds 22 1010 87 10000 0.9 216 23:43 15.06.2022
1523 Clouds 23 1010 84 10000 0.12 322 22:35 15.06.2022
1524 Rain 24 1010 80 10000 0.63 69 21:22 15.06.2022
1525 Rain 24 1010 80 10000 0.63 69 20:42 15.06.2022
1526 Clouds 25 1009 77 10000 0.94 59 20:23 15.06.2022
1527 Rain 24 1009 82 10000 1.51 175 19:29 15.06.2022
1528 Clouds 26 1008 74 10000 1.11 143 17:56 15.06.2022
1529 Clouds 29 1007 60 10000 1.42 9 17:25 15.06.2022
1530 Clouds 29 1007 59 10000 0.35 292 15:38 15.06.2022
1531 Clouds 33 1008 42 10000 0.24 133 14:18 15.06.2022
1532 Clouds 34 1009 40 10000 0.25 189 12:54 15.06.2022
1533 Clouds 33 1010 44 10000 0.33 80 11:58 15.06.2022
1534 Clouds 28 1012 62 10000 0.53 102 10:24 15.06.2022
1535 Clouds 28 1012 62 10000 0.53 102 10:24 15.06.2022
1536 Clouds 28 1012 62 10000 0.53 102 09:43 15.06.2022
1537 Clouds 25 1012 79 10000 0.33 73 08:40 15.06.2022
1538 Clouds 22 1011 90 10000 0.16 218 06:34 15.06.2022
1539 Clouds 21 1010 91 10000 0.37 155 04:46 15.06.2022
1540 Clouds 22 1010 85 10000 0.72 344 01:55 15.06.2022
1541 Clouds 23 1009 82 10000 0.52 179 00:51 15.06.2022
1542 Clouds 23 1010 80 10000 0.68 226 23:39 14.06.2022
1543 Clouds 23 1011 79 10000 0.76 210 23:21 14.06.2022
1544 Clouds 24 1011 77 10000 1.06 196 22:23 14.06.2022
1545 Clouds 24 1011 77 10000 1.06 196 21:38 14.06.2022
1546 Clouds 24 1010 75 10000 0.71 317 20:56 14.06.2022
1547 Clouds 24 1010 75 10000 0.71 317 20:31 14.06.2022
1548 Clouds 26 1009 69 10000 0.5 64 19:20 14.06.2022
1549 Clouds 27 1008 67 10000 0.76 5 18:20 14.06.2022
1550 Clouds 28 1008 65 10000 0.64 355 16:48 14.06.2022
1551 Clouds 29 1008 61 10000 0.29 338 15:50 14.06.2022
1552 Clouds 32 1008 47 10000 0.26 32 15:28 14.06.2022
1553 Clouds 32 1008 47 10000 0.26 32 14:37 14.06.2022
1554 Clouds 33 1009 44 10000 0.21 29 13:46 14.06.2022
1555 Clouds 33 1010 44 10000 0.18 350 12:48 14.06.2022
1556 Clouds 32 1011 49 10000 0.42 296 11:41 14.06.2022
1557 Clouds 31 1012 55 10000 0.29 301 10:48 14.06.2022
1558 Clouds 28 1013 65 10000 0.88 297 10:22 14.06.2022
1559 Clouds 26 1013 78 10000 0.87 294 08:49 14.06.2022
1560 Clouds 23 1014 90 10000 0.67 243 07:49 14.06.2022
1561 Rain 20 1013 99 10000 0.55 27 05:46 14.06.2022
1562 Clouds 21 1011 96 10000 0.73 314 03:20 14.06.2022
1563 Clouds 21 1011 89 10000 1.05 305 01:31 14.06.2022
1564 Clouds 22 1011 83 10000 0.15 345 23:48 13.06.2022
1565 Clouds 23 1012 79 10000 0.84 203 22:26 13.06.2022
1566 Clouds 23 1012 79 10000 0.84 203 21:54 13.06.2022
1567 Clouds 23 1011 79 10000 0.47 220 20:42 13.06.2022
1568 Clouds 24 1010 79 10000 0.42 263 19:39 13.06.2022
1569 Clouds 25 1009 77 10000 0.39 194 18:36 13.06.2022
1570 Clouds 27 1008 73 10000 0.95 238 17:48 13.06.2022
1571 Clouds 30 1009 58 10000 0.89 256 16:54 13.06.2022
1572 Clouds 31 1007 50 10000 1.43 237 15:41 13.06.2022
1573 Clouds 29 1008 58 10000 2.25 178 14:47 13.06.2022
1574 Clouds 33 1009 43 10000 1.87 180 13:59 13.06.2022
1575 Clouds 33 1010 44 10000 1.22 211 12:59 13.06.2022
1576 Clouds 31 1011 51 10000 1.12 234 11:38 13.06.2022
1577 Clouds 29 1012 62 10000 0.74 220 10:34 13.06.2022
1578 Clouds 28 1013 64 10000 0.84 202 09:42 13.06.2022
1579 Clouds 23 1013 91 10000 0.47 153 08:27 13.06.2022
1580 Clouds 21 1012 97 10000 0.41 18 06:34 13.06.2022
1581 Rain 21 1011 99 10000 0.45 225 04:18 13.06.2022
1582 Clouds 21 1011 98 10000 0.65 242 01:39 13.06.2022
1583 Clouds 21 1011 97 10000 0.5 249 00:59 13.06.2022
1584 Clouds 21 1011 97 10000 0.71 281 23:33 12.06.2022
1585 Clouds 22 1011 96 10000 0.24 286 22:29 12.06.2022
1586 Clouds 22 1011 96 10000 0.24 286 21:41 12.06.2022
1587 Clouds 23 1011 92 10000 0.74 350 20:43 12.06.2022
1588 Clouds 23 1011 92 10000 1.11 319 19:42 12.06.2022
1589 Clouds 23 1010 91 10000 0.59 292 18:46 12.06.2022
1590 Rain 26 1009 82 10000 0.49 222 16:57 12.06.2022
1591 Rain 27 1009 81 10000 0.19 296 15:33 12.06.2022
1592 Rain 27 1010 84 10000 0.43 248 14:41 12.06.2022
1593 Rain 30 1010 59 10000 1.37 259 14:18 12.06.2022
1594 Rain 30 1010 59 10000 1.37 259 13:43 12.06.2022
1595 Clouds 27 1013 73 10000 1.56 305 11:58 12.06.2022
1596 Clouds 22 1013 96 10000 0.65 337 10:46 12.06.2022
1597 Rain 22 1014 98 10000 1.32 335 09:36 12.06.2022
1598 Rain 22 1014 97 5414 1.47 15 08:49 12.06.2022
1599 Rain 22 1013 96 10000 1.19 32 07:49 12.06.2022
1600 Clouds 21 1011 96 10000 0.64 16 06:21 12.06.2022
1601 Rain 22 1011 92 10000 0.94 27 03:38 12.06.2022
1602 Clouds 21 1010 94 10000 0.45 231 01:49 12.06.2022
1603 Clouds 22 1010 94 10000 0.23 242 01:23 12.06.2022
1604 Clouds 22 1010 94 10000 0.23 242 00:36 12.06.2022
1605 Clear 22 1011 94 10000 0.49 251 00:18 12.06.2022
1606 Clear 22 1011 93 10000 0.24 231 22:58 11.06.2022
1607 Clear 22 1011 93 10000 0.24 231 22:31 11.06.2022
1608 Rain 23 1011 88 10000 1.25 266 21:18 11.06.2022
1609 Clouds 24 1011 81 10000 1.31 254 20:26 11.06.2022
1610 Clouds 26 1010 70 10000 0.72 242 19:33 11.06.2022
1611 Clouds 26 1010 67 10000 0.33 324 18:42 11.06.2022
1612 Clouds 27 1009 66 10000 0.43 44 18:24 11.06.2022
1613 Clouds 27 1009 66 10000 0.43 44 17:38 11.06.2022
1614 Clouds 30 1008 57 10000 0.14 184 17:19 11.06.2022
1615 Clouds 30 1008 57 10000 0.14 184 16:42 11.06.2022
1616 Clouds 29 1008 61 10000 0.66 228 15:47 11.06.2022
1617 Clouds 33 1009 41 10000 0.89 167 14:23 11.06.2022
1618 Clouds 33 1009 41 10000 0.89 167 13:47 11.06.2022
1619 Clouds 33 1012 46 10000 0.7 182 11:36 11.06.2022
1620 Clouds 26 1014 70 10000 0.62 70 10:29 11.06.2022
1621 Clouds 26 1014 70 10000 0.62 70 09:40 11.06.2022
1622 Clouds 24 1013 83 10000 0.42 74 08:21 11.06.2022
1623 Clouds 21 1012 95 10000 0.75 79 06:32 11.06.2022
1624 Clouds 20 1012 97 10000 1.04 80 05:26 11.06.2022
1625 Clouds 21 1011 96 10000 1.04 109 02:34 11.06.2022
1626 Clouds 21 1010 91 10000 1.33 144 01:41 11.06.2022
1627 Clouds 21 1011 90 10000 0.79 135 00:37 11.06.2022
1628 Rain 22 1011 82 10000 1.28 138 22:38 10.06.2022
1629 Clouds 24 1011 75 10000 1.04 158 22:20 10.06.2022
1630 Clouds 25 1011 71 10000 0.89 172 21:22 10.06.2022
1631 Clouds 25 1011 71 10000 0.89 172 20:36 10.06.2022
1632 Clouds 25 1010 71 10000 0.82 151 20:18 10.06.2022
1633 Clouds 26 1009 64 10000 0.93 178 19:18 10.06.2022
1634 Clouds 27 1009 66 10000 0.9 172 18:20 10.06.2022
1635 Clouds 27 1009 66 10000 0.9 172 17:41 10.06.2022
1636 Clouds 27 1009 64 10000 1.1 168 16:59 10.06.2022
1637 Clouds 30 1008 54 10000 1.07 142 16:20 10.06.2022
1638 Clouds 30 1008 54 10000 1.07 142 15:36 10.06.2022
1639 Clouds 33 1009 40 10000 0.97 93 13:55 10.06.2022
1640 Clouds 32 1010 44 10000 1.37 108 12:48 10.06.2022
1641 Clouds 31 1012 47 10000 1.32 95 11:41 10.06.2022
1642 Clouds 30 1013 53 10000 1.15 83 10:44 10.06.2022
1643 Clouds 27 1013 64 10000 1.01 58 09:44 10.06.2022
1644 Clouds 24 1014 81 10000 0.91 53 08:33 10.06.2022
1645 Clouds 21 1013 94 10000 0.82 55 07:24 10.06.2022
1646 Clouds 21 1013 94 10000 0.82 55 06:43 10.06.2022
1647 Clouds 21 1013 95 10000 0.37 105 06:24 10.06.2022
1648 Clouds 21 1012 95 10000 0.46 36 03:52 10.06.2022
1649 Clouds 21 1012 95 10000 1.07 50 01:41 10.06.2022
1650 Clouds 21 1013 95 10000 0.95 36 00:28 10.06.2022
1651 Clouds 21 1013 95 10000 0.95 36 23:38 09.06.2022
1652 Clouds 21 1013 94 10000 0.98 48 22:18 09.06.2022
1653 Clouds 21 1013 94 10000 0.98 48 21:33 09.06.2022
1654 Clouds 21 1013 95 10000 1.26 24 20:54 09.06.2022
1655 Clouds 22 1012 95 10000 1.36 7 20:21 09.06.2022
1656 Clouds 22 1012 94 10000 1.41 17 19:19 09.06.2022
1657 Rain 23 1011 93 10000 1.22 20 18:28 09.06.2022
1658 Rain 25 1011 89 10000 0.94 8 16:51 09.06.2022
1659 Rain 25 1011 84 10000 0.67 353 15:48 09.06.2022
1660 Rain 26 1011 82 10000 0.46 325 14:35 09.06.2022
1661 Rain 26 1012 80 8092 0.07 335 13:54 09.06.2022
1662 Rain 27 1012 67 10000 0.96 41 13:27 09.06.2022
1663 Rain 26 1013 72 10000 1.42 63 11:54 09.06.2022
1664 Clouds 25 1014 76 10000 1.37 64 11:18 09.06.2022
1665 Clouds 23 1015 85 10000 1.1 50 09:44 09.06.2022
1666 Clouds 23 1015 86 10000 1.3 41 09:23 09.06.2022
1667 Clouds 22 1014 86 10000 1.09 33 07:45 09.06.2022
1668 Clouds 22 1014 86 10000 1.09 33 07:45 09.06.2022
1669 Clouds 21 1013 93 10000 1.02 22 06:28 09.06.2022
1670 Clouds 21 1012 91 10000 0.89 347 02:52 09.06.2022
1671 Clouds 22 1012 86 10000 0.24 244 23:39 08.06.2022
1672 Clouds 22 1012 85 10000 0.65 320 22:58 08.06.2022
1673 Clouds 23 1012 84 10000 0.86 1 22:27 08.06.2022
1674 Clouds 23 1012 84 10000 0.86 1 21:54 08.06.2022
1675 Clouds 23 1012 83 10000 1.25 13 21:21 08.06.2022
1676 Clouds 23 1012 82 10000 1.46 29 20:20 08.06.2022
1677 Clouds 23 1012 83 10000 1.98 8 19:38 08.06.2022
1678 Clouds 24 1011 78 10000 1.71 28 18:43 08.06.2022
1679 Clouds 27 1009 63 10000 1.36 34 16:54 08.06.2022
1680 Clouds 30 1009 48 10000 0.58 302 15:44 08.06.2022
1681 Clouds 32 1009 40 10000 1.38 195 13:51 08.06.2022
1682 Clouds 32 1011 40 10000 2.22 183 11:52 08.06.2022
1683 Clouds 31 1012 44 10000 2.11 179 11:29 08.06.2022
1684 Clouds 29 1013 49 10000 1.74 177 09:55 08.06.2022
1685 Clouds 27 1013 57 10000 1.6 176 09:21 08.06.2022
1686 Clouds 24 1012 67 10000 1.28 172 08:26 08.06.2022
1687 Clouds 21 1012 79 10000 1.07 145 05:51 08.06.2022
1688 Clouds 21 1010 78 10000 0.63 144 03:52 08.06.2022
1689 Clouds 23 1011 72 10000 0.61 152 00:38 08.06.2022
1690 Clouds 24 1010 66 10000 1.29 168 23:28 07.06.2022
1691 Clouds 24 1010 66 10000 1.29 168 22:45 07.06.2022
1692 Clouds 24 1010 65 10000 0.74 190 22:23 07.06.2022
1693 Clouds 24 1010 65 10000 0.74 190 21:33 07.06.2022
1694 Clouds 24 1010 67 10000 1.02 235 20:58 07.06.2022
1695 Clouds 24 1010 67 10000 1.02 235 20:32 07.06.2022
1696 Clouds 25 1009 64 10000 1.28 182 19:38 07.06.2022
1697 Clouds 26 1008 62 10000 1.13 193 18:22 07.06.2022
1698 Clouds 27 1008 61 10000 1.14 200 17:26 07.06.2022
1699 Clouds 27 1008 61 10000 1.14 200 16:43 07.06.2022
1700 Clouds 28 1008 57 10000 1.39 200 15:47 07.06.2022
1701 Clouds 28 1008 55 10000 1.32 202 15:26 07.06.2022
1702 Clouds 28 1008 55 10000 1.32 202 15:26 07.06.2022
1703 Clouds 28 1008 55 10000 1.32 202 14:47 07.06.2022
1704 Clouds 32 1008 39 10000 1.83 202 14:29 07.06.2022
1705 Clouds 33 1008 35 10000 1.87 200 13:30 07.06.2022
1706 Clouds 33 1010 36 10000 1.81 200 12:45 07.06.2022
1707 Clouds 32 1011 38 10000 1.77 194 11:47 07.06.2022
1708 Clouds 29 1013 50 10000 1.38 189 10:26 07.06.2022
1709 Clouds 29 1013 50 10000 1.38 189 10:26 07.06.2022
1710 Clouds 27 1013 59 10000 1.23 189 08:49 07.06.2022
1711 Clouds 24 1013 72 10000 0.74 165 07:33 07.06.2022
1712 Clouds 21 1011 86 10000 0.78 156 05:58 07.06.2022
1713 Clouds 21 1010 85 10000 1.03 210 03:31 07.06.2022
1714 Clouds 21 1010 85 10000 1.03 210 03:31 07.06.2022
1715 Clouds 23 1010 80 10000 1.28 233 00:45 07.06.2022
1716 Clouds 23 1010 78 10000 1.12 232 23:41 06.06.2022
1717 Clouds 24 1011 75 10000 0.93 221 22:47 06.06.2022
1718 Clouds 24 1010 73 10000 0.84 246 21:56 06.06.2022
1719 Clouds 25 1010 71 10000 1 279 20:35 06.06.2022
1720 Clouds 26 1009 67 10000 0.41 320 19:24 06.06.2022
1721 Clouds 26 1009 67 10000 0.41 320 18:47 06.06.2022
1722 Clouds 27 1008 66 10000 0.65 358 17:55 06.06.2022
1723 Clouds 30 1008 57 10000 0.74 344 16:51 06.06.2022
1724 Clouds 32 1007 45 10000 0.91 321 15:45 06.06.2022
1725 Clouds 32 1008 46 10000 1.71 302 14:59 06.06.2022
1726 Clouds 32 1009 44 10000 1.7 311 13:43 06.06.2022
1727 Clouds 32 1010 46 10000 1.54 316 13:19 06.06.2022
1728 Clouds 32 1010 46 10000 1.54 316 12:33 06.06.2022
1729 Clouds 31 1011 53 10000 1.4 331 11:45 06.06.2022
1730 Rain 28 1012 65 10000 0.18 177 09:51 06.06.2022
1731 Clouds 26 1013 78 10000 0.15 214 08:44 06.06.2022
1732 Clouds 23 1013 91 10000 0.13 47 07:44 06.06.2022
1733 Clouds 21 1012 97 10000 0.27 234 07:19 06.06.2022
1734 Rain 21 1011 99 10000 0.85 342 04:38 06.06.2022
1735 Clouds 22 1010 94 10000 1.04 296 01:53 06.06.2022
1736 Clouds 22 1010 93 10000 0.67 266 00:57 06.06.2022
1737 Clouds 22 1010 93 10000 0.67 266 00:34 06.06.2022
1738 Clouds 23 1011 92 10000 0.88 264 22:59 05.06.2022
1739 Clouds 22 1011 93 10000 1.09 286 22:19 05.06.2022
1740 Clouds 25 1010 80 10000 1.32 286 20:23 05.06.2022
1741 Clouds 26 1009 76 10000 0.9 249 19:23 05.06.2022
1742 Clouds 27 1008 72 10000 0.83 230 18:18 05.06.2022
1743 Clouds 27 1008 72 10000 0.83 230 17:39 05.06.2022
1744 Clouds 30 1007 61 10000 0.74 248 17:20 05.06.2022
1745 Clouds 30 1007 61 10000 0.74 248 16:47 05.06.2022
1746 Clouds 33 1007 44 10000 1.11 332 15:28 05.06.2022
1747 Clouds 33 1008 43 10000 0.89 330 14:21 05.06.2022
1748 Rain 32 1010 52 10000 0.38 82 11:59 05.06.2022
1749 Rain 31 1011 56 10000 0.66 170 10:45 05.06.2022
1750 Clouds 29 1012 60 10000 0.55 26 10:24 05.06.2022
1751 Clouds 29 1012 60 10000 0.55 26 09:42 05.06.2022
1752 Clouds 23 1012 90 10000 0.57 25 08:25 05.06.2022
1753 Rain 21 1011 93 10000 0.42 10 06:25 05.06.2022
1754 Clouds 21 1010 92 10000 0.26 150 05:19 05.06.2022
1755 Clouds 22 1009 87 10000 0.31 84 02:48 05.06.2022
1756 Clouds 22 1009 84 10000 0.87 253 01:24 05.06.2022
1757 Clouds 23 1009 81 10000 1.14 263 23:36 04.06.2022
1758 Clouds 25 1009 72 10000 0.85 243 21:30 04.06.2022
1759 Clouds 26 1009 70 10000 0.9 132 19:36 04.06.2022
1760 Clouds 28 1007 66 10000 1.01 187 17:28 04.06.2022
1761 Clouds 29 1006 62 10000 0.87 210 16:22 04.06.2022
1762 Clouds 29 1006 62 10000 0.87 210 15:45 04.06.2022
1763 Clouds 33 1007 40 10000 1.39 160 14:18 04.06.2022
1764 Clouds 32 1009 45 10000 1.43 170 11:43 04.06.2022
1765 Clouds 31 1010 52 10000 1.54 177 10:55 04.06.2022
1766 Clouds 28 1011 63 10000 1.44 170 10:19 04.06.2022
1767 Clouds 28 1011 63 10000 1.44 170 09:39 04.06.2022
1768 Clouds 25 1012 83 10000 0.96 166 08:39 04.06.2022
1769 Rain 21 1011 98 10000 0.55 186 07:18 04.06.2022
1770 Rain 21 1009 97 10000 0.52 203 04:29 04.06.2022
1771 Clouds 22 1009 94 10000 0.78 237 00:37 04.06.2022
1772 Clouds 23 1010 88 10000 1.13 251 23:28 03.06.2022
1773 Clouds 23 1010 86 10000 1.04 267 22:20 03.06.2022
1774 Clouds 23 1010 87 10000 1.12 235 20:42 03.06.2022
1775 Clouds 24 1009 80 10000 1.23 204 19:58 03.06.2022
1776 Clouds 26 1007 72 10000 0.95 178 17:31 03.06.2022
1777 Clouds 30 1007 58 10000 0.61 124 16:34 03.06.2022
1778 Clouds 33 1007 42 10000 1 112 14:52 03.06.2022
1779 Clouds 28 1011 63 10000 2.21 176 12:28 03.06.2022
1780 Clouds 26 1011 74 10000 1.91 166 10:36 03.06.2022
1781 Clouds 23 1012 89 10000 1.89 154 09:30 03.06.2022
1782 Rain 22 1012 98 10000 1.69 138 07:54 03.06.2022
1783 Rain 22 1011 98 9832 0.72 82 07:20 03.06.2022
1784 Rain 22 1011 98 9832 0.72 82 06:30 03.06.2022
1785 Clouds 22 1009 98 10000 0.72 52 04:40 03.06.2022
1786 Clouds 22 1009 96 10000 0.32 153 00:22 03.06.2022
1787 Clouds 22 1010 96 10000 0.28 85 22:35 02.06.2022
1788 Clouds 22 1009 95 10000 0.38 313 21:29 02.06.2022
1789 Rain 22 1009 95 10000 0.21 280 20:22 02.06.2022
1790 Rain 22 1009 95 10000 0.21 280 19:41 02.06.2022
1791 Clouds 23 1008 84 10000 1.04 297 19:19 02.06.2022
1792 Clouds 25 1007 79 10000 1.29 287 16:46 02.06.2022
1793 Clouds 27 1007 73 10000 1.66 277 16:20 02.06.2022
1794 Clouds 27 1008 69 10000 1.38 288 13:47 02.06.2022
1795 Clouds 25 1009 86 10000 1.35 299 13:26 02.06.2022
1796 Rain 25 1011 92 7382 0.68 325 11:18 02.06.2022
1797 Rain 25 1011 87 10000 0.32 232 10:19 02.06.2022
1798 Clouds 24 1011 89 10000 0.84 239 09:27 02.06.2022
1799 Clouds 23 1011 95 10000 0.74 245 08:25 02.06.2022
1800 Clouds 22 1010 98 10000 0.77 216 06:50 02.06.2022
1801 Rain 22 1009 98 10000 0.68 83 04:40 02.06.2022
1802 Clouds 22 1009 98 10000 1.09 161 02:30 02.06.2022
1803 Clouds 23 1010 97 10000 0.65 149 23:43 01.06.2022
1804 Clouds 23 1010 97 10000 0.65 149 23:43 01.06.2022
1805 Clouds 23 1010 97 10000 0.65 149 23:43 01.06.2022
1806 Clouds 23 1010 97 10000 0.65 149 23:43 01.06.2022
1807 Clouds 23 1010 97 10000 0.65 149 23:43 01.06.2022
1808 Clouds 23 1010 96 10000 0.87 171 22:23 01.06.2022
1809 Clouds 23 1010 96 10000 0.87 171 21:32 01.06.2022
1810 Rain 23 1010 96 10000 0.26 109 20:40 01.06.2022
1811 Clouds 23 1009 94 10000 1.38 148 19:53 01.06.2022
1812 Rain 23 1008 93 10000 0.45 243 18:58 01.06.2022
1813 Rain 24 1007 90 10000 0.84 220 17:40 01.06.2022
1814 Rain 25 1006 80 10000 0.06 88 16:33 01.06.2022
1815 Clouds 31 1006 53 10000 1.14 176 14:52 01.06.2022
1816 Clouds 34 1007 42 10000 0.56 186 13:44 01.06.2022
1817 Clouds 33 1010 47 10000 0.37 110 12:25 01.06.2022
1818 Clouds 29 1012 61 10000 0.35 90 09:36 01.06.2022
1819 Clouds 23 1012 93 10000 0.55 119 08:29 01.06.2022
1820 Clouds 21 1011 97 10000 0.75 31 07:22 01.06.2022
1821 Clouds 20 1010 98 10000 1.11 127 05:22 01.06.2022
1822 Clouds 23 1009 77 10000 0.64 263 00:20 01.06.2022
1823 Clouds 24 1009 75 10000 0.56 218 22:59 31.05.2022
1824 Clouds 24 1009 75 10000 0.56 218 22:33 31.05.2022
1825 Clouds 24 1010 75 10000 0.25 130 21:45 31.05.2022
1826 Clouds 25 1009 71 10000 0.14 168 20:45 31.05.2022
1827 Clouds 25 1009 71 10000 0.14 168 20:45 31.05.2022
1828 Clouds 25 1008 68 10000 1.14 180 19:57 31.05.2022
1829 Clouds 26 1008 62 10000 0.3 120 18:50 31.05.2022
1830 Clouds 28 1007 59 10000 0.39 86 17:50 31.05.2022
1831 Clouds 31 1006 50 10000 0.42 81 16:53 31.05.2022
1832 Clouds 34 1006 37 10000 0.43 90 15:40 31.05.2022
1833 Clouds 35 1007 33 10000 0.69 101 13:45 31.05.2022
1834 Clouds 34 1010 39 10000 0.71 165 12:20 31.05.2022
1835 Clouds 32 1011 44 10000 0.91 172 10:53 31.05.2022
1836 Clouds 27 1012 61 10000 0.83 106 08:49 31.05.2022
1837 Clouds 21 1012 88 10000 0.48 105 07:21 31.05.2022
1838 Clouds 20 1012 92 10000 0.74 114 04:53 31.05.2022
1839 Clear 21 1011 89 10000 1.08 137 00:36 31.05.2022
1840 Clear 22 1012 84 10000 1.21 115 23:26 30.05.2022
1841 Clear 22 1012 84 10000 1.21 115 22:53 30.05.2022
1842 Clear 23 1012 80 10000 0.99 124 21:52 30.05.2022
1843 Clear 23 1012 80 10000 0.99 124 21:32 30.05.2022
1844 Clouds 23 1011 81 10000 0.94 111 19:57 30.05.2022
1845 Clouds 24 1011 80 10000 0.95 116 18:39 30.05.2022
1846 Clouds 25 1010 76 10000 1.15 112 17:35 30.05.2022
1847 Clouds 28 1010 62 10000 1.87 111 16:40 30.05.2022
1848 Clouds 27 1012 66 10000 2.23 96 14:23 30.05.2022
1849 Clouds 26 1014 72 10000 1.75 78 12:24 30.05.2022
1850 Clouds 25 1015 78 10000 2.08 68 10:41 30.05.2022
1851 Clouds 23 1016 92 10000 1.95 74 09:19 30.05.2022
1852 Clouds 21 1014 98 10000 0.92 91 06:40 30.05.2022
1853 Rain 20 1014 99 10000 1.13 94 05:48 30.05.2022
1854 Clouds 22 1012 87 10000 1.14 108 01:42 30.05.2022
1855 Clouds 23 1012 80 10000 0.84 197 22:57 29.05.2022
1856 Clouds 23 1012 80 10000 0.84 197 22:36 29.05.2022
1857 Clouds 24 1012 76 10000 0.76 160 20:54 29.05.2022
1858 Clouds 24 1011 77 10000 1.13 227 19:32 29.05.2022
1859 Clouds 24 1010 76 10000 1.22 249 18:53 29.05.2022
1860 Clouds 26 1010 73 10000 1.47 268 17:31 29.05.2022
1861 Clouds 32 1008 45 10000 1.15 248 15:48 29.05.2022
1862 Clouds 32 1008 43 10000 1.11 225 14:58 29.05.2022
1863 Clouds 30 1010 52 10000 1.1 241 13:53 29.05.2022
1864 Clouds 30 1013 51 10000 0.98 156 11:41 29.05.2022
1865 Clouds 29 1014 57 10000 0.73 138 10:38 29.05.2022
1866 Clouds 23 1015 83 10000 0.62 97 09:18 29.05.2022
1867 Clouds 19 1014 99 10000 0.46 81 06:18 29.05.2022
1868 Clouds 19 1014 99 10000 0.25 53 04:45 29.05.2022
1869 Clouds 19 1013 99 10000 0.17 95 03:47 29.05.2022
1870 Clouds 20 1014 100 10000 0.54 319 23:50 28.05.2022
1871 Clouds 20 1014 100 10000 0.54 319 23:50 28.05.2022
1872 Clouds 20 1014 100 10000 0.57 23 23:26 28.05.2022
1873 Clouds 20 1014 100 10000 0.57 23 22:39 28.05.2022
1874 Clouds 20 1014 99 10000 0.42 7 21:38 28.05.2022
1875 Clouds 20 1013 99 10000 1.18 296 19:49 28.05.2022
1876 Clouds 20 1013 99 10000 1.36 250 18:50 28.05.2022
1877 Clouds 20 1013 99 10000 1.71 215 17:37 28.05.2022
1878 Rain 21 1013 99 10000 1.25 203 16:43 28.05.2022
1879 Clouds 21 1013 99 10000 1.33 205 15:43 28.05.2022
1880 Rain 21 1014 99 10000 0.34 283 14:26 28.05.2022
1881 Clouds 22 1014 97 10000 0.49 84 12:51 28.05.2022
1882 Clouds 22 1014 97 10000 0.49 84 12:33 28.05.2022
1883 Rain 21 1016 99 10000 1.27 70 11:21 28.05.2022
1884 Rain 21 1016 99 8244 1.55 69 09:59 28.05.2022
1885 Rain 21 1016 99 4626 1.6 69 09:21 28.05.2022
1886 Rain 21 1014 99 10000 1.67 109 07:23 28.05.2022
1887 Rain 21 1014 99 10000 1.58 100 05:36 28.05.2022
1888 Clouds 21 1012 99 10000 0.68 214 02:44 28.05.2022
1889 Rain 22 1011 89 10000 0.73 232 00:33 28.05.2022
1890 Clouds 23 1012 86 10000 0.15 215 23:20 27.05.2022
1891 Clouds 23 1012 85 10000 0.36 205 21:46 27.05.2022
1892 Clouds 24 1011 84 10000 0.93 192 20:56 27.05.2022
1893 Clouds 24 1011 84 10000 1.08 192 20:25 27.05.2022
1894 Clouds 24 1011 79 10000 1.19 209 19:42 27.05.2022
1895 Clouds 25 1010 77 10000 1.3 209 19:24 27.05.2022
1896 Clouds 26 1010 75 10000 1.24 214 17:58 27.05.2022
1897 Clouds 26 1010 73 10000 1.35 217 16:39 27.05.2022
1898 Clouds 32 1009 47 10000 0.98 224 15:22 27.05.2022
1899 Clouds 33 1010 45 10000 1.16 249 14:26 27.05.2022
1900 Clouds 26 1013 73 10000 0.65 287 13:18 27.05.2022
1901 Clouds 25 1014 81 10000 0.46 200 11:34 27.05.2022
1902 Clouds 24 1015 87 10000 1.29 195 10:57 27.05.2022
1903 Clouds 24 1015 87 10000 1.29 195 10:31 27.05.2022
1904 Clouds 23 1016 94 10000 0.84 180 09:37 27.05.2022
1905 Rain 21 1016 95 10000 0.71 187 07:55 27.05.2022
1906 Clouds 20 1015 98 10000 0.6 131 05:47 27.05.2022
1907 Clouds 21 1014 92 10000 0.84 173 02:47 27.05.2022
1908 Clouds 21 1014 96 10000 1.34 215 00:29 27.05.2022
1909 Rain 22 1014 95 10000 1.07 210 22:43 26.05.2022
1910 Rain 23 1014 86 10000 0.43 148 21:40 26.05.2022
1911 Clouds 24 1013 79 10000 0.83 249 20:53 26.05.2022
1912 Clouds 25 1012 79 10000 0.81 236 19:24 26.05.2022
1913 Clouds 25 1012 79 10000 0.81 236 19:24 26.05.2022
1914 Clouds 26 1012 77 10000 0.8 246 18:18 26.05.2022
1915 Clouds 28 1011 70 10000 1.27 241 16:42 26.05.2022
1916 Clouds 28 1011 66 10000 1.5 243 15:46 26.05.2022
1917 Clouds 31 1011 49 10000 1.39 253 14:43 26.05.2022
1918 Clouds 32 1013 48 10000 1.64 256 12:37 26.05.2022
1919 Clouds 29 1015 59 10000 1.29 217 11:29 26.05.2022
1920 Clouds 26 1016 72 10000 1.27 209 09:44 26.05.2022
1921 Clouds 22 1017 92 10000 0.83 211 09:26 26.05.2022
1922 Clouds 22 1017 92 10000 0.83 211 08:35 26.05.2022
1923 Clouds 20 1015 99 10000 0.74 157 04:41 26.05.2022
1924 Clouds 21 1015 94 10000 0.51 176 00:48 26.05.2022
1925 Clouds 22 1015 92 10000 0.3 149 23:40 25.05.2022
1926 Clouds 21 1015 93 10000 1.16 167 21:59 25.05.2022
1927 Clouds 21 1015 93 10000 1.16 167 21:32 25.05.2022
1928 Clouds 21 1015 92 10000 1.43 161 20:37 25.05.2022
1929 Clouds 23 1014 83 10000 0.9 144 19:24 25.05.2022
1930 Clouds 25 1013 77 10000 0.29 148 17:43 25.05.2022
1931 Clouds 27 1012 65 10000 0.26 257 16:38 25.05.2022
1932 Clouds 28 1012 59 10000 0.39 264 15:54 25.05.2022
1933 Clouds 28 1012 57 10000 0.61 334 14:54 25.05.2022
1934 Clouds 28 1012 57 10000 0.61 334 14:33 25.05.2022
1935 Clouds 28 1016 65 10000 0 0 13:54 25.05.2022
1936 Clouds 28 1015 62 10000 0.69 70 12:39 25.05.2022
1937 Clouds 25 1017 74 10000 1.13 80 10:49 25.05.2022
1938 Clouds 23 1018 84 10000 1.12 77 10:18 25.05.2022
1939 Clouds 22 1018 92 10000 0.92 62 08:41 25.05.2022
1940 Clouds 20 1016 99 10000 0.48 82 07:23 25.05.2022
1941 Clouds 20 1015 99 10000 0.45 12 04:23 25.05.2022
1942 Clouds 20 1015 99 10000 0.11 116 00:23 25.05.2022
1943 Clouds 20 1015 99 10000 0.11 116 23:47 24.05.2022
1944 Clouds 20 1015 100 10000 0.42 231 22:33 24.05.2022
1945 Clouds 20 1015 100 10000 0.36 199 21:41 24.05.2022
1946 Clouds 20 1014 100 10000 0.7 259 21:21 24.05.2022
1947 Clouds 20 1014 100 10000 1.3 271 20:23 24.05.2022
1948 Clouds 21 1014 99 10000 1.19 289 18:56 24.05.2022
1949 Rain 21 1013 98 10000 1.47 288 16:58 24.05.2022
1950 Rain 21 1013 98 10000 1.68 289 16:23 24.05.2022
1951 Rain 21 1013 98 10000 1.73 287 14:59 24.05.2022
1952 Rain 21 1014 98 10000 1.7 301 14:21 24.05.2022
1953 Rain 21 1015 99 10000 1.3 302 13:18 24.05.2022
1954 Rain 21 1016 99 10000 0.91 310 11:40 24.05.2022
1955 Rain 21 1017 99 10000 0.27 347 09:46 24.05.2022
1956 Rain 21 1016 99 10000 0.36 300 08:50 24.05.2022
1957 Rain 21 1014 99 5469 0.71 306 06:58 24.05.2022
1958 Rain 20 1012 99 10000 1.34 278 04:59 24.05.2022
1959 Rain 21 1012 98 10000 1.25 273 02:42 24.05.2022
1960 Rain 21 1011 99 10000 1.12 268 01:43 24.05.2022
1961 Clouds 22 1011 99 10000 1.38 258 23:43 23.05.2022
1962 Clouds 22 1011 98 10000 1.04 244 21:59 23.05.2022
1963 Clouds 22 1011 98 10000 1.04 244 21:41 23.05.2022
1964 Clouds 22 1010 98 10000 1.02 209 20:45 23.05.2022
1965 Clouds 22 1010 97 10000 0.98 166 19:41 23.05.2022
1966 Clouds 22 1009 97 10000 0.94 139 19:00 23.05.2022
1967 Clouds 22 1009 97 10000 0.94 139 18:37 23.05.2022
1968 Clouds 23 1007 94 10000 0.69 138 17:55 23.05.2022
1969 Clouds 24 1009 93 10000 1.07 128 15:47 23.05.2022
1970 Rain 25 1010 90 10000 0.87 100 13:44 23.05.2022
1971 Rain 29 1011 71 10000 1.07 119 11:40 23.05.2022
1972 Rain 28 1012 76 10000 0.12 213 10:44 23.05.2022
1973 Rain 25 1014 84 10000 0.38 70 09:45 23.05.2022
1974 Rain 24 1014 88 10000 0.53 129 08:44 23.05.2022
1975 Clouds 23 1012 90 10000 0.73 167 06:48 23.05.2022
1976 Clouds 22 1012 92 10000 0.71 162 06:24 23.05.2022
1977 Clouds 22 1010 91 10000 0.87 58 02:36 23.05.2022
1978 Clouds 22 1010 92 10000 0.63 257 01:50 23.05.2022
1979 Clouds 23 1011 90 10000 0.9 215 01:23 23.05.2022
1980 Clouds 23 1011 89 10000 0.95 171 22:48 22.05.2022
1981 Clouds 23 1011 91 10000 1.2 159 22:21 22.05.2022
1982 Clouds 23 1011 91 10000 1.2 159 21:50 22.05.2022
1983 Rain 23 1011 85 10000 1.89 156 20:42 22.05.2022
1984 Clouds 24 1010 86 10000 1.36 156 20:20 22.05.2022
1985 Clouds 25 1009 79 10000 1.52 132 18:58 22.05.2022
1986 Clouds 25 1009 79 10000 1.52 132 18:37 22.05.2022
1987 Clouds 26 1009 73 10000 0.78 204 18:19 22.05.2022
1988 Clouds 28 1008 67 10000 0.92 153 16:51 22.05.2022
1989 Clouds 32 1008 50 10000 0.31 27 15:24 22.05.2022
1990 Clouds 32 1008 50 10000 0.31 27 14:44 22.05.2022
1991 Clouds 34 1010 40 10000 0.44 274 12:54 22.05.2022
1992 Clouds 34 1010 40 10000 0.44 274 12:31 22.05.2022
1993 Clouds 32 1013 48 10000 0.49 28 10:45 22.05.2022
1994 Clouds 27 1014 66 10000 0.98 50 09:29 22.05.2022
1995 Clouds 24 1014 80 10000 0.99 48 07:44 22.05.2022
1996 Clouds 21 1013 90 10000 0.49 37 07:20 22.05.2022
1997 Clouds 21 1011 94 10000 0.21 86 04:19 22.05.2022
1998 Clouds 21 1012 95 10000 0.44 86 00:59 22.05.2022
1999 Clouds 21 1013 96 10000 0.61 51 23:57 21.05.2022
2000 Clouds 21 1013 97 10000 0.94 38 23:29 21.05.2022
2001 Clouds 21 1013 96 10000 0.91 26 21:59 21.05.2022
2002 Clouds 21 1013 96 10000 0.91 26 21:38 21.05.2022
2003 Clouds 22 1013 95 10000 1.06 34 20:47 21.05.2022
2004 Clouds 21 1013 95 10000 1.25 45 19:59 21.05.2022
2005 Clouds 22 1012 94 10000 1.29 47 19:21 21.05.2022
2006 Clouds 25 1011 81 10000 1.27 46 17:29 21.05.2022
2007 Clouds 25 1011 81 10000 1.26 28 14:58 21.05.2022
2008 Clouds 26 1012 77 10000 1.78 11 14:24 21.05.2022
2009 Clouds 28 1011 63 10000 2.13 349 13:34 21.05.2022
2010 Clouds 27 1013 68 10000 2.25 353 12:39 21.05.2022
2011 Clouds 26 1014 74 10000 2.02 354 11:45 21.05.2022
2012 Clouds 23 1016 92 10000 1.45 338 10:22 21.05.2022
2013 Clouds 23 1016 96 10000 1.05 341 09:18 21.05.2022
2014 Clouds 23 1016 96 10000 1.05 341 08:39 21.05.2022
2015 Clouds 22 1013 99 10000 0.42 33 06:21 21.05.2022
2016 Rain 22 1011 99 10000 0.73 172 01:59 21.05.2022
2017 Rain 22 1012 98 10000 0.85 218 23:42 20.05.2022
2018 Clouds 23 1012 96 10000 0.89 217 22:41 20.05.2022
2019 Clouds 23 1011 95 10000 0.99 254 22:18 20.05.2022
2020 Clouds 23 1011 96 10000 1.18 258 21:19 20.05.2022
2021 Clouds 23 1011 96 10000 1.18 258 20:51 20.05.2022
2022 Rain 23 1010 93 10000 1.51 286 19:54 20.05.2022
2023 Clouds 24 1009 90 10000 1.5 293 18:58 20.05.2022
2024 Rain 24 1008 88 10000 2.17 291 18:23 20.05.2022
2025 Rain 27 1007 74 10000 1.33 352 16:27 20.05.2022
2026 Rain 27 1007 74 10000 1.33 352 15:54 20.05.2022
2027 Rain 27 1007 74 10000 1.33 352 15:32 20.05.2022
2028 Clouds 34 1008 42 10000 0.75 248 14:27 20.05.2022
2029 Clouds 35 1009 40 10000 0.48 208 12:45 20.05.2022
2030 Clouds 32 1011 49 10000 0.95 179 10:48 20.05.2022
2031 Clouds 30 1012 60 10000 0.85 184 09:32 20.05.2022
2032 Clouds 27 1012 78 10000 0.6 183 08:37 20.05.2022
2033 Clouds 22 1011 97 10000 0.5 166 06:44 20.05.2022
2034 Clouds 21 1010 99 10000 0.44 148 05:52 20.05.2022
2035 Rain 21 1009 97 10000 1.03 108 02:53 20.05.2022
2036 Clouds 23 1010 90 10000 0.67 249 23:47 19.05.2022
2037 Clouds 23 1010 87 10000 0.14 224 22:39 19.05.2022
2038 Clouds 24 1009 86 10000 1.02 178 21:52 19.05.2022
2039 Clouds 24 1009 85 10000 1.09 173 21:24 19.05.2022
2040 Clouds 24 1009 85 10000 1.09 173 20:53 19.05.2022
2041 Clouds 24 1009 83 10000 1.12 162 19:57 19.05.2022
2042 Clouds 24 1009 80 10000 1.03 165 19:19 19.05.2022
2043 Clouds 26 1008 74 10000 1.15 191 17:47 19.05.2022
2044 Clouds 31 1008 54 10000 0.64 214 16:22 19.05.2022
2045 Clouds 30 1008 60 10000 0.65 235 14:50 19.05.2022
2046 Clouds 26 1010 79 10000 0.53 276 14:21 19.05.2022
2047 Clouds 26 1010 79 10000 0.53 276 14:21 19.05.2022
2048 Rain 24 1013 94 10000 0.61 357 12:19 19.05.2022
2049 Rain 24 1013 91 10000 0.32 21 10:31 19.05.2022
2050 Clouds 24 1014 92 10000 0.23 156 08:51 19.05.2022
2051 Clouds 23 1013 97 10000 0.16 50 07:33 19.05.2022
2052 Rain 22 1011 100 10000 0.5 107 04:23 19.05.2022
2053 Clouds 22 1011 98 10000 0.45 169 01:28 19.05.2022
2054 Rain 22 1011 99 10000 1.35 238 23:49 18.05.2022
2055 Rain 22 1011 99 10000 0.62 273 22:45 18.05.2022
2056 Rain 22 1011 97 10000 0.34 187 21:45 18.05.2022
2057 Rain 23 1011 93 10000 2.25 93 21:24 18.05.2022
2058 Rain 24 1010 89 10000 2.25 110 20:22 18.05.2022
2059 Rain 23 1010 96 10000 1.36 121 19:32 18.05.2022
2060 Rain 25 1008 85 10000 0.52 191 18:20 18.05.2022
2061 Rain 25 1008 85 10000 0.52 191 17:41 18.05.2022
2062 Rain 26 1006 76 10000 0.53 346 17:22 18.05.2022
2063 Clouds 29 1006 64 10000 0.57 81 15:58 18.05.2022
2064 Clouds 29 1006 64 10000 0.57 81 15:37 18.05.2022
2065 Clouds 34 1007 43 10000 0.74 191 14:25 18.05.2022
2066 Clouds 35 1008 40 10000 1 207 12:59 18.05.2022
2067 Clouds 35 1008 40 10000 1 207 12:39 18.05.2022
2068 Clouds 34 1010 43 10000 1.37 206 11:33 18.05.2022
2069 Clouds 32 1011 49 10000 1.41 194 10:49 18.05.2022
2070 Clouds 24 1012 90 10000 0.87 133 08:27 18.05.2022
2071 Clouds 22 1011 97 10000 0.68 162 07:28 18.05.2022
2072 Clouds 21 1010 99 10000 0.81 171 04:26 18.05.2022
2073 Clouds 22 1010 97 10000 0.94 160 00:52 18.05.2022
2074 Rain 22 1011 96 10000 1.08 176 23:41 17.05.2022
2075 Clouds 24 1010 84 10000 1.39 183 21:23 17.05.2022
2076 Clouds 24 1010 84 10000 1.39 183 20:57 17.05.2022
2077 Clouds 25 1010 78 10000 1.34 186 19:45 17.05.2022
2078 Clouds 25 1008 75 10000 0.44 191 19:25 17.05.2022
2079 Clouds 27 1008 68 10000 0.38 239 17:49 17.05.2022
2080 Clouds 31 1007 53 10000 0.52 219 16:58 17.05.2022
2081 Clouds 33 1007 42 10000 0.44 176 16:29 17.05.2022
2082 Clouds 34 1008 40 10000 0.53 165 15:18 17.05.2022
2083 Clouds 34 1009 40 10000 0.94 180 14:29 17.05.2022
2084 Clouds 34 1008 41 10000 0.91 197 13:31 17.05.2022
2085 Clouds 31 1013 51 10000 0.94 120 10:51 17.05.2022
2086 Clouds 25 1014 79 10000 1.31 115 09:23 17.05.2022
2087 Clouds 23 1014 95 10000 0.96 115 07:59 17.05.2022
2088 Clouds 21 1013 99 10000 0.65 123 06:36 17.05.2022
2089 Rain 21 1012 98 10000 0.81 73 02:27 17.05.2022
2090 Clouds 21 1013 98 10000 0.06 86 00:28 17.05.2022
2091 Clouds 21 1013 98 10000 1.42 350 22:41 16.05.2022
2092 Clouds 21 1013 97 10000 1.35 2 21:36 16.05.2022
2093 Rain 21 1013 98 10000 1.15 282 20:46 16.05.2022
2094 Rain 20 1012 99 10000 2.03 205 19:22 16.05.2022
2095 Rain 21 1011 99 690 2.53 205 17:58 16.05.2022
2096 Rain 24 1009 94 3865 0.27 86 15:42 16.05.2022
2097 Rain 33 1009 48 10000 0.75 71 13:49 16.05.2022
2098 Clouds 35 1010 40 10000 0.7 57 12:50 16.05.2022
2099 Clouds 32 1013 51 10000 1.11 51 10:52 16.05.2022
2100 Clouds 26 1015 81 10000 1.06 75 08:55 16.05.2022
2101 Clouds 22 1013 99 10000 0.44 91 06:34 16.05.2022
2102 Rain 21 1012 99 10000 0.27 43 02:38 16.05.2022
2103 Clouds 23 1013 93 10000 1.16 58 23:19 15.05.2022
2104 Clouds 23 1012 89 10000 0.9 56 22:29 15.05.2022
2105 Clouds 23 1012 89 10000 0.9 56 21:39 15.05.2022
2106 Rain 23 1011 86 10000 0.57 149 20:54 15.05.2022
2107 Clouds 26 1009 69 10000 1.02 147 19:28 15.05.2022
2108 Clouds 27 1009 68 10000 0.72 70 17:51 15.05.2022
2109 Clouds 30 1008 61 10000 0.69 155 15:56 15.05.2022
2110 Clouds 34 1009 42 10000 1.04 314 13:50 15.05.2022
2111 Clouds 32 1012 53 10000 1.19 9 12:26 15.05.2022
2112 Clouds 32 1012 53 10000 1.19 9 11:38 15.05.2022
2113 Clouds 29 1014 65 10000 0.46 4 10:25 15.05.2022
2114 Clouds 25 1014 83 10000 0.05 273 08:32 15.05.2022
2115 Clouds 22 1013 99 10000 0.27 206 06:58 15.05.2022
2116 Clouds 21 1013 99 10000 0.35 324 05:33 15.05.2022
2117 Clouds 22 1011 99 10000 0.87 321 00:49 15.05.2022
2118 Rain 22 1012 98 10000 0.69 289 23:38 14.05.2022
2119 Rain 22 1011 98 10000 1.11 328 22:47 14.05.2022
2120 Rain 23 1011 96 9013 1.15 276 21:29 14.05.2022
2121 Rain 23 1011 96 9013 1.15 276 20:53 14.05.2022
2122 Clouds 25 1009 79 10000 0.92 278 19:38 14.05.2022
2123 Clouds 26 1008 70 10000 0.29 312 19:19 14.05.2022
2124 Clouds 26 1008 70 10000 0.29 312 18:41 14.05.2022
2125 Clouds 29 1007 62 10000 0.8 163 16:38 14.05.2022
2126 Clouds 31 1007 52 10000 0.16 8 15:30 14.05.2022
2127 Clouds 34 1007 42 10000 0.6 322 14:34 14.05.2022
2128 Clouds 32 1011 51 10000 1.07 248 12:24 14.05.2022
2129 Clouds 28 1013 67 10000 0.86 223 10:59 14.05.2022
2130 Clouds 24 1013 87 10000 0.68 205 10:21 14.05.2022
2131 Clouds 24 1013 87 10000 0.68 205 09:53 14.05.2022
2132 Clouds 24 1014 89 10000 0.75 192 08:49 14.05.2022
2133 Rain 22 1013 91 10000 0.57 159 06:41 14.05.2022
2134 Clouds 22 1010 84 10000 0.4 53 02:39 14.05.2022
2135 Rain 23 1011 81 10000 0.79 114 23:36 13.05.2022
2136 Clouds 24 1011 76 10000 0.75 124 22:58 13.05.2022
2137 Clouds 24 1010 74 10000 0.7 119 22:27 13.05.2022
2138 Clouds 24 1010 74 10000 0.7 119 21:52 13.05.2022
2139 Clouds 25 1010 69 10000 0.56 14 20:45 13.05.2022
2140 Clouds 26 1009 66 10000 0.89 327 20:27 13.05.2022
2141 Clouds 26 1008 69 10000 1.45 313 19:28 13.05.2022
2142 Clouds 28 1007 63 10000 1.04 275 17:51 13.05.2022
2143 Clouds 31 1006 52 10000 0.69 228 17:28 13.05.2022
2144 Clouds 33 1006 45 10000 0.38 323 16:20 13.05.2022
2145 Clouds 36 1006 33 10000 0.13 51 15:28 13.05.2022
2146 Clouds 36 1008 35 10000 0.41 167 13:41 13.05.2022
2147 Clouds 34 1010 41 10000 0.73 206 12:28 13.05.2022
2148 Clouds 33 1012 47 10000 0.9 209 11:22 13.05.2022
2149 Clouds 30 1012 55 10000 0.87 199 09:34 13.05.2022
2150 Clouds 27 1013 71 10000 0.59 195 08:44 13.05.2022
2151 Clouds 24 1013 82 10000 0.41 159 07:48 13.05.2022
2152 Clouds 22 1013 94 10000 0.28 351 06:33 13.05.2022
2153 Clouds 22 1013 94 10000 0.28 351 06:33 13.05.2022
2154 Clouds 21 1011 96 10000 0.14 236 03:29 13.05.2022
2155 Rain 23 1012 91 10000 0.46 25 00:24 13.05.2022
2156 Clouds 23 1012 87 10000 0.86 80 22:45 12.05.2022
2157 Clouds 24 1011 81 10000 0.68 60 21:56 12.05.2022
2158 Clouds 25 1009 77 10000 0.43 194 20:29 12.05.2022
2159 Clouds 25 1008 77 10000 1.06 222 18:51 12.05.2022
2160 Clouds 30 1008 60 10000 1.13 272 17:23 12.05.2022
2161 Clouds 32 1008 51 10000 1.49 265 15:55 12.05.2022
2162 Clouds 32 1008 46 10000 1.78 259 14:41 12.05.2022
2163 Clouds 32 1010 51 10000 1.32 219 13:41 12.05.2022
2164 Clouds 26 1014 79 10000 1.57 216 10:46 12.05.2022
2165 Clouds 23 1014 97 10000 1.11 204 09:28 12.05.2022
2166 Clouds 23 1014 97 10000 1.11 204 08:51 12.05.2022
2167 Clouds 22 1013 99 10000 0.71 260 07:40 12.05.2022
2168 Rain 22 1012 99 10000 0.86 282 06:19 12.05.2022
2169 Clouds 22 1010 98 10000 0.95 252 02:56 12.05.2022
2170 Clouds 22 1011 97 10000 1.3 242 00:35 12.05.2022
2171 Rain 23 1012 97 10000 0.14 169 22:35 11.05.2022
2172 Rain 23 1011 97 10000 1.09 234 21:46 11.05.2022
2173 Rain 23 1010 96 10000 0.77 210 21:21 11.05.2022
2174 Clouds 25 1009 79 10000 0.42 187 18:49 11.05.2022
2175 Clouds 31 1007 60 10000 0.72 188 16:55 11.05.2022
2176 Clouds 32 1007 49 10000 0.47 234 15:31 11.05.2022
2177 Clouds 32 1007 49 10000 0.47 234 15:31 11.05.2022
2178 Clouds 32 1007 49 10000 0.47 234 15:31 11.05.2022
2179 Clouds 32 1007 49 10000 0.47 234 15:31 11.05.2022
2180 Clouds 32 1007 49 10000 0.47 234 15:31 11.05.2022
2181 Clouds 32 1007 49 10000 0.47 234 15:31 11.05.2022
2182 Clouds 33 1007 48 10000 1.01 226 14:39 11.05.2022
2183 Clouds 33 1008 49 10000 1.44 225 14:18 11.05.2022
2184 Clouds 31 1011 59 10000 0.97 269 11:54 11.05.2022
2185 Clouds 29 1012 64 10000 0.91 264 10:44 11.05.2022
2186 Clouds 24 1013 92 10000 0.53 322 08:40 11.05.2022
2187 Clouds 21 1010 100 10000 0.79 337 05:28 11.05.2022
2188 Rain 23 1009 91 10000 0.29 251 00:45 11.05.2022
2189 Clouds 24 1009 84 10000 0.67 154 22:32 10.05.2022
2190 Rain 24 1010 85 10000 0.42 145 21:57 10.05.2022
2191 Clouds 25 1009 83 10000 0.9 143 20:57 10.05.2022
2192 Rain 24 1007 86 10000 1.06 289 19:47 10.05.2022
2193 Clouds 28 1006 69 10000 0.74 273 17:59 10.05.2022
2194 Clouds 31 1005 58 10000 0.52 202 17:29 10.05.2022
2195 Clouds 33 1005 47 10000 0.36 341 15:31 10.05.2022
2196 Clouds 36 1008 37 10000 1.14 165 12:47 10.05.2022
2197 Clouds 34 1009 41 10000 1.37 171 11:51 10.05.2022
2198 Clouds 32 1010 49 10000 1.18 157 11:21 10.05.2022
2199 Clouds 32 1010 49 10000 1.18 157 10:53 10.05.2022
2200 Clouds 25 1011 83 10000 0.69 158 09:26 10.05.2022
2201 Rain 21 1013 99 10000 0.87 27 07:26 10.05.2022
2202 Rain 21 1012 100 6118 1.58 42 04:32 10.05.2022
2203 Rain 21 1010 92 10000 0.49 140 01:18 10.05.2022
2204 Clouds 22 1010 88 10000 0.22 238 23:26 09.05.2022
2205 Clouds 22 1009 88 10000 1 237 21:58 09.05.2022
2206 Clouds 23 1009 87 10000 0.79 212 21:18 09.05.2022
2207 Rain 23 1008 82 10000 1.35 217 19:37 09.05.2022
2208 Clouds 28 1007 63 10000 1.63 184 17:56 09.05.2022
2209 Clouds 32 1006 49 10000 1.23 183 16:38 09.05.2022
2210 Clouds 34 1006 40 10000 1.16 183 15:52 09.05.2022
2211 Clouds 34 1006 40 10000 1.16 183 15:31 09.05.2022
2212 Clouds 34 1007 39 10000 0.16 272 14:32 09.05.2022
2213 Clouds 34 1008 40 10000 0.54 291 13:50 09.05.2022
2214 Clouds 33 1011 45 10000 1.13 314 12:26 09.05.2022
2215 Clouds 33 1011 45 10000 1.13 314 11:37 09.05.2022
2216 Clouds 31 1012 50 10000 1.36 345 10:43 09.05.2022
2217 Clouds 29 1013 58 10000 1.43 350 09:38 09.05.2022
2218 Clouds 24 1013 82 10000 0.79 39 07:54 09.05.2022
2219 Clouds 21 1011 99 10000 0.35 132 03:40 09.05.2022
2220 Clouds 21 1011 97 10000 1.35 166 00:20 09.05.2022
2221 Clouds 21 1011 96 10000 1.32 152 22:56 08.05.2022
2222 Clouds 22 1011 95 10000 1.39 152 21:56 08.05.2022
2223 Clouds 22 1010 93 10000 1.16 149 20:37 08.05.2022
2224 Clouds 22 1010 94 10000 1.1 143 19:45 08.05.2022
2225 Clouds 23 1009 94 10000 1.15 141 18:57 08.05.2022
2226 Clouds 25 1009 91 10000 1.25 162 18:19 08.05.2022
2227 Rain 26 1008 86 10000 1.44 177 16:56 08.05.2022
2228 Rain 27 1009 86 10000 1.72 180 15:40 08.05.2022
2229 Rain 26 1009 88 10000 1.73 178 15:20 08.05.2022
2230 Rain 26 1009 88 10000 1.73 178 15:20 08.05.2022
2231 Rain 29 1011 72 10000 1.78 167 12:39 08.05.2022
2232 Clouds 28 1013 66 10000 1.52 186 10:32 08.05.2022
2233 Clouds 26 1014 74 10000 1.13 183 09:58 08.05.2022
2234 Clouds 26 1014 74 10000 1.13 183 09:31 08.05.2022
2235 Rain 22 1014 96 10000 0.75 182 07:31 08.05.2022
2236 Rain 20 1010 98 10000 0.51 187 03:55 08.05.2022
2237 Rain 21 1010 96 10000 0.69 55 02:51 08.05.2022
2238 Clouds 22 1010 81 10000 0.97 177 00:28 08.05.2022
2239 Clouds 22 1010 81 10000 0.97 177 23:51 07.05.2022
2240 Clouds 22 1010 81 10000 1.23 148 22:48 07.05.2022
2241 Clouds 22 1009 80 10000 0.72 148 21:59 07.05.2022
2242 Clouds 22 1009 80 10000 0.72 148 21:34 07.05.2022
2243 Clouds 23 1009 81 10000 1.18 197 20:42 07.05.2022
2244 Clouds 24 1008 80 10000 1.33 161 19:57 07.05.2022
2245 Clouds 26 1006 73 10000 1.04 186 17:43 07.05.2022
2246 Clouds 30 1006 53 10000 0.68 127 15:51 07.05.2022
2247 Clouds 29 1008 59 10000 0.88 111 14:19 07.05.2022
2248 Clouds 28 1012 60 10000 0.69 356 10:56 07.05.2022
2249 Clouds 24 1013 80 10000 0.68 6 09:20 07.05.2022
2250 Clouds 22 1012 95 10000 0.49 1 07:52 07.05.2022
2251 Clouds 21 1012 99 10000 0.07 350 06:43 07.05.2022
2252 Clouds 20 1010 99 10000 0.3 353 04:59 07.05.2022
2253 Clouds 20 1010 99 10000 0.8 142 01:46 07.05.2022
2254 Clouds 21 1011 99 10000 0.44 67 23:38 06.05.2022
2255 Clouds 21 1011 99 10000 0.99 8 22:30 06.05.2022
2256 Clouds 21 1011 99 10000 0.54 88 21:43 06.05.2022
2257 Clouds 21 1011 99 10000 0.54 88 21:43 06.05.2022
2258 Clouds 21 1011 99 10000 0.89 163 20:35 06.05.2022
2259 Clouds 21 1011 99 10000 0.63 73 19:31 06.05.2022
2260 Clouds 22 1010 99 10000 0.32 225 18:59 06.05.2022
2261 Clouds 23 1009 95 10000 1.21 223 18:19 06.05.2022
2262 Clouds 23 1009 94 10000 1.83 222 16:44 06.05.2022
2263 Rain 23 1010 96 10000 2.05 231 15:41 06.05.2022
2264 Rain 22 1010 99 10000 1.34 235 14:50 06.05.2022
2265 Rain 26 1011 91 8564 1.57 164 12:55 06.05.2022
2266 Rain 26 1011 91 8564 1.57 164 12:36 06.05.2022
2267 Rain 28 1012 79 10000 1.37 194 11:42 06.05.2022
2268 Clouds 26 1014 82 10000 0.76 325 10:27 06.05.2022
2269 Clouds 26 1014 82 10000 0.76 325 09:45 06.05.2022
2270 Rain 23 1014 98 10000 0.67 16 08:27 06.05.2022
2271 Rain 21 1013 99 10000 0.47 63 06:42 06.05.2022
2272 Rain 21 1011 99 10000 0.47 91 04:53 06.05.2022
2273 Rain 21 1011 98 10000 0.23 341 02:45 06.05.2022
2274 Clouds 23 1010 87 10000 1.25 188 23:45 05.05.2022
2275 Clouds 24 1010 84 10000 0.84 61 21:53 05.05.2022
2276 Clouds 24 1009 81 10000 1.05 49 21:19 05.05.2022
2277 Clouds 24 1010 83 10000 0.82 22 19:53 05.05.2022
2278 Clouds 26 1009 77 10000 1.1 37 18:26 05.05.2022
2279 Clouds 29 1009 64 10000 1.11 91 16:20 05.05.2022
2280 Clouds 29 1009 60 10000 1.2 89 14:43 05.05.2022
2281 Clouds 32 1011 49 10000 2.04 44 13:21 05.05.2022
2282 Clouds 30 1012 54 10000 1.79 62 12:25 05.05.2022
2283 Clouds 29 1013 58 10000 1.89 59 10:37 05.05.2022
2284 Clouds 30 1013 55 10000 1.89 66 09:39 05.05.2022
2285 Clouds 24 1013 77 10000 1.5 76 07:34 05.05.2022
2286 Clouds 22 1011 86 10000 1.22 56 04:28 05.05.2022
2287 Clouds 22 1010 86 10000 1.01 158 01:50 05.05.2022
2288 Clouds 22 1011 85 10000 1.1 175 01:24 05.05.2022
2289 Clouds 23 1011 85 10000 1.04 150 23:47 04.05.2022
2290 Clouds 23 1011 84 10000 1.19 162 22:30 04.05.2022
2291 Clouds 23 1011 84 10000 1.37 162 21:49 04.05.2022
2292 Clouds 23 1010 83 10000 1.5 174 21:26 04.05.2022
2293 Clouds 24 1010 81 10000 1.56 166 20:22 04.05.2022
2294 Clouds 24 1010 81 10000 1.56 166 19:51 04.05.2022
2295 Clouds 25 1009 74 10000 1.57 156 18:51 04.05.2022
2296 Clouds 27 1009 69 10000 1.35 161 18:22 04.05.2022
2297 Clouds 27 1009 69 10000 1.35 161 17:30 04.05.2022
2298 Clouds 32 1008 46 10000 1 177 15:40 04.05.2022
2299 Clouds 32 1008 46 10000 1.05 176 15:22 04.05.2022
2300 Clouds 32 1010 49 10000 0.98 181 14:20 04.05.2022
2301 Clouds 30 1012 55 10000 0.89 170 13:26 04.05.2022
2302 Clouds 25 1013 79 10000 0.79 96 12:29 04.05.2022
2303 Clouds 25 1014 79 10000 1.09 120 10:40 04.05.2022
2304 Clouds 25 1014 81 10000 1.53 144 09:43 04.05.2022
2305 Clouds 24 1014 89 10000 1.85 134 08:41 04.05.2022
2306 Clouds 22 1013 99 10000 1.09 145 06:31 04.05.2022
2307 Rain 21 1012 99 10000 0.14 162 02:58 04.05.2022
2308 Clouds 21 1012 99 10000 0.68 212 00:33 04.05.2022
2309 Rain 22 1012 99 10000 0.56 311 22:34 03.05.2022
2310 Rain 22 1012 99 10000 0.72 350 21:43 03.05.2022
2311 Rain 22 1011 98 10000 0.36 127 20:53 03.05.2022
2312 Clouds 25 1009 81 10000 1.15 202 19:49 03.05.2022
2313 Clouds 25 1009 79 10000 1.36 215 18:52 03.05.2022
2314 Clouds 27 1008 73 10000 0.78 262 18:20 03.05.2022
2315 Clouds 29 1008 65 10000 0.74 166 16:37 03.05.2022
2316 Clouds 28 1007 68 10000 1.43 192 15:35 03.05.2022
2317 Clouds 34 1009 41 10000 0.73 212 12:47 03.05.2022
2318 Clouds 33 1011 45 10000 0.95 217 12:27 03.05.2022
2319 Clouds 31 1012 53 10000 1.02 198 10:57 03.05.2022
2320 Clouds 31 1012 53 10000 1.02 198 10:57 03.05.2022
2321 Rain 25 1014 78 10000 0.77 151 09:29 03.05.2022
2322 Rain 21 1012 96 10000 0.31 38 06:46 03.05.2022
2323 Clouds 20 1012 95 10000 0.42 164 05:58 03.05.2022
2324 Clouds 21 1011 94 10000 0.43 128 00:54 03.05.2022
2325 Clouds 21 1011 92 10000 0.58 120 22:38 02.05.2022
2326 Clouds 22 1011 90 10000 0.74 108 21:52 02.05.2022
2327 Clouds 22 1011 89 10000 0.84 112 20:51 02.05.2022
2328 Clouds 22 1010 90 10000 1.24 133 18:41 02.05.2022
2329 Clouds 24 1009 82 10000 1.43 123 18:21 02.05.2022
2330 Clouds 24 1009 82 10000 1.43 123 17:37 02.05.2022
2331 Clouds 28 1009 59 10000 1.16 96 16:22 02.05.2022
2332 Clouds 28 1009 59 10000 1.16 96 15:31 02.05.2022
2333 Clouds 24 1011 78 10000 0.64 145 13:51 02.05.2022
2334 Clouds 22 1013 95 10000 1.57 115 12:19 02.05.2022
2335 Clouds 22 1015 97 10000 1.26 103 10:47 02.05.2022
2336 Rain 21 1016 99 10000 1.26 124 09:29 02.05.2022
2337 Rain 21 1014 99 10000 1.54 157 07:51 02.05.2022
2338 Rain 21 1012 99 10000 1.64 152 03:53 02.05.2022
2339 Rain 21 1012 99 10000 1.41 151 00:24 02.05.2022
2340 Rain 21 1012 99 10000 1.41 151 23:48 01.05.2022
2341 Rain 22 1012 90 10000 1.17 162 22:25 01.05.2022
2342 Rain 23 1011 88 10000 1.2 166 21:22 01.05.2022
2343 Clouds 25 1010 77 10000 1.84 179 19:53 01.05.2022
2344 Clouds 25 1009 75 10000 1.47 176 18:58 01.05.2022
2345 Clouds 27 1008 72 10000 1.38 190 18:28 01.05.2022
2346 Clouds 29 1008 63 10000 0.9 182 17:29 01.05.2022
2347 Clouds 30 1009 57 10000 0.63 177 16:23 01.05.2022
2348 Clouds 30 1009 57 10000 0.63 177 15:36 01.05.2022
2349 Clouds 33 1009 45 10000 0.84 207 13:47 01.05.2022
2350 Clouds 30 1013 58 10000 1.84 207 11:23 01.05.2022
2351 Clouds 24 1015 89 10000 1.71 191 08:53 01.05.2022
2352 Clouds 24 1015 89 10000 1.71 191 08:34 01.05.2022
2353 Clouds 21 1012 99 10000 0.6 201 03:35 01.05.2022
2354 Clouds 21 1012 98 10000 0.24 148 00:29 01.05.2022
2355 Rain 21 1012 96 10000 0.37 39 21:49 30.04.2022
2356 Rain 21 1011 94 10000 0.66 85 21:18 30.04.2022
2357 Rain 23 1009 79 10000 0.64 147 19:42 30.04.2022
2358 Clouds 28 1007 62 10000 1.21 198 18:21 30.04.2022
2359 Clouds 32 1007 47 10000 0.74 217 16:50 30.04.2022
2360 Clouds 33 1007 39 10000 0.18 205 15:47 30.04.2022
2361 Clouds 34 1008 38 10000 0.25 126 14:48 30.04.2022
2362 Clouds 34 1010 38 10000 0.91 151 13:20 30.04.2022
2363 Clouds 33 1011 42 10000 1.22 162 11:34 30.04.2022
2364 Clouds 30 1013 48 10000 1.41 163 10:45 30.04.2022
2365 Clouds 27 1014 62 10000 1.32 168 09:41 30.04.2022
2366 Clouds 21 1013 95 10000 1 170 06:48 30.04.2022
2367 Clouds 21 1011 97 10000 1.03 181 02:55 30.04.2022
2368 Clouds 21 1013 98 10000 0.37 144 23:37 29.04.2022
2369 Clouds 22 1013 97 10000 0.65 203 22:31 29.04.2022
2370 Clouds 22 1013 97 10000 0.91 162 21:53 29.04.2022
2371 Clouds 22 1013 97 10000 1.08 136 20:49 29.04.2022
2372 Clouds 22 1012 97 10000 0.87 108 19:47 29.04.2022
2373 Clouds 22 1011 95 10000 0.97 137 18:36 29.04.2022
2374 Rain 23 1010 92 10000 0.49 144 17:25 29.04.2022
2375 Rain 25 1010 87 10000 0.32 282 15:50 29.04.2022
2376 Clouds 29 1010 55 10000 1.18 207 14:23 29.04.2022
2377 Rain 23 1012 94 10000 1.4 179 13:22 29.04.2022
2378 Rain 23 1013 98 10000 0.7 166 11:50 29.04.2022
2379 Clouds 23 1014 97 10000 0.41 230 08:53 29.04.2022
2380 Clouds 21 1012 99 10000 1.41 177 07:28 29.04.2022
2381 Clouds 21 1012 99 10000 1.41 177 07:28 29.04.2022
2382 Clouds 21 1012 99 10000 1.41 177 06:45 29.04.2022
2383 Clouds 21 1012 99 10000 0.6 167 05:44 29.04.2022
2384 Rain 21 1011 100 4714 1.29 54 00:46 29.04.2022
2385 Rain 22 1011 97 10000 1.1 23 23:34 28.04.2022
2386 Rain 22 1010 96 10000 0.98 319 22:44 28.04.2022
2387 Rain 23 1011 93 10000 1.54 2 21:47 28.04.2022
2388 Clouds 24 1010 85 10000 1.36 11 21:21 28.04.2022
2389 Clouds 24 1010 85 10000 1.36 11 20:35 28.04.2022
2390 Clouds 24 1008 79 10000 0.3 203 19:45 28.04.2022
2391 Clouds 24 1008 79 10000 0.3 203 19:45 28.04.2022
2392 Clouds 25 1007 75 10000 0.97 209 19:22 28.04.2022
2393 Clouds 25 1007 75 10000 0.97 209 18:36 28.04.2022
2394 Clouds 29 1006 61 10000 0.94 202 17:26 28.04.2022
2395 Clouds 29 1006 61 10000 0.94 202 16:41 28.04.2022
2396 Clouds 32 1006 44 10000 0.74 227 16:19 28.04.2022
2397 Clouds 33 1006 41 10000 0.88 257 15:29 28.04.2022
2398 Clouds 32 1006 43 10000 1.41 288 14:36 28.04.2022
2399 Clouds 30 1009 50 10000 1.27 265 12:55 28.04.2022
2400 Clouds 28 1010 58 10000 0.84 231 11:59 28.04.2022
2401 Clouds 27 1011 62 10000 0.84 185 10:46 28.04.2022
2402 Clouds 27 1012 65 10000 0.84 198 10:26 28.04.2022
2403 Clouds 24 1012 77 10000 0.43 218 08:44 28.04.2022
2404 Clouds 22 1011 100 6000 0 0 07:36 28.04.2022
2405 Rain 21 1011 99 10000 0.14 344 05:56 28.04.2022
2406 Rain 21 1011 99 10000 0.14 344 05:38 28.04.2022
2407 Rain 21 1010 99 10000 0.58 86 04:40 28.04.2022
2408 Rain 21 1009 91 10000 0.69 157 00:36 28.04.2022
2409 Clouds 23 1010 87 10000 0.78 226 22:45 27.04.2022
2410 Clouds 23 1009 85 10000 0.54 227 21:56 27.04.2022
2411 Rain 24 1009 85 10000 0.81 190 21:26 27.04.2022
2412 Rain 24 1009 85 10000 0.81 190 20:38 27.04.2022
2413 Clouds 24 1008 85 10000 0.84 263 19:38 27.04.2022
2414 Rain 24 1008 82 10000 0.92 262 19:18 27.04.2022
2415 Rain 26 1007 79 10000 1.17 243 18:25 27.04.2022
2416 Clouds 28 1007 64 10000 1.23 239 17:26 27.04.2022
2417 Clouds 31 1007 50 10000 0.73 255 15:22 27.04.2022
2418 Clouds 27 1011 67 10000 0.8 268 12:27 27.04.2022
2419 Clouds 27 1012 70 10000 1.27 230 11:21 27.04.2022
2420 Clouds 23 1012 92 10000 0.72 214 09:45 27.04.2022
2421 Clouds 22 1010 95 10000 1 169 07:25 27.04.2022
2422 Clouds 22 1010 96 10000 0.94 161 05:37 27.04.2022
2423 Clouds 21 1009 98 10000 0.8 179 01:35 27.04.2022
2424 Clouds 21 1010 97 10000 0.59 197 00:52 27.04.2022
2425 Clouds 21 1010 98 10000 0.07 211 23:57 26.04.2022
2426 Clouds 21 1010 98 10000 0.66 207 23:23 26.04.2022
2427 Clouds 21 1010 98 10000 0.66 207 22:41 26.04.2022
2428 Clouds 22 1009 95 10000 1.6 208 21:48 26.04.2022
2429 Clouds 22 1009 94 10000 1.69 216 20:54 26.04.2022
2430 Clouds 22 1009 94 10000 1.69 216 20:34 26.04.2022
2431 Clouds 23 1008 85 10000 1.31 214 19:33 26.04.2022
2432 Clouds 24 1007 83 10000 1.54 221 18:51 26.04.2022
2433 Clouds 26 1007 76 10000 1.48 204 18:18 26.04.2022
2434 Clouds 26 1007 76 10000 1.48 204 17:32 26.04.2022
2435 Clouds 29 1006 59 10000 1.22 128 14:46 26.04.2022
2436 Clouds 25 1009 82 10000 0.29 107 13:34 26.04.2022
2437 Rain 22 1012 99 10000 0.42 111 12:25 26.04.2022
2438 Rain 22 1013 99 10000 0.64 95 10:46 26.04.2022
2439 Rain 22 1013 99 10000 0.86 84 09:41 26.04.2022
2440 Rain 21 1012 100 10000 0.86 124 07:59 26.04.2022
2441 Rain 21 1010 100 4252 0.93 126 04:33 26.04.2022
2442 Rain 21 1009 99 6019 0.33 77 02:20 26.04.2022
2443 Rain 21 1010 98 8844 0.19 246 00:26 26.04.2022
2444 Rain 21 1009 92 10000 0.33 302 22:49 25.04.2022
2445 Rain 22 1009 90 10000 0.32 35 21:44 25.04.2022
2446 Clouds 23 1008 86 10000 0.62 42 20:45 25.04.2022
2447 Clouds 23 1008 86 10000 0.62 42 20:45 25.04.2022
2448 Clouds 23 1008 82 10000 0.47 323 19:34 25.04.2022
2449 Clouds 26 1006 73 10000 0.97 330 18:25 25.04.2022
2450 Clouds 26 1006 73 10000 0.97 330 17:32 25.04.2022
2451 Clouds 29 1006 56 10000 1.26 333 15:30 25.04.2022
2452 Clouds 28 1007 65 10000 1.2 6 14:54 25.04.2022
2453 Clouds 30 1008 52 10000 1.82 344 13:41 25.04.2022
2454 Clouds 27 1011 65 10000 1.49 3 11:53 25.04.2022
2455 Clouds 23 1012 86 10000 0.62 72 10:27 25.04.2022
2456 Clouds 22 1012 94 10000 0.53 101 09:20 25.04.2022
2457 Rain 21 1011 99 10000 1.05 88 06:49 25.04.2022
2458 Rain 21 1010 99 10000 0.99 94 05:23 25.04.2022
2459 Clouds 21 1009 99 10000 0.74 63 00:58 25.04.2022
2460 Clouds 21 1010 99 10000 0.94 89 23:52 24.04.2022
2461 Clouds 21 1010 99 10000 1.04 115 22:52 24.04.2022
2462 Clouds 21 1010 99 10000 1.04 115 22:31 24.04.2022
2463 Rain 21 1010 99 10000 1.67 168 21:42 24.04.2022
2464 Rain 21 1011 99 10000 1.75 162 21:18 24.04.2022
2465 Clouds 22 1009 99 10000 1.54 169 20:37 24.04.2022
2466 Clouds 22 1009 99 10000 1.23 171 19:48 24.04.2022
2467 Clouds 23 1008 96 10000 1.6 172 18:20 24.04.2022
2468 Clouds 23 1008 96 10000 1.6 172 17:37 24.04.2022
2469 Rain 25 1008 92 10000 1.99 189 17:19 24.04.2022
2470 Rain 25 1008 92 10000 1.99 189 16:35 24.04.2022
2471 Rain 25 1008 90 10000 2.01 187 15:56 24.04.2022
2472 Rain 25 1008 90 10000 2.01 187 15:31 24.04.2022
2473 Rain 26 1008 92 9167 2.27 185 13:58 24.04.2022
2474 Rain 29 1008 71 10000 2.12 200 13:25 24.04.2022
2475 Rain 29 1008 71 10000 2.12 200 12:32 24.04.2022
2476 Rain 29 1009 63 10000 2.24 223 11:33 24.04.2022
2477 Clouds 26 1012 77 10000 1.83 210 10:27 24.04.2022
2478 Clouds 24 1012 90 10000 1.45 200 09:26 24.04.2022
2479 Clouds 21 1010 99 10000 0.47 191 06:45 24.04.2022
2480 Rain 21 1008 99 6810 0.54 164 03:55 24.04.2022
2481 Rain 22 1007 99 8835 0.47 181 01:38 24.04.2022
2482 Clouds 22 1008 98 10000 1.09 196 00:24 24.04.2022
2483 Clouds 22 1008 98 10000 1.09 196 23:44 23.04.2022
2484 Rain 22 1009 98 10000 0.46 217 23:21 23.04.2022
2485 Rain 22 1008 97 9903 0.62 262 21:51 23.04.2022
2486 Rain 22 1008 97 9903 0.62 262 21:32 23.04.2022
2487 Rain 23 1007 85 10000 1.21 327 20:45 23.04.2022
2488 Rain 23 1007 85 10000 1.21 327 20:45 23.04.2022
2489 Clouds 24 1006 84 10000 0.74 314 19:46 23.04.2022
2490 Rain 25 1005 79 10000 0.77 255 19:19 23.04.2022
2491 Rain 25 1005 79 10000 0.77 255 18:49 23.04.2022
2492 Rain 27 1005 70 10000 0.39 317 17:51 23.04.2022
2493 Clouds 29 1004 62 10000 0.27 247 17:20 23.04.2022
2494 Clouds 29 1004 62 10000 0.27 247 16:40 23.04.2022
2495 Clouds 34 1004 40 10000 0.07 352 14:57 23.04.2022
2496 Clouds 35 1006 40 10000 0.71 16 12:35 23.04.2022
2497 Clouds 32 1010 51 10000 0.44 80 10:41 23.04.2022
2498 Clouds 26 1012 79 10000 0.83 66 08:55 23.04.2022
2499 Rain 21 1010 99 10000 1.11 74 06:29 23.04.2022
2500 Rain 21 1009 94 10000 0.45 357 03:54 23.04.2022
2501 Clouds 21 1009 96 10000 0.33 21 00:53 23.04.2022
2502 Rain 22 1009 93 10000 1.18 28 23:29 22.04.2022
2503 Clouds 24 1009 79 10000 0.74 23 22:19 22.04.2022
2504 Clouds 24 1009 79 10000 0.74 23 21:41 22.04.2022
2505 Clouds 24 1008 76 10000 0.84 310 20:45 22.04.2022
2506 Clouds 24 1007 77 10000 0.73 333 20:25 22.04.2022
2507 Clouds 26 1007 72 10000 1.13 351 19:18 22.04.2022
2508 Clouds 26 1007 72 10000 1.13 351 18:35 22.04.2022
2509 Clouds 28 1006 64 10000 0.65 323 17:39 22.04.2022
2510 Clouds 32 1006 48 10000 0.64 258 16:32 22.04.2022
2511 Clouds 33 1006 45 10000 0.61 254 15:32 22.04.2022
2512 Clouds 32 1006 45 10000 0.86 280 14:43 22.04.2022
2513 Clouds 34 1007 42 10000 0.71 271 13:43 22.04.2022
2514 Clouds 33 1009 44 10000 0.6 300 12:57 22.04.2022
2515 Clouds 31 1010 52 10000 0.83 336 11:43 22.04.2022
2516 Clouds 29 1012 60 10000 1.29 359 11:20 22.04.2022
2517 Clouds 29 1012 60 10000 1.29 359 10:47 22.04.2022
2518 Clouds 27 1013 67 10000 1.27 11 10:27 22.04.2022
2519 Clouds 27 1013 67 10000 1.27 11 09:50 22.04.2022
2520 Clouds 25 1013 75 10000 0.79 4 08:50 22.04.2022
2521 Clouds 22 1012 93 10000 0.02 263 06:56 22.04.2022
2522 Clouds 21 1009 92 10000 0.8 157 01:53 22.04.2022
2523 Clouds 22 1010 91 10000 0.75 159 23:53 21.04.2022
2524 Clouds 22 1010 89 10000 1 168 22:59 21.04.2022
2525 Clouds 23 1011 87 10000 0.96 190 21:59 21.04.2022
2526 Clouds 23 1010 83 10000 1.32 199 20:34 21.04.2022
2527 Clouds 24 1009 78 10000 1.58 175 19:53 21.04.2022
2528 Clouds 26 1008 71 10000 1.43 186 18:35 21.04.2022
2529 Clouds 27 1007 70 10000 1.07 207 17:49 21.04.2022
2530 Clouds 28 1007 66 10000 0.99 204 16:30 21.04.2022
2531 Clouds 31 1007 47 10000 1.35 192 15:21 21.04.2022
2532 Clouds 31 1007 47 10000 1.35 192 14:38 21.04.2022
2533 Clouds 31 1009 47 10000 2.55 178 13:23 21.04.2022
2534 Clouds 31 1009 47 10000 2.55 178 12:42 21.04.2022
2535 Clouds 30 1011 54 10000 1.86 190 10:45 21.04.2022
2536 Clouds 24 1012 84 10000 1.43 194 08:54 21.04.2022
2537 Clouds 21 1012 99 10000 0.81 182 07:24 21.04.2022
2538 Clouds 20 1010 100 10000 0.9 182 04:58 21.04.2022
2539 Clouds 20 1010 100 10000 0.53 173 03:28 21.04.2022
2540 Clouds 20 1010 100 10000 0.53 173 02:47 21.04.2022
2541 Clouds 20 1010 100 10000 0.53 173 02:47 21.04.2022
2542 Clouds 21 1011 100 10000 0.49 156 00:43 21.04.2022
2543 Clouds 21 1011 100 10000 0.63 157 23:50 20.04.2022
2544 Clouds 21 1011 100 10000 0.81 181 23:22 20.04.2022
2545 Clouds 21 1011 100 10000 0.81 181 22:45 20.04.2022
2546 Clouds 21 1011 100 10000 1.03 172 22:26 20.04.2022
2547 Clouds 22 1011 99 10000 1.3 153 21:27 20.04.2022
2548 Clouds 22 1010 97 10000 1.65 160 20:23 20.04.2022
2549 Clouds 22 1010 95 10000 1.22 141 19:51 20.04.2022
2550 Clouds 23 1009 88 10000 1.13 172 19:18 20.04.2022
2551 Clouds 24 1008 83 10000 0.95 212 17:55 20.04.2022
2552 Clouds 27 1007 70 10000 1.8 209 16:48 20.04.2022
2553 Clouds 27 1007 70 10000 1.8 209 16:30 20.04.2022
2554 Clouds 26 1009 74 10000 1.49 177 13:50 20.04.2022
2555 Rain 22 1013 99 10000 0.49 358 11:47 20.04.2022
2556 Rain 21 1013 99 10000 0.34 334 10:56 20.04.2022
2557 Rain 21 1014 99 10000 0.59 60 09:58 20.04.2022
2558 Rain 21 1014 100 7056 0.52 46 09:24 20.04.2022
2559 Rain 21 1013 99 6042 0.87 350 08:22 20.04.2022
2560 Rain 21 1014 100 2906 1.29 358 08:22 20.04.2022
2561 Rain 21 1013 99 6042 0.87 350 07:32 20.04.2022
2562 Rain 22 1011 99 2314 2.04 353 03:34 20.04.2022
2563 Rain 23 1010 93 10000 1.32 2 00:22 20.04.2022
2564 Rain 23 1010 93 10000 1.32 2 23:41 19.04.2022
2565 Clouds 24 1009 88 10000 1.22 187 22:26 19.04.2022
2566 Clouds 24 1009 88 10000 1.22 187 21:56 19.04.2022
2567 Clouds 24 1008 87 10000 1.35 194 21:23 19.04.2022
2568 Clouds 24 1008 87 10000 1.35 194 20:45 19.04.2022
2569 Clouds 25 1007 85 10000 1.22 183 19:56 19.04.2022
2570 Clouds 26 1006 80 10000 1.15 206 18:49 19.04.2022
2571 Clouds 27 1006 77 10000 0.7 283 17:40 19.04.2022
2572 Clouds 30 1006 63 10000 1.52 289 16:43 19.04.2022
2573 Clouds 31 1006 57 10000 2.2 305 16:23 19.04.2022
2574 Rain 32 1007 53 10000 2.09 313 14:50 19.04.2022
2575 Rain 33 1007 47 10000 1.51 289 13:54 19.04.2022
2576 Rain 32 1009 52 10000 1.5 258 12:50 19.04.2022
2577 Clouds 30 1011 60 10000 1.52 240 12:20 19.04.2022
2578 Clouds 25 1012 85 10000 0.67 232 10:46 19.04.2022
2579 Clouds 23 1013 97 10000 0.26 15 09:22 19.04.2022
2580 Clouds 22 1010 99 10000 0.7 262 05:59 19.04.2022
2581 Rain 21 1009 99 10000 0.95 306 03:37 19.04.2022
2582 Rain 21 1010 99 9195 0.38 149 00:55 19.04.2022
2583 Rain 22 1009 99 10000 0.58 220 23:31 18.04.2022
2584 Rain 22 1010 97 10000 1.19 85 21:30 18.04.2022
2585 Rain 22 1008 95 10000 0.11 25 20:56 18.04.2022
2586 Rain 23 1008 90 9183 0.75 236 20:35 18.04.2022
2587 Clouds 26 1007 74 10000 1.35 151 19:54 18.04.2022
2588 Clouds 27 1005 68 10000 0.84 172 18:57 18.04.2022
2589 Clouds 27 1005 68 10000 0.84 172 18:32 18.04.2022
2590 Clouds 29 1004 61 10000 1.36 323 17:36 18.04.2022
2591 Clouds 32 1004 50 10000 1 312 17:18 18.04.2022
2592 Clouds 32 1004 50 10000 1 312 16:34 18.04.2022
2593 Clouds 34 1005 41 10000 1.41 249 15:18 18.04.2022
2594 Clouds 35 1005 39 10000 1.62 251 13:42 18.04.2022
2595 Clouds 36 1007 35 10000 0.99 237 12:34 18.04.2022
2596 Clouds 35 1009 41 10000 1.23 221 11:35 18.04.2022
2597 Clouds 32 1010 49 10000 1.42 218 10:42 18.04.2022
2598 Clouds 29 1011 60 10000 1.27 210 09:31 18.04.2022
2599 Rain 23 1011 91 10000 0.34 202 08:28 18.04.2022
2600 Rain 21 1010 90 10000 0.48 295 05:51 18.04.2022
2601 Clouds 22 1007 77 10000 0.87 157 01:34 18.04.2022
2602 Clouds 23 1008 75 10000 0.91 173 22:43 17.04.2022
2603 Clouds 23 1008 73 10000 1.04 164 21:50 17.04.2022
2604 Clouds 25 1007 69 10000 1.52 161 21:27 17.04.2022
2605 Clouds 25 1007 69 10000 1.52 161 20:50 17.04.2022
2606 Clouds 24 1007 69 10000 1.71 165 19:52 17.04.2022
2607 Clouds 29 1005 53 10000 1.86 168 18:24 17.04.2022
2608 Clouds 33 1004 39 10000 1.74 180 16:33 17.04.2022
2609 Clouds 35 1004 33 10000 1.11 188 15:32 17.04.2022
2610 Clouds 34 1006 38 10000 0.56 188 14:27 17.04.2022
2611 Clouds 26 1010 71 10000 0.5 123 13:20 17.04.2022
2612 Clouds 25 1011 75 10000 0.63 153 12:29 17.04.2022
2613 Clouds 25 1012 77 10000 0.93 151 10:47 17.04.2022
2614 Clouds 24 1013 78 10000 1.01 115 10:29 17.04.2022
2615 Clouds 24 1013 78 10000 1.01 115 09:49 17.04.2022
2616 Clouds 24 1012 78 10000 1.18 118 08:54 17.04.2022
2617 Clouds 23 1012 81 10000 1.22 125 08:26 17.04.2022
2618 Clouds 20 1010 95 10000 1.27 126 04:52 17.04.2022
2619 Clouds 21 1010 97 10000 0.85 100 01:40 17.04.2022
2620 Clouds 21 1011 96 10000 0.74 118 23:59 16.04.2022
2621 Clouds 21 1011 94 10000 0.85 120 22:50 16.04.2022
2622 Clouds 21 1011 93 10000 1.13 150 21:42 16.04.2022
2623 Clouds 22 1010 92 10000 1.25 174 20:45 16.04.2022
2624 Clouds 23 1009 87 10000 1.38 203 19:21 16.04.2022
2625 Clouds 23 1009 87 10000 1.38 203 18:33 16.04.2022
2626 Clouds 27 1008 68 10000 1.32 190 16:42 16.04.2022
2627 Clouds 27 1008 66 10000 1.51 180 15:46 16.04.2022
2628 Clouds 28 1009 66 10000 1.91 163 14:57 16.04.2022
2629 Rain 30 1009 57 10000 1.55 167 14:29 16.04.2022
2630 Rain 30 1009 57 10000 1.55 167 13:41 16.04.2022
2631 Clouds 27 1012 72 10000 0.74 218 12:35 16.04.2022
2632 Clouds 22 1014 96 10000 0.58 162 11:24 16.04.2022
2633 Clouds 21 1015 98 10000 0.81 137 10:25 16.04.2022
2634 Clouds 21 1015 98 10000 0.81 137 09:32 16.04.2022
2635 Rain 21 1015 98 10000 0.83 143 08:41 16.04.2022
2636 Clouds 21 1013 98 10000 0.55 125 06:59 16.04.2022
2637 Rain 21 1012 99 10000 0.91 133 04:36 16.04.2022
2638 Clouds 21 1012 99 10000 0.45 167 00:38 16.04.2022
2639 Clouds 21 1013 99 10000 0.33 211 23:35 15.04.2022
2640 Rain 21 1013 99 10000 0.15 125 22:45 15.04.2022
2641 Rain 22 1012 99 10000 0.53 138 22:27 15.04.2022
2642 Clouds 22 1012 98 10000 1.02 157 21:20 15.04.2022
2643 Clouds 22 1012 98 10000 1.02 157 20:31 15.04.2022
2644 Clouds 22 1010 93 10000 1.09 183 19:41 15.04.2022
2645 Clouds 23 1009 90 10000 1.01 184 18:57 15.04.2022
2646 Clouds 25 1009 83 10000 0.59 182 18:26 15.04.2022
2647 Clouds 25 1009 83 10000 0.59 182 17:49 15.04.2022
2648 Clouds 26 1009 75 10000 0.18 154 17:22 15.04.2022
2649 Clouds 27 1009 68 10000 0.32 290 16:24 15.04.2022
2650 Clouds 27 1009 68 10000 0.32 290 15:40 15.04.2022
2651 Clouds 26 1010 72 10000 0.6 256 13:55 15.04.2022
2652 Rain 22 1012 99 10000 0.88 197 12:48 15.04.2022
2653 Rain 22 1013 99 10000 0.97 188 11:59 15.04.2022
2654 Rain 22 1013 99 10000 0.97 188 11:40 15.04.2022
2655 Rain 22 1013 99 10000 0.92 179 10:45 15.04.2022
2656 Rain 22 1014 99 9631 0.71 184 09:59 15.04.2022
2657 Rain 22 1013 100 4350 0.43 197 09:22 15.04.2022
2658 Rain 22 1013 100 4350 0.43 197 08:37 15.04.2022
2659 Rain 22 1012 100 1108 0.29 333 06:47 15.04.2022
2660 Rain 21 1011 100 1212 0.87 105 04:42 15.04.2022
2661 Clouds 22 1010 99 10000 0.43 275 00:32 15.04.2022
2662 Clouds 22 1010 99 10000 1.07 229 23:20 14.04.2022
2663 Clouds 22 1010 99 10000 1.07 229 22:44 14.04.2022
2664 Clouds 22 1010 99 10000 0.47 243 22:25 14.04.2022
2665 Clouds 22 1010 99 10000 0.47 243 21:46 14.04.2022
2666 Clouds 24 1007 87 10000 1.27 245 19:24 14.04.2022
2667 Clouds 24 1007 87 10000 1.27 245 18:53 14.04.2022
2668 Clouds 26 1006 77 10000 2.4 252 17:45 14.04.2022
2669 Clouds 27 1005 73 10000 1.93 284 16:49 14.04.2022
2670 Rain 27 1006 69 10000 2.19 305 15:51 14.04.2022
2671 Clouds 30 1006 57 10000 2.31 279 13:53 14.04.2022
2672 Clouds 29 1008 62 10000 2.44 265 13:20 14.04.2022
2673 Clouds 29 1008 62 10000 2.44 265 12:32 14.04.2022
2674 Clouds 27 1009 72 10000 2.17 257 11:37 14.04.2022
2675 Clouds 25 1010 83 10000 1.47 255 11:18 14.04.2022
2676 Clouds 25 1010 83 10000 1.47 255 10:31 14.04.2022
2677 Clouds 24 1011 91 10000 0.87 247 09:30 14.04.2022
2678 Rain 22 1009 97 10000 0.84 230 08:23 14.04.2022
2679 Rain 21 1007 99 10000 0.92 256 05:52 14.04.2022
2680 Clouds 22 1007 99 10000 1.48 232 00:29 14.04.2022
2681 Rain 22 1007 98 10000 0.84 304 22:38 13.04.2022
2682 Rain 22 1008 98 10000 0.73 74 21:43 13.04.2022
2683 Clouds 22 1005 94 10000 0.96 319 20:41 13.04.2022
2684 Rain 23 1004 92 10000 0.46 180 19:49 13.04.2022
2685 Rain 23 1004 92 10000 1.02 119 18:37 13.04.2022
2686 Rain 26 1002 76 10000 0.7 359 17:25 13.04.2022
2687 Rain 26 1002 76 10000 0.7 359 16:53 13.04.2022
2688 Rain 27 1001 73 10000 1.68 46 15:47 13.04.2022
2689 Clouds 33 1002 47 10000 0.42 132 15:27 13.04.2022
2690 Clouds 33 1002 47 10000 0.42 132 14:40 13.04.2022
2691 Clouds 34 1004 42 10000 0.24 154 13:38 13.04.2022
2692 Clouds 34 1006 45 10000 0.34 248 12:52 13.04.2022
2693 Clouds 33 1007 49 10000 0.61 253 11:47 13.04.2022
2694 Clouds 30 1008 62 10000 0.82 233 10:31 13.04.2022
2695 Clouds 24 1009 93 10000 0.18 160 08:45 13.04.2022
2696 Clouds 24 1009 91 10000 0.35 122 07:57 13.04.2022
2697 Clouds 22 1008 96 10000 0.62 142 06:48 13.04.2022
2698 Clouds 21 1007 98 10000 0.91 170 06:24 13.04.2022
2699 Clouds 23 1006 89 10000 0.29 159 02:24 13.04.2022
2700 Rain 23 1007 87 10000 1.2 192 00:20 13.04.2022
2701 Clouds 24 1007 81 10000 0.8 170 22:33 12.04.2022
2702 Clouds 24 1007 80 10000 0.49 217 21:54 12.04.2022
2703 Rain 25 1007 78 10000 1.04 226 20:48 12.04.2022
2704 Clouds 25 1006 74 10000 1.01 301 20:20 12.04.2022
2705 Clouds 26 1006 71 10000 0.64 220 19:40 12.04.2022
2706 Clouds 27 1005 64 10000 0.59 205 18:56 12.04.2022
2707 Clouds 28 1005 63 10000 0.64 199 17:39 12.04.2022
2708 Clouds 31 1004 56 10000 0.31 197 16:47 12.04.2022
2709 Clouds 32 1004 51 10000 0.45 327 15:35 12.04.2022
2710 Clouds 31 1005 55 10000 0.48 338 14:53 12.04.2022
2711 Clouds 34 1006 41 10000 0.13 79 13:50 12.04.2022
2712 Clouds 35 1007 39 10000 0.43 165 13:25 12.04.2022
2713 Clouds 34 1009 44 10000 0.71 162 12:21 12.04.2022
2714 Clouds 34 1009 44 10000 0.71 162 11:39 12.04.2022
2715 Clouds 29 1011 62 10000 1.2 113 09:52 12.04.2022
2716 Clouds 25 1012 81 10000 0.89 95 08:51 12.04.2022
2717 Clouds 21 1011 92 10000 0.13 2 07:20 12.04.2022
2718 Clouds 20 1010 93 10000 0.54 103 05:41 12.04.2022
2719 Clouds 20 1010 93 10000 0.3 86 02:37 12.04.2022
2720 Clouds 21 1010 85 10000 0.42 47 23:24 11.04.2022
2721 Clouds 21 1010 85 10000 0.42 47 22:33 11.04.2022
2722 Clouds 22 1009 81 10000 0.22 127 21:23 11.04.2022
2723 Clouds 22 1009 81 10000 0.22 127 20:35 11.04.2022
2724 Clouds 23 1008 81 10000 0.64 129 19:59 11.04.2022
2725 Clouds 23 1009 80 10000 0.82 41 19:27 11.04.2022
2726 Clouds 23 1009 80 10000 0.82 41 18:54 11.04.2022
2727 Clouds 25 1008 73 10000 0.98 18 17:58 11.04.2022
2728 Clouds 25 1008 73 10000 0.98 18 17:39 11.04.2022
2729 Clouds 27 1008 59 10000 1.31 20 16:33 11.04.2022
2730 Clouds 27 1009 60 10000 1.38 29 14:59 11.04.2022
2731 Clouds 25 1011 70 10000 1.28 352 13:36 11.04.2022
2732 Clouds 24 1012 73 10000 1.34 10 12:39 11.04.2022
2733 Clouds 24 1013 78 10000 1.45 28 12:20 11.04.2022
2734 Clouds 22 1013 89 10000 1.76 36 10:37 11.04.2022
2735 Clouds 21 1013 96 10000 1.64 40 09:49 11.04.2022
2736 Rain 20 1014 99 10000 1.19 327 07:58 11.04.2022
2737 Rain 20 1011 99 10000 1.04 300 04:35 11.04.2022
2738 Rain 20 1010 99 10000 0.4 71 23:30 10.04.2022
2739 Rain 20 1010 98 4545 2.42 168 22:27 10.04.2022
2740 Rain 20 1010 98 4545 2.42 168 21:49 10.04.2022
2741 Rain 22 1010 98 4274 3.47 158 20:50 10.04.2022
2742 Rain 23 1007 97 10000 1.24 163 19:56 10.04.2022
2743 Rain 22 1007 98 10000 1.83 134 19:34 10.04.2022
2744 Rain 24 1006 88 7033 1.22 151 18:48 10.04.2022
2745 Rain 24 1006 88 7033 1.22 151 18:48 10.04.2022
2746 Rain 27 1005 70 10000 0.78 311 18:24 10.04.2022
2747 Rain 27 1005 70 10000 0.78 311 17:42 10.04.2022
2748 Clouds 31 1004 55 10000 0.93 292 16:51 10.04.2022
2749 Clouds 30 1003 54 10000 1.87 259 15:38 10.04.2022
2750 Clouds 29 1005 60 10000 1.59 266 14:40 10.04.2022
2751 Clouds 35 1006 38 10000 1.56 278 12:58 10.04.2022
2752 Clouds 34 1008 42 10000 1.59 266 12:26 10.04.2022
2753 Clouds 34 1008 42 10000 1.59 266 11:35 10.04.2022
2754 Clouds 32 1010 48 10000 1.57 255 10:58 10.04.2022
2755 Clouds 30 1010 56 10000 1.68 240 10:22 10.04.2022
2756 Clouds 30 1010 56 10000 1.68 240 09:40 10.04.2022
2757 Clouds 24 1010 79 10000 1.4 225 08:25 10.04.2022
2758 Clouds 25 1010 72 10000 2.05 197 07:47 10.04.2022
2759 Clouds 23 1009 82 10000 0.87 225 06:43 10.04.2022
2760 Clouds 22 1006 79 10000 1.12 171 02:48 10.04.2022
2761 Clouds 23 1006 74 10000 0.99 153 00:51 10.04.2022
2762 Clouds 23 1006 72 10000 1.08 191 23:50 09.04.2022
2763 Clouds 24 1006 71 10000 0.55 229 22:50 09.04.2022
2764 Clouds 24 1006 69 10000 0.36 272 21:48 09.04.2022
2765 Clear 25 1006 68 10000 0.53 232 20:57 09.04.2022
2766 Clouds 25 1006 67 10000 0.83 196 20:26 09.04.2022
2767 Clouds 25 1006 67 10000 0.83 196 19:42 09.04.2022
2768 Clouds 26 1004 64 10000 1.16 223 19:18 09.04.2022
2769 Clouds 28 1004 57 10000 0.68 260 18:22 09.04.2022
2770 Clouds 28 1004 57 10000 0.68 260 17:40 09.04.2022
2771 Clouds 32 1003 44 10000 0.58 359 16:55 09.04.2022
2772 Clouds 34 1002 38 10000 0.76 8 16:24 09.04.2022
2773 Clouds 34 1002 38 10000 0.76 8 15:43 09.04.2022
2774 Clouds 36 1003 31 10000 0.91 2 14:44 09.04.2022
2775 Clouds 36 1003 31 10000 0.91 2 14:44 09.04.2022
2776 Clouds 37 1004 32 10000 0.66 360 14:23 09.04.2022
2777 Clouds 36 1006 35 10000 0.38 204 13:21 09.04.2022
2778 Clouds 36 1006 35 10000 0.38 204 12:51 09.04.2022
2779 Clouds 35 1007 39 10000 0.79 191 11:41 09.04.2022
2780 Clouds 31 1010 51 10000 0.8 234 10:21 09.04.2022
2781 Clouds 31 1010 51 10000 0.8 234 09:52 09.04.2022
2782 Clouds 28 1010 61 10000 0.42 242 08:57 09.04.2022
2783 Clouds 24 1010 75 10000 0.51 201 07:32 09.04.2022
2784 Clouds 20 1007 88 10000 0.35 164 03:21 09.04.2022
2785 Clouds 20 1009 87 10000 1.08 182 00:30 09.04.2022
2786 Clouds 21 1009 86 10000 0.74 223 22:58 08.04.2022
2787 Clouds 21 1009 86 10000 0.79 267 21:35 08.04.2022
2788 Clouds 21 1009 87 10000 1.02 290 20:41 08.04.2022
2789 Clouds 21 1008 86 10000 1.46 300 19:41 08.04.2022
2790 Clouds 23 1009 81 10000 1.85 313 18:34 08.04.2022
2791 Clouds 25 1008 70 10000 1.22 309 17:55 08.04.2022
2792 Clouds 29 1007 53 10000 0.81 238 17:27 08.04.2022
2793 Clouds 29 1007 53 10000 0.81 238 16:51 08.04.2022
2794 Clouds 29 1007 50 10000 0.92 186 16:22 08.04.2022
2795 Clouds 26 1009 65 10000 1.04 182 15:28 08.04.2022
2796 Clouds 26 1009 65 10000 1.04 182 14:40 08.04.2022
2797 Clouds 26 1010 63 10000 0.44 52 13:55 08.04.2022
2798 Clouds 26 1010 63 10000 0.44 52 13:30 08.04.2022
2799 Clouds 23 1011 83 10000 0.46 16 12:42 08.04.2022
2800 Clouds 21 1014 92 10000 1.47 342 10:56 08.04.2022
2801 Rain 20 1015 96 10000 1.53 351 09:41 08.04.2022
2802 Rain 20 1015 98 10000 1.83 335 08:58 08.04.2022
2803 Clouds 20 1013 97 10000 1.22 271 07:42 08.04.2022
2804 Rain 20 1012 98 10000 1.91 326 06:44 08.04.2022
2805 Rain 21 1012 100 2646 0.36 42 02:29 08.04.2022
2806 Rain 22 1013 99 5941 0.8 63 00:28 08.04.2022
2807 Rain 22 1013 99 5941 0.8 63 23:41 07.04.2022
2808 Rain 21 1013 99 3764 1.39 78 22:41 07.04.2022
2809 Rain 23 1010 93 10000 0.49 65 22:22 07.04.2022
2810 Rain 23 1010 93 10000 0.49 65 21:56 07.04.2022
2811 Rain 24 1008 89 10000 1.21 176 21:23 07.04.2022
2812 Rain 24 1008 89 10000 1.21 176 20:42 07.04.2022
2813 Clouds 25 1007 82 10000 1.11 301 19:25 07.04.2022
2814 Clouds 29 1005 64 10000 1.47 342 17:28 07.04.2022
2815 Clouds 29 1005 64 10000 1.47 342 16:51 07.04.2022
2816 Clouds 29 1005 64 10000 1.47 342 16:33 07.04.2022
2817 Clouds 27 1006 71 10000 0.91 335 15:39 07.04.2022
2818 Clouds 30 1009 59 10000 0.84 216 13:52 07.04.2022
2819 Clouds 29 1011 58 10000 1.31 161 13:23 07.04.2022
2820 Clouds 26 1012 78 10000 1.25 162 11:49 07.04.2022
2821 Clouds 23 1013 93 10000 0.51 115 10:40 07.04.2022
2822 Clouds 22 1013 97 10000 0.84 218 08:43 07.04.2022
2823 Clouds 22 1011 98 10000 0.86 70 06:59 07.04.2022
2824 Clouds 22 1010 99 10000 0.46 213 04:36 07.04.2022
2825 Clouds 22 1009 99 10000 0.74 155 02:32 07.04.2022
2826 Clouds 22 1010 98 10000 0.51 126 00:42 07.04.2022
2827 Clouds 22 1011 99 10000 1.24 69 23:21 06.04.2022
2828 Clouds 22 1011 99 10000 1.24 69 22:44 06.04.2022
2829 Clouds 22 1010 98 10000 1.3 70 22:19 06.04.2022
2830 Clouds 22 1010 98 10000 0.79 37 20:47 06.04.2022
2831 Clouds 23 1009 91 10000 1.38 53 19:59 06.04.2022
2832 Clouds 23 1008 90 10000 1.14 336 19:20 06.04.2022
2833 Clouds 23 1008 90 10000 1.14 336 18:48 06.04.2022
2834 Clouds 25 1007 80 10000 1.21 334 17:36 06.04.2022
2835 Clouds 27 1006 72 10000 2.03 215 16:39 06.04.2022
2836 Clouds 27 1007 72 10000 1.94 225 16:19 06.04.2022
2837 Clouds 27 1007 72 10000 1.94 225 15:40 06.04.2022
2838 Rain 34 1007 44 10000 1.05 317 13:34 06.04.2022
2839 Rain 34 1007 44 10000 1.05 317 13:34 06.04.2022
2840 Clouds 34 1010 46 10000 0.31 244 12:29 06.04.2022
2841 Clouds 30 1012 59 10000 0.29 61 10:57 06.04.2022
2842 Clouds 30 1012 59 10000 0.29 61 10:33 06.04.2022
2843 Clouds 26 1013 77 10000 0.64 75 09:46 06.04.2022
2844 Clouds 24 1012 90 10000 0.38 115 08:51 06.04.2022
2845 Rain 23 1012 96 10000 0.47 173 07:58 06.04.2022
2846 Rain 21 1010 99 10000 0.92 191 05:23 06.04.2022
2847 Clouds 23 1010 93 10000 1.3 240 00:45 06.04.2022
2848 Clouds 23 1010 91 10000 1.17 300 23:48 05.04.2022
2849 Clouds 22 1010 89 10000 1.35 24 21:50 05.04.2022
2850 Clouds 23 1009 86 10000 1.41 7 20:59 05.04.2022
2851 Rain 24 1008 81 10000 0.84 9 20:23 05.04.2022
2852 Clouds 28 1006 55 10000 0.72 43 18:31 05.04.2022
2853 Clouds 33 1004 41 10000 0.43 199 17:21 05.04.2022
2854 Clouds 33 1004 41 10000 0.43 199 16:42 05.04.2022
2855 Clouds 35 1005 37 10000 0.62 350 15:51 05.04.2022
2856 Clouds 35 1005 37 10000 0.62 350 15:30 05.04.2022
2857 Clouds 34 1007 41 10000 2.16 339 13:46 05.04.2022
2858 Clouds 36 1009 38 10000 0.84 228 12:29 05.04.2022
2859 Clouds 36 1009 38 10000 0.84 228 11:43 05.04.2022
2860 Clouds 34 1011 44 10000 0.82 219 11:24 05.04.2022
2861 Clouds 31 1012 55 10000 0.82 200 09:31 05.04.2022
2862 Clouds 27 1012 73 10000 0.22 193 08:33 05.04.2022
2863 Clouds 21 1010 95 10000 0.67 205 03:50 05.04.2022
2864 Clouds 22 1010 93 10000 0.62 81 23:42 04.04.2022
2865 Clouds 22 1010 92 10000 0.45 167 22:37 04.04.2022
2866 Clouds 22 1010 91 10000 0.11 316 21:48 04.04.2022
2867 Rain 22 1010 90 10000 0.58 329 21:19 04.04.2022
2868 Rain 22 1010 90 10000 0.58 329 20:47 04.04.2022
2869 Clouds 27 1007 66 10000 1.25 185 19:28 04.04.2022
2870 Clouds 27 1007 66 10000 1.25 185 18:44 04.04.2022
2871 Clouds 32 1006 45 10000 1.54 239 17:21 04.04.2022
2872 Clouds 32 1006 45 10000 1.54 239 16:34 04.04.2022
2873 Clouds 33 1006 40 10000 1.72 231 15:34 04.04.2022
2874 Clouds 34 1006 39 10000 2.01 227 14:46 04.04.2022
2875 Clouds 34 1007 40 10000 2.08 226 14:28 04.04.2022
2876 Clouds 33 1009 41 10000 2.32 211 12:59 04.04.2022
2877 Clouds 29 1012 56 10000 1.63 190 11:29 04.04.2022
2878 Clouds 26 1013 66 10000 1.62 197 10:29 04.04.2022
2879 Clouds 26 1013 66 10000 1.62 197 10:29 04.04.2022
2880 Clouds 21 1011 98 10000 0.53 224 06:58 04.04.2022
2881 Rain 20 1010 99 10000 0.96 68 03:18 04.04.2022
2882 Clouds 21 1010 96 10000 1.08 278 23:47 03.04.2022
2883 Clouds 22 1009 95 10000 1.12 239 22:24 03.04.2022
2884 Clouds 22 1009 95 10000 1.12 239 21:32 03.04.2022
2885 Rain 22 1009 94 10000 1.22 250 20:36 03.04.2022
2886 Rain 25 1007 78 10000 1.73 272 19:29 03.04.2022
2887 Clouds 27 1006 69 10000 1.1 236 18:27 03.04.2022
2888 Clouds 27 1006 69 10000 1.1 236 17:41 03.04.2022
2889 Clouds 29 1005 62 10000 1.29 201 16:50 03.04.2022
2890 Clouds 29 1005 60 10000 1.79 204 16:21 03.04.2022
2891 Clouds 33 1006 44 10000 1.62 197 14:28 03.04.2022
2892 Clouds 33 1006 44 10000 1.62 197 13:44 03.04.2022
2893 Clouds 32 1010 51 10000 1.49 187 12:19 03.04.2022
2894 Clouds 29 1011 61 10000 1.51 196 10:32 03.04.2022
2895 Clouds 24 1012 88 10000 1.44 202 09:23 03.04.2022
2896 Clouds 22 1011 99 10000 0.61 188 07:24 03.04.2022
2897 Rain 21 1009 100 10000 0.79 284 03:46 03.04.2022
2898 Rain 21 1010 100 8064 1.09 341 00:41 03.04.2022
2899 Rain 20 1010 99 10000 1.31 272 22:54 02.04.2022
2900 Rain 20 1011 99 10000 0.82 353 21:57 02.04.2022
2901 Rain 20 1011 99 10000 0.82 353 21:33 02.04.2022
2902 Rain 20 1008 98 10000 0.97 311 20:51 02.04.2022
2903 Clouds 24 1004 88 10000 0.87 231 19:28 02.04.2022
2904 Rain 26 1004 81 10000 1.33 193 18:21 02.04.2022
2905 Rain 26 1004 81 10000 1.33 193 17:47 02.04.2022
2906 Rain 28 1002 69 10000 1 215 16:23 02.04.2022
2907 Clouds 33 1003 46 10000 1.51 226 15:21 02.04.2022
2908 Clouds 33 1003 46 10000 1.51 226 14:47 02.04.2022
2909 Clouds 36 1004 35 10000 0.77 228 13:35 02.04.2022
2910 Clouds 38 1005 32 10000 1.19 217 12:37 02.04.2022
2911 Clouds 34 1009 43 10000 1.82 214 10:58 02.04.2022
2912 Clouds 28 1010 61 10000 1.95 208 08:49 02.04.2022
2913 Clouds 22 1009 90 10000 1.11 177 06:50 02.04.2022
2914 Clouds 22 1007 90 10000 1.46 235 03:45 02.04.2022
2915 Clouds 22 1009 92 10000 1.15 90 23:56 01.04.2022
2916 Clouds 22 1008 90 10000 0.93 222 23:19 01.04.2022
2917 Clouds 23 1008 86 10000 1.52 315 21:34 01.04.2022
2918 Rain 24 1007 80 10000 2.97 309 20:51 01.04.2022
2919 Rain 26 1006 61 10000 2.16 308 20:25 01.04.2022
2920 Clouds 26 1006 59 10000 1.7 83 19:32 01.04.2022
2921 Clouds 27 1005 58 10000 1.97 85 18:45 01.04.2022
2922 Clouds 31 1003 47 10000 1.03 87 17:46 01.04.2022
2923 Clouds 35 1002 34 10000 1.7 128 16:52 01.04.2022
2924 Clouds 36 1003 31 10000 2.35 129 15:39 01.04.2022
2925 Clouds 37 1004 30 10000 1.03 108 14:20 01.04.2022
2926 Clouds 35 1005 36 10000 1.12 104 13:34 01.04.2022
2927 Clouds 37 1006 32 10000 0.71 122 12:32 01.04.2022
2928 Clouds 37 1006 32 10000 0.71 122 12:32 01.04.2022
2929 Clouds 36 1008 35 10000 1 150 11:40 01.04.2022
2930 Clouds 30 1010 49 10000 1.82 158 10:19 01.04.2022
2931 Clouds 28 1010 64 10000 1.89 163 08:58 01.04.2022
2932 Clouds 21 1010 97 10000 0.88 134 06:54 01.04.2022
2933 Clouds 21 1008 99 10000 0.92 154 04:51 01.04.2022
2934 Clouds 21 1008 99 10000 0.92 154 04:31 01.04.2022
2935 Clouds 21 1008 97 10000 1.74 149 01:56 01.04.2022
2936 Rain 21 1010 98 10000 0.49 180 22:58 31.03.2022
2937 Rain 21 1009 98 10000 1.98 167 21:53 31.03.2022
2938 Rain 21 1009 98 10000 1.98 167 21:32 31.03.2022
2939 Rain 21 1008 93 10000 3.29 342 20:29 31.03.2022
2940 Rain 22 1008 96 10000 1.7 346 19:50 31.03.2022
2941 Rain 21 1008 97 6446 3.67 34 18:46 31.03.2022
2942 Rain 23 1007 85 10000 4.26 42 17:50 31.03.2022
2943 Rain 33 1003 42 10000 1.79 63 16:38 31.03.2022
2944 Clouds 33 1003 44 10000 0.79 214 15:45 31.03.2022
2945 Clouds 35 1003 36 10000 0.64 176 15:19 31.03.2022
2946 Clouds 35 1003 36 10000 0.64 176 14:36 31.03.2022
2947 Clouds 34 1008 40 10000 1.55 131 12:19 31.03.2022
2948 Clouds 31 1009 48 10000 1.83 146 11:22 31.03.2022
2949 Clouds 27 1011 63 10000 1.82 157 09:45 31.03.2022
2950 Clouds 22 1011 92 10000 1.35 166 08:20 31.03.2022
2951 Clouds 21 1008 99 10000 1.21 153 05:42 31.03.2022
2952 Clouds 21 1010 99 10000 1.28 156 23:58 30.03.2022
2953 Rain 20 1011 99 10000 0.98 56 22:43 30.03.2022
2954 Rain 21 1010 97 10000 1.18 46 21:39 30.03.2022
2955 Clouds 23 1009 86 10000 0.68 121 20:54 30.03.2022
2956 Clouds 23 1009 86 10000 0.68 121 20:54 30.03.2022
2957 Clouds 23 1009 81 10000 1.25 152 20:20 30.03.2022
2958 Clouds 23 1009 81 10000 1.25 152 20:20 30.03.2022
2959 Clouds 23 1008 82 10000 1.5 147 19:28 30.03.2022
2960 Clouds 25 1008 72 10000 1.32 140 18:19 30.03.2022
2961 Clouds 25 1008 72 10000 1.32 140 17:45 30.03.2022
2962 Clouds 27 1007 62 10000 0.85 118 16:57 30.03.2022
2963 Clouds 27 1007 62 10000 0.85 118 16:33 30.03.2022
2964 Clouds 27 1007 62 10000 1.92 138 15:24 30.03.2022
2965 Clouds 30 1007 52 10000 1.41 168 13:42 30.03.2022
2966 Clouds 25 1009 70 10000 1 178 12:47 30.03.2022
2967 Clouds 24 1012 78 10000 1.71 139 10:58 30.03.2022
2968 Clouds 24 1012 78 10000 1.79 125 10:23 30.03.2022
2969 Clouds 24 1012 78 10000 1.73 142 09:23 30.03.2022
2970 Clouds 22 1011 90 10000 1.49 140 07:32 30.03.2022
2971 Clouds 21 1010 97 10000 1.53 127 05:40 30.03.2022
2972 Clouds 21 1009 98 10000 1.61 128 03:39 30.03.2022
2973 Clouds 21 1009 92 10000 0.74 139 00:31 30.03.2022
2974 Clouds 21 1011 91 10000 1.35 180 22:25 29.03.2022
2975 Clouds 21 1011 91 10000 1.35 180 21:44 29.03.2022
2976 Clouds 22 1011 88 10000 1 192 20:52 29.03.2022
2977 Clouds 22 1010 85 10000 0.81 159 19:53 29.03.2022
2978 Clouds 23 1009 82 10000 0.93 142 18:55 29.03.2022
2979 Clouds 24 1009 79 10000 0.39 121 18:19 29.03.2022
2980 Clouds 24 1008 75 10000 0.99 159 17:21 29.03.2022
2981 Clouds 24 1008 75 10000 0.99 159 16:56 29.03.2022
2982 Clouds 26 1009 69 10000 1.49 137 15:57 29.03.2022
2983 Clouds 25 1010 72 10000 1.61 140 14:50 29.03.2022
2984 Clouds 24 1010 78 10000 1.78 146 13:53 29.03.2022
2985 Clouds 23 1011 82 10000 1.52 162 12:47 29.03.2022
2986 Clouds 23 1012 84 10000 1.42 184 11:31 29.03.2022
2987 Clouds 22 1013 88 10000 1.55 160 10:27 29.03.2022
2988 Rain 22 1013 92 10000 1.63 158 09:23 29.03.2022
2989 Clouds 22 1010 92 10000 1.07 184 06:55 29.03.2022
2990 Clouds 22 1009 96 10000 0.89 204 03:49 29.03.2022
2991 Rain 23 1010 92 10000 1.48 125 23:54 28.03.2022
2992 Rain 24 1009 82 10000 2.41 147 23:19 28.03.2022
2993 Rain 24 1009 82 10000 2.41 147 22:47 28.03.2022
2994 Clouds 24 1008 82 10000 1.27 148 22:22 28.03.2022
2995 Clouds 25 1008 79 10000 1.42 155 20:53 28.03.2022
2996 Clouds 27 1007 66 10000 2.2 172 19:59 28.03.2022
2997 Clouds 27 1007 66 10000 2.2 172 19:40 28.03.2022
2998 Clouds 28 1005 58 10000 1.82 153 18:52 28.03.2022
2999 Clouds 30 1004 50 10000 0.81 179 18:19 28.03.2022
3000 Clouds 30 1004 50 10000 0.81 179 17:30 28.03.2022
3001 Clouds 35 1004 33 10000 0.92 169 15:54 28.03.2022
3002 Clouds 38 1005 27 10000 0.78 113 14:27 28.03.2022
3003 Clouds 36 1006 31 10000 0.65 338 13:35 28.03.2022
3004 Clouds 32 1010 45 10000 0.72 149 11:57 28.03.2022
3005 Clouds 31 1011 49 10000 1.48 142 10:49 28.03.2022
3006 Clouds 30 1012 56 10000 1.71 159 09:38 28.03.2022
3007 Clouds 26 1013 73 10000 1.66 156 08:49 28.03.2022
3008 Clouds 23 1012 92 10000 1.62 170 08:21 28.03.2022
3009 Clouds 21 1012 97 10000 1.47 160 07:27 28.03.2022
3010 Clouds 21 1010 99 10000 1.21 148 02:48 28.03.2022
3011 Rain 22 1012 99 10000 0.54 214 22:59 27.03.2022
3012 Rain 22 1010 98 10000 1.18 138 22:22 27.03.2022
3013 Rain 22 1010 98 10000 1.18 138 21:40 27.03.2022
3014 Rain 22 1010 97 10000 1.44 154 20:53 27.03.2022
3015 Clouds 25 1008 73 10000 1.64 136 19:44 27.03.2022
3016 Clouds 26 1007 68 10000 1.38 128 18:47 27.03.2022
3017 Clouds 26 1007 68 10000 1.38 128 18:47 27.03.2022
3018 Clouds 28 1007 59 10000 1.64 112 18:26 27.03.2022
3019 Clouds 28 1007 59 10000 1.64 112 17:38 27.03.2022
3020 Clouds 33 1005 41 10000 1.04 336 15:57 27.03.2022
3021 Clouds 30 1008 51 10000 0.58 66 14:22 27.03.2022
3022 Clouds 30 1008 52 10000 0.83 105 13:42 27.03.2022
3023 Clouds 28 1011 59 10000 1.14 145 11:46 27.03.2022
3024 Clouds 25 1012 74 10000 0.85 182 10:23 27.03.2022
3025 Clouds 25 1010 71 10000 1.77 154 07:55 27.03.2022
3026 Clouds 22 1008 88 10000 0.82 130 05:19 27.03.2022
3027 Clouds 24 1007 77 10000 0.9 197 00:37 27.03.2022
3028 Clouds 25 1008 69 10000 1.57 128 22:58 26.03.2022
3029 Clouds 25 1008 68 10000 1.8 138 22:27 26.03.2022
3030 Clouds 25 1008 68 10000 1.8 138 21:31 26.03.2022
3031 Clouds 26 1006 66 10000 1.41 185 19:45 26.03.2022
3032 Clouds 27 1006 61 10000 1.62 206 18:56 26.03.2022
3033 Clouds 28 1005 55 10000 1.43 198 17:44 26.03.2022
3034 Clouds 28 1005 55 10000 1.43 198 17:44 26.03.2022
3035 Clouds 30 1004 50 10000 1.11 200 17:22 26.03.2022
3036 Clouds 34 1004 40 10000 0.64 195 15:52 26.03.2022
3037 Clouds 37 1004 29 10000 1.19 55 14:21 26.03.2022
3038 Clouds 37 1004 29 10000 1.19 55 13:51 26.03.2022
3039 Clouds 37 1005 28 10000 1.8 49 12:36 26.03.2022
3040 Clouds 34 1008 39 10000 1.51 96 11:18 26.03.2022
3041 Clouds 29 1011 57 10000 1.69 123 09:22 26.03.2022
3042 Clouds 26 1011 76 10000 1.46 128 07:36 26.03.2022
3043 Clouds 21 1010 97 10000 0.91 71 05:52 26.03.2022
3044 Clouds 21 1008 98 10000 0.95 114 03:32 26.03.2022
3045 Rain 20 1010 97 10000 1.09 215 22:57 25.03.2022
3046 Rain 22 1011 93 10000 1.9 118 20:58 25.03.2022
3047 Rain 22 1011 93 10000 1.9 118 20:37 25.03.2022
3048 Clouds 23 1007 91 10000 1.09 231 19:21 25.03.2022
3049 Clouds 23 1007 91 10000 1.09 231 18:37 25.03.2022
3050 Rain 23 1007 90 10000 0.94 184 17:34 25.03.2022
3051 Rain 23 1007 90 10000 0.94 184 17:34 25.03.2022
3052 Rain 25 1006 73 10000 1.6 77 16:38 25.03.2022
3053 Rain 32 1005 47 10000 4.59 19 15:46 25.03.2022
3054 Clouds 34 1004 39 10000 1.16 15 13:32 25.03.2022
3055 Clear 39 1006 28 10000 0.75 97 11:49 25.03.2022
3056 Clear 35 1009 37 10000 1 180 09:46 25.03.2022
3057 Clear 33 1010 46 10000 1.01 177 08:59 25.03.2022
3058 Clouds 29 1011 57 10000 0.49 159 07:47 25.03.2022
3059 Rain 23 1011 92 10000 0.48 245 07:21 25.03.2022
3060 Clouds 22 1008 79 10000 0.72 142 03:58 25.03.2022
3061 Clouds 22 1008 86 10000 1.23 195 23:54 24.03.2022
3062 Clouds 24 1009 71 10000 1.01 146 22:24 24.03.2022
3063 Clouds 24 1008 71 10000 0.56 224 21:29 24.03.2022
3064 Clouds 24 1008 70 10000 1.03 297 19:50 24.03.2022
3065 Rain 25 1007 68 10000 0.74 172 18:46 24.03.2022
3066 Clouds 27 1006 60 10000 1.14 19 17:38 24.03.2022
3067 Clouds 30 1005 50 10000 0.63 81 16:39 24.03.2022
3068 Clouds 36 1004 31 10000 2.4 177 14:58 24.03.2022
3069 Clouds 36 1004 31 10000 2.4 177 14:39 24.03.2022
3070 Clouds 37 1005 29 10000 1.97 153 13:36 24.03.2022
3071 Clouds 37 1006 30 10000 1.17 154 12:35 24.03.2022
3072 Clouds 36 1008 33 10000 1.51 176 11:31 24.03.2022
3073 Clouds 31 1011 50 10000 2.38 171 09:34 24.03.2022
3074 Clouds 29 1012 60 10000 2.34 164 08:39 24.03.2022
3075 Clouds 21 1012 98 10000 1.28 146 05:45 24.03.2022
3076 Rain 21 1012 99 10000 1.04 137 00:47 24.03.2022
3077 Rain 21 1012 96 7720 1.5 44 22:23 23.03.2022
3078 Rain 22 1011 90 10000 0.95 293 21:24 23.03.2022
3079 Rain 22 1011 90 10000 0.95 293 20:46 23.03.2022
3080 Rain 23 1010 85 10000 0.4 244 19:33 23.03.2022
3081 Clouds 25 1007 71 10000 1.16 342 18:19 23.03.2022
3082 Clouds 28 1006 63 10000 1.1 21 17:26 23.03.2022
3083 Clouds 31 1006 50 10000 1.25 25 16:18 23.03.2022
3084 Clouds 30 1006 51 10000 1.59 7 14:49 23.03.2022
3085 Clouds 34 1007 39 10000 0.55 31 13:34 23.03.2022
3086 Clouds 31 1010 49 10000 1.39 138 11:38 23.03.2022
3087 Clouds 28 1013 61 10000 1.74 150 08:49 23.03.2022
3088 Clouds 21 1013 92 10000 1.12 176 06:25 23.03.2022
3089 Clouds 21 1012 92 10000 0.98 149 03:44 23.03.2022
3090 Clouds 21 1013 93 10000 1.12 148 00:28 23.03.2022
3091 Clouds 22 1014 90 10000 1.09 182 21:53 22.03.2022
3092 Clouds 22 1014 89 10000 0.99 175 21:23 22.03.2022
3093 Clouds 23 1013 87 10000 1.02 146 20:30 22.03.2022
3094 Clouds 22 1011 92 10000 1.24 183 19:27 22.03.2022
3095 Clouds 22 1011 92 10000 1.24 183 18:50 22.03.2022
3096 Clouds 23 1010 92 10000 1.74 187 17:44 22.03.2022
3097 Clouds 24 1010 89 10000 1.21 151 16:58 22.03.2022
3098 Clouds 24 1009 87 10000 0.3 215 15:48 22.03.2022
3099 Rain 26 1009 83 10000 0.54 218 15:21 22.03.2022
3100 Rain 26 1009 83 10000 0.54 218 14:45 22.03.2022
3101 Rain 27 1009 71 10000 1.13 172 14:24 22.03.2022
3102 Rain 28 1010 61 10000 1.37 190 12:40 22.03.2022
3103 Clouds 27 1012 64 10000 2.41 194 11:26 22.03.2022
3104 Clouds 27 1012 68 10000 2.33 189 09:52 22.03.2022
3105 Clouds 23 1012 92 10000 1.95 177 07:44 22.03.2022
3106 Clouds 20 1008 98 10000 3.31 206 04:29 22.03.2022
3107 Clouds 20 1010 99 10000 2.46 205 02:52 22.03.2022
3108 Rain 21 1011 96 10000 0.83 208 23:19 21.03.2022
3109 Rain 21 1011 94 10000 2.17 73 21:47 21.03.2022
3110 Clouds 21 1009 94 10000 0.84 125 20:45 21.03.2022
3111 Clouds 20 1009 97 10000 0.81 81 20:24 21.03.2022
3112 Clouds 20 1009 97 10000 0.81 81 19:48 21.03.2022
3113 Rain 21 1007 98 10000 1.51 150 19:22 21.03.2022
3114 Rain 20 1007 97 10000 1.57 90 17:36 21.03.2022
3115 Rain 21 1005 97 10000 3.91 279 16:59 21.03.2022
3116 Rain 21 1005 97 10000 3.91 279 16:36 21.03.2022
3117 Rain 22 1006 98 8244 2.36 321 15:45 21.03.2022
3118 Rain 27 1003 77 5976 1.91 356 14:47 21.03.2022
3119 Clouds 35 1005 38 10000 2.13 196 13:27 21.03.2022
3120 Clouds 36 1006 37 10000 1.73 201 12:22 21.03.2022
3121 Clouds 36 1006 37 10000 1.73 201 11:39 21.03.2022
3122 Clouds 32 1009 49 10000 1.71 170 09:54 21.03.2022
3123 Clouds 26 1010 77 10000 1.62 174 07:54 21.03.2022
3124 Clouds 23 1010 93 10000 1.77 175 06:31 21.03.2022
3125 Clouds 22 1008 99 10000 1.09 196 02:24 21.03.2022
3126 Clouds 22 1009 99 10000 0.66 262 23:26 20.03.2022
3127 Clouds 22 1009 99 10000 0.66 262 22:42 20.03.2022
3128 Rain 22 1010 99 10000 1.27 278 21:44 20.03.2022
3129 Rain 22 1010 99 10000 0.37 200 20:59 20.03.2022
3130 Rain 22 1010 99 10000 0.37 200 20:39 20.03.2022
3131 Rain 22 1009 97 9295 2.33 118 19:56 20.03.2022
3132 Rain 24 1007 83 10000 3.03 125 19:25 20.03.2022
3133 Rain 27 1005 67 10000 0.75 117 17:50 20.03.2022
3134 Clouds 30 1004 55 10000 1.38 308 17:28 20.03.2022
3135 Clouds 30 1004 55 10000 1.38 308 16:41 20.03.2022
3136 Clouds 32 1003 45 10000 1.52 221 14:53 20.03.2022
3137 Clouds 33 1004 42 10000 1.34 257 13:46 20.03.2022
3138 Clouds 37 1006 31 10000 1.29 242 12:21 20.03.2022
3139 Clouds 36 1008 34 10000 1.49 228 10:38 20.03.2022
3140 Clouds 31 1010 48 10000 1.7 225 08:35 20.03.2022
3141 Clouds 23 1010 91 10000 1.27 211 06:40 20.03.2022
3142 Rain 23 1007 78 10000 1.36 169 03:27 20.03.2022
3143 Clouds 27 1005 53 10000 1.55 256 00:59 20.03.2022
3144 Clouds 27 1005 53 10000 1.55 256 00:35 20.03.2022
3145 Clouds 28 1006 50 10000 1.07 195 22:42 19.03.2022
3146 Clouds 28 1006 46 10000 1.2 178 21:27 19.03.2022
3147 Clouds 29 1005 45 10000 1.16 205 20:19 19.03.2022
3148 Clouds 30 1004 41 10000 1.28 236 18:44 19.03.2022
3149 Clouds 30 1004 40 10000 1.38 269 17:57 19.03.2022
3150 Clouds 30 1004 40 10000 1.38 269 17:34 19.03.2022
3151 Clouds 37 1002 25 10000 1.04 337 15:43 19.03.2022
3152 Clouds 40 1002 22 10000 0.8 65 14:21 19.03.2022
3153 Clouds 39 1004 24 10000 0.74 97 12:56 19.03.2022
3154 Clouds 39 1004 24 10000 0.74 97 12:38 19.03.2022
3155 Clouds 39 1006 26 10000 0.64 105 11:49 19.03.2022
3156 Clouds 37 1008 29 10000 0.79 152 10:41 19.03.2022
3157 Clouds 21 1010 83 10000 1.05 168 05:59 19.03.2022
3158 Clouds 21 1008 85 10000 0.92 164 02:48 19.03.2022
3159 Clouds 21 1008 83 10000 1.02 152 01:32 19.03.2022
3160 Clouds 24 1009 71 10000 2.11 150 23:22 18.03.2022
3161 Clouds 24 1010 69 10000 1.55 154 22:25 18.03.2022
3162 Clouds 25 1010 66 10000 1.55 151 20:48 18.03.2022
3163 Clouds 25 1009 67 10000 1.64 153 19:49 18.03.2022
3164 Clouds 25 1009 65 10000 1.66 143 19:19 18.03.2022
3165 Clouds 28 1007 56 10000 1.75 121 17:27 18.03.2022
3166 Clouds 28 1007 56 10000 1.75 121 16:45 18.03.2022
3167 Clouds 33 1006 36 10000 1.71 79 14:37 18.03.2022
3168 Clouds 34 1006 32 10000 1.39 90 14:18 18.03.2022
3169 Clouds 35 1008 34 10000 1.42 165 12:19 18.03.2022
3170 Clouds 33 1010 38 10000 1.52 162 10:38 18.03.2022
3171 Clouds 29 1012 52 10000 1.84 159 09:21 18.03.2022
3172 Clouds 26 1012 63 10000 1.95 155 07:45 18.03.2022
3173 Clouds 21 1011 87 10000 0.98 158 05:39 18.03.2022
3174 Clouds 21 1009 82 10000 1.19 165 02:44 18.03.2022
3175 Clouds 22 1010 76 10000 0.91 146 00:21 18.03.2022
3176 Clouds 23 1010 75 10000 1.04 149 22:54 17.03.2022
3177 Clouds 23 1010 73 10000 1.11 163 22:21 17.03.2022
3178 Clouds 23 1010 73 10000 1.11 163 21:47 17.03.2022
3179 Clouds 24 1010 71 10000 1.13 167 21:18 17.03.2022
3180 Clouds 24 1010 71 10000 1.13 167 20:30 17.03.2022
3181 Clouds 24 1010 68 10000 1.27 179 19:39 17.03.2022
3182 Clouds 25 1008 63 10000 1.5 181 18:55 17.03.2022
3183 Clouds 26 1008 57 10000 1.48 161 17:47 17.03.2022
3184 Clouds 32 1006 39 10000 0.92 47 16:30 17.03.2022
3185 Clouds 32 1006 39 10000 0.92 47 15:43 17.03.2022
3186 Clouds 34 1005 31 10000 1.32 30 15:21 17.03.2022
3187 Clouds 34 1006 30 10000 0.81 39 13:48 17.03.2022
3188 Clouds 34 1006 33 10000 0.56 152 12:48 17.03.2022
3189 Clouds 36 1008 30 10000 0.36 135 11:47 17.03.2022
3190 Clouds 34 1009 35 10000 0.89 218 11:22 17.03.2022
3191 Clouds 32 1011 46 10000 1.34 198 09:41 17.03.2022
3192 Clouds 27 1012 67 10000 1.71 196 08:21 17.03.2022
3193 Clouds 22 1011 91 10000 0.47 182 06:18 17.03.2022
3194 Clouds 21 1011 96 10000 0.24 51 05:25 17.03.2022
3195 Clouds 23 1008 88 10000 1.2 197 00:33 17.03.2022
3196 Clouds 24 1008 83 10000 1.92 217 22:58 16.03.2022
3197 Clouds 24 1008 83 10000 1.92 217 22:37 16.03.2022
3198 Clouds 24 1009 81 10000 2.14 240 21:58 16.03.2022
3199 Clouds 25 1008 78 10000 2.37 245 21:18 16.03.2022
3200 Clouds 25 1008 78 10000 2.37 245 21:18 16.03.2022
3201 Clouds 27 1006 70 10000 1.6 232 19:25 16.03.2022
3202 Clouds 27 1005 66 10000 1.33 234 18:43 16.03.2022
3203 Clouds 29 1004 57 10000 1.91 254 18:18 16.03.2022
3204 Clouds 29 1004 57 10000 1.91 254 17:36 16.03.2022
3205 Clouds 31 1002 51 10000 2.16 247 16:36 16.03.2022
3206 Clouds 34 1002 41 10000 2.78 232 15:35 16.03.2022
3207 Clouds 34 1003 39 10000 1.7 252 13:41 16.03.2022
3208 Clouds 38 1004 27 10000 0.52 14 12:57 16.03.2022
3209 Clouds 36 1008 37 10000 1.04 177 11:26 16.03.2022
3210 Clouds 36 1008 37 10000 1.04 177 10:43 16.03.2022
3211 Clouds 33 1009 48 10000 1.19 169 09:57 16.03.2022
3212 Clouds 29 1011 65 10000 0.86 92 08:33 16.03.2022
3213 Clouds 22 1007 84 10000 1.04 156 02:46 16.03.2022
3214 Clouds 22 1007 86 10000 0.96 173 23:37 15.03.2022
3215 Clouds 23 1007 85 10000 1.21 190 22:36 15.03.2022
3216 Clouds 23 1007 82 10000 0.87 241 21:27 15.03.2022
3217 Clouds 24 1007 77 10000 1.29 259 19:47 15.03.2022
3218 Clouds 25 1006 73 10000 0.74 267 18:35 15.03.2022
3219 Rain 25 1004 71 10000 1.67 188 16:45 15.03.2022
3220 Rain 28 1004 57 10000 0.79 103 15:44 15.03.2022
3221 Clouds 33 1002 42 10000 2.88 146 14:54 15.03.2022
3222 Clouds 33 1002 42 10000 2.88 146 14:30 15.03.2022
3223 Clouds 37 1004 29 10000 1.32 70 13:24 15.03.2022
3224 Clouds 39 1006 28 10000 0.26 45 11:34 15.03.2022
3225 Clouds 37 1008 32 10000 0.64 84 10:55 15.03.2022
3226 Clouds 30 1010 54 10000 0.94 134 09:29 15.03.2022
3227 Clouds 30 1010 54 10000 0.94 134 08:32 15.03.2022
3228 Clouds 27 1010 66 10000 0.91 129 07:39 15.03.2022
3229 Clouds 25 1010 69 10000 1.14 136 06:32 15.03.2022
3230 Clouds 23 1007 77 10000 1.12 122 01:57 15.03.2022
3231 Clouds 23 1008 80 10000 0.4 100 23:31 14.03.2022
3232 Clouds 23 1009 77 10000 1.23 135 22:54 14.03.2022
3233 Clouds 24 1009 69 10000 1.53 74 21:56 14.03.2022
3234 Clouds 25 1009 66 10000 0.55 90 21:18 14.03.2022
3235 Clouds 25 1009 66 10000 0.55 90 20:30 14.03.2022
3236 Clouds 25 1008 63 10000 0.55 60 19:47 14.03.2022
3237 Clouds 27 1006 62 10000 0.88 173 18:20 14.03.2022
3238 Clouds 27 1006 62 10000 0.88 173 17:42 14.03.2022
3239 Clouds 28 1005 61 10000 0.85 169 16:37 14.03.2022
3240 Clouds 33 1004 40 10000 0.79 88 15:20 14.03.2022
3241 Clouds 33 1005 43 10000 0.84 193 13:59 14.03.2022
3242 Clouds 35 1009 37 10000 0.99 161 11:27 14.03.2022
3243 Clouds 33 1010 45 10000 1.42 170 09:58 14.03.2022
3244 Clouds 33 1010 45 10000 1.42 170 09:38 14.03.2022
3245 Clouds 30 1011 56 10000 1.46 166 09:18 14.03.2022
3246 Clouds 30 1011 56 10000 1.46 166 08:46 14.03.2022
3247 Clouds 23 1011 92 10000 0.84 156 07:19 14.03.2022
3248 Clouds 21 1009 98 10000 1.27 178 03:36 14.03.2022
3249 Clouds 21 1009 98 10000 1.14 163 01:42 14.03.2022
3250 Clouds 21 1009 97 10000 1.17 107 00:35 14.03.2022
3251 Clouds 23 1010 80 10000 0.95 181 21:55 13.03.2022
3252 Clouds 23 1010 78 10000 0.41 94 21:26 13.03.2022
3253 Clouds 23 1010 78 10000 0.41 94 20:46 13.03.2022
3254 Clouds 24 1009 75 10000 0.66 132 20:23 13.03.2022
3255 Clouds 24 1009 75 10000 0.66 132 19:42 13.03.2022
3256 Clouds 25 1008 72 10000 1.13 180 19:23 13.03.2022
3257 Clouds 25 1008 72 10000 1.13 180 18:45 13.03.2022
3258 Clouds 25 1007 71 10000 1.44 162 18:26 13.03.2022
3259 Clouds 25 1007 71 10000 1.44 162 17:39 13.03.2022
3260 Clouds 28 1006 61 10000 2.04 183 16:46 13.03.2022
3261 Clouds 29 1005 55 10000 1.69 212 16:25 13.03.2022
3262 Clouds 29 1005 55 10000 1.69 212 15:42 13.03.2022
3263 Clouds 32 1005 45 10000 1.28 208 14:41 13.03.2022
3264 Clouds 33 1006 41 10000 1.94 186 13:29 13.03.2022
3265 Clouds 29 1011 61 10000 3.09 240 12:25 13.03.2022
3266 Clouds 33 1008 42 10000 2.1 192 11:44 13.03.2022
3267 Clouds 32 1009 45 10000 2.24 188 10:50 13.03.2022
3268 Clouds 30 1011 51 10000 2.32 177 10:29 13.03.2022
3269 Clouds 30 1011 51 10000 2.32 177 09:42 13.03.2022
3270 Clouds 28 1011 60 10000 2.19 172 08:50 13.03.2022
3271 Clouds 28 1011 60 10000 2.19 172 08:30 13.03.2022
3272 Clouds 22 1012 94 10000 1.46 186 07:19 13.03.2022
3273 Clouds 21 1010 100 10000 0.83 187 04:58 13.03.2022
3274 Clouds 21 1007 99 10000 0.47 219 01:47 13.03.2022
3275 Rain 21 1010 99 10000 1.62 191 23:28 12.03.2022
3276 Rain 21 1011 99 10000 1.63 166 21:39 12.03.2022
3277 Rain 21 1009 97 10000 0.52 200 20:19 12.03.2022
3278 Rain 21 1009 97 10000 0.52 200 19:46 12.03.2022
3279 Rain 22 1008 95 6407 0.3 201 18:40 12.03.2022
3280 Rain 24 1007 76 10000 1.21 327 17:53 12.03.2022
3281 Clouds 30 1005 50 10000 2 311 16:28 12.03.2022
3282 Clouds 30 1005 50 10000 2 311 16:28 12.03.2022
3283 Clouds 30 1005 50 10000 2 311 15:50 12.03.2022
3284 Clouds 30 1005 48 10000 2.21 305 15:21 12.03.2022
3285 Clouds 31 1005 47 10000 2.46 297 13:53 12.03.2022
3286 Clouds 31 1007 46 10000 1.95 294 12:28 12.03.2022
3287 Clouds 31 1007 46 10000 1.95 294 11:53 12.03.2022
3288 Clouds 31 1007 46 10000 1.95 294 11:33 12.03.2022
3289 Clouds 28 1010 60 10000 2.25 239 10:24 12.03.2022
3290 Clouds 28 1010 60 10000 2.25 239 09:43 12.03.2022
3291 Clouds 23 1011 87 10000 0.97 251 07:52 12.03.2022
3292 Rain 22 1010 94 10000 1.32 226 06:30 12.03.2022
3293 Rain 21 1007 99 6984 2.01 204 00:31 12.03.2022
3294 Clouds 21 1007 99 10000 1.18 282 23:41 11.03.2022
3295 Rain 21 1008 99 10000 2.02 325 22:32 11.03.2022
3296 Rain 22 1008 94 10000 1.8 319 21:24 11.03.2022
3297 Rain 22 1008 94 10000 1.8 319 21:24 11.03.2022
3298 Rain 22 1008 94 10000 1.8 319 20:46 11.03.2022
3299 Rain 23 1007 93 10000 1.67 320 20:26 11.03.2022
3300 Rain 23 1007 93 10000 1.67 320 19:32 11.03.2022
3301 Rain 24 1004 86 10000 0.87 188 17:53 11.03.2022
3302 Rain 28 1001 63 10000 2.01 156 17:24 11.03.2022
3303 Clouds 34 1001 40 10000 0.42 277 15:58 11.03.2022
3304 Clouds 35 1000 38 10000 1.25 253 15:29 11.03.2022
3305 Clouds 38 1004 32 10000 1.24 232 13:28 11.03.2022
3306 Clouds 36 1004 35 10000 1.46 224 12:30 11.03.2022
3307 Clouds 35 1006 39 10000 1.59 220 11:57 11.03.2022
3308 Clouds 31 1007 52 10000 1.59 218 10:30 11.03.2022
3309 Clouds 30 1008 56 10000 1.55 199 09:33 11.03.2022
3310 Clouds 25 1009 78 10000 1.85 213 08:27 11.03.2022
3311 Clouds 25 1009 78 10000 1.85 213 07:46 11.03.2022
3312 Clouds 22 1008 95 10000 0.61 68 06:25 11.03.2022
3313 Clouds 21 1006 96 10000 1.36 231 04:28 11.03.2022
3314 Clouds 23 1005 88 10000 0.99 267 00:39 11.03.2022
3315 Clouds 24 1005 81 10000 0.89 261 22:32 10.03.2022
3316 Clouds 24 1005 79 10000 1.14 236 21:52 10.03.2022
3317 Clouds 24 1005 78 10000 0.92 219 21:24 10.03.2022
3318 Rain 25 1005 75 10000 1.45 199 20:18 10.03.2022
3319 Clouds 28 1004 57 10000 1.48 233 18:56 10.03.2022
3320 Clouds 29 1002 52 10000 0.65 219 17:37 10.03.2022
3321 Clouds 32 1001 46 10000 0.83 143 16:42 10.03.2022
3322 Clouds 37 1001 30 10000 1.47 101 15:27 10.03.2022
3323 Clouds 38 1001 29 10000 0.86 131 13:41 10.03.2022
3324 Clouds 37 1003 30 10000 1.18 186 12:35 10.03.2022
3325 Clouds 37 1006 35 10000 1.07 176 11:26 10.03.2022
3326 Clouds 30 1009 56 10000 1.01 159 09:28 10.03.2022
3327 Clouds 26 1009 79 10000 1.05 157 07:47 10.03.2022
3328 Clouds 21 1008 98 10000 1.15 155 05:30 10.03.2022
3329 Rain 21 1007 99 10000 0.74 177 01:56 10.03.2022
3330 Clouds 22 1006 96 10000 0.7 346 23:30 09.03.2022
3331 Rain 22 1008 96 10000 0.18 149 21:56 09.03.2022
3332 Rain 22 1008 96 10000 0.18 149 21:36 09.03.2022
3333 Rain 22 1007 96 9789 1.88 17 20:31 09.03.2022
3334 Clouds 30 1002 47 10000 1.27 228 18:35 09.03.2022
3335 Clouds 33 1001 41 10000 0.35 137 17:27 09.03.2022
3336 Clouds 33 1001 41 10000 0.35 137 16:35 09.03.2022
3337 Clouds 36 999 31 10000 0.79 177 15:31 09.03.2022
3338 Clouds 39 1001 26 10000 1.32 216 13:54 09.03.2022
3339 Clouds 39 1003 26 10000 1.58 206 12:56 09.03.2022
3340 Clouds 38 1004 29 10000 1.58 192 12:18 09.03.2022
3341 Clouds 38 1004 29 10000 1.58 192 11:36 09.03.2022
3342 Clouds 36 1006 32 10000 1.61 185 10:38 09.03.2022
3343 Clouds 31 1008 49 10000 1.76 168 08:59 09.03.2022
3344 Clouds 27 1009 65 10000 1.31 152 08:25 09.03.2022
3345 Clouds 21 1006 96 10000 0.75 120 03:50 09.03.2022
3346 Clouds 23 1005 85 10000 1.38 162 00:47 09.03.2022
3347 Clouds 24 1005 78 10000 0.84 270 22:48 08.03.2022
3348 Clouds 25 1006 73 10000 1.65 142 22:29 08.03.2022
3349 Clouds 26 1006 67 10000 2.77 111 21:23 08.03.2022
3350 Clouds 26 1006 67 10000 2.77 111 20:44 08.03.2022
3351 Clouds 27 1005 60 10000 2.03 123 19:42 08.03.2022
3352 Clouds 26 1004 61 10000 0.17 14 18:44 08.03.2022
3353 Clouds 29 1003 51 10000 0.32 103 17:37 08.03.2022
3354 Clouds 36 1001 33 10000 0.04 125 16:26 08.03.2022
3355 Clouds 36 1002 31 10000 1.69 164 14:19 08.03.2022
3356 Clouds 39 1003 27 10000 1.84 172 12:43 08.03.2022
3357 Clouds 38 1004 29 10000 2.01 171 11:45 08.03.2022
3358 Clouds 37 1006 33 10000 2.19 178 10:48 08.03.2022
3359 Clouds 34 1007 40 10000 2.35 176 09:51 08.03.2022
3360 Clouds 28 1009 68 10000 2.13 173 07:32 08.03.2022
3361 Clouds 21 1008 97 10000 1.06 196 05:43 08.03.2022
3362 Clouds 21 1007 96 10000 1.14 181 23:51 07.03.2022
3363 Rain 22 1009 90 10000 1.57 200 21:57 07.03.2022
3364 Rain 22 1009 90 10000 1.57 200 21:32 07.03.2022
3365 Rain 22 1008 88 10000 0.49 11 20:48 07.03.2022
3366 Clouds 23 1007 87 10000 1.04 17 20:20 07.03.2022
3367 Clouds 23 1007 87 10000 1.04 17 19:31 07.03.2022
3368 Clouds 26 1004 60 10000 1.47 174 18:42 07.03.2022
3369 Clouds 28 1003 51 10000 1.25 214 17:50 07.03.2022
3370 Clouds 32 1002 42 10000 1.19 291 16:55 07.03.2022
3371 Clouds 34 1001 34 10000 0.53 194 15:50 07.03.2022
3372 Clouds 38 1002 25 10000 1.22 132 13:51 07.03.2022
3373 Clouds 38 1004 30 10000 1.95 195 12:27 07.03.2022
3374 Clouds 36 1006 36 10000 1.78 185 10:38 07.03.2022
3375 Clouds 30 1008 56 10000 2.22 184 08:57 07.03.2022
3376 Clouds 22 1008 96 10000 1.1 182 04:43 07.03.2022
3377 Clouds 23 1006 83 10000 0.89 195 00:22 07.03.2022
3378 Clouds 23 1006 83 10000 0.89 195 23:35 06.03.2022
3379 Clouds 23 1007 82 10000 0.9 190 22:40 06.03.2022
3380 Clouds 24 1007 80 10000 1.04 160 21:47 06.03.2022
3381 Clouds 25 1007 76 10000 0.8 196 20:38 06.03.2022
3382 Clouds 25 1007 73 10000 1.55 36 20:20 06.03.2022
3383 Rain 25 1005 73 10000 2.62 67 18:52 06.03.2022
3384 Clouds 27 1004 62 10000 0.42 282 18:23 06.03.2022
3385 Clouds 30 1003 53 10000 0.87 267 17:21 06.03.2022
3386 Clouds 30 1003 53 10000 0.87 267 16:41 06.03.2022
3387 Clouds 33 1002 40 10000 1.63 169 15:49 06.03.2022
3388 Clouds 33 1002 40 10000 1.63 169 15:49 06.03.2022
3389 Clouds 34 1002 38 10000 0.8 79 14:49 06.03.2022
3390 Clouds 34 1002 38 10000 0.8 79 14:30 06.03.2022
3391 Clouds 39 1004 29 10000 1.08 225 12:50 06.03.2022
3392 Clouds 39 1004 29 10000 1.08 225 12:31 06.03.2022
3393 Clouds 35 1007 39 10000 1.98 206 10:53 06.03.2022
3394 Clouds 33 1008 47 10000 1.87 196 09:54 06.03.2022
3395 Clouds 26 1009 80 10000 1.63 180 08:29 06.03.2022
3396 Clouds 26 1009 80 10000 1.63 180 08:29 06.03.2022
3397 Clouds 26 1009 80 10000 1.63 180 07:34 06.03.2022
3398 Clouds 21 1008 98 10000 1.05 186 04:46 06.03.2022
3399 Clouds 22 1005 82 10000 1.17 174 00:49 06.03.2022
3400 Clouds 23 1006 77 10000 0.83 193 00:29 06.03.2022
3401 Clouds 24 1006 70 10000 0.9 254 23:21 05.03.2022
3402 Clouds 24 1006 70 10000 0.9 254 22:43 05.03.2022
3403 Clouds 24 1006 68 10000 1.31 210 21:45 05.03.2022
3404 Clouds 25 1005 64 10000 1.17 191 21:20 05.03.2022
3405 Clouds 26 1004 58 10000 1.21 229 19:24 05.03.2022
3406 Clouds 26 1004 58 10000 1.21 229 18:51 05.03.2022
3407 Clouds 29 1002 47 10000 0.91 181 17:43 05.03.2022
3408 Clouds 33 1001 37 10000 1.47 184 16:26 05.03.2022
3409 Clouds 33 1001 37 10000 1.47 184 15:30 05.03.2022
3410 Clouds 35 1001 32 10000 1.36 165 14:44 05.03.2022
3411 Clouds 38 1002 23 10000 1.19 184 14:26 05.03.2022
3412 Clouds 40 1003 23 10000 1.4 198 13:20 05.03.2022
3413 Clouds 39 1005 26 10000 1.48 190 11:46 05.03.2022
3414 Clouds 37 1007 31 10000 1.78 207 11:18 05.03.2022
3415 Clouds 35 1008 36 10000 1.74 211 09:58 05.03.2022
3416 Clouds 32 1009 43 10000 1.54 204 08:57 05.03.2022
3417 Clouds 29 1010 53 10000 1.33 191 07:37 05.03.2022
3418 Clouds 21 1009 82 10000 0.08 114 05:42 05.03.2022
3419 Clouds 22 1006 81 10000 0.67 227 02:20 05.03.2022
3420 Clouds 22 1007 72 10000 0.68 275 23:36 04.03.2022
3421 Clouds 24 1008 67 10000 1.72 339 22:42 04.03.2022
3422 Clouds 24 1007 64 10000 0.22 245 21:47 04.03.2022
3423 Clouds 25 1006 62 10000 0.81 122 20:52 04.03.2022
3424 Clouds 25 1006 61 10000 1.23 100 20:22 04.03.2022
3425 Clouds 25 1006 61 10000 1.23 100 19:35 04.03.2022
3426 Clouds 26 1005 59 10000 1.29 132 18:43 04.03.2022
3427 Clouds 26 1005 65 10000 0.57 152 17:31 04.03.2022
3428 Clouds 28 1004 58 10000 2.01 195 16:43 04.03.2022
3429 Clouds 31 1003 43 10000 1.04 174 15:28 04.03.2022
3430 Clouds 37 1003 28 10000 1.03 185 14:19 04.03.2022
3431 Clouds 39 1004 26 10000 0.95 207 13:24 04.03.2022
3432 Clouds 39 1006 27 10000 0.89 195 11:40 04.03.2022
3433 Clouds 38 1008 31 10000 0.72 220 10:42 04.03.2022
3434 Clouds 35 1009 38 10000 0.88 212 09:40 04.03.2022
3435 Clouds 31 1011 48 10000 1.18 192 08:34 04.03.2022
3436 Clouds 23 1011 86 10000 0.24 213 07:23 04.03.2022
3437 Clear 20 1009 93 10000 0.49 88 03:50 04.03.2022
3438 Clouds 21 1009 93 10000 1.17 328 00:24 04.03.2022
3439 Clouds 21 1010 93 10000 0.51 317 22:21 03.03.2022
3440 Clouds 21 1010 93 10000 0.51 317 21:40 03.03.2022
3441 Clouds 22 1009 91 10000 0.47 72 21:18 03.03.2022
3442 Rain 22 1008 89 10000 1.33 191 19:48 03.03.2022
3443 Rain 23 1008 86 10000 2.04 213 18:51 03.03.2022
3444 Rain 23 1008 83 10000 1.57 72 18:22 03.03.2022
3445 Clouds 29 1006 53 10000 1.22 5 17:28 03.03.2022
3446 Clouds 32 1005 44 10000 1.59 297 16:22 03.03.2022
3447 Clouds 30 1006 50 10000 1.98 307 15:20 03.03.2022
3448 Clouds 30 1006 50 10000 1.98 307 14:42 03.03.2022
3449 Clouds 30 1009 53 10000 1.15 320 13:18 03.03.2022
3450 Clouds 28 1010 59 10000 1.07 185 11:51 03.03.2022
3451 Clouds 27 1012 62 10000 1.02 155 10:41 03.03.2022
3452 Clouds 25 1013 77 10000 1.53 133 08:52 03.03.2022
3453 Clouds 24 1013 80 10000 1.86 144 07:45 03.03.2022
3454 Clouds 23 1013 82 10000 2.31 146 06:35 03.03.2022
3455 Clouds 22 1010 92 10000 0.93 152 01:52 03.03.2022
3456 Clouds 22 1011 93 10000 1.16 236 23:29 02.03.2022
3457 Clouds 22 1011 93 10000 1.16 236 22:52 02.03.2022
3458 Clouds 22 1012 92 10000 1.29 142 21:32 02.03.2022
3459 Clouds 22 1012 91 10000 1.74 159 20:46 02.03.2022
3460 Clouds 23 1011 85 10000 2.05 157 20:24 02.03.2022
3461 Clouds 23 1011 85 10000 2.05 157 19:36 02.03.2022
3462 Clouds 24 1010 76 10000 1.98 156 18:46 02.03.2022
3463 Clouds 25 1009 69 10000 1.26 221 18:18 02.03.2022
3464 Clouds 25 1009 69 10000 1.26 221 17:32 02.03.2022
3465 Clouds 27 1007 63 10000 1.39 224 16:51 02.03.2022
3466 Clouds 29 1007 54 10000 1.16 264 14:48 02.03.2022
3467 Clouds 28 1008 63 10000 0.23 187 13:25 02.03.2022
3468 Clouds 30 1008 52 10000 0.8 205 12:44 02.03.2022
3469 Clouds 29 1009 55 10000 0.85 214 11:53 02.03.2022
3470 Clouds 28 1010 62 10000 1.41 245 11:24 02.03.2022
3471 Clouds 28 1010 62 10000 1.41 245 11:24 02.03.2022
3472 Clouds 29 1011 59 10000 2.05 233 09:47 02.03.2022
3473 Clouds 26 1012 73 10000 1.57 213 09:23 02.03.2022
3474 Clouds 23 1013 87 10000 0.89 147 07:51 02.03.2022
3475 Clouds 23 1012 89 10000 1.15 194 06:57 02.03.2022
3476 Clouds 22 1009 93 10000 0.4 154 02:54 02.03.2022
3477 Clouds 23 1008 88 10000 2.13 210 00:33 02.03.2022
3478 Clouds 23 1010 87 10000 1.47 169 22:50 01.03.2022
3479 Clouds 23 1010 87 10000 1.47 169 22:31 01.03.2022
3480 Rain 25 1009 77 10000 2.44 229 21:25 01.03.2022
3481 Rain 25 1009 77 10000 2.44 229 20:32 01.03.2022
3482 Clouds 27 1006 61 10000 2.24 236 19:50 01.03.2022
3483 Clouds 27 1006 59 10000 1.86 248 18:51 01.03.2022
3484 Clouds 27 1005 58 10000 1.55 209 18:21 01.03.2022
3485 Clouds 27 1005 58 10000 1.55 209 17:37 01.03.2022
3486 Clouds 31 1004 47 10000 0.88 256 16:35 01.03.2022
3487 Clouds 35 1003 31 10000 1.25 355 15:45 01.03.2022
3488 Clouds 37 1003 27 10000 1.08 35 14:41 01.03.2022
3489 Clouds 37 1004 28 10000 0.34 121 14:23 01.03.2022
3490 Clouds 37 1005 30 10000 0.45 156 13:26 01.03.2022
3491 Clouds 36 1006 34 10000 1.06 206 12:35 01.03.2022
3492 Clouds 36 1006 34 10000 1.06 206 12:35 01.03.2022
3493 Clouds 32 1009 46 10000 1.71 177 10:52 01.03.2022
3494 Clouds 28 1011 63 10000 2.04 177 09:25 01.03.2022
3495 Clouds 25 1012 79 10000 1.61 166 08:19 01.03.2022
3496 Clouds 23 1010 85 10000 1.52 177 06:28 01.03.2022
3497 Clouds 23 1008 82 10000 1.05 186 02:48 01.03.2022
3498 Clouds 23 1007 80 10000 1.04 167 00:40 01.03.2022
3499 Clouds 24 1008 77 10000 1.38 164 23:35 28.02.2022
3500 Clouds 24 1008 78 10000 1.37 170 22:28 28.02.2022
3501 Clouds 24 1008 78 10000 1.37 170 21:43 28.02.2022
3502 Clouds 23 1008 79 10000 0.8 178 20:33 28.02.2022
3503 Clouds 24 1007 79 10000 1.19 217 19:42 28.02.2022
3504 Clouds 24 1007 81 10000 1.42 177 18:49 28.02.2022
3505 Clouds 25 1006 76 10000 1.37 184 17:33 28.02.2022
3506 Clouds 27 1006 70 10000 1.88 185 16:54 28.02.2022
3507 Clouds 28 1006 69 10000 2.38 177 15:59 28.02.2022
3508 Rain 25 1005 82 10000 2.69 198 14:32 28.02.2022
3509 Rain 27 1006 72 9764 1.99 157 13:52 28.02.2022
3510 Rain 27 1006 72 9764 1.99 157 13:52 28.02.2022
3511 Clouds 34 1005 39 10000 1.53 212 13:18 28.02.2022
3512 Clouds 37 1006 32 10000 1.73 172 11:59 28.02.2022
3513 Clouds 35 1008 37 10000 1.98 152 11:19 28.02.2022
3514 Clouds 32 1010 45 10000 2 146 10:22 28.02.2022
3515 Clouds 32 1010 45 10000 2 146 09:44 28.02.2022
3516 Clouds 29 1011 58 10000 2.05 131 08:53 28.02.2022
3517 Clouds 24 1011 83 10000 1.62 114 07:58 28.02.2022
3518 Clouds 23 1009 81 10000 0.96 171 05:54 28.02.2022
3519 Clouds 23 1008 81 10000 1.83 175 04:30 28.02.2022
3520 Clouds 24 1007 72 10000 1.76 168 00:52 28.02.2022
3521 Clouds 26 1009 64 10000 1.52 119 22:53 27.02.2022
3522 Clouds 26 1009 64 10000 1.52 119 22:32 27.02.2022
3523 Clouds 24 1009 67 10000 0.98 161 21:42 27.02.2022
3524 Clear 25 1008 62 10000 0.95 200 20:44 27.02.2022
3525 Clear 26 1007 56 10000 1.25 191 20:18 27.02.2022
3526 Clear 26 1007 56 10000 1.25 191 19:48 27.02.2022
3527 Clouds 29 1006 46 10000 1.35 204 19:21 27.02.2022
3528 Clouds 25 1007 71 10000 1.77 212 18:33 27.02.2022
3529 Rain 27 1007 66 10000 2.07 211 17:49 27.02.2022
3530 Clouds 30 1004 50 10000 1.82 249 16:25 27.02.2022
3531 Rain 33 1004 43 10000 0.21 237 15:21 27.02.2022
3532 Clouds 36 1005 32 10000 0.81 200 12:37 27.02.2022
3533 Clouds 38 1007 28 10000 1.17 213 11:51 27.02.2022
3534 Clouds 37 1009 31 10000 1.04 180 10:37 27.02.2022
3535 Clouds 35 1010 38 10000 1.18 143 09:58 27.02.2022
3536 Clouds 35 1010 38 10000 1.18 143 09:58 27.02.2022
3537 Clouds 30 1011 51 10000 1.36 116 09:23 27.02.2022
3538 Clouds 30 1011 51 10000 1.36 116 08:45 27.02.2022
3539 Clouds 23 1009 83 10000 0.97 190 06:26 27.02.2022
3540 Clouds 23 1009 84 10000 1.25 172 03:44 27.02.2022
3541 Clouds 23 1009 80 10000 2.08 149 23:57 26.02.2022
3542 Rain 24 1010 71 10000 2.95 134 22:43 26.02.2022
3543 Clouds 26 1008 60 10000 1.04 210 21:29 26.02.2022
3544 Clouds 26 1008 60 10000 1.04 210 20:43 26.02.2022
3545 Rain 26 1008 58 10000 1.74 219 19:57 26.02.2022
3546 Rain 26 1008 58 10000 1.74 219 19:33 26.02.2022
3547 Rain 26 1008 63 10000 0.94 68 18:34 26.02.2022
3548 Clouds 28 1006 53 10000 1.22 220 17:37 26.02.2022
3549 Clouds 32 1005 43 10000 1.53 203 16:39 26.02.2022
3550 Clouds 34 1004 35 10000 1.16 210 15:42 26.02.2022
3551 Clouds 34 1004 35 10000 0.4 251 15:19 26.02.2022
3552 Clouds 34 1004 35 10000 0.4 251 14:44 26.02.2022
3553 Clouds 36 1005 30 10000 0.49 214 14:19 26.02.2022
3554 Clouds 39 1006 24 10000 0.56 177 12:53 26.02.2022
3555 Clouds 38 1008 28 10000 0.97 222 11:53 26.02.2022
3556 Clouds 36 1010 34 10000 1.16 184 11:26 26.02.2022
3557 Clouds 34 1011 41 10000 1.27 149 10:19 26.02.2022
3558 Clouds 31 1012 49 10000 1.53 135 08:35 26.02.2022
3559 Clouds 25 1011 72 10000 1.76 167 06:40 26.02.2022
3560 Clouds 23 1010 80 10000 1.72 202 00:25 26.02.2022
3561 Clouds 23 1010 76 10000 1.64 186 22:43 25.02.2022
3562 Clouds 24 1010 72 10000 1.63 187 21:33 25.02.2022
3563 Clouds 24 1010 70 10000 1.53 197 20:56 25.02.2022
3564 Clouds 25 1009 65 10000 1.27 211 20:27 25.02.2022
3565 Clouds 29 1007 47 10000 0.86 146 17:57 25.02.2022
3566 Clouds 30 1006 44 10000 0.8 170 17:20 25.02.2022
3567 Clouds 33 1006 37 10000 0.52 190 16:19 25.02.2022
3568 Clouds 35 1005 32 10000 1.44 215 15:24 25.02.2022
3569 Clouds 35 1005 32 10000 1.44 215 15:24 25.02.2022
3570 Clouds 35 1005 32 10000 1.44 215 14:56 25.02.2022
3571 Clouds 35 1005 32 10000 1.44 215 14:37 25.02.2022
3572 Clouds 34 1006 33 10000 1.24 213 13:30 25.02.2022
3573 Clouds 37 1007 28 10000 0.74 191 12:33 25.02.2022
3574 Clouds 34 1010 39 10000 1.76 167 11:22 25.02.2022
3575 Clouds 32 1012 46 10000 2.16 165 10:24 25.02.2022
3576 Clouds 32 1012 46 10000 2.16 165 09:51 25.02.2022
3577 Clouds 29 1013 55 10000 2.34 179 08:42 25.02.2022
3578 Clouds 26 1013 68 10000 2.06 186 07:35 25.02.2022
3579 Clouds 21 1012 95 10000 1.09 166 05:45 25.02.2022
3580 Clouds 21 1010 97 10000 1.2 195 02:49 25.02.2022
3581 Clouds 22 1010 88 10000 1.64 178 22:55 24.02.2022
3582 Rain 22 1011 90 10000 1.76 180 21:51 24.02.2022
3583 Rain 22 1011 90 10000 1.76 180 21:31 24.02.2022
3584 Rain 22 1011 87 10000 0.96 195 20:53 24.02.2022
3585 Rain 24 1010 74 10000 1.06 155 19:38 24.02.2022
3586 Clouds 25 1009 68 10000 2.13 144 18:36 24.02.2022
3587 Clouds 26 1008 61 10000 1.63 162 18:18 24.02.2022
3588 Clouds 26 1008 61 10000 1.63 162 17:33 24.02.2022
3589 Clouds 30 1006 48 10000 0.76 270 16:29 24.02.2022
3590 Clouds 30 1006 48 10000 0.76 270 15:46 24.02.2022
3591 Clouds 32 1006 43 10000 1.13 244 14:52 24.02.2022
3592 Clouds 33 1006 39 10000 1.16 270 14:20 24.02.2022
3593 Clouds 33 1006 39 10000 1.16 270 13:39 24.02.2022
3594 Clouds 37 1008 29 10000 1.51 233 12:28 24.02.2022
3595 Clouds 35 1010 35 10000 1.86 214 10:40 24.02.2022
3596 Clouds 30 1013 53 10000 1.87 195 08:56 24.02.2022
3597 Clouds 30 1013 53 10000 1.87 195 08:38 24.02.2022
3598 Rain 21 1013 94 10000 1.23 190 05:52 24.02.2022
3599 Clouds 24 1010 76 10000 1.98 193 01:56 24.02.2022
3600 Clouds 26 1010 62 10000 1.93 143 22:38 23.02.2022
3601 Clouds 27 1010 55 10000 2.44 145 21:37 23.02.2022
3602 Clouds 27 1009 52 10000 1.35 176 20:31 23.02.2022
3603 Clouds 27 1008 52 10000 1.53 155 19:44 23.02.2022
3604 Clouds 28 1007 41 10000 1.47 167 18:32 23.02.2022
3605 Clouds 29 1006 40 10000 1.27 188 17:30 23.02.2022
3606 Clouds 36 1004 26 10000 0.92 293 14:34 23.02.2022
3607 Clouds 39 1006 22 10000 1.05 259 12:37 23.02.2022
3608 Clouds 36 1009 31 10000 1.25 232 11:24 23.02.2022
3609 Clouds 36 1009 31 10000 1.25 232 10:31 23.02.2022
3610 Clouds 31 1011 48 10000 1.4 156 08:58 23.02.2022
3611 Clouds 28 1012 59 10000 1.43 156 07:57 23.02.2022
3612 Clouds 21 1010 79 10000 0.21 247 03:48 23.02.2022
3613 Clouds 23 1009 54 10000 1.62 168 00:26 23.02.2022
3614 Clouds 23 1009 54 10000 1.62 168 23:35 22.02.2022
3615 Clouds 23 1009 52 10000 1.03 198 22:31 22.02.2022
3616 Clouds 24 1009 50 10000 0.33 227 21:49 22.02.2022
3617 Clouds 24 1009 50 10000 0.33 227 21:30 22.02.2022
3618 Clouds 24 1008 48 10000 0.46 160 20:52 22.02.2022
3619 Clouds 25 1007 46 10000 0.59 201 20:29 22.02.2022
3620 Clouds 25 1007 46 10000 0.59 201 19:36 22.02.2022
3621 Clouds 26 1006 43 10000 1.22 231 19:18 22.02.2022
3622 Clouds 28 1005 36 10000 1.42 199 17:46 22.02.2022
3623 Clouds 31 1004 31 10000 0.89 199 17:20 22.02.2022
3624 Clouds 31 1004 31 10000 0.89 199 16:36 22.02.2022
3625 Clouds 36 1004 20 10000 0.19 255 15:39 22.02.2022
3626 Clouds 37 1004 17 10000 0.75 322 14:44 22.02.2022
3627 Clouds 38 1007 18 10000 1.07 289 12:21 22.02.2022
3628 Clouds 37 1009 23 10000 0.82 249 10:39 22.02.2022
3629 Clouds 27 1012 49 10000 1.04 115 07:52 22.02.2022
3630 Clouds 24 1012 59 10000 0.78 116 07:26 22.02.2022
3631 Clouds 19 1010 71 10000 0.8 133 04:30 22.02.2022
3632 Clouds 21 1009 63 10000 0.53 217 00:49 22.02.2022
3633 Clouds 23 1009 56 10000 0.66 141 22:44 21.02.2022
3634 Clouds 23 1009 54 10000 0.83 150 21:31 21.02.2022
3635 Clouds 24 1009 52 10000 0.95 151 20:34 21.02.2022
3636 Clouds 24 1009 52 10000 0.95 151 20:34 21.02.2022
3637 Clouds 25 1007 53 10000 1.32 112 18:42 21.02.2022
3638 Clouds 30 1005 41 10000 1.69 158 16:50 21.02.2022
3639 Clouds 35 1005 26 10000 1.75 152 14:52 21.02.2022
3640 Clouds 35 1005 26 10000 1.75 152 14:52 21.02.2022
3641 Clouds 36 1006 25 10000 1.34 120 14:21 21.02.2022
3642 Clouds 36 1007 24 10000 1.1 29 12:59 21.02.2022
3643 Clouds 36 1009 26 10000 0.95 11 12:23 21.02.2022
3644 Clouds 35 1011 33 10000 0.68 41 10:51 21.02.2022
3645 Clouds 32 1012 41 10000 0.99 77 09:30 21.02.2022
3646 Clouds 32 1012 41 10000 0.99 77 09:30 21.02.2022
3647 Clouds 19 1012 99 10000 0.81 127 02:58 21.02.2022
3648 Clouds 20 1012 98 10000 0.91 195 23:32 20.02.2022
3649 Clouds 21 1013 98 10000 0.9 217 22:20 20.02.2022
3650 Clouds 21 1013 98 10000 0.9 217 21:42 20.02.2022
3651 Clouds 21 1013 98 10000 1.06 207 20:53 20.02.2022
3652 Clouds 21 1013 96 10000 1.17 207 20:23 20.02.2022
3653 Clouds 21 1013 96 10000 1.17 207 19:30 20.02.2022
3654 Clouds 21 1012 95 10000 1.55 174 18:49 20.02.2022
3655 Clouds 21 1011 93 10000 1.44 170 18:31 20.02.2022
3656 Clouds 22 1011 91 10000 2.19 156 17:34 20.02.2022
3657 Rain 23 1013 88 6000 3.09 60 15:31 20.02.2022
3658 Rain 23 1013 88 7000 2.06 300 14:41 20.02.2022
3659 Clouds 31 1008 43 10000 1.09 177 13:23 20.02.2022
3660 Clouds 35 1010 33 10000 0.87 255 12:22 20.02.2022
3661 Clouds 32 1012 45 10000 1.51 229 10:21 20.02.2022
3662 Clouds 32 1012 45 10000 1.51 229 09:53 20.02.2022
3663 Clouds 26 1013 67 10000 1.24 206 07:45 20.02.2022
3664 Clouds 23 1009 81 10000 1.38 204 00:54 20.02.2022
3665 Clouds 24 1010 78 10000 1.58 194 00:29 20.02.2022
3666 Clouds 25 1010 70 10000 2.49 196 22:25 19.02.2022
3667 Clouds 25 1010 70 10000 2.49 196 21:57 19.02.2022
3668 Clouds 25 1010 70 10000 2.55 203 20:48 19.02.2022
3669 Clouds 26 1009 69 10000 2.71 183 19:42 19.02.2022
3670 Clouds 27 1007 55 10000 3.1 189 19:20 19.02.2022
3671 Clouds 24 1008 82 10000 2.22 198 18:29 19.02.2022
3672 Clouds 32 1007 62 7000 3.09 90 17:33 19.02.2022
3673 Rain 26 1006 69 10000 2.55 191 16:21 19.02.2022
3674 Rain 32 1008 55 7000 2.06 180 14:56 19.02.2022
3675 Rain 32 1008 55 7000 2.06 180 14:37 19.02.2022
3676 Clouds 30 1011 62 7000 4.12 120 11:59 19.02.2022
3677 Clouds 30 1011 62 7000 4.12 120 11:36 19.02.2022
3678 Clouds 33 1010 41 10000 1.48 153 09:34 19.02.2022
3679 Clouds 24 1010 73 10000 2.27 153 06:52 19.02.2022
3680 Clouds 23 1007 79 10000 1.99 196 02:38 19.02.2022
3681 Clouds 23 1009 83 10000 2.18 214 23:28 18.02.2022
3682 Clouds 24 1009 78 10000 3.02 174 21:30 18.02.2022
3683 Clouds 24 1009 76 10000 3.01 166 20:33 18.02.2022
3684 Clouds 23 1008 79 10000 1.59 159 19:51 18.02.2022
3685 Clouds 24 1007 74 10000 1.08 144 18:49 18.02.2022
3686 Clouds 25 1005 65 10000 0.65 266 18:19 18.02.2022
3687 Clouds 27 1004 63 10000 0.29 2 17:21 18.02.2022
3688 Rain 28 1004 59 10000 2.62 283 14:47 18.02.2022
3689 Rain 31 1004 52 10000 2.07 294 13:54 18.02.2022
3690 Clouds 34 1004 35 10000 0.49 314 12:51 18.02.2022
3691 Clouds 39 1005 25 10000 0.24 113 11:58 18.02.2022
3692 Clouds 37 1007 30 10000 1.04 186 11:21 18.02.2022
3693 Clear 34 1009 37 10000 1.77 185 09:30 18.02.2022
3694 Clouds 25 1010 63 10000 1.19 182 06:51 18.02.2022
3695 Clouds 21 1009 78 10000 0.23 130 05:37 18.02.2022
3696 Clouds 26 1006 53 10000 0.79 183 22:47 17.02.2022
3697 Clouds 27 1006 50 10000 1.16 198 21:43 17.02.2022
3698 Clouds 28 1006 46 10000 1.33 203 20:52 17.02.2022
3699 Clouds 28 1006 46 10000 1.33 203 20:34 17.02.2022
3700 Clouds 28 1006 47 10000 0.79 239 19:43 17.02.2022
3701 Clouds 29 1005 39 10000 1.5 41 18:37 17.02.2022
3702 Clouds 31 1004 33 10000 1.94 40 17:48 17.02.2022
3703 Clear 37 1001 22 10000 0.93 265 16:20 17.02.2022
3704 Clear 38 1002 21 10000 1.07 307 14:57 17.02.2022
3705 Clear 38 1003 22 10000 1.12 325 14:19 17.02.2022
3706 Clouds 38 1006 26 10000 0.74 321 12:24 17.02.2022
3707 Clouds 36 1008 30 10000 0.15 358 11:21 17.02.2022
3708 Clouds 29 1010 47 10000 1.67 157 08:38 17.02.2022
3709 Clouds 21 1008 83 10000 1.52 174 00:29 17.02.2022
3710 Clouds 22 1009 82 10000 1.33 195 22:41 16.02.2022
3711 Clouds 23 1009 74 10000 1.33 167 20:46 16.02.2022
3712 Clouds 25 1009 67 10000 1.97 169 19:43 16.02.2022
3713 Clouds 25 1009 83 8000 3.09 180 18:36 16.02.2022
3714 -273 0 0 0 0 0 17:39 16.02.2022
3715 -273 0 0 0 0 0 17:36 16.02.2022
3716 -273 0 0 0 0 0 17:36 16.02.2022
3717 Clouds 28 1009 74 8000 2.06 120 15:30 16.02.2022
3718 Clouds 27 1010 78 10000 2.06 120 14:57 16.02.2022
3719 Clouds 26 1012 69 10000 2.06 120 12:34 16.02.2022
3720 Clouds 35 1008 34 10000 1.93 255 11:53 16.02.2022
3721 Clouds 34 1009 39 10000 1.58 253 10:52 16.02.2022
3722 Clouds 32 1011 46 10000 0.76 267 10:29 16.02.2022
3723 Clouds 21 1012 100 6000 0 0 06:57 16.02.2022
3724 Clouds 21 1009 94 10000 1.06 147 03:46 16.02.2022
3725 Clouds 23 1009 76 10000 1.31 170 22:35 15.02.2022
3726 Clouds 24 1009 68 10000 1.79 168 21:59 15.02.2022
3727 Clouds 24 1009 68 10000 1.79 168 21:59 15.02.2022
3728 Clouds 24 1009 68 10000 1.79 168 21:39 15.02.2022
3729 Clouds 25 1009 63 10000 1.82 170 21:21 15.02.2022
3730 Clouds 25 1009 63 10000 1.82 170 20:48 15.02.2022
3731 Clouds 26 1009 56 10000 1.56 175 19:48 15.02.2022
3732 Clouds 27 1007 54 10000 1.04 177 18:45 15.02.2022
3733 Clouds 27 1007 54 10000 1 206 18:19 15.02.2022
3734 Clouds 27 1007 54 10000 1 206 17:47 15.02.2022
3735 Clouds 32 1007 55 7000 3.09 300 16:30 15.02.2022
3736 Clouds 34 1005 32 10000 1.14 243 14:39 15.02.2022
3737 Clouds 34 1010 49 8000 4.12 210 13:26 15.02.2022
3738 Clouds 30 1012 62 8000 2.06 0 11:52 15.02.2022
3739 Clouds 36 1009 33 10000 0.72 253 10:57 15.02.2022
3740 Clouds 31 1012 47 10000 0.38 112 09:25 15.02.2022
3741 Mist 21 1012 100 3000 0 0 06:48 15.02.2022
3742 Clouds 23 1008 65 10000 1.24 194 00:26 15.02.2022
3743 Clouds 25 1008 58 10000 1.59 218 22:20 14.02.2022
3744 Clouds 26 1009 53 10000 1.45 233 21:24 14.02.2022
3745 Clouds 27 1008 49 10000 1.27 272 20:23 14.02.2022
3746 Clouds 27 1008 49 10000 1.27 272 19:30 14.02.2022
3747 Clouds 29 1006 43 10000 1.38 202 18:27 14.02.2022
3748 Thunderstorm 30 1008 66 6000 0 0 17:43 14.02.2022
3749 Thunderstorm 30 1008 66 6000 0 0 17:43 14.02.2022
3750 Thunderstorm 30 1008 66 6000 0 0 17:24 14.02.2022
3751 Clouds 31 1008 58 7000 3.09 340 15:58 14.02.2022
3752 Clouds 32 1010 55 8000 0 0 13:40 14.02.2022
3753 Clouds 32 1010 55 8000 0 0 13:22 14.02.2022
3754 Clouds 32 1011 55 8000 3.09 250 12:32 14.02.2022
3755 Clouds 30 1011 62 8000 0 0 11:54 14.02.2022
3756 Clouds 30 1012 58 8000 4.12 130 10:31 14.02.2022
3757 Clouds 31 1011 48 10000 1.32 182 08:37 14.02.2022
3758 Clouds 25 1011 73 10000 1.33 199 07:27 14.02.2022
3759 Clouds 22 1007 80 10000 1.35 171 23:41 13.02.2022
3760 Clouds 22 1008 74 10000 1.3 168 22:42 13.02.2022
3761 Clouds 23 1008 64 10000 1.54 156 22:23 13.02.2022
3762 Clouds 24 1008 53 10000 1.61 174 21:29 13.02.2022
3763 Clouds 24 1008 53 10000 1.61 174 20:33 13.02.2022
3764 Clouds 27 1006 37 10000 1.21 111 19:29 13.02.2022
3765 Clouds 27 1006 37 10000 1.21 111 18:44 13.02.2022
3766 Clouds 29 1004 30 10000 1.07 55 17:57 13.02.2022
3767 Clouds 37 1002 18 10000 2.63 25 15:54 13.02.2022
3768 Clouds 38 1002 18 10000 1.73 13 15:20 13.02.2022
3769 Clouds 34 1008 49 8000 4.12 270 13:59 13.02.2022
3770 Clouds 39 1005 21 10000 1.12 1 12:50 13.02.2022
3771 Clouds 39 1007 23 10000 0.92 345 11:35 13.02.2022
3772 Clouds 37 1008 29 10000 0.27 322 10:32 13.02.2022
3773 Clouds 35 1010 39 10000 0.5 179 09:45 13.02.2022
3774 Clouds 23 1011 80 10000 0.97 117 07:21 13.02.2022
3775 Clouds 24 1006 65 10000 1.1 227 00:35 13.02.2022
3776 Clouds 24 1007 63 10000 0.66 252 23:42 12.02.2022
3777 Clouds 25 1008 63 10000 0.68 324 22:33 12.02.2022
3778 Clouds 26 1007 60 10000 0.17 18 21:27 12.02.2022
3779 Clouds 26 1007 60 10000 0.17 18 20:34 12.02.2022
3780 Clouds 27 1007 57 10000 0.89 268 19:27 12.02.2022
3781 Clouds 29 1008 74 7000 0 0 18:53 12.02.2022
3782 Clouds 29 1008 74 7000 0 0 18:35 12.02.2022
3783 Clouds 32 1004 39 10000 0.47 180 17:19 12.02.2022
3784 Clouds 36 1003 27 10000 0.52 96 16:26 12.02.2022
3785 Clouds 33 1007 46 8000 3.09 220 15:51 12.02.2022
3786 Clouds 33 1007 46 8000 3.09 220 15:51 12.02.2022
3787 Clouds 36 1003 27 10000 0.82 88 14:31 12.02.2022
3788 Clouds 38 1005 27 10000 1.25 18 13:22 12.02.2022
3789 Clouds 36 1008 34 10000 0.41 147 10:42 12.02.2022
3790 Clouds 29 1012 61 6000 2.06 160 09:50 12.02.2022
3791 Clouds 31 1011 48 10000 1.07 115 09:26 12.02.2022
3792 Clouds 31 1011 48 10000 1.07 115 08:44 12.02.2022
3793 Clouds 22 1010 78 10000 0.46 177 05:40 12.02.2022
3794 Clouds 22 1009 77 10000 1.16 151 04:30 12.02.2022
3795 Clouds 22 1007 74 10000 0.67 110 02:18 12.02.2022
3796 Clouds 25 1007 65 10000 1.4 186 22:37 11.02.2022
3797 Clouds 24 1008 69 10000 1.48 178 22:18 11.02.2022
3798 Clouds 24 1008 69 10000 1.48 178 22:18 11.02.2022
3799 Clouds 25 1008 63 10000 1.71 158 20:41 11.02.2022
3800 Clouds 26 1007 59 10000 0.98 137 19:48 11.02.2022
3801 Clouds 26 1006 60 10000 0.89 202 19:27 11.02.2022
3802 Clouds 28 1007 74 7000 0 0 18:26 11.02.2022
3803 Clouds 31 1008 58 7000 1.54 0 17:26 11.02.2022
3804 Clouds 32 1006 51 8000 3.09 190 16:26 11.02.2022
3805 Clouds 32 1003 40 10000 1.35 201 14:44 11.02.2022
3806 Clouds 34 1003 36 10000 0.99 357 14:23 11.02.2022
3807 Clouds 34 1003 36 10000 0.99 357 13:59 11.02.2022
3808 Clouds 34 1003 36 10000 0.99 357 13:39 11.02.2022
3809 Clouds 38 1005 28 10000 0.67 46 12:19 11.02.2022
3810 Clouds 35 1008 39 10000 1.35 91 10:24 11.02.2022
3811 Clouds 32 1009 46 10000 1.34 144 08:49 11.02.2022
3812 Clouds 29 1009 57 10000 1.86 169 08:28 11.02.2022
3813 Clouds 28 1009 56 10000 1.67 161 07:34 11.02.2022
3814 Clouds 23 1007 82 10000 0.7 188 02:40 11.02.2022
3815 Clouds 23 1006 81 10000 1.09 163 02:19 11.02.2022
3816 Clouds 24 1007 73 10000 1.54 153 23:36 10.02.2022
3817 Clouds 26 1008 65 10000 1.88 156 21:53 10.02.2022
3818 Clouds 26 1008 66 10000 2.02 170 21:24 10.02.2022
3819 Clouds 26 1008 66 10000 2.02 170 20:48 10.02.2022
3820 Clouds 25 1007 69 10000 0.9 80 19:26 10.02.2022
3821 Clouds 25 1007 69 10000 0.9 80 18:47 10.02.2022
3822 Clouds 31 1005 44 10000 0.51 315 17:27 10.02.2022
3823 Clouds 31 1005 44 10000 0.51 315 16:57 10.02.2022
3824 Clouds 34 1004 32 10000 1.5 189 16:20 10.02.2022
3825 Clouds 34 1004 32 10000 1.5 189 15:33 10.02.2022
3826 Clouds 35 1004 32 10000 1.74 191 14:49 10.02.2022
3827 Clouds 35 1005 34 10000 1.91 188 14:29 10.02.2022
3828 Clouds 30 1009 62 6000 2.06 180 13:33 10.02.2022
3829 Clouds 34 1007 39 10000 2.15 181 12:51 10.02.2022
3830 Clouds 30 1010 58 6000 2.06 210 11:38 10.02.2022
3831 Clouds 32 1009 45 10000 1.85 160 11:20 10.02.2022
3832 Clouds 32 1010 48 10000 2.52 181 10:18 10.02.2022
3833 Clouds 27 1012 78 7000 3.09 180 09:25 10.02.2022
3834 Clouds 28 1011 62 10000 2.44 173 07:37 10.02.2022
3835 Clouds 23 1010 85 10000 1.27 195 05:51 10.02.2022
3836 Clouds 21 1009 87 10000 1.36 160 01:57 10.02.2022
3837 Clouds 22 1009 82 10000 1.28 153 00:50 10.02.2022
3838 Clouds 22 1009 85 10000 1.54 135 00:50 10.02.2022
3839 Clouds 23 1009 81 10000 1.72 127 00:29 10.02.2022
3840 Clouds 23 1009 77 10000 1.57 176 23:26 09.02.2022
3841 Clouds 23 1009 77 10000 1.57 176 22:37 09.02.2022
3842 Clouds 24 1010 75 10000 1.71 190 21:52 09.02.2022
3843 Clouds 24 1010 75 10000 1.71 190 21:32 09.02.2022
3844 Clouds 24 1009 73 10000 1.35 214 20:51 09.02.2022
3845 Clouds 24 1009 73 10000 1.35 214 20:31 09.02.2022
3846 Clouds 25 1008 71 10000 1.11 214 19:59 09.02.2022
3847 Clouds 25 1008 71 10000 1.11 214 19:38 09.02.2022
3848 Clouds 30 1005 45 10000 1.56 202 17:39 09.02.2022
3849 Haze 32 1008 45 5000 3.09 180 16:53 09.02.2022
3850 Haze 34 1007 40 5000 2.06 160 15:52 09.02.2022
3851 Haze 34 1007 40 5000 2.06 160 14:42 09.02.2022
3852 Clouds 38 1007 26 10000 1.47 332 12:28 09.02.2022
3853 Clouds 37 1009 30 10000 1.31 337 10:55 09.02.2022
3854 Clouds 37 1009 30 10000 1.31 337 10:30 09.02.2022
3855 Clouds 34 1010 36 10000 1.41 354 09:40 09.02.2022
3856 Clouds 32 1011 43 10000 1.57 10 09:19 09.02.2022
3857 Clouds 29 1011 54 10000 1.55 27 07:55 09.02.2022
3858 Clouds 22 1010 67 10000 1.09 65 05:30 09.02.2022
3859 Clouds 22 1009 68 10000 0.84 67 03:50 09.02.2022
3860 Clouds 23 1007 65 10000 0.81 254 00:53 09.02.2022
3861 Clouds 23 1008 60 10000 0.92 240 23:33 08.02.2022
3862 Clouds 23 1008 59 10000 0.53 216 22:47 08.02.2022
3863 Clouds 24 1009 59 10000 0.03 12 22:21 08.02.2022
3864 Clouds 24 1009 59 10000 0.03 12 21:49 08.02.2022
3865 Clouds 24 1009 57 10000 0.58 29 21:21 08.02.2022
3866 Clouds 24 1009 57 10000 0.58 29 20:44 08.02.2022
3867 Clouds 24 1008 56 10000 0.2 90 19:46 08.02.2022
3868 Haze 28 1009 57 3000 0 0 18:48 08.02.2022
3869 Clouds 27 1006 41 10000 1.18 190 17:43 08.02.2022
3870 Clouds 32 1005 31 10000 0.12 231 16:30 08.02.2022
3871 Clouds 36 1004 19 10000 1.13 25 15:30 08.02.2022
3872 Clouds 36 1004 19 10000 1.13 25 15:30 08.02.2022
3873 Clouds 36 1004 19 10000 1.13 25 15:30 08.02.2022
3874 Haze 34 1009 26 4000 0 0 14:36 08.02.2022
3875 Clouds 37 1006 21 10000 1.71 5 13:24 08.02.2022
3876 Clouds 37 1007 23 10000 1.33 357 11:38 08.02.2022
3877 Clouds 34 1010 33 10000 1.31 11 10:23 08.02.2022
3878 Haze 26 1013 73 5000 0 0 09:44 08.02.2022
3879 Mist 21 1012 94 4000 0 0 07:53 08.02.2022
3880 Clouds 21 1011 80 10000 0.06 118 05:41 08.02.2022
3881 Clouds 20 1010 81 10000 0.96 171 04:39 08.02.2022
3882 Clouds 20 1010 78 10000 0.83 113 04:21 08.02.2022
3883 Clouds 20 1010 78 10000 0.83 113 03:36 08.02.2022
3884 Clouds 20 1010 77 10000 1.04 44 03:18 08.02.2022
3885 Clouds 20 1010 77 10000 1.04 44 02:59 08.02.2022
3886 Clouds 20 1010 77 10000 1.04 44 02:36 08.02.2022
3887 Clouds 21 1009 76 10000 1.47 16 02:18 08.02.2022
3888 Clouds 21 1009 76 10000 1.47 16 01:44 08.02.2022
3889 Clouds 21 1009 76 10000 1.47 16 01:44 08.02.2022
3890 Clouds 21 1009 74 10000 0.61 280 01:24 08.02.2022
3891 Clouds 21 1009 74 10000 0.61 280 00:54 08.02.2022
3892 Clouds 22 1009 61 10000 1.5 169 23:55 07.02.2022
3893 Clouds 22 1009 61 10000 1.5 169 23:37 07.02.2022
3894 Clouds 22 1010 53 10000 1.12 153 23:18 07.02.2022
3895 Clouds 23 1010 48 10000 0.44 105 22:20 07.02.2022
3896 Clouds 23 1010 48 10000 0.44 105 21:55 07.02.2022
3897 Clouds 24 1009 43 10000 0.96 144 21:29 07.02.2022
3898 Clouds 24 1009 43 10000 0.96 144 20:59 07.02.2022
3899 Clouds 24 1009 43 10000 0.96 144 20:40 07.02.2022
3900 Clouds 25 1008 37 10000 1.28 146 19:51 07.02.2022
3901 Clouds 25 1008 37 10000 1.28 146 19:32 07.02.2022
3902 Clouds 27 1006 30 10000 0.76 198 17:52 07.02.2022
3903 Haze 31 1009 48 3000 2.06 50 16:53 07.02.2022
3904 Haze 31 1009 51 3000 2.06 30 15:49 07.02.2022
3905 Clouds 37 1005 15 10000 0.26 348 14:55 07.02.2022
3906 Clouds 38 1006 14 10000 0.5 27 13:28 07.02.2022
3907 Clouds 38 1006 14 10000 0.5 27 12:52 07.02.2022
3908 Clouds 37 1008 14 10000 1.01 69 11:58 07.02.2022
3909 Clouds 37 1008 14 10000 1.01 69 11:35 07.02.2022
3910 Clouds 35 1010 16 10000 1.48 62 10:50 07.02.2022
3911 Clouds 35 1010 16 10000 1.48 62 10:30 07.02.2022
3912 Clouds 32 1012 19 10000 1.62 63 09:53 07.02.2022
3913 Clouds 30 1013 24 10000 1.44 64 09:18 07.02.2022
3914 Clouds 30 1013 24 10000 1.44 64 08:36 07.02.2022
3915 Clouds 22 1013 45 10000 1.17 64 06:54 07.02.2022
3916 Clouds 22 1013 45 10000 1.17 64 06:33 07.02.2022
3917 Clouds 20 1010 55 10000 0.55 53 02:58 07.02.2022
3918 Clouds 21 1010 55 10000 0.37 260 00:44 07.02.2022
3919 Clouds 21 1010 51 10000 1.1 220 23:47 06.02.2022
3920 Clouds 23 1010 47 10000 0.48 307 22:48 06.02.2022
3921 Clouds 24 1010 43 10000 0.92 31 21:54 06.02.2022
3922 Clouds 24 1010 43 10000 0.92 31 21:35 06.02.2022
3923 Clouds 25 1010 42 10000 1.42 36 20:54 06.02.2022
3924 Clouds 25 1010 42 10000 1.42 36 20:31 06.02.2022
3925 Clouds 25 1009 41 10000 1.5 44 19:37 06.02.2022
3926 Haze 25 1010 83 3000 0 0 18:40 06.02.2022
3927 Haze 27 1010 69 3000 0 0 17:55 06.02.2022
3928 Clouds 32 1006 33 10000 1.72 25 17:18 06.02.2022
3929 Haze 28 1010 57 3000 0 0 16:38 06.02.2022
3930 Clouds 35 1005 24 10000 1.96 10 15:48 06.02.2022
3931 Clouds 36 1005 23 10000 1.71 1 15:26 06.02.2022
3932 Clouds 36 1005 23 10000 1.71 1 14:36 06.02.2022
3933 Clouds 36 1005 23 10000 1.71 1 14:36 06.02.2022
3934 Clouds 37 1007 24 10000 1.77 5 13:25 06.02.2022
3935 Clouds 36 1007 27 10000 1.48 2 12:51 06.02.2022
3936 Clouds 35 1010 31 10000 1.45 351 11:27 06.02.2022
3937 Clouds 35 1010 31 10000 1.45 351 10:30 06.02.2022
3938 Clouds 32 1012 45 10000 0.84 66 08:53 06.02.2022
3939 Clouds 28 1013 56 10000 0.89 129 07:51 06.02.2022
3940 Clouds 21 1011 84 10000 0.73 152 05:31 06.02.2022
3941 Clouds 20 1010 83 10000 0.3 111 02:49 06.02.2022
3942 Clouds 21 1010 82 10000 0.12 48 02:24 06.02.2022
3943 Clouds 21 1010 79 10000 0.97 182 00:27 06.02.2022
3944 Clouds 22 1011 78 10000 1.76 126 22:22 05.02.2022
3945 Clouds 22 1011 83 10000 1.61 127 21:18 05.02.2022
3946 Clouds 22 1010 86 10000 1.87 122 20:24 05.02.2022
3947 Mist 25 1011 83 4000 1.54 0 19:46 05.02.2022
3948 Clouds 24 1009 76 10000 2.16 154 18:52 05.02.2022
3949 Clouds 25 1008 72 10000 2.14 152 17:39 05.02.2022
3950 Clouds 25 1008 72 10000 2.14 152 17:39 05.02.2022
3951 Rain 25 1008 73 10000 1.44 233 16:48 05.02.2022
3952 Rain 30 1010 62 7000 3.09 210 15:34 05.02.2022
3953 Clouds 27 1007 60 10000 0.62 36 14:55 05.02.2022
3954 Clouds 30 1012 62 10000 0 0 12:47 05.02.2022
3955 Clouds 30 1012 62 10000 0 0 12:22 05.02.2022
3956 Clouds 28 1014 69 7000 3.09 260 10:48 05.02.2022
3957 Clouds 32 1012 46 10000 1.53 210 09:53 05.02.2022
3958 Clouds 32 1012 46 10000 1.53 210 09:30 05.02.2022
3959 Clouds 27 1013 62 10000 1.79 181 07:51 05.02.2022
3960 Clouds 24 1012 74 10000 1.59 168 06:57 05.02.2022
3961 Clouds 22 1010 83 10000 1.4 146 04:29 05.02.2022
3962 Clouds 22 1009 81 10000 1.05 151 01:19 05.02.2022
3963 Clouds 22 1009 81 10000 1.27 162 00:52 05.02.2022
3964 Clouds 23 1010 80 10000 1.27 162 23:39 04.02.2022
3965 Clouds 23 1010 78 10000 1.54 177 23:21 04.02.2022
3966 Clouds 23 1011 76 10000 1.42 188 21:54 04.02.2022
3967 Clouds 23 1011 76 10000 1.42 188 21:36 04.02.2022
3968 Clouds 24 1011 74 10000 1.15 188 21:18 04.02.2022
3969 Rain 24 1010 73 10000 1.37 178 19:39 04.02.2022
3970 Clouds 27 1011 83 10000 0 0 17:40 04.02.2022
3971 Clouds 28 1011 69 10000 2.06 200 15:39 04.02.2022
3972 Clouds 34 1005 34 10000 1.16 262 14:52 04.02.2022
3973 Clouds 29 1012 65 10000 2.06 220 13:31 04.02.2022
3974 Clouds 36 1008 31 10000 0.94 314 12:43 04.02.2022
3975 Clouds 35 1009 34 10000 0.83 279 11:41 04.02.2022
3976 Clouds 34 1011 39 10000 0.75 242 10:36 04.02.2022
3977 Clouds 24 1014 88 7000 3.09 180 08:34 04.02.2022
3978 Clouds 21 1012 93 10000 0.42 131 06:18 04.02.2022
3979 Clouds 21 1010 91 10000 0.89 200 02:42 04.02.2022
3980 Clouds 22 1010 87 10000 1.26 165 01:22 04.02.2022
3981 Clouds 23 1011 80 10000 1.36 195 23:29 03.02.2022
3982 Clouds 23 1011 80 10000 1.36 195 22:31 03.02.2022
3983 Clouds 23 1010 77 10000 1.44 217 21:48 03.02.2022
3984 Clouds 24 1010 72 10000 1.46 214 20:36 03.02.2022
3985 Clouds 26 1009 64 10000 2.16 217 20:18 03.02.2022
3986 Clouds 26 1009 62 10000 2.17 232 19:26 03.02.2022
3987 Clouds 27 1008 57 10000 1.55 219 18:28 03.02.2022
3988 Clouds 27 1008 57 10000 1.55 219 17:32 03.02.2022
3989 Clouds 31 1006 45 10000 1.46 241 16:24 03.02.2022
3990 Clouds 31 1006 45 10000 2.12 250 14:28 03.02.2022
3991 Clouds 32 1007 42 10000 2.23 259 12:40 03.02.2022
3992 Clouds 35 1010 33 10000 1.4 332 10:36 03.02.2022
3993 Clouds 28 1012 58 10000 0.22 214 08:23 03.02.2022
3994 Clouds 23 1010 79 10000 0.72 157 03:57 03.02.2022
3995 Clouds 23 1009 68 10000 1.11 166 00:30 03.02.2022
3996 Clouds 24 1010 67 10000 1.25 215 22:55 02.02.2022
3997 Clouds 24 1011 66 10000 1.54 229 21:53 02.02.2022
3998 Clouds 24 1011 66 10000 1.54 229 21:30 02.02.2022
3999 Clouds 24 1011 65 10000 0.84 219 20:33 02.02.2022
4000 Clouds 24 1010 65 10000 0.7 187 19:51 02.02.2022
4001 Clouds 24 1009 64 10000 0.89 183 19:20 02.02.2022
4002 Clouds 25 1008 61 10000 1.05 203 18:27 02.02.2022
4003 Clouds 25 1008 61 10000 1.05 203 17:38 02.02.2022
4004 Clouds 28 1007 55 10000 0.97 226 17:19 02.02.2022
4005 Clouds 28 1007 55 10000 0.97 226 16:30 02.02.2022
4006 Clouds 30 1008 43 10000 1.14 287 12:54 02.02.2022
4007 Clouds 28 1012 74 7000 2.06 270 11:51 02.02.2022
4008 Clouds 30 1009 45 10000 0.81 266 11:31 02.02.2022
4009 Clouds 29 1011 51 10000 1.03 69 09:46 02.02.2022
4010 Clouds 22 1010 77 10000 0.25 168 06:18 02.02.2022
4011 Clouds 22 1009 72 10000 1.39 162 22:44 01.02.2022
4012 Clouds 23 1009 69 10000 1.16 153 21:36 01.02.2022
4013 Clouds 23 1008 67 10000 0.9 177 19:57 01.02.2022
4014 Clouds 25 1006 64 10000 1.43 182 17:38 01.02.2022
4015 Clouds 27 1005 57 10000 1.49 180 16:33 01.02.2022
4016 Clouds 30 1007 43 10000 2.31 198 13:28 01.02.2022
4017 Clouds 31 1007 42 10000 2.58 198 12:30 01.02.2022
4018 Clouds 26 1012 78 8000 0 0 10:44 01.02.2022
4019 Clouds 22 1009 81 10000 1.87 175 02:32 01.02.2022
4020 Clouds 23 1009 79 10000 1.71 173 23:40 31.01.2022
4021 Clouds 23 1010 77 10000 1.7 169 22:48 31.01.2022
4022 Clouds 24 1010 73 10000 1.96 154 21:38 31.01.2022
4023 Clouds 24 1010 68 10000 1.45 141 20:45 31.01.2022
4024 Clouds 24 1009 61 10000 1.4 127 20:26 31.01.2022
4025 Haze 24 1011 88 5000 0 0 18:55 31.01.2022
4026 Clouds 25 1007 42 10000 1.64 133 18:20 31.01.2022
4027 Clouds 27 1006 38 10000 1.63 106 17:25 31.01.2022
4028 Clouds 32 1005 29 10000 0.97 102 16:25 31.01.2022
4029 Clouds 35 1005 20 10000 0.35 218 14:54 31.01.2022
4030 Clouds 36 1006 19 10000 0.61 244 13:51 31.01.2022
4031 Clouds 36 1007 19 10000 0.42 269 12:38 31.01.2022
4032 Clouds 35 1009 21 10000 0.35 282 11:42 31.01.2022
4033 Clouds 31 1010 26 10000 0.41 279 10:49 31.01.2022
4034 Clouds 29 1011 31 10000 0.69 149 09:45 31.01.2022
4035 Clouds 30 1011 29 10000 1.42 164 08:58 31.01.2022
4036 Clouds 30 1011 29 10000 1.42 164 08:39 31.01.2022
4037 Clouds 26 1011 36 10000 1.05 170 08:20 31.01.2022
4038 Clouds 22 1010 43 10000 0.54 248 06:18 31.01.2022
4039 Clouds 23 1008 38 10000 0.67 19 00:44 31.01.2022
4040 Clouds 23 1009 41 10000 0.29 302 22:38 30.01.2022
4041 Clouds 23 1009 41 10000 0.18 178 22:20 30.01.2022
4042 Clouds 23 1009 41 10000 0.18 178 21:38 30.01.2022
4043 Clouds 24 1008 41 10000 0.43 182 21:18 30.01.2022
4044 Clouds 24 1008 41 10000 0.43 182 20:45 30.01.2022
4045 Clouds 24 1008 39 10000 0.27 105 20:26 30.01.2022
4046 Clouds 26 1006 36 10000 0.21 32 19:24 30.01.2022
4047 Clouds 26 1006 36 10000 0.21 32 18:36 30.01.2022
4048 Clouds 27 1005 34 10000 0.3 295 17:54 30.01.2022
4049 Clouds 31 1004 31 10000 0.51 307 17:21 30.01.2022
4050 Clouds 31 1004 31 10000 0.51 307 16:39 30.01.2022
4051 Clouds 36 1003 18 10000 0.94 348 16:21 30.01.2022
4052 Clouds 36 1003 18 10000 0.94 348 15:49 30.01.2022
4053 Clouds 36 1003 18 10000 0.94 348 15:31 30.01.2022
4054 Clouds 37 1003 17 10000 1.04 7 14:46 30.01.2022
4055 Clouds 37 1005 17 10000 1.27 37 12:47 30.01.2022
4056 Haze 30 1011 54 4000 3.09 120 11:53 30.01.2022
4057 Clouds 35 1008 18 10000 1.8 43 10:32 30.01.2022
4058 Clouds 33 1010 21 10000 1.99 43 09:50 30.01.2022
4059 Clouds 30 1011 26 10000 1.88 50 08:54 30.01.2022
4060 Clouds 22 1011 46 10000 0.99 64 07:28 30.01.2022
4061 Clouds 20 1009 52 10000 0.56 55 01:56 30.01.2022
4062 Clouds 20 1009 52 10000 0.56 55 01:56 30.01.2022
4063 Clear 21 1009 48 10000 0.68 200 00:23 30.01.2022
4064 Clear 22 1009 46 10000 0.77 209 23:18 29.01.2022
4065 Clear 22 1010 45 10000 0.42 115 21:49 29.01.2022
4066 Clear 23 1009 42 10000 1 95 21:24 29.01.2022
4067 Clear 24 1008 39 10000 0.91 145 20:28 29.01.2022
4068 Clear 24 1008 39 10000 0.91 145 19:34 29.01.2022
4069 Clear 25 1008 37 10000 0.53 191 18:52 29.01.2022
4070 Clouds 27 1006 35 10000 0.52 263 18:23 29.01.2022
4071 Clear 31 1005 31 10000 0.19 2 17:29 29.01.2022
4072 Clouds 35 1005 20 10000 1 8 15:57 29.01.2022
4073 Clear 37 1005 16 10000 1.66 30 14:23 29.01.2022
4074 Clear 37 1005 16 10000 1.66 30 13:42 29.01.2022
4075 Clouds 37 1006 16 10000 1.84 37 13:23 29.01.2022
4076 Clouds 36 1008 16 10000 1.99 47 11:47 29.01.2022
4077 Clouds 35 1009 18 10000 2.02 55 11:24 29.01.2022
4078 Clouds 30 1012 30 10000 1.62 56 08:43 29.01.2022
4079 Mist 18 1012 94 1500 0 0 06:55 29.01.2022
4080 Clouds 21 1009 57 10000 0.62 287 00:35 29.01.2022
4081 Clouds 22 1009 53 10000 1.15 286 23:51 28.01.2022
4082 Clouds 23 1009 48 10000 0.77 246 22:50 28.01.2022
4083 Clouds 23 1009 47 10000 0.49 220 22:21 28.01.2022
4084 Clouds 23 1009 47 10000 0.49 220 21:35 28.01.2022
4085 Clouds 24 1008 44 10000 0.49 159 20:29 28.01.2022
4086 Clouds 25 1007 42 10000 0.74 172 19:28 28.01.2022
4087 Clouds 25 1007 42 10000 0.74 172 18:42 28.01.2022
4088 Clouds 29 1006 39 10000 0.33 19 16:46 28.01.2022
4089 Clouds 35 1005 22 10000 1.99 38 15:18 28.01.2022
4090 Clouds 35 1005 22 10000 2.1 37 13:37 28.01.2022
4091 Clouds 35 1008 23 10000 1.63 26 12:27 28.01.2022
4092 Clouds 34 1009 29 10000 1.55 27 10:49 28.01.2022
4093 Clouds 31 1011 43 10000 1.79 33 09:49 28.01.2022
4094 Clouds 27 1012 65 10000 1.61 32 07:43 28.01.2022
4095 Clouds 24 1012 76 10000 1.58 38 06:39 28.01.2022
4096 Clouds 21 1009 89 10000 0.65 151 03:53 28.01.2022
4097 Clouds 21 1008 88 10000 0.89 185 02:31 28.01.2022
4098 Clouds 22 1008 87 10000 0.62 212 01:59 28.01.2022
4099 Clouds 22 1008 87 10000 0.62 212 01:30 28.01.2022
4100 Clouds 23 1009 79 10000 1.19 162 22:48 27.01.2022
4101 Clouds 23 1009 78 10000 1.47 183 21:45 27.01.2022
4102 Clouds 24 1009 72 10000 1.54 171 21:26 27.01.2022
4103 Clouds 26 1009 63 10000 1.8 147 20:23 27.01.2022
4104 Clouds 26 1007 56 10000 1.4 185 18:24 27.01.2022
4105 Clouds 29 1006 50 10000 1.72 198 17:26 27.01.2022
4106 Clouds 33 1005 35 10000 0.42 338 14:25 27.01.2022
4107 Clouds 37 1006 26 10000 1.11 335 13:19 27.01.2022
4108 Clouds 36 1008 30 10000 1.4 312 12:25 27.01.2022
4109 Clouds 33 1010 43 10000 1.24 288 09:56 27.01.2022
4110 Clouds 31 1011 50 10000 0.56 279 08:41 27.01.2022
4111 Clouds 28 1010 60 10000 1.74 207 08:18 27.01.2022
4112 Clouds 22 1008 78 10000 1.5 226 03:37 27.01.2022
4113 Clouds 23 1007 66 10000 1.09 162 00:25 27.01.2022
4114 Clouds 24 1007 64 10000 1.25 204 22:37 26.01.2022
4115 Clouds 25 1008 58 10000 1.25 232 21:44 26.01.2022
4116 Clouds 26 1007 56 10000 1.2 239 20:59 26.01.2022
4117 Clouds 26 1007 56 10000 1.2 239 20:35 26.01.2022
4118 Clouds 26 1006 57 10000 1.04 211 19:52 26.01.2022
4119 Clouds 26 1005 57 10000 1.22 246 18:52 26.01.2022
4120 Clouds 27 1005 54 10000 1.22 229 18:24 26.01.2022
4121 Clouds 27 1005 54 10000 1.22 229 17:39 26.01.2022
4122 Clouds 30 1004 48 10000 1.42 239 17:19 26.01.2022
4123 Clouds 34 1003 34 10000 1.29 234 16:25 26.01.2022
4124 Clouds 34 1003 33 10000 0.82 197 15:23 26.01.2022
4125 Clouds 36 1005 28 10000 0.47 336 12:44 26.01.2022
4126 Clouds 36 1008 34 10000 0.36 19 10:57 26.01.2022
4127 Clouds 34 1009 42 10000 0.33 133 09:58 26.01.2022
4128 Clouds 34 1009 42 10000 0.33 133 09:39 26.01.2022
4129 Clouds 24 1010 78 10000 1.09 118 07:28 26.01.2022
4130 Clouds 22 1007 87 10000 1.2 147 00:42 26.01.2022
4131 Clouds 23 1007 85 10000 1.22 168 23:43 25.01.2022
4132 Clouds 23 1008 84 10000 1.26 188 22:49 25.01.2022
4133 Clouds 23 1008 82 10000 1.16 148 22:19 25.01.2022
4134 Clouds 23 1008 82 10000 1.16 148 21:34 25.01.2022
4135 Clouds 24 1008 79 10000 1.34 155 20:46 25.01.2022
4136 Clouds 25 1007 73 10000 1.18 169 19:58 25.01.2022
4137 Clouds 25 1007 73 10000 1.18 169 19:58 25.01.2022
4138 Clouds 25 1007 73 10000 1.18 169 19:32 25.01.2022
4139 Clouds 26 1005 69 10000 1.65 195 18:20 25.01.2022
4140 Clouds 26 1005 69 10000 1.65 195 17:39 25.01.2022
4141 Clouds 28 1004 63 10000 1.48 180 16:35 25.01.2022
4142 Clouds 29 1004 54 10000 1.34 179 15:39 25.01.2022
4143 Clouds 33 1003 40 10000 0.58 127 15:20 25.01.2022
4144 Clouds 33 1003 40 10000 0.58 127 14:56 25.01.2022
4145 Clouds 36 1006 31 10000 1.32 6 12:23 25.01.2022
4146 Clouds 33 1009 44 10000 0.45 73 09:39 25.01.2022
4147 Clouds 27 1010 65 10000 1.28 65 08:21 25.01.2022
4148 Clouds 25 1010 77 10000 1.22 67 07:27 25.01.2022
4149 Clouds 22 1008 88 10000 0.84 214 05:54 25.01.2022
4150 Clouds 22 1009 87 10000 0.75 157 00:57 25.01.2022
4151 Clouds 22 1009 85 10000 0.86 121 23:36 24.01.2022
4152 Clouds 23 1009 84 10000 0.97 139 23:18 24.01.2022
4153 Clouds 23 1009 84 10000 0.97 139 22:53 24.01.2022
4154 Clouds 23 1009 84 10000 0.97 139 22:35 24.01.2022
4155 Clouds 23 1009 81 10000 1.3 152 21:42 24.01.2022
4156 Clouds 23 1009 76 10000 1.4 168 21:24 24.01.2022
4157 Clouds 24 1008 72 10000 1.18 175 20:28 24.01.2022
4158 Clouds 24 1008 72 10000 1.18 175 19:38 24.01.2022
4159 Clouds 26 1007 66 10000 1.48 152 18:50 24.01.2022
4160 Clouds 27 1006 57 10000 1.06 149 17:43 24.01.2022
4161 Clouds 27 1005 55 10000 0.31 180 17:22 24.01.2022
4162 Clouds 27 1005 55 10000 0.31 180 16:32 24.01.2022
4163 Clouds 28 1005 54 10000 0.74 31 15:51 24.01.2022
4164 Clouds 34 1005 35 10000 0.99 339 14:19 24.01.2022
4165 Clouds 34 1006 36 10000 1.43 319 12:35 24.01.2022
4166 Clouds 31 1011 62 7000 2.06 210 11:42 24.01.2022
4167 Clouds 33 1010 45 10000 0.84 135 10:23 24.01.2022
4168 Clouds 33 1010 45 10000 0.84 135 09:46 24.01.2022
4169 Clouds 27 1012 69 10000 1.26 132 08:18 24.01.2022
4170 Clouds 22 1009 84 10000 1.17 166 02:29 24.01.2022
4171 Clouds 23 1009 82 10000 1.24 169 01:26 24.01.2022
4172 Clouds 22 1009 81 10000 1.3 163 00:32 24.01.2022
4173 Clouds 23 1009 78 10000 1.3 156 23:46 23.01.2022
4174 Clouds 24 1010 71 10000 1.37 175 22:21 23.01.2022
4175 Clouds 24 1010 71 10000 1.37 175 21:41 23.01.2022
4176 Clouds 25 1010 67 10000 1.39 162 21:23 23.01.2022
4177 Clouds 26 1010 63 10000 1.24 156 20:23 23.01.2022
4178 Clouds 26 1008 58 10000 1.14 187 19:19 23.01.2022
4179 Clouds 26 1008 58 10000 1.14 187 18:41 23.01.2022
4180 Clouds 27 1009 78 8000 0 0 17:25 23.01.2022
4181 Clouds 29 1006 51 10000 0.66 115 16:18 23.01.2022
4182 Clouds 31 1005 45 10000 0.68 118 14:52 23.01.2022
4183 Clouds 32 1006 40 10000 0.45 142 14:19 23.01.2022
4184 Clouds 33 1007 35 10000 0.28 79 12:47 23.01.2022
4185 Clouds 36 1008 29 10000 0.33 156 12:21 23.01.2022
4186 Clouds 35 1010 33 10000 1.1 163 11:27 23.01.2022
4187 Clouds 35 1010 33 10000 1.1 163 10:59 23.01.2022
4188 Clouds 33 1011 40 10000 1.54 158 10:25 23.01.2022
4189 Clouds 33 1011 40 10000 1.54 158 09:33 23.01.2022
4190 Clouds 30 1012 48 10000 1.7 147 08:50 23.01.2022
4191 Clouds 21 1011 73 10000 1.25 160 04:41 23.01.2022
4192 Clouds 21 1010 69 10000 0.62 91 01:43 23.01.2022
4193 Clouds 22 1010 66 10000 0.18 141 00:56 23.01.2022
4194 Clouds 22 1010 63 10000 1.07 189 00:22 23.01.2022
4195 Clouds 23 1010 61 10000 1.1 185 23:18 22.01.2022
4196 Clouds 23 1010 61 10000 1.1 185 22:34 22.01.2022
4197 Clouds 23 1010 61 10000 1.1 185 22:34 22.01.2022
4198 Clouds 23 1011 56 10000 0.32 162 21:18 22.01.2022
4199 Clouds 24 1010 54 10000 0.68 142 19:46 22.01.2022
4200 Clouds 25 1009 50 10000 0.97 129 18:43 22.01.2022
4201 Clouds 26 1008 46 10000 0.26 172 17:56 22.01.2022
4202 Clouds 26 1008 46 10000 0.26 172 17:35 22.01.2022
4203 Clouds 29 1007 43 10000 0.66 294 16:55 22.01.2022
4204 Clouds 33 1006 29 10000 1.14 329 15:49 22.01.2022
4205 Clouds 34 1006 25 10000 1.46 342 14:57 22.01.2022
4206 Clear 35 1006 25 10000 1.49 346 13:36 22.01.2022
4207 Clear 35 1008 25 10000 1.49 354 12:47 22.01.2022
4208 Clouds 34 1009 28 10000 1.26 5 12:24 22.01.2022
4209 Clouds 33 1011 32 10000 1.14 22 10:55 22.01.2022
4210 Clouds 32 1012 37 10000 0.96 26 10:28 22.01.2022
4211 Clouds 32 1012 37 10000 0.96 26 09:46 22.01.2022
4212 Clouds 29 1013 45 10000 0.74 41 08:51 22.01.2022
4213 Clouds 23 1013 65 10000 0.38 98 07:29 22.01.2022
4214 Clouds 19 1011 74 10000 0.26 177 04:52 22.01.2022
4215 Clouds 20 1010 69 10000 0.38 16 01:33 22.01.2022
4216 Clouds 21 1010 64 10000 0.83 109 23:30 21.01.2022
4217 Clouds 22 1011 61 10000 1.09 117 22:20 21.01.2022
4218 Clouds 23 1010 56 10000 0.35 110 19:56 21.01.2022
4219 Clouds 24 1009 57 10000 0.67 135 18:36 21.01.2022
4220 Clouds 28 1007 50 10000 0.42 56 17:25 21.01.2022
4221 Clouds 33 1007 28 10000 1.56 60 15:28 21.01.2022
4222 Clouds 34 1008 26 10000 1.57 39 13:18 21.01.2022
4223 Clouds 34 1008 25 10000 1.57 46 12:37 21.01.2022
4224 Haze 30 1013 45 5000 3.09 360 11:27 21.01.2022
4225 Clouds 31 1012 30 10000 2.19 55 10:18 21.01.2022
4226 Clouds 25 1013 62 10000 1.95 62 08:23 21.01.2022
4227 Clouds 21 1012 94 10000 1.15 64 04:49 21.01.2022
4228 Clouds 21 1012 94 10000 1.15 64 04:49 21.01.2022
4229 Clouds 22 1011 85 10000 0.29 116 23:31 20.01.2022
4230 Clouds 23 1011 79 10000 1.05 80 22:21 20.01.2022
4231 Clouds 23 1011 79 10000 1.05 80 21:42 20.01.2022
4232 Clouds 24 1010 76 10000 1.24 152 20:40 20.01.2022
4233 Clouds 25 1009 71 10000 0.89 169 19:19 20.01.2022
4234 Clouds 25 1009 71 10000 0.89 169 19:19 20.01.2022
4235 Clouds 27 1008 66 10000 0.45 145 18:23 20.01.2022
4236 Clouds 28 1007 62 10000 0.89 151 16:53 20.01.2022
4237 Clouds 31 1006 50 10000 1.34 150 15:41 20.01.2022
4238 Clouds 33 1006 39 10000 1.44 152 14:41 20.01.2022
4239 Clouds 33 1007 39 10000 1.29 142 13:41 20.01.2022
4240 Clouds 33 1008 37 10000 1.63 40 12:34 20.01.2022
4241 Clouds 34 1009 38 10000 1.68 32 11:50 20.01.2022
4242 Clouds 33 1011 42 10000 1.52 32 10:39 20.01.2022
4243 Clouds 31 1013 50 10000 1.39 45 09:36 20.01.2022
4244 Clouds 25 1014 79 10000 0.47 95 07:51 20.01.2022
4245 Clouds 22 1011 82 10000 0.41 246 00:46 20.01.2022
4246 Clouds 23 1012 78 10000 0.72 112 22:59 19.01.2022
4247 Clouds 23 1012 77 10000 0.3 15 22:21 19.01.2022
4248 Clouds 24 1012 73 10000 0.8 56 21:23 19.01.2022
4249 Clouds 24 1012 73 10000 0.8 56 20:46 19.01.2022
4250 Clouds 25 1011 68 10000 0.61 115 19:45 19.01.2022
4251 Clouds 26 1010 71 10000 0.5 122 18:29 19.01.2022
4252 Clouds 26 1010 71 10000 0.5 122 17:45 19.01.2022
4253 Clouds 26 1009 69 10000 0.68 138 16:47 19.01.2022
4254 Clouds 28 1008 62 10000 0.44 96 14:42 19.01.2022
4255 Clouds 33 1009 39 10000 1.55 19 12:43 19.01.2022
4256 Clouds 33 1011 38 10000 1.82 22 11:41 19.01.2022
4257 Clouds 31 1014 47 10000 1.62 55 10:23 19.01.2022
4258 Clouds 31 1014 47 10000 1.62 55 09:34 19.01.2022
4259 Clouds 22 1015 80 10000 1.48 118 06:56 19.01.2022
4260 Clouds 19 1013 97 10000 0.95 98 02:41 19.01.2022
4261 Clouds 21 1015 94 10000 0.99 124 23:20 18.01.2022
4262 Clouds 21 1015 94 10000 0.99 124 22:34 18.01.2022
4263 Clouds 21 1015 90 10000 1 128 20:59 18.01.2022
4264 Clouds 22 1015 84 10000 1.17 142 19:55 18.01.2022
4265 Clouds 22 1015 84 10000 1.17 142 19:36 18.01.2022
4266 Clouds 22 1014 82 10000 1.04 172 18:51 18.01.2022
4267 Clouds 23 1014 80 10000 0.85 201 17:58 18.01.2022
4268 Clouds 25 1013 73 10000 0.98 234 16:50 18.01.2022
4269 Clouds 27 1012 59 10000 1.37 244 15:47 18.01.2022
4270 Clouds 28 1012 58 10000 1.49 242 15:21 18.01.2022
4271 Rain 26 1013 70 10000 1.44 249 12:47 18.01.2022
4272 Rain 24 1015 91 10000 0.7 223 10:47 18.01.2022
4273 Clouds 23 1016 89 10000 0.61 138 08:59 18.01.2022
4274 Clouds 22 1016 93 10000 0.59 132 07:55 18.01.2022
4275 Clouds 21 1013 92 10000 0.74 231 02:34 18.01.2022
4276 Clouds 21 1014 94 10000 0.58 255 23:39 17.01.2022
4277 Rain 20 1015 95 10000 0.81 337 22:27 17.01.2022
4278 Rain 20 1015 95 10000 0.81 337 21:35 17.01.2022
4279 Clouds 22 1014 85 10000 0.39 212 20:24 17.01.2022
4280 Clouds 22 1013 80 10000 0.66 7 18:30 17.01.2022
4281 Clouds 23 1012 78 10000 1.16 354 17:44 17.01.2022
4282 Clouds 26 1011 70 10000 1.07 349 16:44 17.01.2022
4283 Clouds 29 1010 51 10000 0.79 288 15:22 17.01.2022
4284 Clouds 29 1010 51 10000 0.79 288 14:56 17.01.2022
4285 Clouds 26 1013 63 10000 0.63 351 13:26 17.01.2022
4286 Clouds 26 1013 63 10000 0.63 351 12:56 17.01.2022
4287 Clouds 25 1014 67 10000 0.92 358 11:49 17.01.2022
4288 Clouds 24 1016 75 10000 0.56 48 10:21 17.01.2022
4289 Clouds 24 1016 75 10000 0.56 48 09:34 17.01.2022
4290 Clouds 20 1015 93 10000 0.79 152 07:24 17.01.2022
4291 Clouds 21 1015 89 10000 0.58 165 06:56 17.01.2022
4292 Clouds 20 1013 94 10000 0.86 151 00:55 17.01.2022
4293 Clouds 20 1014 94 10000 0.73 20 22:30 16.01.2022
4294 Clouds 20 1013 96 10000 0.73 145 20:36 16.01.2022
4295 Clouds 23 1013 88 10000 0 0 18:52 16.01.2022
4296 Clouds 25 1012 88 10000 3.09 250 17:59 16.01.2022
4297 Clouds 25 1012 88 10000 3.09 250 17:21 16.01.2022
4298 Clouds 25 1012 88 10000 2.06 180 16:38 16.01.2022
4299 Clouds 27 1013 74 10000 2.06 250 14:31 16.01.2022
4300 Clouds 26 1014 78 10000 3.09 260 13:49 16.01.2022
4301 Clouds 26 1014 78 10000 3.09 260 12:48 16.01.2022
4302 Clouds 25 1015 78 10000 2.06 250 11:42 16.01.2022
4303 Clouds 24 1015 83 10000 0 0 10:54 16.01.2022
4304 Clouds 22 1013 88 10000 2.14 185 10:19 16.01.2022
4305 Clouds 22 1015 94 8000 3.09 220 09:51 16.01.2022
4306 Clouds 22 1015 94 8000 3.09 220 09:22 16.01.2022
4307 Thunderstorm 21 1016 100 6000 2.06 180 07:33 16.01.2022
4308 Rain 21 1011 99 10000 1.2 65 00:42 16.01.2022
4309 Clouds 21 1011 98 10000 1.39 29 23:49 15.01.2022
4310 Rain 21 1012 98 10000 1.37 13 21:37 15.01.2022
4311 Rain 21 1011 97 7680 1.93 2 21:19 15.01.2022
4312 Rain 21 1011 97 7680 1.93 2 20:39 15.01.2022
4313 Clouds 23 1008 83 10000 0.83 223 19:29 15.01.2022
4314 Rain 24 1008 87 10000 1.22 259 18:37 15.01.2022
4315 Rain 31 1008 62 6000 1.54 0 16:58 15.01.2022
4316 Clouds 33 1008 52 6000 2.06 250 15:42 15.01.2022
4317 Clouds 35 1006 38 10000 0.18 282 13:52 15.01.2022
4318 Clouds 31 1013 33 8000 2.57 180 11:46 15.01.2022
4319 Clouds 30 1013 70 8000 2.06 160 10:25 15.01.2022
4320 Clouds 23 1013 87 10000 0.77 187 06:40 15.01.2022
4321 Clouds 22 1011 93 10000 1.29 147 23:49 14.01.2022
4322 Clouds 22 1012 93 10000 1.19 164 21:41 14.01.2022
4323 Clouds 22 1012 92 10000 1.16 153 20:37 14.01.2022
4324 Clouds 23 1012 88 10000 1.27 149 19:58 14.01.2022
4325 Clouds 23 1011 83 10000 1.27 131 18:46 14.01.2022
4326 Clouds 29 1011 74 8000 0 0 17:57 14.01.2022
4327 Clouds 30 1010 66 8000 3.09 120 16:47 14.01.2022
4328 Clouds 28 1009 62 10000 0.87 164 15:33 14.01.2022
4329 Clouds 28 1009 62 10000 0.87 164 15:33 14.01.2022
4330 Clouds 31 1011 62 8000 3.09 260 14:30 14.01.2022
4331 Clouds 29 1011 56 10000 1.25 192 13:27 14.01.2022
4332 Clouds 27 1012 65 10000 1.28 180 12:20 14.01.2022
4333 Clouds 24 1013 84 10000 0.97 188 10:46 14.01.2022
4334 Clouds 22 1014 94 10000 1.25 181 08:54 14.01.2022
4335 Clouds 22 1014 95 10000 1.68 200 07:46 14.01.2022
4336 Rain 20 1013 99 10000 1.74 220 03:50 14.01.2022
4337 Rain 21 1013 99 10000 1.15 179 00:44 14.01.2022
4338 Rain 21 1014 98 10000 0.89 308 21:57 13.01.2022
4339 Rain 21 1014 98 10000 0.89 308 21:30 13.01.2022
4340 Rain 21 1014 97 10000 1.04 286 20:33 13.01.2022
4341 Rain 22 1013 94 10000 0.43 109 19:32 13.01.2022
4342 Rain 24 1014 88 7000 0 0 18:50 13.01.2022
4343 Rain 25 1013 83 8000 0 0 17:23 13.01.2022
4344 Rain 26 1007 79 10000 2.41 251 15:49 13.01.2022
4345 Rain 29 1008 63 10000 1.97 275 15:26 13.01.2022
4346 Clouds 27 1008 75 10000 1.11 346 13:42 13.01.2022
4347 Rain 29 1010 60 10000 0.89 258 11:43 13.01.2022
4348 Clouds 23 1015 94 7000 0 0 09:37 13.01.2022
4349 Clouds 25 1013 78 10000 1.38 188 08:54 13.01.2022
4350 Clouds 24 1013 86 10000 1.28 167 08:22 13.01.2022
4351 Clouds 23 1012 90 10000 1.29 170 07:21 13.01.2022
4352 Clouds 23 1011 94 10000 1.1 136 05:56 13.01.2022
4353 Clouds 23 1010 95 10000 1.08 196 05:18 13.01.2022
4354 Clouds 23 1009 94 10000 1.35 197 01:46 13.01.2022
4355 Clouds 23 1009 90 10000 1.1 247 23:54 12.01.2022
4356 Clouds 23 1009 90 10000 1.1 247 23:34 12.01.2022
4357 Clouds 24 1009 89 10000 1.31 267 22:49 12.01.2022
4358 Clouds 24 1009 88 10000 1.25 238 21:54 12.01.2022
4359 Clouds 24 1010 88 10000 0.97 265 21:21 12.01.2022
4360 Clouds 24 1010 88 10000 0.97 265 20:53 12.01.2022
4361 Clouds 24 1008 87 10000 1.05 199 19:24 12.01.2022
4362 Rain 24 1007 91 10000 2.37 200 18:28 12.01.2022
4363 Rain 30 1009 70 8000 4.12 240 16:59 12.01.2022
4364 Clouds 30 1009 70 8000 4.12 250 15:53 12.01.2022
4365 Clouds 33 1004 45 10000 1.29 265 14:46 12.01.2022
4366 Clouds 36 1006 37 10000 0.94 303 12:58 12.01.2022
4367 Clouds 25 1012 83 7000 2.06 360 09:59 12.01.2022
4368 Rain 29 1011 63 10000 1.41 31 08:33 12.01.2022
4369 Clouds 22 1012 94 6000 2.06 360 07:33 12.01.2022
4370 Clouds 23 1009 85 10000 0.71 163 05:30 12.01.2022
4371 Clouds 25 1008 77 10000 0.87 109 23:29 11.01.2022
4372 Clouds 25 1008 77 10000 0.87 109 22:41 11.01.2022
4373 Clouds 26 1008 73 10000 0.26 146 22:20 11.01.2022
4374 Clouds 26 1008 72 10000 1.03 3 20:49 11.01.2022
4375 Clouds 27 1007 70 10000 0.69 117 19:42 11.01.2022
4376 Clouds 27 1005 67 10000 2.06 122 18:25 11.01.2022
4377 Clouds 29 1004 57 10000 2.02 89 17:18 11.01.2022
4378 Clouds 31 1006 70 8000 2.06 140 16:36 11.01.2022
4379 Clouds 35 1003 38 10000 0.7 2 14:59 11.01.2022
4380 Clouds 35 1003 38 10000 0.7 2 14:40 11.01.2022
4381 Clouds 31 1008 70 8000 3.09 140 13:54 11.01.2022
4382 Clouds 31 1008 70 8000 3.09 140 13:31 11.01.2022
4383 Clouds 31 1009 70 8000 3.09 140 12:37 11.01.2022
4384 Clouds 29 1011 74 8000 3.09 120 10:52 11.01.2022
4385 Clouds 30 1009 55 10000 1.38 168 08:58 11.01.2022
4386 Clouds 23 1008 81 10000 1.09 152 06:28 11.01.2022
4387 Clouds 23 1007 78 10000 0.43 173 00:30 11.01.2022
4388 Clouds 23 1007 77 10000 0.3 170 23:41 10.01.2022
4389 Clouds 23 1007 78 10000 0.62 229 22:51 10.01.2022
4390 Clouds 24 1007 78 10000 0.76 189 22:18 10.01.2022
4391 Clouds 24 1007 78 10000 0.76 189 21:48 10.01.2022
4392 Clouds 24 1008 78 10000 0.95 183 21:19 10.01.2022
4393 Clouds 24 1008 78 10000 0.95 183 20:56 10.01.2022
4394 Clouds 24 1007 78 10000 0.84 135 20:26 10.01.2022
4395 Clouds 24 1007 78 10000 0.84 135 19:41 10.01.2022
4396 Clouds 25 1006 76 10000 0.72 152 19:20 10.01.2022
4397 Clouds 25 1006 79 10000 0.98 202 18:48 10.01.2022
4398 Clouds 27 1005 70 10000 1.76 145 17:24 10.01.2022
4399 Clouds 27 1005 70 10000 1.76 145 16:41 10.01.2022
4400 Clouds 35 1003 37 10000 1.79 294 15:20 10.01.2022
4401 Clouds 35 1004 37 10000 1.38 284 13:41 10.01.2022
4402 Clouds 34 1007 44 10000 1.61 209 11:58 10.01.2022
4403 Clouds 32 1008 52 10000 1.65 195 11:24 10.01.2022
4404 Clouds 27 1009 69 10000 1.36 181 09:46 10.01.2022
4405 Clouds 24 1009 84 10000 0.94 152 06:47 10.01.2022
4406 Clouds 23 1009 86 10000 0.95 165 05:49 10.01.2022
4407 Clouds 23 1007 89 10000 1.08 206 01:30 10.01.2022
4408 Clouds 23 1007 88 10000 0.96 165 00:24 10.01.2022
4409 Clouds 23 1008 86 10000 0.88 171 23:29 09.01.2022
4410 Clouds 23 1008 86 10000 0.88 171 22:37 09.01.2022
4411 Clouds 24 1008 83 10000 1.07 118 21:46 09.01.2022
4412 Clouds 24 1009 82 10000 1.35 110 21:23 09.01.2022
4413 Clouds 24 1009 82 10000 1.35 110 21:23 09.01.2022
4414 Clouds 24 1009 82 10000 1.35 110 20:50 09.01.2022
4415 Clouds 24 1009 82 10000 1.35 110 20:32 09.01.2022
4416 Clouds 24 1008 79 10000 1.4 170 19:44 09.01.2022
4417 Clouds 25 1008 79 10000 1.35 171 19:23 09.01.2022
4418 Clouds 25 1008 79 10000 1.35 171 18:51 09.01.2022
4419 Clouds 23 1007 84 10000 1.36 173 18:33 09.01.2022
4420 Clouds 24 1006 84 10000 1.59 209 17:30 09.01.2022
4421 Rain 32 1008 62 8000 0 0 16:51 09.01.2022
4422 Rain 33 1008 55 8000 2.06 0 15:57 09.01.2022
4423 Rain 33 1008 55 8000 2.06 0 15:34 09.01.2022
4424 Rain 32 1008 58 8000 2.06 180 14:40 09.01.2022
4425 Clouds 32 1009 62 10000 1.54 0 13:50 09.01.2022
4426 Clouds 37 1005 31 10000 0.86 350 12:48 09.01.2022
4427 Clouds 31 1011 66 10000 4.12 190 11:51 09.01.2022
4428 Clouds 30 1012 70 10000 4.12 170 10:52 09.01.2022
4429 Clouds 34 1009 41 10000 0.81 234 09:42 09.01.2022
4430 Clouds 26 1012 83 8000 3.09 230 08:34 09.01.2022
4431 Clouds 23 1008 83 10000 0.63 204 03:55 09.01.2022
4432 Clouds 24 1007 80 10000 0.79 177 01:23 09.01.2022
4433 Clouds 25 1008 77 10000 0.98 183 23:39 08.01.2022
4434 Clouds 24 1008 77 10000 0.85 196 22:59 08.01.2022
4435 Clouds 25 1009 74 10000 0.73 309 22:19 08.01.2022
4436 Clouds 26 1008 72 10000 0.4 200 21:25 08.01.2022
4437 Clouds 26 1008 72 10000 0.4 200 20:41 08.01.2022
4438 Clouds 26 1008 71 10000 1.2 175 20:19 08.01.2022
4439 Clouds 27 1007 63 10000 1.03 209 18:34 08.01.2022
4440 Clouds 30 1009 70 7000 2.06 120 17:22 08.01.2022
4441 Clouds 31 1008 62 7000 3.09 120 15:52 08.01.2022
4442 Clouds 34 1004 40 10000 0.47 90 14:44 08.01.2022
4443 Clouds 37 1006 32 10000 0.51 44 13:25 08.01.2022
4444 Clouds 36 1009 35 10000 0.57 130 11:25 08.01.2022
4445 Clouds 34 1010 42 10000 1.08 138 10:25 08.01.2022
4446 Clouds 34 1010 42 10000 1.08 138 09:47 08.01.2022
4447 Clouds 28 1011 60 10000 1.15 107 07:50 08.01.2022
4448 Clouds 22 1008 72 10000 0.44 137 02:50 08.01.2022
4449 Clouds 23 1008 71 10000 0.5 169 00:41 08.01.2022
4450 Clouds 23 1009 67 10000 0.97 164 22:47 07.01.2022
4451 Clouds 24 1009 63 10000 0.82 205 20:58 07.01.2022
4452 Clear 25 1009 61 10000 0.56 213 20:19 07.01.2022
4453 Clouds 26 1008 58 10000 0.39 135 19:18 07.01.2022
4454 Haze 27 1009 78 5000 0 0 18:44 07.01.2022
4455 Clouds 29 1006 54 10000 1.04 68 17:26 07.01.2022
4456 Clouds 29 1006 54 10000 1.04 68 16:39 07.01.2022
4457 Clouds 32 1010 51 7000 3.09 250 13:56 07.01.2022
4458 Clouds 32 1010 51 7000 3.09 250 13:38 07.01.2022
4459 Clouds 36 1006 31 10000 1.25 62 12:49 07.01.2022
4460 Clouds 32 1011 42 10000 1.61 88 09:37 07.01.2022
4461 Clouds 21 1009 76 10000 0.36 157 02:56 07.01.2022
4462 Clouds 21 1009 74 10000 0.64 143 01:54 07.01.2022
4463 Clouds 22 1009 71 10000 0.65 142 01:28 07.01.2022
4464 Clouds 22 1009 71 10000 0.65 142 00:59 07.01.2022
4465 Clouds 22 1009 69 10000 0.53 237 23:53 06.01.2022
4466 Clouds 23 1010 67 10000 1.15 324 21:28 06.01.2022
4467 Clouds 24 1010 63 10000 1.02 351 20:22 06.01.2022
4468 Clouds 24 1010 63 10000 1.02 351 19:45 06.01.2022
4469 Clouds 25 1009 60 10000 0.51 26 18:34 06.01.2022
4470 Haze 29 1009 70 5000 0 0 17:41 06.01.2022
4471 Clouds 28 1007 56 10000 0.38 54 16:52 06.01.2022
4472 Clouds 31 1009 58 6000 1.54 0 15:48 06.01.2022
4473 Clouds 31 1009 58 6000 1.54 0 15:26 06.01.2022
4474 Clouds 32 1009 55 6000 1.54 0 14:51 06.01.2022
4475 Clouds 34 1007 33 10000 1.41 85 14:18 06.01.2022
4476 Haze 30 1011 58 5000 2.06 360 12:56 06.01.2022
4477 Haze 30 1012 58 5000 0 0 11:43 06.01.2022
4478 Haze 30 1012 58 5000 0 0 11:23 06.01.2022
4479 Clear 29 1013 53 10000 1.18 136 08:59 06.01.2022
4480 Clouds 21 1009 85 10000 0.6 194 01:37 06.01.2022
4481 Clouds 21 1010 83 10000 1.21 184 23:40 05.01.2022
4482 Clouds 22 1011 81 10000 1.23 209 22:59 05.01.2022
4483 Clouds 22 1011 81 10000 1.23 209 22:33 05.01.2022
4484 Clouds 22 1012 79 10000 1.14 209 21:52 05.01.2022
4485 Clouds 22 1012 76 10000 0.82 212 21:21 05.01.2022
4486 Clouds 23 1012 73 10000 0.31 186 20:19 05.01.2022
4487 Clouds 24 1010 69 10000 0.78 128 18:54 05.01.2022
4488 Clouds 28 1011 74 7000 0 0 17:45 05.01.2022
4489 Clouds 27 1009 64 10000 0.78 82 16:51 05.01.2022
4490 Clouds 31 1008 50 10000 0.8 75 15:43 05.01.2022
4491 Clouds 33 1008 37 10000 1.05 46 14:28 05.01.2022
4492 Clouds 33 1008 37 10000 1.05 46 13:32 05.01.2022
4493 Clouds 33 1011 41 10000 1.07 41 11:45 05.01.2022
4494 Clouds 25 1014 74 10000 1 89 08:20 05.01.2022
4495 Clouds 21 1013 94 10000 0.69 145 06:25 05.01.2022
4496 Clouds 20 1011 94 10000 1.01 219 00:59 05.01.2022
4497 Clouds 21 1012 91 10000 1.35 211 23:29 04.01.2022
4498 Clouds 21 1012 91 10000 1.35 211 22:58 04.01.2022
4499 Clouds 21 1012 87 10000 1.4 222 21:31 04.01.2022
4500 Clouds 22 1012 80 10000 0.89 216 19:55 04.01.2022
4501 Clouds 24 1010 78 10000 1.13 230 18:19 04.01.2022
4502 Clouds 26 1012 78 7000 2.06 280 16:53 04.01.2022
4503 Clouds 26 1012 78 7000 2.06 280 16:30 04.01.2022
4504 Clouds 30 1008 52 10000 0.61 298 14:54 04.01.2022
4505 Clouds 30 1008 52 10000 0.61 298 14:36 04.01.2022
4506 Clouds 25 1012 83 7000 0 0 13:40 04.01.2022
4507 Rain 26 1012 77 10000 0.73 351 10:59 04.01.2022
4508 Rain 25 1012 81 10000 0.77 11 09:58 04.01.2022
4509 Fog 21 1015 100 800 0 0 08:35 04.01.2022
4510 Rain 21 1010 98 10000 1.21 174 03:39 04.01.2022
4511 Clouds 22 1009 93 10000 0.91 244 00:42 04.01.2022
4512 Clouds 22 1010 93 10000 1 236 23:44 03.01.2022
4513 Clouds 22 1010 93 10000 1.13 177 22:21 03.01.2022
4514 Clouds 22 1010 93 10000 1.13 177 21:35 03.01.2022
4515 Clouds 23 1010 88 10000 1.28 188 20:28 03.01.2022
4516 Clouds 23 1009 91 10000 1.5 205 18:54 03.01.2022
4517 Clouds 24 1008 91 10000 1.36 189 18:28 03.01.2022
4518 Clouds 25 1007 85 10000 1.51 167 17:18 03.01.2022
4519 Rain 25 1010 83 10000 3.09 190 15:50 03.01.2022
4520 Clouds 29 1005 62 10000 0.43 138 14:31 03.01.2022
4521 Rain 25 1009 87 10000 0.8 62 12:51 03.01.2022
4522 Rain 23 1014 94 8000 2.06 0 11:50 03.01.2022
4523 Rain 24 1014 88 8000 4.12 210 10:37 03.01.2022
4524 Clouds 28 1011 69 10000 1.12 109 08:54 03.01.2022
4525 Clouds 26 1011 82 10000 0.84 139 07:51 03.01.2022
4526 Clouds 21 1008 98 10000 0.69 160 01:55 03.01.2022
4527 Clouds 22 1009 97 10000 0.58 13 23:22 02.01.2022
4528 Clouds 22 1009 97 10000 0.58 13 22:55 02.01.2022
4529 Clouds 22 1010 97 10000 0.56 0 21:52 02.01.2022
4530 Rain 22 1010 98 10000 0.93 53 20:45 02.01.2022
4531 Rain 22 1010 97 10000 1.45 51 20:24 02.01.2022
4532 Rain 22 1010 97 10000 1.45 51 19:31 02.01.2022
4533 Rain 23 1008 88 10000 0.71 108 18:51 02.01.2022
4534 Thunderstorm 29 1007 65 7000 6.17 340 17:56 02.01.2022
4535 Thunderstorm 29 1007 65 7000 6.17 340 17:38 02.01.2022
4536 Rain 26 1006 77 10000 1.66 278 17:19 02.01.2022
4537 Clouds 29 1005 65 10000 1.52 295 16:27 02.01.2022
4538 Clouds 30 1005 61 10000 0.92 15 14:38 02.01.2022
4539 Clouds 35 1006 38 10000 0.71 6 12:57 02.01.2022
4540 Clouds 34 1008 42 10000 0.62 359 12:25 02.01.2022
4541 Clouds 31 1011 66 10000 4.12 160 11:33 02.01.2022
4542 Clouds 33 1009 46 10000 0.22 214 10:50 02.01.2022
4543 Clear 32 1010 53 10000 0.39 175 09:52 02.01.2022
4544 Clouds 23 1012 92 10000 0.22 293 07:26 02.01.2022
4545 Clouds 22 1008 88 10000 0.42 226 02:19 02.01.2022
4546 Clouds 23 1009 82 10000 0.11 275 23:40 01.01.2022
4547 Clouds 23 1009 80 10000 0.24 41 23:22 01.01.2022
4548 Clouds 24 1010 79 10000 0.43 116 22:23 01.01.2022
4549 Clouds 24 1010 79 10000 0.43 116 21:44 01.01.2022
4550 Clouds 24 1010 78 10000 0.86 123 20:56 01.01.2022
4551 Clouds 25 1011 94 7000 0 0 19:59 01.01.2022
4552 Clouds 25 1011 94 7000 0 0 19:30 01.01.2022
4553 Clouds 26 1008 72 10000 0.76 92 18:29 01.01.2022
4554 Clouds 30 1009 66 10000 0 0 16:51 01.01.2022
4555 Clouds 30 1009 66 10000 0 0 16:29 01.01.2022
4556 Clouds 30 1010 62 10000 1.54 0 15:30 01.01.2022
4557 Clear 33 1007 42 10000 0.41 122 14:21 01.01.2022
4558 Clouds 28 1010 69 10000 2.06 170 12:50 01.01.2022
4559 Clouds 28 1013 69 10000 2.06 220 11:59 01.01.2022
4560 Clouds 28 1013 69 10000 2.06 220 11:24 01.01.2022
4561 Clouds 32 1011 49 10000 1.1 167 10:42 01.01.2022
4562 Clouds 30 1012 55 10000 1.42 170 09:47 01.01.2022
4563 Clouds 25 1013 75 10000 1.46 149 08:26 01.01.2022
4564 Clouds 25 1013 75 10000 1.46 149 07:55 01.01.2022
4565 Clouds 25 1013 75 10000 1.46 149 07:34 01.01.2022
4566 Clouds 22 1013 91 10000 1.32 154 06:41 01.01.2022
4567 Clouds 21 1012 97 10000 1.11 186 04:38 01.01.2022
4568 Clouds 20 1011 99 10000 0.99 162 02:54 01.01.2022
4569 Clouds 21 1012 97 10000 1.15 174 23:52 31.12.2021
4570 Clouds 21 1013 99 10000 1.29 159 21:54 31.12.2021
4571 Rain 21 1014 98 10000 0.96 140 20:41 31.12.2021
4572 Clouds 21 1014 98 10000 1.1 129 19:31 31.12.2021
4573 Clouds 21 1013 97 10000 0.78 130 18:46 31.12.2021
4574 Clouds 22 1012 97 10000 0.83 128 17:45 31.12.2021
4575 Clouds 23 1011 93 10000 0.76 114 17:19 31.12.2021
4576 Clouds 23 1011 93 10000 0.76 114 16:44 31.12.2021
4577 Clouds 24 1011 89 10000 1.57 150 15:58 31.12.2021
4578 Clouds 24 1011 89 10000 1.57 150 15:40 31.12.2021
4579 Clouds 24 1010 88 10000 1.61 151 15:19 31.12.2021
4580 Clouds 24 1010 88 10000 1.61 151 14:33 31.12.2021
4581 Rain 23 1010 93 10000 1.45 160 13:44 31.12.2021
4582 Rain 23 1011 95 10000 1.42 160 12:49 31.12.2021
4583 Rain 26 1011 85 10000 1.56 175 12:19 31.12.2021
4584 Rain 26 1011 85 10000 1.56 175 11:33 31.12.2021
4585 Rain 26 1012 84 6833 1.89 178 10:41 31.12.2021
4586 Rain 26 1013 81 10000 2.34 181 10:23 31.12.2021
4587 Rain 26 1013 81 10000 2.34 181 09:33 31.12.2021
4588 Rain 25 1013 91 6883 2.2 178 08:50 31.12.2021
4589 Rain 24 1013 92 8998 1.78 188 07:49 31.12.2021
4590 Rain 22 1009 97 10000 0.84 236 01:38 31.12.2021
4591 Rain 22 1011 97 10000 1.44 214 22:54 30.12.2021
4592 Rain 22 1011 96 10000 1.08 212 22:27 30.12.2021
4593 Rain 22 1011 96 10000 1.08 212 21:38 30.12.2021
4594 Clouds 22 1011 97 10000 1.26 179 20:58 30.12.2021
4595 Clouds 22 1011 97 10000 1.26 179 20:35 30.12.2021
4596 Rain 22 1011 97 10000 1.43 209 19:50 30.12.2021
4597 Rain 22 1010 96 10000 1.45 203 19:28 30.12.2021
4598 Rain 22 1009 97 10000 1.77 189 18:26 30.12.2021
4599 Rain 23 1008 93 10000 1.74 177 16:50 30.12.2021
4600 Rain 24 1007 91 10000 1.09 202 15:53 30.12.2021
4601 Rain 24 1007 91 10000 1.09 202 15:53 30.12.2021
4602 Rain 26 1006 83 10000 0.59 265 14:54 30.12.2021
4603 Rain 26 1006 83 10000 0.59 265 14:35 30.12.2021
4604 Rain 31 1007 57 10000 1.96 297 13:25 30.12.2021
4605 Rain 32 1008 54 10000 1.21 269 11:53 30.12.2021
4606 Clouds 28 1011 68 10000 0.83 299 10:28 30.12.2021
4607 Clouds 28 1011 68 10000 0.83 299 09:44 30.12.2021
4608 Clouds 23 1011 93 10000 0.22 183 06:56 30.12.2021
4609 Clouds 21 1010 97 10000 0.45 135 05:20 30.12.2021
4610 Clouds 21 1009 98 10000 0.5 143 03:40 30.12.2021
4611 Clouds 21 1009 98 10000 0.39 203 02:27 30.12.2021
4612 Clouds 22 1010 98 10000 0.88 21 23:37 29.12.2021
4613 Clouds 22 1010 97 10000 0.69 13 22:35 29.12.2021
4614 Clouds 22 1010 96 10000 0.14 355 21:55 29.12.2021
4615 Clouds 22 1010 96 10000 0.32 264 20:57 29.12.2021
4616 Rain 22 1010 95 10000 0.58 80 20:29 29.12.2021
4617 Thunderstorm 24 1011 94 7000 0 0 19:31 29.12.2021
4618 Rain 23 1009 95 10000 0.77 113 18:42 29.12.2021
4619 Rain 24 1009 91 10000 0.44 143 17:49 29.12.2021
4620 Rain 25 1007 87 10000 0.38 94 17:26 29.12.2021
4621 Rain 29 1007 65 10000 0.4 219 16:21 29.12.2021
4622 Clouds 31 1006 55 10000 0.37 170 15:21 29.12.2021
4623 Clouds 31 1010 62 10000 2.06 330 13:31 29.12.2021
4624 Rain 32 1008 49 10000 0.8 109 12:35 29.12.2021
4625 Clouds 32 1011 50 10000 1.08 171 11:23 29.12.2021
4626 Clouds 30 1012 55 10000 1.03 153 09:35 29.12.2021
4627 Mist 22 1013 100 3000 0 0 07:45 29.12.2021
4628 Clouds 23 1013 83 10000 0.9 185 06:34 29.12.2021
4629 Clouds 21 1012 95 10000 0.44 169 05:57 29.12.2021
4630 Clouds 20 1011 99 10000 0.8 168 05:27 29.12.2021
4631 Clouds 20 1011 99 10000 0.9 174 01:27 29.12.2021
4632 Clouds 21 1011 99 10000 0.93 182 23:59 28.12.2021
4633 Clouds 21 1012 99 10000 0.87 196 22:57 28.12.2021
4634 Clouds 21 1012 99 10000 0.87 196 22:57 28.12.2021
4635 Clouds 21 1012 97 10000 0.84 190 22:25 28.12.2021
4636 Clouds 21 1012 97 10000 0.84 190 21:55 28.12.2021
4637 Clouds 21 1012 97 10000 0.84 190 21:35 28.12.2021
4638 Clouds 21 1012 96 10000 0.28 192 20:32 28.12.2021
4639 Clouds 22 1011 95 10000 0.49 182 18:56 28.12.2021
4640 Clouds 22 1010 93 10000 0.04 80 18:28 28.12.2021
4641 Clouds 22 1010 93 10000 0.04 80 17:42 28.12.2021
4642 Clouds 26 1008 75 10000 0.74 351 16:25 28.12.2021
4643 Clouds 28 1010 69 10000 2.06 0 15:41 28.12.2021
4644 Clouds 26 1009 73 10000 0.97 351 14:57 28.12.2021
4645 Clouds 26 1009 73 10000 0.97 351 14:57 28.12.2021
4646 Clouds 26 1009 73 10000 0.97 351 14:38 28.12.2021
4647 Clouds 25 1009 81 10000 0.53 272 14:20 28.12.2021
4648 Clouds 25 1009 81 10000 0.53 272 13:38 28.12.2021
4649 Clouds 23 1011 92 10000 1.24 157 12:56 28.12.2021
4650 Rain 22 1011 94 10000 1.1 191 12:38 28.12.2021
4651 Rain 21 1014 97 10000 1.07 222 10:52 28.12.2021
4652 Clouds 22 1014 94 6000 2.06 30 07:39 28.12.2021
4653 Rain 22 1014 100 6000 3.09 240 06:40 28.12.2021
4654 Clouds 21 1011 94 10000 1.55 172 23:42 27.12.2021
4655 Clouds 21 1012 94 10000 1.59 139 22:53 27.12.2021
4656 Clouds 21 1012 93 10000 2.05 113 21:33 27.12.2021
4657 Rain 22 1013 93 10000 2.57 89 20:45 27.12.2021
4658 Rain 23 1011 95 10000 2.54 91 19:56 27.12.2021
4659 Rain 23 1011 95 10000 2.54 91 19:38 27.12.2021
4660 Clouds 23 1008 94 10000 0.85 203 17:55 27.12.2021
4661 Clouds 23 1008 94 10000 0.85 203 17:37 27.12.2021
4662 Rain 24 1008 92 10000 1.28 193 16:36 27.12.2021
4663 Rain 27 1009 83 10000 3.09 300 15:51 27.12.2021
4664 Rain 28 1007 75 10000 1.33 268 14:30 27.12.2021
4665 Rain 30 1007 62 10000 1.8 299 13:38 27.12.2021
4666 Rain 31 1009 57 10000 0.65 205 11:41 27.12.2021
4667 Clouds 28 1011 68 10000 1.27 173 10:28 27.12.2021
4668 Clouds 23 1014 94 6000 2.06 160 09:38 27.12.2021
4669 Clouds 23 1011 95 10000 1.21 161 07:35 27.12.2021
4670 Fog 21 1013 100 500 0 0 06:30 27.12.2021
4671 Clouds 22 1009 98 10000 0.09 127 01:59 27.12.2021
4672 Clouds 22 1010 97 10000 0.65 147 23:52 26.12.2021
4673 Clouds 22 1010 97 10000 0.65 147 23:34 26.12.2021
4674 Rain 22 1011 98 10000 0.79 174 21:53 26.12.2021
4675 Rain 22 1011 96 8184 0.86 176 20:42 26.12.2021
4676 Rain 23 1010 94 9190 0.75 178 19:31 26.12.2021
4677 Rain 23 1009 96 10000 0.64 271 18:23 26.12.2021
4678 Rain 25 1008 84 10000 0.44 343 15:57 26.12.2021
4679 Clouds 28 1008 66 10000 0.9 275 14:27 26.12.2021
4680 Clouds 28 1008 66 10000 0.9 275 13:40 26.12.2021
4681 Clouds 29 1009 62 10000 0.98 315 13:18 26.12.2021
4682 Rain 30 1010 62 10000 0.67 316 12:27 26.12.2021
4683 Rain 25 1012 87 10000 0.66 199 10:22 26.12.2021
4684 Rain 25 1012 87 7873 0.89 170 09:19 26.12.2021
4685 Rain 25 1012 87 7873 0.89 170 08:40 26.12.2021
4686 Clouds 22 1012 97 10000 0.56 164 07:25 26.12.2021
4687 Rain 22 1009 97 10000 0.48 177 01:24 26.12.2021
4688 Clouds 22 1010 97 10000 0.55 45 23:53 25.12.2021
4689 Clouds 22 1010 96 10000 0.84 145 23:27 25.12.2021
4690 Clouds 22 1010 96 10000 1.73 166 22:23 25.12.2021
4691 Clouds 23 1011 96 10000 1.6 159 20:48 25.12.2021
4692 Rain 22 1010 97 10000 1.68 176 19:23 25.12.2021
4693 Rain 27 1009 83 7000 0 0 18:55 25.12.2021
4694 Clouds 29 1009 74 8000 0 0 17:32 25.12.2021
4695 Rain 30 1009 66 8000 2.06 230 16:36 25.12.2021
4696 Rain 28 1007 75 10000 1.05 201 14:46 25.12.2021
4697 Rain 27 1008 80 10000 0.81 195 13:30 25.12.2021
4698 Rain 29 1012 70 10000 3.09 190 11:46 25.12.2021
4699 Rain 27 1013 78 7000 3.09 130 09:51 25.12.2021
4700 Clouds 24 1013 92 10000 0.77 79 08:38 25.12.2021
4701 Clouds 22 1009 98 10000 1.02 178 02:59 25.12.2021
4702 Clouds 22 1009 97 10000 1.09 175 00:33 25.12.2021
4703 Clouds 22 1009 97 10000 1.18 168 23:39 24.12.2021
4704 Clouds 22 1010 96 10000 1.08 148 19:40 24.12.2021
4705 Rain 22 1010 96 10000 0.92 141 19:22 24.12.2021
4706 Rain 29 1009 70 7000 2.06 320 16:53 24.12.2021
4707 Rain 29 1009 70 7000 2.06 320 16:21 24.12.2021
4708 Rain 30 1009 66 7000 2.06 320 15:48 24.12.2021
4709 Rain 25 1007 90 4282 1.4 18 14:47 24.12.2021
4710 Rain 29 1006 69 10000 1 260 14:24 24.12.2021
4711 Rain 30 1010 66 8000 3.09 160 13:39 24.12.2021
4712 Rain 28 1011 74 8000 3.09 160 12:48 24.12.2021
4713 Clouds 27 1012 74 8000 3.09 140 11:58 24.12.2021
4714 Clouds 27 1011 68 10000 1.43 212 11:27 24.12.2021
4715 Clouds 27 1011 68 10000 1.43 212 10:59 24.12.2021
4716 Clouds 27 1012 70 10000 1.26 187 10:28 24.12.2021
4717 Clouds 27 1012 70 10000 0.94 157 08:26 24.12.2021
4718 Clouds 27 1012 70 10000 0.94 157 07:50 24.12.2021
4719 Clouds 22 1008 96 10000 1.19 174 03:21 24.12.2021
4720 Clouds 22 1009 93 10000 1.36 156 00:19 24.12.2021
4721 Clouds 23 1010 89 10000 1.35 165 23:23 23.12.2021
4722 Clouds 23 1010 89 10000 1.35 165 22:40 23.12.2021
4723 Clouds 23 1010 86 10000 1.3 151 22:20 23.12.2021
4724 Clouds 23 1010 86 10000 1.3 151 21:34 23.12.2021
4725 Clouds 24 1010 84 10000 1.63 178 20:21 23.12.2021
4726 Clouds 25 1010 88 6000 0 0 18:53 23.12.2021
4727 Clouds 24 1008 83 10000 1.18 162 17:57 23.12.2021
4728 Clouds 25 1007 78 10000 0.52 154 16:58 23.12.2021
4729 Clouds 27 1007 65 10000 1.21 174 16:26 23.12.2021
4730 Clouds 27 1007 65 10000 1.21 174 15:32 23.12.2021
4731 Clouds 28 1006 60 10000 1.08 177 14:55 23.12.2021
4732 Clouds 28 1006 60 10000 1.08 177 14:37 23.12.2021
4733 Clouds 27 1007 62 10000 1.11 168 13:22 23.12.2021
4734 Clouds 27 1010 64 10000 0.77 141 10:54 23.12.2021
4735 Clouds 27 1010 64 10000 0.77 141 10:54 23.12.2021
4736 Clouds 25 1010 79 10000 0.61 191 09:52 23.12.2021
4737 Clouds 25 1010 79 10000 0.61 191 09:31 23.12.2021
4738 Clouds 24 1011 82 10000 0.26 52 08:25 23.12.2021
4739 Clouds 24 1011 82 10000 0.26 52 08:25 23.12.2021
4740 Clouds 23 1009 78 10000 0.55 205 04:39 23.12.2021
4741 Clouds 24 1008 66 10000 0.51 114 23:43 22.12.2021
4742 Clouds 25 1009 63 10000 0.74 163 22:49 22.12.2021
4743 Clouds 25 1009 63 10000 0.42 174 21:57 22.12.2021
4744 Clouds 25 1009 62 10000 0.1 104 21:29 22.12.2021
4745 Clouds 25 1009 62 10000 0.1 104 20:52 22.12.2021
4746 Clouds 25 1009 62 10000 0.1 104 20:33 22.12.2021
4747 Clouds 26 1009 58 10000 0.11 359 19:37 22.12.2021
4748 Clouds 27 1007 55 10000 0.24 281 18:19 22.12.2021
4749 Clouds 27 1007 55 10000 0.24 281 17:37 22.12.2021
4750 Clouds 31 1009 51 6000 3.09 340 15:49 22.12.2021
4751 Clouds 34 1005 34 10000 1.45 344 13:46 22.12.2021
4752 Clouds 34 1006 34 10000 0.71 35 12:44 22.12.2021
4753 Clouds 33 1009 36 10000 1.62 43 10:48 22.12.2021
4754 Clouds 31 1010 40 10000 1.73 48 09:40 22.12.2021
4755 Clouds 26 1011 71 10000 1.44 37 07:48 22.12.2021
4756 Clouds 23 1010 89 10000 1.07 50 05:51 22.12.2021
4757 Clouds 23 1010 89 10000 0.91 55 05:28 22.12.2021
4758 Clouds 23 1010 89 10000 0.91 55 04:54 22.12.2021
4759 Clouds 23 1010 89 10000 0.91 55 04:30 22.12.2021
4760 Clouds 23 1009 90 10000 1.27 47 03:34 22.12.2021
4761 Clouds 23 1008 90 10000 0.73 107 01:37 22.12.2021
4762 Clouds 24 1009 85 10000 0.95 147 23:33 21.12.2021
4763 Haze 23 1012 94 6000 0 0 22:29 21.12.2021
4764 Clouds 24 1010 84 10000 0.78 188 21:51 21.12.2021
4765 Rain 24 1011 81 10000 0.91 131 21:24 21.12.2021
4766 Clouds 25 1010 72 10000 1.14 107 20:23 21.12.2021
4767 Clouds 25 1010 72 10000 1.14 107 19:46 21.12.2021
4768 Clouds 26 1009 66 10000 1.24 110 19:19 21.12.2021
4769 Haze 26 1010 78 6000 0 0 18:22 21.12.2021
4770 Haze 29 1009 70 6000 0 0 17:51 21.12.2021
4771 Clouds 27 1007 64 10000 1.1 106 16:39 21.12.2021
4772 Clouds 33 1006 39 10000 1.78 77 15:29 21.12.2021
4773 Clouds 33 1006 38 10000 1.77 78 13:51 21.12.2021
4774 Clouds 33 1006 38 10000 1.77 78 13:31 21.12.2021
4775 Clouds 31 1009 47 10000 2.57 39 12:20 21.12.2021
4776 Clouds 32 1010 46 10000 2 43 10:37 21.12.2021
4777 Clouds 30 1012 58 10000 1.41 47 09:35 21.12.2021
4778 Clouds 27 1013 67 10000 1.32 66 08:30 21.12.2021
4779 Clouds 28 1013 66 10000 1.17 83 07:32 21.12.2021
4780 Clouds 25 1012 76 10000 1.09 62 06:54 21.12.2021
4781 Clouds 23 1009 82 10000 0.66 180 03:22 21.12.2021
4782 Clouds 23 1009 82 10000 0.48 145 01:18 21.12.2021
4783 Clouds 23 1009 82 10000 0.6 161 23:34 20.12.2021
4784 Clouds 23 1010 81 10000 0.42 101 22:34 20.12.2021
4785 Clouds 23 1010 80 10000 0.43 215 21:48 20.12.2021
4786 Clouds 24 1010 80 10000 0.73 224 21:24 20.12.2021
4787 Clouds 24 1010 80 10000 0.73 224 20:48 20.12.2021
4788 Clouds 24 1010 79 10000 0.9 229 19:55 20.12.2021
4789 Clouds 24 1010 79 10000 0.9 229 19:32 20.12.2021
4790 Clouds 25 1010 94 6000 0 0 18:55 20.12.2021
4791 Clouds 25 1010 94 6000 0 0 18:25 20.12.2021
4792 Clouds 25 1008 76 10000 0.63 189 17:46 20.12.2021
4793 Clouds 28 1010 78 6000 2.06 340 16:43 20.12.2021
4794 Clouds 28 1010 78 7000 2.06 340 15:52 20.12.2021
4795 Clouds 31 1007 51 10000 1.11 62 14:56 20.12.2021
4796 Clouds 32 1009 49 10000 0.68 2 13:24 20.12.2021
4797 Rain 28 1011 75 10000 0.39 59 11:27 20.12.2021
4798 Rain 28 1012 81 10000 0.97 93 09:51 20.12.2021
4799 Rain 28 1012 81 10000 0.97 93 09:31 20.12.2021
4800 Mist 23 1014 94 4000 0 0 08:42 20.12.2021
4801 Clouds 25 1013 88 10000 0.74 149 07:55 20.12.2021
4802 Clouds 25 1013 88 10000 0.74 149 07:31 20.12.2021
4803 Clouds 21 1011 98 10000 0.45 119 04:36 20.12.2021
4804 Clouds 22 1010 92 10000 0.13 195 00:18 20.12.2021
4805 Clouds 23 1012 94 6000 2.06 120 22:53 19.12.2021
4806 Clouds 22 1011 91 10000 0.88 164 21:55 19.12.2021
4807 Clouds 22 1011 91 10000 0.88 164 21:31 19.12.2021
4808 Clouds 24 1012 94 6000 2.06 120 20:34 19.12.2021
4809 Clouds 23 1010 90 10000 1.21 171 19:52 19.12.2021
4810 Clouds 23 1010 90 10000 1.21 171 19:32 19.12.2021
4811 Clouds 23 1010 92 10000 0.84 125 18:30 19.12.2021
4812 Thunderstorm 25 1009 83 7000 3.09 30 17:53 19.12.2021
4813 Clouds 24 1008 90 10000 0.95 79 17:20 19.12.2021
4814 Thunderstorm 28 1010 69 7000 3.09 30 16:26 19.12.2021
4815 Thunderstorm 22 1017 73 6000 3.09 360 15:43 19.12.2021
4816 Clouds 28 1008 66 10000 1.52 146 15:21 19.12.2021
4817 Clouds 28 1008 66 10000 1.52 146 14:42 19.12.2021
4818 Rain 32 1010 55 10000 3.09 210 13:24 19.12.2021
4819 Rain 31 1012 62 10000 3.09 260 12:46 19.12.2021
4820 Rain 31 1012 62 10000 3.09 260 12:23 19.12.2021
4821 Rain 31 1012 62 10000 3.09 270 11:21 19.12.2021
4822 Rain 27 1012 81 10000 1.05 68 10:26 19.12.2021
4823 Rain 27 1012 81 10000 1.05 68 09:42 19.12.2021
4824 Rain 29 1012 67 10000 0.55 137 08:35 19.12.2021
4825 Clouds 21 1011 98 10000 0.87 177 04:45 19.12.2021
4826 Rain 21 1011 98 10000 1.05 146 01:33 19.12.2021
4827 Rain 21 1010 97 10000 0.48 184 00:52 19.12.2021
4828 Rain 22 1011 95 10000 1.26 202 22:37 18.12.2021
4829 Rain 22 1012 94 10000 1.15 176 21:58 18.12.2021
4830 Rain 22 1012 94 10000 1.15 176 21:35 18.12.2021
4831 Clouds 22 1012 93 10000 0.86 165 20:44 18.12.2021
4832 Clouds 23 1011 92 10000 0.59 172 20:18 18.12.2021
4833 Rain 23 1010 91 10000 1.09 205 19:25 18.12.2021
4834 Clouds 25 1009 80 10000 0.75 198 18:22 18.12.2021
4835 Clouds 25 1009 80 10000 0.75 198 17:48 18.12.2021
4836 Rain 26 1008 81 10000 0.27 151 16:26 18.12.2021
4837 Rain 26 1008 81 10000 0.27 151 16:26 18.12.2021
4838 Rain 26 1008 78 10000 1.1 239 15:27 18.12.2021
4839 Rain 26 1008 78 10000 1.1 239 14:48 18.12.2021
4840 Clouds 31 1008 55 10000 1.22 204 13:21 18.12.2021
4841 Clouds 32 1010 51 10000 1.74 164 11:22 18.12.2021
4842 Clouds 31 1012 55 10000 1.69 155 09:40 18.12.2021
4843 Clouds 29 1013 62 10000 1.87 160 08:47 18.12.2021
4844 Clouds 27 1013 70 10000 2.07 171 08:23 18.12.2021
4845 Clouds 22 1010 93 10000 1.07 177 03:42 18.12.2021
4846 Clouds 23 1010 89 10000 1.4 180 00:29 18.12.2021
4847 Clouds 23 1010 89 10000 1.4 180 23:44 17.12.2021
4848 Clouds 23 1011 89 10000 1.59 165 21:57 17.12.2021
4849 Clouds 23 1011 87 10000 1.61 169 21:19 17.12.2021
4850 Clouds 23 1011 87 10000 1.61 169 20:40 17.12.2021
4851 Clouds 24 1010 81 10000 2.07 168 19:24 17.12.2021
4852 Clouds 26 1011 83 7000 0 0 18:38 17.12.2021
4853 Clouds 24 1009 84 10000 1.42 155 17:31 17.12.2021
4854 Clouds 25 1008 81 10000 1.15 162 16:46 17.12.2021
4855 Clouds 27 1008 74 10000 0.82 217 16:22 17.12.2021
4856 Rain 28 1007 71 10000 0.89 203 15:25 17.12.2021
4857 Rain 28 1007 71 10000 0.89 203 14:40 17.12.2021
4858 Clouds 29 1012 65 10000 2.06 240 12:47 17.12.2021
4859 Clouds 27 1013 78 10000 2.06 270 11:46 17.12.2021
4860 Clouds 31 1011 52 10000 1.06 66 10:37 17.12.2021
4861 Clouds 25 1015 88 10000 0 0 09:33 17.12.2021
4862 Clouds 24 1014 94 7000 0 0 08:30 17.12.2021
4863 Clouds 22 1012 97 10000 0.67 153 06:22 17.12.2021
4864 Clouds 22 1010 98 10000 0.78 206 02:53 17.12.2021
4865 Rain 22 1010 98 10000 2.26 228 23:25 16.12.2021
4866 Rain 22 1012 98 10000 1.77 224 22:24 16.12.2021
4867 Rain 22 1012 98 10000 1.77 224 22:24 16.12.2021
4868 Rain 22 1012 98 10000 1.77 224 21:50 16.12.2021
4869 Rain 23 1011 97 7997 0.43 258 21:25 16.12.2021
4870 Rain 23 1011 97 7997 0.43 258 20:30 16.12.2021
4871 Rain 22 1011 98 10000 1.05 350 19:42 16.12.2021
4872 Rain 23 1010 94 8413 1.67 294 18:38 16.12.2021
4873 Rain 23 1008 95 10000 1.18 244 17:56 16.12.2021
4874 Rain 23 1008 95 10000 1.18 244 17:30 16.12.2021
4875 Rain 27 1005 73 10000 1.53 148 16:21 16.12.2021
4876 Clouds 31 1005 55 10000 1.42 188 14:50 16.12.2021
4877 Clouds 33 1007 50 10000 1.1 215 13:25 16.12.2021
4878 Clouds 31 1009 57 10000 0.87 178 11:20 16.12.2021
4879 Clouds 31 1009 57 10000 0.87 178 10:58 16.12.2021
4880 Clouds 29 1010 63 10000 1.06 193 10:20 16.12.2021
4881 Clouds 25 1010 83 10000 0.89 90 07:48 16.12.2021
4882 Clouds 23 1008 95 10000 0.2 141 06:21 16.12.2021
4883 Clouds 23 1007 95 10000 1.28 136 00:54 16.12.2021
4884 Clouds 23 1008 95 10000 1.31 143 23:25 15.12.2021
4885 Clouds 23 1008 95 10000 1.31 143 22:43 15.12.2021
4886 Clouds 23 1009 94 10000 0.65 124 21:55 15.12.2021
4887 Clouds 23 1008 95 10000 0.91 198 21:26 15.12.2021
4888 Rain 23 1009 95 10000 1.07 193 20:18 15.12.2021
4889 Rain 23 1009 95 10000 1.07 193 19:45 15.12.2021
4890 Rain 23 1008 91 10000 0.21 219 18:37 15.12.2021
4891 Thunderstorm 28 1007 83 6000 5.14 340 17:53 15.12.2021
4892 Thunderstorm 28 1007 83 6000 5.14 340 17:34 15.12.2021
4893 Clouds 30 1005 61 10000 0.71 26 16:28 15.12.2021
4894 Clouds 30 1005 61 10000 0.71 26 15:46 15.12.2021
4895 Clouds 32 1004 46 10000 0.54 133 15:27 15.12.2021
4896 Clouds 33 1004 42 10000 1.1 142 14:18 15.12.2021
4897 Clouds 31 1009 66 10000 4.12 200 12:37 15.12.2021
4898 Clouds 29 1011 74 10000 3.09 160 10:27 15.12.2021
4899 Clouds 30 1009 54 10000 1.63 146 08:55 15.12.2021
4900 Clouds 26 1009 71 10000 1.11 147 07:25 15.12.2021
4901 Clouds 23 1007 78 10000 0.8 200 01:20 15.12.2021
4902 Clouds 24 1007 77 10000 1.1 177 23:42 14.12.2021
4903 Clouds 24 1007 73 10000 1.04 182 22:49 14.12.2021
4904 Clouds 25 1007 68 10000 1.01 155 22:19 14.12.2021
4905 Clouds 27 1008 62 10000 1.32 161 20:29 14.12.2021
4906 Clouds 27 1008 62 10000 1.32 161 19:43 14.12.2021
4907 Clouds 27 1007 60 10000 1.35 161 19:19 14.12.2021
4908 Clouds 27 1006 59 10000 0.69 148 18:25 14.12.2021
4909 Clouds 30 1007 66 8000 0 0 17:33 14.12.2021
4910 Clouds 32 1007 62 10000 0 0 16:40 14.12.2021
4911 Clouds 32 1007 58 10000 0 0 15:36 14.12.2021
4912 Clouds 32 1008 58 10000 4.12 180 13:31 14.12.2021
4913 Clouds 34 1007 39 10000 0.35 197 12:00 14.12.2021
4914 Clouds 33 1009 45 10000 1.1 179 11:24 14.12.2021
4915 Clouds 28 1011 69 8000 3.09 160 10:23 14.12.2021
4916 Clouds 27 1012 78 8000 2.06 60 09:43 14.12.2021
4917 Clouds 26 1011 67 10000 1.78 147 08:28 14.12.2021
4918 Clouds 26 1011 67 10000 1.78 147 07:43 14.12.2021
4919 Clouds 22 1010 89 10000 1.11 163 05:35 14.12.2021
4920 Clouds 23 1009 83 10000 1.39 180 22:56 13.12.2021
4921 Clouds 23 1009 78 10000 1.4 177 21:53 13.12.2021
4922 Clouds 23 1009 78 10000 1.4 177 21:33 13.12.2021
4923 Clouds 24 1009 77 10000 1.14 182 20:43 13.12.2021
4924 Clouds 25 1008 76 10000 1.21 190 19:53 13.12.2021
4925 Clouds 25 1007 75 10000 1.18 186 18:33 13.12.2021
4926 Clouds 27 1005 66 10000 1.18 188 17:26 13.12.2021
4927 Clouds 31 1005 57 10000 0.83 235 15:54 13.12.2021
4928 Clouds 31 1005 57 10000 0.83 235 15:32 13.12.2021
4929 Clouds 31 1008 66 10000 1.54 0 13:47 13.12.2021
4930 Clouds 31 1009 70 10000 0 0 12:59 13.12.2021
4931 Clouds 34 1007 45 10000 0.33 334 12:19 13.12.2021
4932 Clouds 30 1010 70 10000 3.09 120 11:35 13.12.2021
4933 Clouds 33 1009 50 10000 0.28 107 10:47 13.12.2021
4934 Clouds 31 1010 57 10000 0.8 96 09:41 13.12.2021
4935 Clouds 27 1011 75 10000 0.63 138 07:57 13.12.2021
4936 Clouds 22 1010 96 10000 0.15 195 05:36 13.12.2021
4937 Clouds 21 1008 99 10000 0.8 165 03:30 13.12.2021
4938 Clouds 23 1008 93 10000 1.3 185 23:26 12.12.2021
4939 Clouds 23 1009 93 10000 1.19 201 21:41 12.12.2021
4940 Clouds 24 1009 91 10000 1.21 225 20:28 12.12.2021
4941 Clouds 24 1008 89 10000 1.14 211 18:43 12.12.2021
4942 Clouds 27 1008 89 6000 2.06 160 17:45 12.12.2021
4943 Clouds 28 1007 83 10000 3.09 220 16:28 12.12.2021
4944 Clouds 30 1007 74 10000 4.12 220 15:51 12.12.2021
4945 Clouds 30 1005 61 10000 0.89 133 15:26 12.12.2021
4946 Clouds 30 1005 61 10000 0.89 133 14:37 12.12.2021
4947 Clouds 28 1008 78 10000 3.09 200 13:34 12.12.2021
4948 Clouds 31 1007 57 10000 0.82 252 12:32 12.12.2021
4949 Clouds 29 1008 67 10000 1.19 198 11:44 12.12.2021
4950 Clouds 26 1009 81 10000 1.07 173 11:24 12.12.2021
4951 Clouds 27 1010 78 10000 3.09 160 10:32 12.12.2021
4952 Clouds 24 1010 91 10000 0.92 185 09:39 12.12.2021
4953 Clouds 25 1011 88 8000 3.09 160 08:34 12.12.2021
4954 Clouds 23 1009 95 10000 0.33 184 06:20 12.12.2021
4955 Clouds 23 1008 96 10000 0.18 134 05:22 12.12.2021
4956 Clouds 23 1007 93 10000 0.69 259 03:57 12.12.2021
4957 Clouds 23 1006 93 10000 1.12 166 23:48 11.12.2021
4958 Clouds 23 1008 92 10000 1.25 154 22:24 11.12.2021
4959 Clouds 23 1008 92 10000 1.25 154 21:52 11.12.2021
4960 Clouds 23 1008 90 10000 1.36 161 21:21 11.12.2021
4961 Clouds 24 1007 89 10000 0.6 139 19:37 11.12.2021
4962 Clouds 23 1006 90 10000 0.46 279 18:53 11.12.2021
4963 Clouds 23 1005 91 10000 0.48 117 18:30 11.12.2021
4964 Rain 23 1004 94 10000 0.85 238 17:37 11.12.2021
4965 Rain 24 1004 88 10000 2.29 348 15:55 11.12.2021
4966 Rain 24 1004 88 10000 2.29 348 15:35 11.12.2021
4967 Clouds 34 1004 44 10000 0.78 112 13:21 11.12.2021
4968 Clouds 32 1006 53 10000 0.84 97 11:46 11.12.2021
4969 Clouds 34 1008 47 10000 0.61 82 09:47 11.12.2021
4970 Clouds 32 1008 55 10000 0.69 82 09:18 11.12.2021
4971 Clouds 22 1006 93 10000 0.7 197 02:40 11.12.2021
4972 Clouds 23 1006 89 10000 0.43 148 00:42 11.12.2021
4973 Clouds 23 1007 88 10000 0.45 158 23:24 10.12.2021
4974 Clouds 24 1008 87 10000 0.35 167 21:57 10.12.2021
4975 Clouds 24 1008 87 10000 0.35 167 21:37 10.12.2021
4976 Rain 24 1007 84 10000 1.01 228 19:22 10.12.2021
4977 Clouds 25 1006 76 10000 0.79 103 18:57 10.12.2021
4978 Clouds 29 1007 74 8000 0 0 17:21 10.12.2021
4979 Clouds 27 1005 71 10000 0.22 75 16:30 10.12.2021
4980 Clouds 31 1007 62 9000 2.06 330 15:42 10.12.2021
4981 Clouds 31 1007 62 9000 2.06 330 15:22 10.12.2021
4982 Clouds 32 1008 62 10000 3.09 340 13:52 10.12.2021
4983 Clouds 33 1004 45 10000 0.89 79 13:31 10.12.2021
4984 Clouds 32 1006 49 10000 0.99 43 12:47 10.12.2021
4985 Clouds 33 1007 46 10000 0.99 6 11:34 10.12.2021
4986 Clouds 31 1009 52 10000 0.9 18 10:50 10.12.2021
4987 Clouds 27 1010 68 10000 1.35 44 09:30 10.12.2021
4988 Clouds 25 1010 76 10000 0.98 155 07:21 10.12.2021
4989 Clear 22 1008 84 10000 0.79 159 02:53 10.12.2021
4990 Clear 22 1008 83 10000 0.25 169 01:32 10.12.2021
4991 Clear 23 1008 79 10000 0.68 91 23:39 09.12.2021
4992 Clear 24 1009 77 10000 0.34 79 22:41 09.12.2021
4993 Clear 24 1009 76 10000 0.52 76 22:20 09.12.2021
4994 Clear 24 1009 76 10000 0.52 76 21:38 09.12.2021
4995 Clear 24 1009 75 10000 0.53 49 20:34 09.12.2021
4996 Clouds 26 1008 69 10000 0.6 43 19:22 09.12.2021
4997 Clouds 26 1008 69 10000 0.6 43 18:59 09.12.2021
4998 Clouds 27 1006 67 10000 0.81 308 17:58 09.12.2021
4999 Clouds 27 1006 68 10000 0.82 354 17:28 09.12.2021
5000 Clouds 27 1006 68 10000 0.82 354 16:57 09.12.2021
5001 Clouds 30 1005 58 10000 0.41 63 16:20 09.12.2021
5002 Clouds 32 1005 50 10000 0.59 94 14:58 09.12.2021
5003 Clouds 33 1006 45 10000 0.96 141 13:52 09.12.2021
5004 Clouds 34 1007 42 10000 0.74 155 12:47 09.12.2021
5005 Clouds 33 1010 50 10000 1.01 158 11:29 09.12.2021
5006 Clouds 31 1011 58 10000 1.14 154 10:20 09.12.2021
5007 Clouds 24 1012 92 10000 1.57 161 06:53 09.12.2021
5008 Clouds 22 1010 97 10000 1.02 174 03:55 09.12.2021
5009 Clouds 23 1010 90 10000 0.86 180 00:25 09.12.2021
5010 Clouds 23 1010 90 10000 0.86 180 23:36 08.12.2021
5011 Clouds 23 1011 89 10000 0.46 193 22:57 08.12.2021
5012 Clouds 23 1011 90 10000 0.38 316 21:50 08.12.2021
5013 Clouds 23 1011 90 10000 0.38 316 21:32 08.12.2021
5014 Rain 23 1011 88 10000 0.46 143 20:31 08.12.2021
5015 Clouds 24 1011 85 10000 0.44 180 19:55 08.12.2021
5016 Clouds 24 1010 83 10000 0.46 269 18:57 08.12.2021
5017 Clouds 26 1009 75 10000 1.34 261 18:22 08.12.2021
5018 Clouds 26 1008 74 10000 1.18 288 16:49 08.12.2021
5019 Clouds 29 1007 65 10000 1.38 294 15:41 08.12.2021
5020 Clouds 31 1007 52 10000 1.63 301 15:21 08.12.2021
5021 Clouds 31 1009 52 10000 1.67 303 13:21 08.12.2021
5022 Clouds 30 1012 59 10000 1.27 321 10:42 08.12.2021
5023 Clouds 28 1012 68 10000 0.25 304 09:32 08.12.2021
5024 Clouds 25 1012 85 10000 1.78 213 08:31 08.12.2021
5025 Rain 22 1012 97 10000 0.68 223 05:37 08.12.2021
5026 Clouds 22 1010 96 10000 0.97 208 00:27 08.12.2021
5027 Clouds 22 1010 96 10000 0.67 251 22:52 07.12.2021
5028 Clouds 22 1010 95 10000 1.45 225 21:25 07.12.2021
5029 Clouds 23 1010 96 10000 1.46 247 20:25 07.12.2021
5030 Clouds 24 1008 87 10000 0.82 209 18:59 07.12.2021
5031 Clouds 25 1007 85 10000 1.56 306 18:21 07.12.2021
5032 Clouds 26 1006 81 10000 1.17 292 17:24 07.12.2021
5033 Clouds 26 1006 81 10000 1.17 292 16:42 07.12.2021
5034 Clouds 29 1007 69 10000 1.68 298 15:59 07.12.2021
5035 Clouds 31 1006 57 10000 1.07 297 14:38 07.12.2021
5036 Clouds 32 1008 54 10000 1.58 296 13:40 07.12.2021
5037 Clouds 31 1010 56 10000 1.29 294 12:22 07.12.2021
5038 Clouds 30 1011 62 10000 0.64 274 10:56 07.12.2021
5039 Clouds 26 1012 77 10000 0.27 177 09:20 07.12.2021
5040 Clouds 25 1012 86 10000 0.93 174 07:35 07.12.2021
5041 Clouds 21 1012 96 10000 0.76 146 05:51 07.12.2021
5042 Clouds 21 1010 97 10000 1.02 158 03:25 07.12.2021
5043 Clouds 22 1010 92 10000 0.86 41 23:23 06.12.2021
5044 Clouds 22 1010 92 10000 0.86 41 22:40 06.12.2021
5045 Rain 23 1010 90 10000 1.1 83 21:59 06.12.2021
5046 Rain 23 1010 90 10000 1.1 83 21:31 06.12.2021
5047 Clouds 23 1010 88 10000 0.95 162 20:32 06.12.2021
5048 Clouds 23 1010 88 10000 0.95 162 20:32 06.12.2021
5049 Clouds 24 1009 84 10000 0.2 327 19:24 06.12.2021
5050 Clouds 24 1009 91 10000 0.34 162 18:40 06.12.2021
5051 Rain 24 1008 88 10000 0.18 335 17:54 06.12.2021
5052 Rain 24 1008 88 10000 0.18 335 17:33 06.12.2021
5053 Clouds 29 1007 69 10000 0.15 54 15:51 06.12.2021
5054 Clouds 31 1006 55 10000 1.16 139 14:38 06.12.2021
5055 Clouds 31 1007 54 10000 1.11 108 13:23 06.12.2021
5056 Clouds 31 1007 54 10000 1.11 108 12:37 06.12.2021
5057 Clouds 28 1011 67 10000 1.41 113 09:56 06.12.2021
5058 Clouds 25 1011 82 10000 1.69 146 07:40 06.12.2021
5059 Clouds 22 1009 97 10000 0.8 139 02:26 06.12.2021
5060 Clouds 21 1012 99 10000 0.75 50 22:25 05.12.2021
5061 Clouds 22 1012 99 10000 0.93 352 21:25 05.12.2021
5062 Clouds 22 1012 99 10000 0.93 352 20:43 05.12.2021
5063 Rain 22 1012 99 10000 0.37 303 20:18 05.12.2021
5064 Rain 22 1011 98 8334 0.9 321 19:23 05.12.2021
5065 Rain 22 1010 94 10000 0.97 286 18:28 05.12.2021
5066 Rain 22 1010 94 10000 0.97 286 17:49 05.12.2021
5067 Clouds 24 1009 87 10000 1.26 259 17:20 05.12.2021
5068 Clouds 27 1008 73 10000 1.34 262 16:28 05.12.2021
5069 Clouds 27 1008 73 10000 1.34 262 15:59 05.12.2021
5070 Clouds 27 1008 71 10000 1.22 272 14:48 05.12.2021
5071 Clouds 27 1008 68 10000 1.14 273 14:29 05.12.2021
5072 Clouds 27 1008 68 10000 1.14 273 13:33 05.12.2021
5073 Clouds 27 1009 73 10000 1.2 290 12:43 05.12.2021
5074 Clouds 25 1010 81 10000 1.29 284 12:25 05.12.2021
5075 Clouds 25 1010 81 10000 1.29 284 11:44 05.12.2021
5076 Clouds 23 1012 95 10000 1.55 202 10:25 05.12.2021
5077 Clouds 23 1012 95 10000 1.55 202 09:41 05.12.2021
5078 Clouds 22 1011 99 10000 0.65 187 05:30 05.12.2021
5079 Rain 21 1010 99 10000 1.08 162 01:29 05.12.2021
5080 Clouds 22 1010 98 10000 0.8 175 22:45 04.12.2021
5081 Clouds 22 1011 98 10000 0.67 105 21:38 04.12.2021
5082 Clouds 22 1011 98 10000 0.23 229 20:47 04.12.2021
5083 Rain 23 1011 97 10000 0.9 46 19:54 04.12.2021
5084 Rain 23 1011 97 10000 0.9 46 19:30 04.12.2021
5085 Rain 23 1009 97 10000 1.74 1 17:53 04.12.2021
5086 Rain 23 1009 97 10000 1.74 1 17:35 04.12.2021
5087 Rain 25 1007 84 10000 3.65 45 16:47 04.12.2021
5088 Clouds 31 1006 61 10000 1.44 63 16:28 04.12.2021
5089 Clouds 33 1006 45 10000 1.25 31 13:30 04.12.2021
5090 Clouds 31 1009 51 10000 1.28 347 11:41 04.12.2021
5091 Clouds 31 1010 53 10000 1.04 350 11:19 04.12.2021
5092 Clouds 30 1011 57 10000 0.39 1 09:57 04.12.2021
5093 Clouds 29 1012 62 10000 0.34 359 08:38 04.12.2021
5094 Clouds 22 1010 99 10000 0.43 15 05:18 04.12.2021
5095 Clouds 22 1010 99 10000 0.43 15 04:39 04.12.2021
5096 Clouds 22 1009 98 10000 0.42 163 23:48 03.12.2021
5097 Rain 22 1010 98 10000 0.71 124 22:54 03.12.2021
5098 Clouds 23 1010 97 10000 1.03 52 21:58 03.12.2021
5099 Clouds 23 1010 97 10000 0.34 44 21:24 03.12.2021
5100 Clouds 23 1010 97 10000 0.34 44 20:43 03.12.2021
5101 Rain 23 1009 95 5644 1.1 100 19:29 03.12.2021
5102 Rain 24 1007 82 10000 0.49 177 18:26 03.12.2021
5103 Rain 24 1007 82 10000 0.49 177 17:42 03.12.2021
5104 Clouds 32 1006 49 10000 0.35 256 13:48 03.12.2021
5105 Clouds 32 1007 50 10000 0.32 215 12:51 03.12.2021
5106 Clouds 28 1010 66 10000 0.73 262 11:24 03.12.2021
5107 Clouds 25 1011 82 10000 1.36 286 09:55 03.12.2021
5108 Clouds 23 1012 94 10000 0.62 236 08:23 03.12.2021
5109 Clouds 22 1012 98 10000 0.62 240 07:29 03.12.2021
5110 Rain 22 1008 99 10000 0.31 162 01:51 03.12.2021
5111 Clouds 22 1008 98 10000 0.17 63 00:43 03.12.2021
5112 Rain 22 1009 99 10000 1.06 160 23:42 02.12.2021
5113 Clouds 22 1009 98 10000 0.43 168 21:42 02.12.2021
5114 Rain 22 1010 98 10000 0.79 125 20:57 02.12.2021
5115 Rain 22 1010 98 10000 0.79 125 20:35 02.12.2021
5116 Rain 23 1007 96 10000 0.3 224 19:25 02.12.2021
5117 Rain 24 1008 84 10000 1.13 175 17:36 02.12.2021
5118 Clouds 29 1005 64 10000 0.52 210 15:42 02.12.2021
5119 Clouds 31 1005 53 10000 0.84 223 14:58 02.12.2021
5120 Clouds 31 1006 52 10000 1.08 230 13:56 02.12.2021
5121 Clouds 28 1007 66 10000 1.04 243 12:52 02.12.2021
5122 Clouds 26 1009 74 10000 0.64 228 11:56 02.12.2021
5123 Clouds 26 1011 76 10000 1.59 204 09:34 02.12.2021
5124 Clouds 23 1012 94 10000 0.7 205 08:49 02.12.2021
5125 Rain 21 1011 99 10000 1.69 169 04:54 02.12.2021
5126 Clouds 22 1009 95 10000 0.3 201 00:52 02.12.2021
5127 Rain 22 1010 95 10000 0.74 158 23:19 01.12.2021
5128 Clouds 22 1010 92 10000 0.85 149 22:23 01.12.2021
5129 Clouds 22 1010 90 10000 0.81 157 20:36 01.12.2021
5130 Clouds 23 1009 87 10000 0.59 193 19:54 01.12.2021
5131 Clouds 23 1008 85 10000 0.29 137 19:28 01.12.2021
5132 Clouds 23 1008 87 10000 0.59 129 17:45 01.12.2021
5133 Clouds 25 1007 84 10000 0.83 119 16:42 01.12.2021
5134 Clouds 28 1006 64 10000 1.29 147 14:52 01.12.2021
5135 Clouds 29 1006 59 10000 1.02 142 13:45 01.12.2021
5136 Clouds 27 1008 69 10000 1.3 174 12:37 01.12.2021
5137 Clouds 27 1010 68 10000 1.45 176 10:42 01.12.2021
5138 Clouds 23 1011 91 10000 1.69 196 09:19 01.12.2021
5139 Clouds 23 1012 95 10000 1.39 196 08:29 01.12.2021
5140 Clouds 23 1012 95 10000 1.39 196 07:33 01.12.2021
5141 Clouds 22 1011 99 10000 1.65 206 06:34 01.12.2021
5142 Rain 20 1011 100 6674 1 112 03:45 01.12.2021
5143 Clouds 20 1010 98 10000 0.21 269 00:56 01.12.2021
5144 Rain 20 1011 98 10000 0.2 14 23:54 30.11.2021
5145 Rain 21 1011 97 10000 0.64 6 23:23 30.11.2021
5146 Clouds 21 1011 95 10000 0.58 16 21:30 30.11.2021
5147 Clouds 21 1011 94 10000 0.34 49 20:44 30.11.2021
5148 Clouds 21 1010 93 10000 0.26 236 19:53 30.11.2021
5149 Clouds 21 1010 93 10000 0.26 236 19:30 30.11.2021
5150 Clouds 22 1010 93 10000 0.84 262 18:36 30.11.2021
5151 Clouds 24 1009 86 10000 1.21 267 16:49 30.11.2021
5152 Clouds 26 1009 73 10000 1.53 266 15:38 30.11.2021
5153 Clouds 27 1009 67 10000 2.18 281 14:20 30.11.2021
5154 Clouds 26 1010 73 10000 1.99 278 13:26 30.11.2021
5155 Clouds 28 1009 65 10000 2.03 301 12:45 30.11.2021
5156 Clouds 25 1011 79 10000 1.76 289 11:49 30.11.2021
5157 Clouds 23 1013 92 10000 1.14 272 11:19 30.11.2021
5158 Clouds 23 1013 92 10000 1.14 272 10:32 30.11.2021
5159 Rain 22 1014 96 10000 1.04 295 08:52 30.11.2021
5160 Rain 21 1014 97 10000 0.88 305 08:22 30.11.2021
5161 Rain 21 1014 97 10000 0.88 305 07:47 30.11.2021
5162 Rain 21 1010 99 10000 1.13 342 02:41 30.11.2021
5163 Rain 21 1010 100 10000 1.08 321 01:41 30.11.2021
5164 Rain 21 1011 98 10000 1.42 60 00:20 30.11.2021
5165 Rain 22 1012 99 9755 1.02 81 23:24 29.11.2021
5166 Rain 22 1012 99 9755 1.02 81 22:55 29.11.2021
5167 Rain 22 1012 99 9755 1.02 81 22:33 29.11.2021
5168 Rain 22 1012 99 9755 1.02 81 22:33 29.11.2021
5169 Rain 22 1012 99 5800 1.32 110 21:29 29.11.2021
5170 Rain 22 1012 99 5800 1.32 110 20:59 29.11.2021
5171 Rain 22 1012 99 5800 1.32 110 20:32 29.11.2021
5172 Rain 22 1012 99 5800 1.32 110 20:32 29.11.2021
5173 Rain 22 1011 98 10000 1.31 224 19:56 29.11.2021
5174 Rain 22 1011 98 10000 1.31 224 19:36 29.11.2021
5175 Clouds 22 1009 97 10000 1.73 251 18:51 29.11.2021
5176 Rain 23 1009 96 10000 1.21 256 17:49 29.11.2021
5177 Rain 24 1008 93 10000 0.77 316 17:18 29.11.2021
5178 Rain 24 1008 93 10000 0.77 316 17:18 29.11.2021
5179 Clouds 28 1006 73 10000 1.16 285 16:29 29.11.2021
5180 Clouds 28 1006 73 10000 1.16 285 15:50 29.11.2021
5181 Clouds 29 1005 68 10000 1.37 243 14:43 29.11.2021
5182 Clouds 26 1007 87 10000 0.69 243 13:34 29.11.2021
5183 Rain 27 1008 87 10000 0.71 283 12:37 29.11.2021
5184 Rain 27 1009 81 10000 0.32 28 11:40 29.11.2021
5185 Rain 31 1010 55 10000 0.67 176 10:51 29.11.2021
5186 Clouds 31 1011 58 10000 0.96 212 09:34 29.11.2021
5187 Clouds 22 1011 98 10000 0.8 173 06:21 29.11.2021
5188 Clouds 21 1009 99 10000 0.63 150 02:28 29.11.2021
5189 Clouds 22 1010 98 10000 0.62 97 00:42 29.11.2021
5190 Clouds 22 1010 98 10000 0.83 240 23:44 28.11.2021
5191 Clouds 22 1011 98 10000 0.46 68 23:23 28.11.2021
5192 Rain 22 1011 99 10000 0.38 151 21:49 28.11.2021
5193 Rain 21 1011 99 4970 1.17 44 21:23 28.11.2021
5194 Rain 21 1011 99 4970 1.17 44 20:34 28.11.2021
5195 Rain 23 1009 95 10000 0.61 173 19:25 28.11.2021
5196 Clouds 23 1009 93 10000 1.3 202 18:35 28.11.2021
5197 Clouds 24 1008 91 10000 1.39 192 17:55 28.11.2021
5198 Clouds 24 1008 91 10000 1.39 192 17:31 28.11.2021
5199 Rain 24 1007 88 10000 0.58 295 16:40 28.11.2021
5200 Rain 29 1006 67 10000 0.34 145 16:18 28.11.2021
5201 Rain 29 1006 67 10000 0.34 145 15:31 28.11.2021
5202 Clouds 31 1006 54 10000 0.22 215 14:46 28.11.2021
5203 Clouds 32 1007 49 10000 0.64 1 13:22 28.11.2021
5204 Clouds 32 1007 49 10000 0.64 1 12:48 28.11.2021
5205 Clouds 33 1009 46 10000 0.35 110 11:18 28.11.2021
5206 Clouds 32 1011 52 10000 0.49 157 10:21 28.11.2021
5207 Clouds 32 1011 52 10000 0.49 157 09:38 28.11.2021
5208 Clouds 25 1012 86 10000 0.92 152 07:59 28.11.2021
5209 Rain 21 1011 95 10000 0.38 149 00:20 28.11.2021
5210 Rain 22 1011 90 10000 0.98 314 21:20 27.11.2021
5211 Clouds 23 1010 87 10000 0.42 220 19:47 27.11.2021
5212 Clouds 25 1008 78 10000 0.82 11 17:27 27.11.2021
5213 Clouds 28 1007 66 10000 1.12 359 15:58 27.11.2021
5214 Clouds 30 1008 54 10000 0.87 6 14:26 27.11.2021
5215 Clouds 29 1009 57 10000 0.68 357 12:58 27.11.2021
5216 Clouds 25 1011 75 10000 0.54 123 10:52 27.11.2021
5217 Clouds 24 1012 82 10000 1.05 117 09:53 27.11.2021
5218 Clouds 23 1013 86 10000 1.26 114 08:44 27.11.2021
5219 Clouds 22 1012 89 10000 0.6 161 06:34 27.11.2021
5220 Rain 20 1011 98 10000 2.04 177 01:59 27.11.2021
5221 Rain 21 1012 99 10000 1.51 117 23:39 26.11.2021
5222 Rain 20 1013 99 9703 0.96 70 22:26 26.11.2021
5223 Rain 20 1013 99 9703 0.96 70 21:41 26.11.2021
5224 Rain 21 1014 99 7320 1.45 34 21:22 26.11.2021
5225 Rain 21 1014 99 7320 1.45 34 20:40 26.11.2021
5226 Rain 20 1014 99 7347 2.16 33 19:55 26.11.2021
5227 Rain 22 1012 97 8885 1.06 37 18:44 26.11.2021
5228 Rain 23 1010 94 10000 1.24 265 17:24 26.11.2021
5229 Rain 26 1009 83 10000 1.25 257 16:29 26.11.2021
5230 Rain 28 1009 69 10000 1.43 197 14:25 26.11.2021
5231 Rain 28 1009 69 10000 1.43 197 13:31 26.11.2021
5232 Clouds 30 1011 56 10000 1.28 199 10:43 26.11.2021
5233 Clouds 27 1012 66 10000 1.2 203 09:49 26.11.2021
5234 Clouds 26 1013 74 10000 1.32 193 08:50 26.11.2021
5235 Clouds 25 1013 80 10000 1.36 185 08:19 26.11.2021
5236 Clouds 23 1012 87 10000 1.97 170 06:30 26.11.2021
5237 Clouds 21 1011 97 10000 1.42 169 04:52 26.11.2021
5238 Rain 21 1011 96 10000 1.78 146 03:35 26.11.2021
5239 Clouds 22 1009 85 10000 1.29 198 23:43 25.11.2021
5240 Clouds 23 1009 81 10000 1.17 187 22:25 25.11.2021
5241 Clouds 23 1009 79 10000 1.2 181 20:43 25.11.2021
5242 Clouds 25 1008 72 10000 0.59 173 19:22 25.11.2021
5243 Clouds 25 1007 69 10000 0.58 192 18:31 25.11.2021
5244 Clouds 27 1005 66 10000 0.37 117 17:28 25.11.2021
5245 Clouds 27 1005 66 10000 0.37 117 16:45 25.11.2021
5246 Clouds 31 1005 58 10000 0.67 93 16:00 25.11.2021
5247 Clouds 32 1008 58 10000 0 0 14:31 25.11.2021
5248 Clouds 35 1005 35 10000 1.06 2 13:20 25.11.2021
5249 Clouds 34 1007 36 10000 1.15 4 11:57 25.11.2021
5250 Clouds 34 1008 39 10000 0.95 337 10:49 25.11.2021
5251 Clouds 27 1011 66 10000 0.3 241 08:28 25.11.2021
5252 Rain 20 1008 96 10000 0.37 173 03:18 25.11.2021
5253 Rain 21 1008 92 10000 1.15 48 01:26 25.11.2021
5254 Clouds 23 1009 76 10000 0.16 55 22:41 24.11.2021
5255 Clouds 23 1009 75 10000 0.5 272 21:57 24.11.2021
5256 Clouds 24 1009 74 10000 0.12 101 21:22 24.11.2021
5257 Clouds 25 1009 71 10000 0.31 30 20:28 24.11.2021
5258 Clouds 25 1009 71 10000 0.31 30 19:40 24.11.2021
5259 Clouds 27 1007 66 10000 0.6 358 18:29 24.11.2021
5260 Clouds 27 1006 67 10000 0.78 321 16:48 24.11.2021
5261 Clouds 31 1006 54 10000 0.72 286 15:21 24.11.2021
5262 Clouds 31 1006 54 10000 0.72 286 14:30 24.11.2021
5263 Clouds 31 1006 57 10000 0.11 252 13:43 24.11.2021
5264 Clouds 34 1008 38 10000 0.97 18 11:36 24.11.2021
5265 Clouds 34 1010 41 10000 1.06 350 11:18 24.11.2021
5266 Clouds 34 1010 41 10000 1.06 350 10:36 24.11.2021
5267 Clouds 32 1011 47 10000 1 341 09:35 24.11.2021
5268 Clouds 27 1012 74 10000 0.59 280 07:42 24.11.2021
5269 Clouds 22 1011 98 10000 0.6 211 06:20 24.11.2021
5270 Clouds 21 1010 99 10000 0.23 297 03:44 24.11.2021
5271 Clouds 24 1010 78 10000 0.18 343 23:36 23.11.2021
5272 Clouds 24 1010 78 10000 0.49 318 22:39 23.11.2021
5273 Clouds 23 1011 80 10000 0.41 76 21:46 23.11.2021
5274 Clouds 24 1011 79 10000 0.27 215 20:37 23.11.2021
5275 Clouds 24 1010 76 10000 0.46 157 19:36 23.11.2021
5276 Clouds 26 1009 71 10000 0.04 129 18:35 23.11.2021
5277 Clouds 26 1008 70 10000 0.24 162 17:57 23.11.2021
5278 Clouds 26 1008 71 10000 0.44 185 16:37 23.11.2021
5279 Clouds 27 1007 72 10000 0.46 178 15:41 23.11.2021
5280 Clouds 29 1007 69 10000 0.42 192 15:19 23.11.2021
5281 Clouds 29 1007 67 10000 0.31 288 13:33 23.11.2021
5282 Clouds 33 1010 46 10000 0.37 14 10:40 23.11.2021
5283 Clouds 32 1012 52 10000 0.06 163 09:48 23.11.2021
5284 Clouds 30 1013 59 10000 0.16 119 08:43 23.11.2021
5285 Clouds 21 1011 97 10000 0.47 155 05:25 23.11.2021
5286 Clouds 21 1011 97 10000 0.53 182 03:39 23.11.2021
5287 Rain 21 1011 96 10000 0.8 140 23:43 22.11.2021
5288 Rain 22 1011 95 10000 0.75 146 23:20 22.11.2021
5289 Rain 22 1011 95 10000 0.75 146 22:32 22.11.2021
5290 Clouds 22 1012 92 10000 1.01 155 21:45 22.11.2021
5291 Clouds 22 1012 91 10000 0.26 156 21:21 22.11.2021
5292 Clouds 22 1012 91 10000 0.26 156 20:49 22.11.2021
5293 Clouds 23 1011 88 10000 0.38 27 19:26 22.11.2021
5294 Clouds 23 1011 88 10000 0.38 27 18:50 22.11.2021
5295 Clouds 23 1010 88 10000 0.54 163 18:31 22.11.2021
5296 Clouds 25 1008 84 10000 0.86 97 16:50 22.11.2021
5297 Clouds 24 1008 91 10000 0.67 103 15:39 22.11.2021
5298 Clouds 26 1009 74 10000 1.97 186 12:52 22.11.2021
5299 Clouds 29 1010 61 10000 1.91 164 11:39 22.11.2021
5300 Clouds 28 1012 63 10000 1.14 92 10:27 22.11.2021
5301 Clouds 26 1013 73 10000 0.85 102 08:44 22.11.2021
5302 Clouds 22 1013 93 10000 0.45 133 08:24 22.11.2021
5303 Rain 20 1010 99 10000 0.92 139 02:31 22.11.2021
5304 Rain 20 1011 99 10000 1.89 207 23:22 21.11.2021
5305 Rain 20 1011 99 10000 1.89 207 22:46 21.11.2021
5306 Rain 20 1012 99 10000 1.32 225 21:33 21.11.2021
5307 Rain 22 1008 100 1239 0.71 333 20:38 21.11.2021
5308 Rain 22 1010 99 3442 0.92 12 19:43 21.11.2021
5309 Rain 22 1010 99 3442 0.92 12 19:43 21.11.2021
5310 Rain 23 1007 95 10000 0.51 307 17:59 21.11.2021
5311 Rain 23 1007 95 10000 0.51 307 17:36 21.11.2021
5312 Rain 29 1003 65 10000 0.08 136 15:21 21.11.2021
5313 Rain 29 1003 65 10000 0.08 136 14:42 21.11.2021
5314 Clouds 34 1004 44 10000 1.5 318 13:31 21.11.2021
5315 Clouds 34 1006 45 10000 0.95 234 12:27 21.11.2021
5316 Clouds 34 1006 45 10000 0.95 234 11:39 21.11.2021
5317 Clouds 31 1009 55 10000 1.12 185 10:20 21.11.2021
5318 Clouds 31 1009 55 10000 1.12 185 09:47 21.11.2021
5319 Clouds 26 1011 79 10000 0.6 154 08:34 21.11.2021
5320 Clouds 23 1011 92 10000 0.87 143 07:54 21.11.2021
5321 Clouds 23 1011 92 10000 0.87 143 07:33 21.11.2021
5322 Clouds 21 1010 99 10000 0.46 234 05:43 21.11.2021
5323 Rain 21 1010 99 10000 0.6 324 04:35 21.11.2021
5324 Rain 21 1010 99 10000 0.6 324 04:35 21.11.2021
5325 Rain 21 1008 99 10000 0.72 36 02:57 21.11.2021
5326 Rain 21 1008 99 10000 0.72 36 02:33 21.11.2021
5327 Rain 21 1008 99 10000 0.47 190 00:51 21.11.2021
5328 Rain 21 1009 99 10000 0.89 345 22:55 20.11.2021
5329 Clouds 22 1008 97 10000 1.01 52 21:34 20.11.2021
5330 Clouds 22 1008 97 10000 0.92 203 20:39 20.11.2021
5331 Rain 22 1007 96 10000 0.91 161 18:46 20.11.2021
5332 Rain 22 1007 96 10000 0.91 161 18:46 20.11.2021
5333 Rain 22 1006 95 10000 0.35 167 18:25 20.11.2021
5334 Rain 22 1005 95 10000 1.81 267 17:22 20.11.2021
5335 Rain 25 1004 81 10000 2.05 307 15:54 20.11.2021
5336 Rain 30 1004 55 10000 1.74 336 14:39 20.11.2021
5337 Clouds 31 1004 56 10000 0.34 225 14:21 20.11.2021
5338 Clouds 35 1006 38 10000 0.36 51 11:56 20.11.2021
5339 Clouds 33 1009 48 10000 0.33 86 10:29 20.11.2021
5340 Clouds 30 1010 58 10000 0.5 84 08:56 20.11.2021
5341 Clouds 23 1011 93 10000 0.58 341 07:20 20.11.2021
5342 Clouds 21 1010 98 10000 0.27 109 05:25 20.11.2021
5343 Clouds 21 1010 98 10000 0.27 109 04:50 20.11.2021
5344 Clouds 21 1009 98 10000 0.78 91 01:34 20.11.2021
5345 Clouds 21 1009 96 10000 0.84 78 00:37 20.11.2021
5346 Rain 22 1010 92 10000 0.38 121 22:55 19.11.2021
5347 Clouds 23 1010 87 10000 0.83 182 21:57 19.11.2021
5348 Rain 23 1011 85 10000 0.31 37 20:54 19.11.2021
5349 Rain 23 1011 85 10000 0.31 37 20:36 19.11.2021
5350 Clouds 24 1010 82 10000 0.77 298 19:49 19.11.2021
5351 Clouds 24 1009 79 10000 0.59 202 18:51 19.11.2021
5352 Clouds 26 1008 72 10000 0.39 179 18:19 19.11.2021
5353 Clouds 27 1007 71 10000 0.83 201 16:47 19.11.2021
5354 Clouds 29 1006 63 10000 0.81 194 15:31 19.11.2021
5355 Clouds 34 1007 40 10000 0.69 19 13:24 19.11.2021
5356 Clouds 31 1011 53 10000 0.62 151 10:27 19.11.2021
5357 Clouds 31 1011 53 10000 0.62 151 09:33 19.11.2021
5358 Clouds 25 1013 79 10000 0.83 169 07:34 19.11.2021
5359 Clouds 21 1011 99 10000 0.83 178 04:29 19.11.2021
5360 Clouds 21 1011 99 10000 1.21 180 02:26 19.11.2021
5361 Rain 21 1012 99 10000 0.45 149 23:51 18.11.2021
5362 Rain 21 1013 99 10000 0.91 100 21:50 18.11.2021
5363 Rain 21 1013 98 10000 0.57 120 20:48 18.11.2021
5364 Rain 21 1013 98 10000 0.57 120 20:30 18.11.2021
5365 Rain 22 1012 98 10000 0.93 107 19:44 18.11.2021
5366 Rain 22 1011 97 10000 0.14 266 18:55 18.11.2021
5367 Rain 22 1010 96 9610 0.21 191 18:27 18.11.2021
5368 Rain 22 1010 96 9610 0.21 191 17:49 18.11.2021
5369 Rain 24 1009 85 10000 0.68 252 16:44 18.11.2021
5370 Clouds 29 1007 63 10000 0.2 69 15:25 18.11.2021
5371 Clouds 29 1008 62 10000 0.72 109 13:31 18.11.2021
5372 Clouds 31 1009 53 10000 0.75 117 12:33 18.11.2021
5373 Clouds 31 1010 51 10000 1.35 163 11:42 18.11.2021
5374 Clouds 30 1011 55 10000 1.58 171 11:24 18.11.2021
5375 Clouds 28 1012 63 10000 1.82 176 09:34 18.11.2021
5376 Clouds 24 1013 86 10000 1.95 178 07:34 18.11.2021
5377 Clouds 21 1012 99 10000 1.49 182 05:55 18.11.2021
5378 Clouds 21 1012 99 10000 1.49 182 05:36 18.11.2021
5379 Rain 21 1011 100 9590 1 311 01:23 18.11.2021
5380 Rain 21 1012 100 8987 0.22 197 22:49 17.11.2021
5381 Rain 21 1012 99 5651 0.72 163 22:21 17.11.2021
5382 Rain 21 1012 99 5651 0.72 163 21:38 17.11.2021
5383 Rain 21 1012 99 4837 0.46 119 20:56 17.11.2021
5384 Clouds 23 1009 95 10000 0.74 226 18:27 17.11.2021
5385 Clouds 23 1008 94 10000 0.93 149 17:27 17.11.2021
5386 Rain 25 1007 90 10000 1.72 208 14:51 17.11.2021
5387 Rain 27 1008 70 10000 1.48 179 12:41 17.11.2021
5388 Rain 27 1009 69 10000 1.2 191 11:49 17.11.2021
5389 Clouds 27 1010 71 10000 1.16 201 10:31 17.11.2021
5390 Clouds 24 1012 87 10000 1.36 192 09:25 17.11.2021
5391 Clouds 23 1012 94 10000 1.37 193 07:44 17.11.2021
5392 Clouds 21 1009 99 10000 1.23 222 04:47 17.11.2021
5393 Rain 21 1009 100 4524 0.1 343 01:45 17.11.2021
5394 Rain 22 1009 96 10000 1.32 136 23:26 16.11.2021
5395 Clouds 24 1009 86 10000 1.58 177 21:27 16.11.2021
5396 Clouds 24 1008 82 10000 1.39 159 20:18 16.11.2021
5397 Clouds 24 1008 80 10000 1.17 167 18:54 16.11.2021
5398 Clouds 24 1008 80 10000 1.17 167 18:35 16.11.2021
5399 Clouds 25 1007 78 10000 1.07 194 17:43 16.11.2021
5400 Clouds 26 1006 73 10000 0.92 200 16:49 16.11.2021
5401 Clouds 28 1005 69 10000 0.35 78 15:56 16.11.2021
5402 Clouds 31 1005 54 10000 0.98 22 15:29 16.11.2021
5403 Clouds 33 1006 44 10000 1.32 327 12:29 16.11.2021
5404 Clouds 31 1010 53 10000 1.2 305 09:49 16.11.2021
5405 Clouds 29 1011 62 10000 1.14 299 08:46 16.11.2021
5406 Clouds 25 1011 79 10000 1.47 309 07:34 16.11.2021
5407 Clouds 21 1009 99 10000 0.8 294 02:50 16.11.2021
5408 Clouds 22 1009 99 10000 1.19 328 23:23 15.11.2021
5409 Clouds 22 1009 99 10000 1.19 328 22:38 15.11.2021
5410 Clouds 22 1010 98 10000 1.03 341 21:54 15.11.2021
5411 Clouds 22 1010 98 10000 1.01 302 21:29 15.11.2021
5412 Clouds 22 1010 98 10000 0.95 338 19:58 15.11.2021
5413 Clouds 23 1009 98 10000 0.54 1 18:49 15.11.2021
5414 Rain 23 1008 96 10000 0.67 234 16:56 15.11.2021
5415 Rain 25 1008 95 10000 0.67 241 15:44 15.11.2021
5416 Rain 27 1007 86 10000 0.92 246 15:25 15.11.2021
5417 Rain 27 1008 91 10000 1.19 210 13:35 15.11.2021
5418 Rain 28 1009 81 10000 1.31 208 11:54 15.11.2021
5419 Clouds 28 1012 67 10000 0.76 189 09:29 15.11.2021
5420 Clouds 25 1013 84 10000 0.34 184 07:58 15.11.2021
5421 Clouds 21 1011 99 10000 1.08 241 05:25 15.11.2021
5422 Rain 21 1010 98 10000 0.42 72 00:32 15.11.2021
5423 Clouds 22 1010 95 10000 0.36 161 22:38 14.11.2021
5424 Clouds 23 1010 92 10000 0.45 185 20:32 14.11.2021
5425 Rain 23 1010 89 10000 1.02 173 19:18 14.11.2021
5426 Clouds 23 1010 94 10000 1.2 182 18:54 14.11.2021
5427 Clouds 23 1010 94 10000 1.2 182 18:36 14.11.2021
5428 Clouds 23 1009 92 10000 0.94 229 18:18 14.11.2021
5429 Clouds 23 1009 92 10000 0.94 229 17:57 14.11.2021
5430 Clouds 23 1009 92 10000 0.94 229 17:39 14.11.2021
5431 Clouds 24 1008 91 10000 1.5 208 17:21 14.11.2021
5432 Clouds 25 1008 86 10000 1.38 220 16:49 14.11.2021
5433 Clouds 27 1007 77 10000 1.38 226 16:21 14.11.2021
5434 Clouds 27 1007 77 10000 1.38 226 15:51 14.11.2021
5435 Clouds 29 1007 66 10000 1.22 243 15:19 14.11.2021
5436 Clouds 29 1007 66 10000 1.22 243 14:33 14.11.2021
5437 Clouds 30 1007 59 10000 0.6 259 13:59 14.11.2021
5438 Clouds 30 1007 59 10000 0.6 259 13:40 14.11.2021
5439 Clouds 31 1008 51 10000 0.94 230 12:45 14.11.2021
5440 Clouds 31 1009 53 10000 1.29 220 12:18 14.11.2021
5441 Clouds 29 1011 60 10000 1.48 214 10:50 14.11.2021
5442 Clouds 26 1012 75 10000 0.94 216 10:27 14.11.2021
5443 Clouds 23 1012 92 10000 0.27 168 08:57 14.11.2021
5444 Clouds 22 1012 98 10000 0.74 11 07:28 14.11.2021
5445 Clouds 21 1010 99 10000 0.99 116 01:25 14.11.2021
5446 Clouds 21 1011 99 10000 0.26 138 22:27 13.11.2021
5447 Clouds 21 1011 99 10000 0.26 138 21:57 13.11.2021
5448 Rain 21 1011 99 10000 1.14 72 21:27 13.11.2021
5449 Clouds 22 1010 94 10000 0.72 53 19:50 13.11.2021
5450 Clouds 22 1009 86 10000 1.14 7 18:48 13.11.2021
5451 Clouds 23 1008 80 10000 0.99 348 18:26 13.11.2021
5452 Clouds 24 1007 77 10000 0.84 288 16:48 13.11.2021
5453 Clouds 28 1006 68 10000 0.49 283 15:41 13.11.2021
5454 Clouds 29 1006 53 10000 0.51 63 14:34 13.11.2021
5455 Clouds 30 1006 50 10000 0.97 72 13:45 13.11.2021
5456 Clouds 26 1008 67 10000 0.98 66 12:33 13.11.2021
5457 Clouds 23 1009 89 10000 1.33 115 11:38 13.11.2021
5458 Clouds 23 1010 90 10000 1.17 327 10:45 13.11.2021
5459 Clouds 22 1011 96 10000 1.67 262 10:23 13.11.2021
5460 Clouds 22 1011 96 10000 1.67 262 10:23 13.11.2021
5461 Clouds 22 1011 96 10000 1.67 262 10:23 13.11.2021
5462 Clouds 22 1011 96 10000 1.67 262 09:38 13.11.2021
5463 Rain 21 1012 99 10000 1.36 250 08:59 13.11.2021
5464 Rain 21 1012 99 10000 1.36 250 08:34 13.11.2021
5465 Clouds 21 1011 98 10000 2.14 44 06:27 13.11.2021
5466 Rain 21 1011 98 10000 1.55 85 04:32 13.11.2021
5467 Clouds 21 1010 99 10000 2.16 93 01:54 13.11.2021
5468 Clouds 21 1010 97 10000 1.22 13 22:59 12.11.2021
5469 Rain 20 1010 97 10000 1.45 348 21:50 12.11.2021
5470 Rain 21 1010 99 5637 1.69 133 20:19 12.11.2021
5471 Rain 21 1010 99 5637 1.69 133 19:30 12.11.2021
5472 Rain 21 1009 98 10000 1.44 67 18:52 12.11.2021
5473 Rain 23 1006 97 9235 2.55 175 16:40 12.11.2021
5474 Rain 24 1006 92 10000 2.12 187 15:34 12.11.2021
5475 Clouds 27 1007 65 10000 1.68 285 13:21 12.11.2021
5476 Clouds 27 1010 70 10000 2 293 10:58 12.11.2021
5477 Clouds 26 1010 78 10000 1.83 286 09:45 12.11.2021
5478 Clouds 24 1011 90 10000 1.26 290 08:44 12.11.2021
5479 Rain 21 1011 99 8027 0.8 333 05:54 12.11.2021
5480 Rain 21 1010 99 9156 0.56 129 23:43 11.11.2021
5481 Rain 21 1010 98 10000 0.63 116 22:40 11.11.2021
5482 Clouds 22 1010 93 10000 0.21 93 21:29 11.11.2021
5483 Clouds 22 1010 93 10000 0.21 93 20:48 11.11.2021
5484 Clouds 22 1009 91 10000 0.58 163 19:30 11.11.2021
5485 Clouds 23 1009 91 10000 0.11 25 18:22 11.11.2021
5486 Clouds 23 1009 91 10000 0.11 25 17:37 11.11.2021
5487 Clouds 26 1007 75 10000 1.15 288 15:19 11.11.2021
5488 Clouds 26 1007 75 10000 1.15 288 14:30 11.11.2021
5489 Clouds 26 1007 81 10000 1.38 308 13:41 11.11.2021
5490 Clouds 31 1006 53 10000 1.95 270 12:52 11.11.2021
5491 Clouds 32 1007 49 10000 1.79 268 11:30 11.11.2021
5492 Clouds 30 1010 57 10000 1.3 232 09:54 11.11.2021
5493 Clouds 26 1012 78 10000 0.87 269 08:21 11.11.2021
5494 Clouds 22 1011 97 10000 0.35 318 06:18 11.11.2021
5495 Clouds 22 1009 99 10000 0.52 15 00:36 11.11.2021
5496 Clouds 22 1009 98 10000 1.17 18 22:32 10.11.2021
5497 Clouds 22 1010 98 10000 0.68 339 21:33 10.11.2021
5498 Clouds 23 1009 98 10000 1.2 310 20:51 10.11.2021
5499 Rain 23 1009 98 10000 1.03 295 19:48 10.11.2021
5500 Rain 22 1009 97 10000 0.13 21 19:30 10.11.2021
5501 Clouds 26 1006 77 10000 0.74 249 16:40 10.11.2021
5502 Clouds 30 1005 66 10000 0.21 297 15:46 10.11.2021
5503 Clouds 33 1006 44 10000 1.96 16 14:22 10.11.2021
5504 Clouds 34 1007 42 10000 2.13 18 13:27 10.11.2021
5505 Clouds 34 1008 43 10000 1.79 22 11:39 10.11.2021
5506 Clouds 30 1011 61 10000 0.83 33 09:18 10.11.2021
5507 Clouds 30 1011 61 10000 0.83 33 08:40 10.11.2021
5508 Clouds 24 1012 86 10000 1.41 33 06:43 10.11.2021
5509 Clouds 22 1011 94 10000 0.9 12 05:53 10.11.2021
5510 Clouds 21 1009 99 10000 1.02 17 01:31 10.11.2021
5511 Clouds 23 1010 88 10000 0.61 106 21:58 09.11.2021
5512 Clouds 22 1010 97 10000 0.79 301 20:32 09.11.2021
5513 Rain 23 1008 93 10000 0.61 174 19:26 09.11.2021
5514 Rain 23 1008 93 10000 0.61 174 18:44 09.11.2021
5515 Clouds 30 1005 62 10000 0.36 186 16:27 09.11.2021
5516 Clouds 33 1005 46 10000 1.18 147 14:59 09.11.2021
5517 Clouds 34 1006 43 10000 0.99 152 13:25 09.11.2021
5518 Clouds 35 1007 40 10000 1.13 45 12:22 09.11.2021
5519 Clouds 34 1009 44 10000 1.14 37 10:46 09.11.2021
5520 Clouds 32 1010 50 10000 0.93 44 09:42 09.11.2021
5521 Clouds 25 1012 83 9000 2.06 90 08:42 09.11.2021
5522 Clouds 23 1011 92 10000 0.52 22 06:51 09.11.2021
5523 Clouds 21 1008 98 10000 0.58 44 02:30 09.11.2021
5524 Clear 21 1008 97 10000 0.56 63 01:50 09.11.2021
5525 Clouds 21 1009 96 10000 1.48 37 00:22 09.11.2021
5526 Clouds 22 1009 95 10000 1.3 55 23:28 08.11.2021
5527 Clouds 22 1009 95 10000 1.3 55 22:34 08.11.2021
5528 Clouds 22 1009 94 10000 0.94 65 21:21 08.11.2021
5529 Rain 21 1009 94 10000 1.16 359 20:31 08.11.2021
5530 Rain 23 1008 88 10000 1.25 76 18:57 08.11.2021
5531 Rain 24 1007 87 10000 1.52 79 17:34 08.11.2021
5532 Clouds 28 1004 71 10000 0.7 118 15:38 08.11.2021
5533 Clouds 32 1007 55 10000 3.09 320 14:55 08.11.2021
5534 Clouds 32 1008 55 10000 3.09 300 13:59 08.11.2021
5535 Clouds 34 1005 41 10000 1.56 45 12:44 08.11.2021
5536 Clouds 32 1010 58 10000 3.09 280 11:37 08.11.2021
5537 Clouds 32 1010 47 10000 1.08 50 10:18 08.11.2021
5538 Clouds 30 1011 55 10000 1.15 42 08:56 08.11.2021
5539 Clouds 27 1011 67 10000 0.83 59 07:47 08.11.2021
5540 Clouds 23 1011 86 10000 0.59 46 06:54 08.11.2021
5541 Clouds 20 1009 99 10000 0.33 39 03:35 08.11.2021
5542 Clouds 20 1009 99 10000 0.77 339 23:51 07.11.2021
5543 Clouds 21 1009 99 10000 1.31 351 22:30 07.11.2021
5544 Clouds 21 1010 99 10000 1.38 148 21:22 07.11.2021
5545 Rain 21 1010 99 10000 1.24 123 19:55 07.11.2021
5546 Rain 22 1007 99 10000 1.51 254 18:28 07.11.2021
5547 Rain 22 1007 99 10000 1.51 254 17:38 07.11.2021
5548 Rain 24 1005 95 5069 1.87 346 16:20 07.11.2021
5549 Rain 26 1005 91 10000 0.92 255 14:42 07.11.2021
5550 Rain 26 1006 85 10000 1.93 265 13:57 07.11.2021
5551 Rain 30 1007 64 10000 2.23 237 11:55 07.11.2021
5552 Clouds 32 1008 52 10000 1.73 269 11:18 07.11.2021
5553 Clouds 29 1010 63 10000 1.3 285 08:58 07.11.2021
5554 Rain 21 1008 100 10000 0.89 169 02:49 07.11.2021
5555 Rain 21 1009 99 10000 0.23 115 00:18 07.11.2021
5556 Rain 22 1008 94 8899 0.8 223 22:54 06.11.2021
5557 Clouds 23 1009 90 10000 1.04 273 21:43 06.11.2021
5558 Rain 24 1008 84 10000 1.4 201 20:54 06.11.2021
5559 Clouds 25 1007 72 10000 0.91 104 19:40 06.11.2021
5560 Clouds 27 1005 62 10000 0.97 268 17:30 06.11.2021
5561 Clouds 32 1004 55 10000 0.71 260 16:21 06.11.2021
5562 Clouds 35 1004 35 10000 0.37 346 13:39 06.11.2021
5563 Clouds 35 1006 36 10000 0.51 346 12:52 06.11.2021
5564 Clouds 33 1010 48 10000 0.83 49 09:55 06.11.2021
5565 Clouds 30 1011 57 10000 1.09 57 08:33 06.11.2021
5566 Clouds 20 1010 99 10000 0.65 103 03:22 06.11.2021
5567 Clouds 20 1010 98 10000 1.34 140 23:40 05.11.2021
5568 Clouds 21 1011 98 10000 1.24 118 23:19 05.11.2021
5569 Clouds 21 1011 98 10000 1.24 118 22:32 05.11.2021
5570 Clouds 23 1010 86 10000 0.83 183 20:25 05.11.2021
5571 Clouds 21 1010 97 10000 0.33 296 19:51 05.11.2021
5572 Clouds 21 1010 97 10000 0.68 257 18:43 05.11.2021
5573 Clouds 21 1009 96 10000 1.22 279 17:45 05.11.2021
5574 Clouds 23 1009 89 10000 1.47 294 16:37 05.11.2021
5575 Clouds 28 1009 63 10000 1.46 262 14:18 05.11.2021
5576 Clouds 24 1011 87 10000 1.28 234 11:45 05.11.2021
5577 Clouds 22 1015 99 10000 0.64 188 09:27 05.11.2021
5578 Clouds 21 1015 99 10000 0.58 167 07:48 05.11.2021
5579 Rain 20 1014 100 10000 0.4 125 05:36 05.11.2021
5580 Clouds 20 1011 99 10000 0.7 64 02:28 05.11.2021
5581 Clouds 20 1011 99 10000 0.7 64 01:59 05.11.2021
5582 Rain 20 1011 98 10000 0.97 144 23:45 04.11.2021
5583 Clouds 20 1012 97 10000 0.16 94 22:21 04.11.2021
5584 Clouds 20 1012 97 10000 0.16 94 21:54 04.11.2021
5585 Clouds 20 1012 98 10000 1.16 124 21:22 04.11.2021
5586 Rain 20 1011 97 10000 1.04 92 20:25 04.11.2021
5587 Rain 20 1011 97 10000 1.04 92 19:49 04.11.2021
5588 Rain 21 1011 98 10000 0.55 23 19:22 04.11.2021
5589 Rain 21 1011 99 10000 0.51 280 18:23 04.11.2021
5590 Rain 22 1010 99 10000 1.91 239 17:26 04.11.2021
5591 Rain 22 1008 99 5723 0.84 219 15:36 04.11.2021
5592 Rain 28 1008 64 10000 0.74 294 13:45 04.11.2021
5593 Clouds 28 1013 63 10000 1.09 204 10:22 04.11.2021
5594 Clouds 27 1014 69 10000 0.42 179 08:31 04.11.2021
5595 Clouds 25 1014 80 10000 0.5 113 07:36 04.11.2021
5596 Clouds 22 1014 93 10000 0.62 97 06:40 04.11.2021
5597 Clouds 21 1013 99 10000 0.79 141 22:59 03.11.2021
5598 Clouds 21 1014 99 10000 0.86 139 22:19 03.11.2021
5599 Clouds 21 1014 99 10000 0.86 139 21:36 03.11.2021
5600 Clouds 21 1014 99 10000 0.94 143 20:39 03.11.2021
5601 Clouds 21 1013 98 10000 0.93 159 20:21 03.11.2021
5602 Clouds 22 1012 98 10000 1.13 148 19:29 03.11.2021
5603 Clouds 22 1012 97 10000 0.8 158 18:26 03.11.2021
5604 Clouds 22 1012 97 10000 0.8 158 17:41 03.11.2021
5605 Rain 22 1011 96 10000 0.65 216 16:46 03.11.2021
5606 Rain 23 1011 95 10000 1.02 222 15:49 03.11.2021
5607 Rain 23 1010 95 8482 1.31 211 15:29 03.11.2021
5608 Rain 29 1010 60 10000 2.08 221 13:29 03.11.2021
5609 Clouds 30 1011 50 10000 2.22 223 11:34 03.11.2021
5610 Clouds 30 1012 54 10000 1.85 213 10:50 03.11.2021
5611 Clouds 27 1014 63 10000 1.8 202 09:40 03.11.2021
5612 Clouds 24 1015 79 10000 1.51 191 08:49 03.11.2021
5613 Clouds 23 1015 88 10000 1.83 198 07:40 03.11.2021
5614 Clouds 22 1015 96 10000 1.54 198 06:30 03.11.2021
5615 Rain 20 1012 100 10000 1.06 211 04:22 03.11.2021
5616 Clouds 20 1012 99 10000 0.58 190 00:55 03.11.2021
5617 Clouds 20 1012 98 10000 1.08 186 22:52 02.11.2021
5618 Clouds 21 1013 98 10000 0.6 185 21:47 02.11.2021
5619 Clouds 21 1013 98 10000 0.11 77 20:36 02.11.2021
5620 Clouds 21 1012 98 10000 0.37 179 19:56 02.11.2021
5621 Clouds 22 1011 87 10000 1.48 221 19:26 02.11.2021
5622 Clouds 22 1011 87 10000 1.48 221 18:34 02.11.2021
5623 Clouds 23 1011 85 10000 1.34 230 17:43 02.11.2021
5624 Clouds 23 1010 86 10000 1.08 249 16:34 02.11.2021
5625 Clouds 25 1010 85 10000 1.14 252 15:49 02.11.2021
5626 Rain 25 1009 83 10000 1.48 239 14:51 02.11.2021
5627 Clouds 30 1010 54 10000 1.5 244 13:29 02.11.2021
5628 Clouds 30 1010 53 10000 1.55 224 12:46 02.11.2021
5629 Clouds 30 1012 52 10000 1.43 214 11:38 02.11.2021
5630 Clouds 28 1013 58 10000 1.14 199 10:54 02.11.2021
5631 Clouds 28 1013 58 10000 1.14 199 10:32 02.11.2021
5632 Clouds 22 1015 88 10000 0.46 98 09:23 02.11.2021
5633 Clouds 21 1015 91 10000 0.64 179 07:45 02.11.2021
5634 Clouds 19 1013 96 10000 0.85 220 04:39 02.11.2021
5635 Clouds 19 1012 97 10000 0.65 237 03:20 02.11.2021
5636 Clouds 19 1012 99 10000 0.89 156 23:39 01.11.2021
5637 Clouds 19 1013 99 10000 1.07 74 21:28 01.11.2021
5638 Clouds 19 1013 99 10000 1.07 74 20:42 01.11.2021
5639 Clouds 20 1013 98 10000 1.08 83 19:58 01.11.2021
5640 Clouds 20 1013 98 10000 1.08 83 19:58 01.11.2021
5641 Clouds 20 1013 98 10000 1.08 83 19:38 01.11.2021
5642 Clouds 20 1012 95 10000 0.43 200 18:23 01.11.2021
5643 Clouds 20 1012 95 10000 0.43 200 17:35 01.11.2021
5644 Clouds 21 1012 94 10000 0.61 217 16:51 01.11.2021
5645 Clouds 25 1012 83 10000 4.12 250 15:57 01.11.2021
5646 Clouds 22 1012 92 10000 1.35 219 15:27 01.11.2021
5647 Clouds 22 1012 92 10000 1.35 219 14:44 01.11.2021
5648 Clouds 22 1012 94 10000 1.23 230 14:23 01.11.2021
5649 Clouds 25 1012 88 10000 3.09 250 13:50 01.11.2021
5650 Rain 25 1013 88 8000 4.12 260 12:34 01.11.2021
5651 Clouds 22 1014 95 10000 0.61 225 11:26 01.11.2021
5652 Clouds 21 1015 97 10000 0.45 255 09:43 01.11.2021
5653 Rain 21 1015 99 10000 0.67 209 07:50 01.11.2021
5654 Rain 20 1015 99 10000 1.01 225 07:30 01.11.2021
5655 Rain 19 1013 99 3723 1.88 118 03:45 01.11.2021
5656 Rain 21 1011 100 1545 0.46 80 01:37 01.11.2021
5657 Rain 22 1012 100 10000 1 37 22:32 31.10.2021
5658 Rain 22 1011 99 10000 1.64 285 20:50 31.10.2021
5659 Rain 23 1009 93 10000 0.87 211 19:20 31.10.2021
5660 Rain 23 1009 93 10000 0.87 211 18:38 31.10.2021
5661 Rain 24 1008 86 10000 1.01 216 17:32 31.10.2021
5662 Clouds 29 1005 66 10000 0.93 235 15:50 31.10.2021
5663 Clouds 33 1008 55 10000 4.12 330 13:58 31.10.2021
5664 Clouds 35 1007 37 10000 0.66 46 12:49 31.10.2021
5665 Clouds 35 1008 39 10000 0.76 44 11:40 31.10.2021
5666 Clouds 34 1010 42 10000 1.01 53 10:42 31.10.2021
5667 Clouds 30 1012 56 10000 1.12 31 09:21 31.10.2021
5668 Clouds 28 1013 66 10000 1.22 36 08:19 31.10.2021
5669 Clouds 21 1011 95 10000 0.97 83 00:58 31.10.2021
5670 Clouds 22 1011 95 10000 0.91 58 22:45 30.10.2021
5671 Clouds 22 1010 94 10000 0.52 70 21:35 30.10.2021
5672 Clouds 22 1010 94 10000 0.58 67 20:33 30.10.2021
5673 Clouds 24 1009 84 10000 0.42 198 18:45 30.10.2021
5674 Clouds 27 1008 69 10000 0.51 269 17:25 30.10.2021
5675 Clouds 27 1008 71 10000 0.7 263 14:50 30.10.2021
5676 Clouds 26 1009 79 10000 0.55 342 13:39 30.10.2021
5677 Clouds 24 1010 87 10000 0.55 20 13:21 30.10.2021
5678 Clouds 24 1012 93 10000 0.4 71 11:58 30.10.2021
5679 Clouds 24 1012 93 10000 0.4 71 11:39 30.10.2021
5680 Clouds 23 1013 96 10000 0.12 129 10:32 30.10.2021
5681 Rain 23 1013 94 8000 0 0 08:52 30.10.2021
5682 Clouds 21 1012 99 10000 0.21 324 07:19 30.10.2021
5683 Rain 20 1012 100 10000 0.48 337 05:39 30.10.2021
5684 Clouds 21 1010 98 10000 0.61 254 00:45 30.10.2021
5685 Rain 21 1011 97 10000 0.82 190 22:39 29.10.2021
5686 Clouds 22 1011 94 10000 0.97 198 22:20 29.10.2021
5687 Clouds 22 1010 92 10000 1.07 232 20:45 29.10.2021
5688 Clouds 22 1010 91 10000 0.89 215 19:50 29.10.2021
5689 Clouds 23 1009 91 10000 0.92 211 18:32 29.10.2021
5690 Rain 26 1008 80 10000 1.42 224 16:51 29.10.2021
5691 Clouds 30 1007 54 10000 1.7 276 14:33 29.10.2021
5692 Clouds 27 1011 69 10000 1.55 237 11:43 29.10.2021
5693 Clouds 24 1012 86 10000 1.56 250 10:35 29.10.2021
5694 Rain 21 1012 99 10000 1.82 221 08:19 29.10.2021
5695 Rain 21 1010 99 10000 0.73 152 00:36 29.10.2021
5696 Rain 23 1010 92 9833 0.35 109 22:59 28.10.2021
5697 Clouds 25 1009 78 10000 1.01 238 21:55 28.10.2021
5698 Clouds 26 1007 73 10000 0.51 97 20:29 28.10.2021
5699 Rain 24 1008 84 10000 0.75 172 19:48 28.10.2021
5700 Clouds 26 1006 80 10000 1.35 47 18:20 28.10.2021
5701 Clouds 30 1005 66 10000 1.17 38 16:58 28.10.2021
5702 Clouds 32 1006 49 10000 0.44 82 15:20 28.10.2021
5703 Clouds 33 1007 45 10000 1.21 265 13:45 28.10.2021
5704 Clouds 32 1009 49 10000 1.28 270 13:21 28.10.2021
5705 Clouds 32 1009 49 10000 1.28 270 12:39 28.10.2021
5706 Clouds 29 1013 74 10000 2.06 180 10:57 28.10.2021
5707 Clouds 25 1013 85 10000 0.2 171 09:38 28.10.2021
5708 Clouds 24 1013 88 10000 0.23 211 08:58 28.10.2021
5709 Clouds 24 1013 88 10000 0.23 211 08:34 28.10.2021
5710 Clouds 21 1010 99 10000 1.03 333 04:48 28.10.2021
5711 Rain 22 1010 97 10000 0.67 144 23:50 27.10.2021
5712 Rain 22 1011 98 10000 0.71 348 22:31 27.10.2021
5713 Rain 22 1010 97 10000 0.67 290 21:33 27.10.2021
5714 Clouds 22 1010 97 10000 0.69 258 20:53 27.10.2021
5715 Clouds 22 1010 97 10000 0.69 258 20:33 27.10.2021
5716 Rain 23 1009 90 10000 1.15 250 19:40 27.10.2021
5717 Clouds 26 1010 73 7000 0 0 18:52 27.10.2021
5718 Clouds 32 1008 58 8000 0 0 16:27 27.10.2021
5719 Clouds 30 1006 59 10000 0.52 124 15:32 27.10.2021
5720 Clouds 29 1006 61 10000 0.25 42 14:40 27.10.2021
5721 Clouds 31 1012 62 10000 0 0 12:33 27.10.2021
5722 Clouds 32 1012 50 10000 1.13 9 10:58 27.10.2021
5723 Clouds 30 1013 59 10000 1.24 24 09:51 27.10.2021
5724 Clouds 23 1013 93 10000 1.07 23 08:22 27.10.2021
5725 Clouds 22 1013 98 10000 0.65 30 07:22 27.10.2021
5726 Clouds 21 1011 99 10000 0.42 20 02:30 27.10.2021
5727 Rain 21 1011 99 10000 0.96 24 00:57 27.10.2021
5728 Rain 21 1012 99 10000 0.76 22 00:28 27.10.2021
5729 Rain 21 1012 99 10000 0.76 22 00:28 27.10.2021
5730 Rain 21 1012 99 10000 0.76 22 23:41 26.10.2021
5731 Clouds 22 1012 99 10000 0.94 12 22:38 26.10.2021
5732 Rain 22 1012 99 10000 0.71 34 21:59 26.10.2021
5733 Rain 22 1012 98 8486 1.26 41 20:40 26.10.2021
5734 Clouds 27 1011 78 10000 4.12 180 19:30 26.10.2021
5735 Clouds 27 1011 78 10000 4.12 180 19:30 26.10.2021
5736 Rain 30 1010 66 10000 0 0 18:41 26.10.2021
5737 Clouds 27 1008 77 10000 0.77 271 16:42 26.10.2021
5738 Rain 31 1012 62 10000 2.06 100 14:56 26.10.2021
5739 Rain 28 1012 79 10000 1.39 273 11:39 26.10.2021
5740 Clouds 28 1013 65 10000 1.54 248 10:20 26.10.2021
5741 Rain 22 1014 96 10000 0.92 245 07:47 26.10.2021
5742 Rain 21 1013 99 10000 0.47 264 07:20 26.10.2021
5743 Rain 22 1012 98 10000 0.92 264 23:51 25.10.2021
5744 Rain 22 1012 98 10000 0.92 264 23:51 25.10.2021
5745 Rain 22 1012 97 10000 0.94 165 22:54 25.10.2021
5746 Rain 23 1011 94 10000 1.1 191 22:19 25.10.2021
5747 Rain 23 1011 94 10000 1.1 191 21:39 25.10.2021
5748 Rain 25 1009 77 10000 0.95 207 19:54 25.10.2021
5749 Clouds 27 1008 68 10000 0.79 176 19:26 25.10.2021
5750 Clouds 27 1008 68 10000 0.79 176 18:59 25.10.2021
5751 Clouds 27 1007 66 10000 0.24 291 18:19 25.10.2021
5752 Clouds 33 1006 45 10000 1.31 353 16:18 25.10.2021
5753 Clouds 34 1008 41 10000 1.05 24 14:28 25.10.2021
5754 Clouds 34 1009 43 10000 1.14 17 12:30 25.10.2021
5755 Clouds 28 1013 68 10000 0.95 116 10:20 25.10.2021
5756 Clouds 25 1014 87 10000 0.31 226 08:35 25.10.2021
5757 Clouds 21 1011 99 10000 1.67 225 06:25 25.10.2021
5758 Rain 21 1012 99 10000 0.89 182 00:58 25.10.2021
5759 Rain 21 1012 99 10000 0.89 182 00:37 25.10.2021
5760 Rain 21 1013 100 10000 0.69 92 23:47 24.10.2021
5761 Rain 21 1012 99 10000 0.13 358 22:56 24.10.2021
5762 Rain 21 1012 99 10000 0.13 358 22:31 24.10.2021
5763 Clouds 22 1012 99 10000 0.89 302 21:57 24.10.2021
5764 Clouds 22 1011 99 10000 1.13 272 20:45 24.10.2021
5765 Clouds 22 1011 99 10000 0.87 320 20:26 24.10.2021
5766 Clouds 22 1009 99 10000 0.98 297 18:52 24.10.2021
5767 Clouds 23 1009 98 10000 0.95 250 17:57 24.10.2021
5768 Rain 22 1008 97 10000 0.88 259 16:52 24.10.2021
5769 Rain 26 1007 80 7543 2.27 49 15:37 24.10.2021
5770 Clouds 33 1009 48 10000 1.58 247 13:49 24.10.2021
5771 Thunderstorm 21 1014 100 7000 3.09 320 12:41 24.10.2021
5772 Rain 29 1012 71 10000 0.35 326 11:40 24.10.2021
5773 Thunderstorm 24 1015 94 800 4.12 300 10:43 24.10.2021
5774 Rain 26 1013 92 7191 0.55 101 09:38 24.10.2021
5775 Clouds 21 1012 99 10000 0.14 263 05:35 24.10.2021
5776 Clouds 22 1010 96 10000 1.28 11 00:40 24.10.2021
5777 Rain 22 1011 95 10000 1.14 36 23:24 23.10.2021
5778 Clouds 23 1011 90 10000 1.17 19 21:45 23.10.2021
5779 Rain 24 1010 83 10000 0.94 3 19:47 23.10.2021
5780 Clouds 26 1009 75 10000 1.3 357 18:48 23.10.2021
5781 Clouds 27 1008 70 10000 0.88 13 18:21 23.10.2021
5782 Clouds 27 1008 70 10000 0.88 13 17:42 23.10.2021
5783 Clouds 30 1007 61 10000 0.93 134 16:18 23.10.2021
5784 Clouds 34 1007 40 10000 0.83 112 13:51 23.10.2021
5785 Clouds 20 1012 94 10000 0.29 63 02:36 23.10.2021
5786 Clouds 21 1013 93 10000 0.48 126 23:42 22.10.2021
5787 Clouds 21 1013 91 10000 0.62 153 22:28 22.10.2021
5788 Clouds 21 1012 95 10000 0.11 132 19:49 22.10.2021
5789 Clouds 21 1011 93 10000 0.07 61 18:33 22.10.2021
5790 Clouds 25 1010 73 10000 0.59 354 17:19 22.10.2021
5791 Clouds 31 1011 55 10000 3.09 210 14:58 22.10.2021
5792 Rain 22 1013 95 10000 1.16 266 12:53 22.10.2021
5793 Rain 21 1015 98 10000 0.99 239 10:58 22.10.2021
5794 Rain 21 1015 98 10000 0.99 239 10:36 22.10.2021
5795 Rain 21 1016 98 10000 0.79 207 09:36 22.10.2021
5796 Rain 20 1015 100 10000 0.75 198 07:53 22.10.2021
5797 Rain 20 1015 100 10000 0.96 165 07:21 22.10.2021
5798 Rain 20 1015 100 10000 0.96 165 07:21 22.10.2021
5799 Rain 20 1013 100 10000 0.63 125 02:37 22.10.2021
5800 Rain 20 1013 100 10000 0.63 125 02:37 22.10.2021
5801 Rain 20 1013 100 10000 0.63 125 02:37 22.10.2021
5802 Clouds 20 1014 99 10000 0.63 281 23:51 21.10.2021
5803 Clouds 20 1015 99 10000 0.67 249 22:47 21.10.2021
5804 Clouds 20 1015 100 10000 0.58 243 21:39 21.10.2021
5805 Clouds 21 1014 99 10000 0.93 265 20:26 21.10.2021
5806 Clouds 21 1013 99 10000 0.68 274 19:56 21.10.2021
5807 Clouds 21 1012 99 10000 0.76 257 19:26 21.10.2021
5808 Clouds 21 1012 99 10000 0.76 257 18:34 21.10.2021
5809 Clouds 22 1012 97 10000 1.11 258 17:53 21.10.2021
5810 Clouds 23 1011 92 10000 1.58 253 17:18 21.10.2021
5811 Clouds 25 1012 83 9000 5.14 260 15:33 21.10.2021
5812 Clouds 22 1011 97 10000 1.37 249 14:57 21.10.2021
5813 Clouds 22 1011 97 10000 1.37 249 14:37 21.10.2021
5814 Clouds 22 1011 97 10000 1.37 249 14:37 21.10.2021
5815 Rain 27 1014 78 10000 3.09 180 12:37 21.10.2021
5816 Rain 22 1015 99 10000 0.34 88 09:55 21.10.2021
5817 Rain 21 1015 100 9063 0.33 95 08:21 21.10.2021
5818 Rain 21 1014 99 10000 0.5 46 07:23 21.10.2021
5819 Clouds 21 1013 96 10000 0.63 294 00:51 21.10.2021
5820 Clouds 21 1014 95 10000 0.31 230 22:41 20.10.2021
5821 Clouds 21 1014 95 10000 0.25 316 21:51 20.10.2021
5822 Clouds 22 1014 94 10000 0.6 331 21:18 20.10.2021
5823 Clouds 22 1014 94 10000 0.6 331 20:39 20.10.2021
5824 Clouds 21 1012 94 10000 0.46 298 20:21 20.10.2021
5825 Clouds 21 1012 93 10000 0.34 343 19:28 20.10.2021
5826 Clouds 21 1012 93 10000 0.34 343 18:45 20.10.2021
5827 Clouds 21 1012 93 10000 0.34 343 18:45 20.10.2021
5828 Clouds 22 1010 88 10000 0.6 323 17:39 20.10.2021
5829 Clouds 25 1010 79 10000 1.32 281 15:26 20.10.2021
5830 Rain 21 1015 99 6795 0.95 194 10:21 20.10.2021
5831 Rain 21 1014 100 10000 0.88 190 07:43 20.10.2021
5832 Rain 21 1011 99 10000 0.94 186 02:38 20.10.2021
5833 Clouds 21 1012 98 10000 0.79 193 00:34 20.10.2021
5834 Rain 21 1012 98 10000 0.78 220 22:58 19.10.2021
5835 Rain 21 1012 97 10000 0.8 221 21:38 19.10.2021
5836 Rain 22 1011 98 10000 1.26 196 20:29 19.10.2021
5837 Rain 22 1011 98 10000 1.26 196 19:59 19.10.2021
5838 Rain 23 1010 93 10000 1.2 222 19:37 19.10.2021
5839 Clouds 24 1010 90 10000 1.09 251 18:45 19.10.2021
5840 Clouds 25 1009 86 10000 1.03 275 17:52 19.10.2021
5841 Rain 29 1007 66 10000 1.03 234 15:30 19.10.2021
5842 Rain 29 1007 67 10000 1.27 216 14:44 19.10.2021
5843 Rain 30 1011 66 10000 4.12 120 13:56 19.10.2021
5844 Rain 26 1011 90 10000 1.88 143 12:24 19.10.2021
5845 Rain 26 1011 90 10000 1.88 143 12:24 19.10.2021
5846 Rain 28 1012 74 9381 1.57 148 11:28 19.10.2021
5847 Clouds 26 1013 80 10000 1.17 151 09:55 19.10.2021
5848 Clouds 26 1013 80 10000 1.17 151 09:55 19.10.2021
5849 Clouds 23 1013 93 10000 1 147 08:57 19.10.2021
5850 Clouds 22 1009 98 10000 0.35 334 02:25 19.10.2021
5851 Rain 22 1010 98 10000 0.88 65 00:20 19.10.2021
5852 Rain 22 1010 98 10000 0.88 65 23:41 18.10.2021
5853 Rain 22 1010 98 10000 0.86 29 22:57 18.10.2021
5854 Rain 22 1010 98 10000 0.86 29 22:30 18.10.2021
5855 Clouds 23 1009 96 10000 0.6 358 20:53 18.10.2021
5856 Clouds 22 1009 97 10000 1 46 20:30 18.10.2021
5857 Clouds 23 1009 96 10000 0.81 34 19:41 18.10.2021
5858 Clouds 23 1008 95 10000 0.73 355 19:20 18.10.2021
5859 Rain 26 1007 88 10000 0.91 33 16:59 18.10.2021
5860 Rain 30 1006 63 10000 0.55 334 14:57 18.10.2021
5861 Clouds 25 1011 81 10000 0.39 275 12:28 18.10.2021
5862 Clouds 24 1013 91 10000 0.65 323 10:26 18.10.2021
5863 Rain 23 1013 96 10000 0.53 352 09:25 18.10.2021
5864 Rain 23 1013 96 10000 0.53 352 09:25 18.10.2021
5865 Rain 21 1009 99 10000 1.16 35 01:23 18.10.2021
5866 Rain 22 1010 98 10000 0.69 88 23:20 17.10.2021
5867 Rain 22 1010 98 10000 1.09 89 21:45 17.10.2021
5868 Rain 23 1009 91 9782 1.25 133 20:59 17.10.2021
5869 Clouds 24 1007 81 10000 0.31 248 20:29 17.10.2021
5870 Clouds 24 1007 81 10000 0.31 248 19:38 17.10.2021
5871 Clouds 24 1007 78 10000 0.4 270 18:44 17.10.2021
5872 Clouds 31 1005 53 10000 0.86 324 17:27 17.10.2021
5873 Clouds 29 1008 79 10000 2.06 180 14:47 17.10.2021
5874 Clouds 34 1006 39 10000 1.18 273 14:24 17.10.2021
5875 Clouds 34 1006 39 10000 1.18 273 13:34 17.10.2021
5876 Clouds 33 1009 42 10000 0.84 294 11:54 17.10.2021
5877 Clouds 33 1009 42 10000 0.84 294 11:54 17.10.2021
5878 Clouds 30 1012 52 10000 0.56 234 10:20 17.10.2021
5879 Clouds 27 1012 62 10000 0.38 133 09:23 17.10.2021
5880 Clouds 21 1012 88 10000 0.12 50 06:56 17.10.2021
5881 Clouds 19 1010 96 10000 0.11 358 00:52 17.10.2021
5882 Clouds 20 1011 96 10000 0.47 93 00:21 17.10.2021
5883 Clouds 19 1011 99 10000 0.82 82 21:30 16.10.2021
5884 Clouds 20 1010 99 10000 0.94 103 20:31 16.10.2021
5885 Clouds 20 1010 99 10000 1 106 19:44 16.10.2021
5886 Clouds 20 1010 98 10000 0.76 100 19:21 16.10.2021
5887 Clouds 20 1010 98 10000 0.76 100 18:51 16.10.2021
5888 Clouds 21 1009 98 10000 0.87 82 18:29 16.10.2021
5889 Clouds 21 1009 98 10000 0.87 82 17:54 16.10.2021
5890 Clouds 21 1009 97 10000 0.76 82 17:22 16.10.2021
5891 Clouds 21 1009 96 10000 0.5 321 14:48 16.10.2021
5892 Clouds 23 1012 91 10000 1.61 178 11:31 16.10.2021
5893 Clouds 25 1013 74 10000 1.61 158 10:25 16.10.2021
5894 Rain 21 1013 99 10000 0.4 178 07:50 16.10.2021
5895 Clouds 20 1011 99 10000 0.38 275 01:25 16.10.2021
5896 Clouds 20 1011 99 10000 0.46 281 23:53 15.10.2021
5897 Clouds 20 1012 99 10000 0.87 304 22:38 15.10.2021
5898 Clouds 21 1011 99 10000 1.03 304 22:18 15.10.2021
5899 Clouds 21 1012 99 10000 1.41 317 21:25 15.10.2021
5900 Clouds 21 1012 99 10000 1.41 317 20:45 15.10.2021
5901 Clouds 22 1010 99 10000 1.33 320 19:26 15.10.2021
5902 Clouds 22 1010 99 10000 1.33 320 18:40 15.10.2021
5903 Rain 25 1009 90 10000 2.37 271 16:28 15.10.2021
5904 Rain 26 1009 88 10000 1.99 274 15:28 15.10.2021
5905 Rain 25 1010 90 10000 1.43 278 12:41 15.10.2021
5906 Rain 26 1011 86 10000 1.28 309 11:31 15.10.2021
5907 Rain 27 1012 72 10000 1.05 320 10:43 15.10.2021
5908 Rain 25 1014 87 10000 0.89 238 08:59 15.10.2021
5909 Rain 21 1011 100 10000 0.24 292 05:31 15.10.2021
5910 Rain 22 1010 97 10000 0.95 115 00:48 15.10.2021
5911 Rain 22 1010 96 10000 0.93 87 00:21 15.10.2021
5912 Rain 23 1009 92 10000 0.75 99 22:51 14.10.2021
5913 Rain 23 1009 91 10000 1.42 111 21:44 14.10.2021
5914 Clouds 23 1009 88 10000 1.3 94 20:38 14.10.2021
5915 Clouds 24 1008 81 10000 0.79 113 20:18 14.10.2021
5916 Clouds 24 1008 81 10000 0.79 113 19:32 14.10.2021
5917 Clouds 27 1006 65 10000 1.29 10 17:30 14.10.2021
5918 Clouds 31 1004 51 10000 1.46 346 16:49 14.10.2021
5919 Clouds 33 1005 43 10000 0.98 355 15:35 14.10.2021
5920 Clouds 34 1006 39 10000 0.82 355 14:41 14.10.2021
5921 Clouds 35 1006 36 10000 0.99 347 13:37 14.10.2021
5922 Clouds 31 1012 62 10000 3.09 90 11:44 14.10.2021
5923 Clouds 29 1012 58 10000 1.49 24 09:55 14.10.2021
5924 Clouds 21 1012 99 10000 1.2 40 06:55 14.10.2021
5925 Rain 21 1010 94 10000 1.05 347 00:58 14.10.2021
5926 Clouds 21 1010 92 10000 0.94 340 00:22 14.10.2021
5927 Rain 22 1011 86 10000 0.51 349 21:53 13.10.2021
5928 Rain 22 1011 86 10000 0.51 349 21:32 13.10.2021
5929 Rain 22 1009 87 10000 1.11 351 19:58 13.10.2021
5930 Rain 23 1008 82 10000 0.68 179 18:49 13.10.2021
5931 Rain 24 1007 79 10000 1.37 124 17:55 13.10.2021
5932 Clouds 30 1007 52 10000 1.82 112 15:32 13.10.2021
5933 Clouds 31 1007 47 10000 1.48 125 14:45 13.10.2021
5934 Clouds 32 1007 44 10000 1.01 104 14:21 13.10.2021
5935 Clouds 31 1010 48 10000 1.03 70 12:22 13.10.2021
5936 Clouds 29 1012 58 10000 1 77 10:47 13.10.2021
5937 Clouds 25 1013 76 10000 1.25 76 08:41 13.10.2021
5938 Clouds 20 1012 96 10000 0.33 18 06:42 13.10.2021
5939 Clouds 19 1011 99 10000 0.51 39 02:27 13.10.2021
5940 Clouds 19 1011 99 10000 0.51 39 01:37 13.10.2021
5941 Clouds 20 1012 99 10000 0.87 61 23:29 12.10.2021
5942 Clouds 20 1012 99 10000 0.87 61 22:45 12.10.2021
5943 Clouds 20 1012 99 10000 0.68 90 21:30 12.10.2021
5944 Clouds 20 1011 99 10000 0.62 147 20:34 12.10.2021
5945 Clouds 20 1011 99 10000 0.62 147 20:34 12.10.2021
5946 Clouds 20 1011 99 10000 0.39 159 19:57 12.10.2021
5947 Clouds 21 1010 97 10000 1.05 169 18:36 12.10.2021
5948 Clouds 21 1010 96 10000 1.76 178 17:51 12.10.2021
5949 Clouds 21 1010 96 10000 1.76 184 16:39 12.10.2021
5950 Clouds 22 1010 95 10000 0.68 174 15:46 12.10.2021
5951 Clouds 21 1010 95 10000 0.8 43 14:39 12.10.2021
5952 Clouds 22 1012 94 10000 0.72 34 13:43 12.10.2021
5953 Clouds 22 1012 94 10000 0.96 23 12:35 12.10.2021
5954 Rain 21 1015 99 10000 1.79 350 09:42 12.10.2021
5955 Rain 20 1015 99 10000 1.84 359 08:43 12.10.2021
5956 Rain 20 1015 99 10000 1.84 359 08:43 12.10.2021
5957 Rain 20 1014 99 10000 2.41 7 07:25 12.10.2021
5958 Rain 21 1014 99 3860 1.79 118 05:29 12.10.2021
5959 Rain 21 1014 99 3860 1.79 118 04:32 12.10.2021
5960 Clouds 21 1013 97 10000 0.54 331 00:28 12.10.2021
5961 Clouds 21 1013 97 10000 0.54 331 23:40 11.10.2021
5962 Clouds 21 1012 97 10000 0.55 6 22:57 11.10.2021
5963 Clouds 21 1013 95 10000 0.43 35 21:45 11.10.2021
5964 Clouds 21 1011 94 10000 0.47 262 20:35 11.10.2021
5965 Clouds 21 1010 93 10000 0.3 258 19:38 11.10.2021
5966 Clouds 22 1010 90 10000 0.72 281 18:37 11.10.2021
5967 Clouds 25 1009 74 10000 1.48 312 16:51 11.10.2021
5968 Clouds 25 1009 74 10000 1.48 312 16:31 11.10.2021
5969 Clouds 26 1009 69 10000 2.18 318 15:47 11.10.2021
5970 Clouds 26 1010 68 10000 2.68 318 14:54 11.10.2021
5971 Clouds 26 1010 68 10000 2.68 318 14:30 11.10.2021
5972 Clouds 25 1010 75 10000 1.97 327 13:36 11.10.2021
5973 Clouds 23 1012 95 10000 2.23 328 11:38 11.10.2021
5974 Rain 23 1013 98 10000 2.35 330 10:31 11.10.2021
5975 Rain 22 1013 99 10000 1.97 327 09:19 11.10.2021
5976 Rain 22 1011 100 8609 1.23 337 04:55 11.10.2021
5977 Rain 22 1009 99 10000 0.51 84 01:37 11.10.2021
5978 Rain 22 1009 99 10000 0.69 354 00:45 11.10.2021
5979 Rain 22 1010 98 7165 0.95 276 23:57 10.10.2021
5980 Rain 22 1010 98 7165 0.95 276 23:57 10.10.2021
5981 Rain 24 1010 84 10000 0.76 354 21:51 10.10.2021
5982 Clouds 25 1008 79 10000 1.23 333 21:29 10.10.2021
5983 Clouds 25 1008 79 10000 1.23 333 20:42 10.10.2021
5984 Rain 24 1007 85 10000 0.78 278 20:21 10.10.2021
5985 Rain 24 1007 85 10000 0.78 278 19:58 10.10.2021
5986 Rain 24 1007 85 10000 0.78 278 19:35 10.10.2021
5987 Rain 26 1005 78 10000 0.34 329 18:33 10.10.2021
5988 Clouds 31 1005 55 10000 1.49 288 16:45 10.10.2021
5989 Clouds 34 1005 45 10000 1.3 276 15:42 10.10.2021
5990 Clouds 34 1006 43 10000 2.06 268 13:43 10.10.2021
5991 Clouds 33 1007 46 10000 2.01 277 12:51 10.10.2021
5992 Clouds 33 1007 46 10000 2.01 277 12:33 10.10.2021
5993 Clouds 29 1010 64 10000 1.16 315 10:43 10.10.2021
5994 Clouds 25 1011 90 10000 0.79 19 09:29 10.10.2021
5995 Clouds 25 1011 90 10000 0.79 19 08:53 10.10.2021
5996 Clouds 23 1010 92 10000 0.73 4 07:27 10.10.2021
5997 Clouds 22 1009 98 10000 0.86 98 02:38 10.10.2021
5998 Rain 22 1009 96 10000 0.7 146 00:55 10.10.2021
5999 Rain 24 1009 83 10000 1.12 106 23:57 09.10.2021
6000 Clouds 24 1009 79 10000 0.17 237 22:45 09.10.2021
6001 Clouds 25 1009 76 10000 0.42 303 21:38 09.10.2021
6002 Clouds 25 1008 73 10000 0.8 7 21:19 09.10.2021
6003 Rain 24 1008 88 10000 1.28 19 19:44 09.10.2021
6004 Rain 27 1006 67 10000 1.38 12 18:57 09.10.2021
6005 Rain 27 1006 67 10000 1.38 12 18:32 09.10.2021
6006 Clouds 35 1004 36 10000 0.8 194 16:29 09.10.2021
6007 Clouds 35 1004 36 10000 0.8 194 16:29 09.10.2021
6008 Clouds 35 1004 36 10000 0.8 194 16:29 09.10.2021
6009 Clouds 36 1004 33 10000 0.66 164 15:28 09.10.2021
6010 Clouds 37 1006 34 10000 0.49 182 13:43 09.10.2021
6011 Clouds 32 1011 62 10000 2.06 160 12:38 09.10.2021
6012 Clouds 35 1009 39 10000 0.32 129 11:43 09.10.2021
6013 Clouds 34 1010 45 10000 0.53 91 10:41 09.10.2021
6014 Clouds 34 1010 45 10000 0.53 91 10:41 09.10.2021
6015 Clouds 31 1011 53 10000 0.89 68 09:36 09.10.2021
6016 Clouds 24 1011 89 10000 0.67 112 08:29 09.10.2021
6017 Clouds 24 1011 89 10000 0.67 112 07:37 09.10.2021
6018 Clouds 21 1009 99 10000 0.89 85 05:28 09.10.2021
6019 Clouds 21 1008 99 10000 1.06 205 02:49 09.10.2021
6020 Rain 21 1009 99 10000 1.15 277 02:21 09.10.2021
6021 Rain 21 1009 99 10000 0.98 79 23:36 08.10.2021
6022 Rain 22 1010 98 10000 1.2 96 22:53 08.10.2021
6023 Rain 22 1010 95 10000 1.42 152 21:50 08.10.2021
6024 Rain 23 1009 87 10000 1.58 132 20:49 08.10.2021
6025 Rain 23 1007 85 10000 0.42 70 18:51 08.10.2021
6026 Rain 31 1005 56 10000 0.67 32 17:28 08.10.2021
6027 Rain 31 1005 56 10000 0.67 32 16:50 08.10.2021
6028 Clouds 31 1004 53 10000 0.47 189 16:22 08.10.2021
6029 Clouds 33 1006 48 10000 1.01 51 13:56 08.10.2021
6030 Clouds 35 1007 41 10000 0.75 325 12:48 08.10.2021
6031 Clouds 34 1009 43 10000 0.91 311 11:31 08.10.2021
6032 Clouds 32 1011 52 10000 0.96 316 10:35 08.10.2021
6033 Clouds 25 1011 80 10000 1.12 5 07:34 08.10.2021
6034 Clouds 23 1009 89 10000 0.66 27 23:33 07.10.2021
6035 Clouds 23 1010 88 10000 0.37 13 22:58 07.10.2021
6036 Clouds 23 1010 88 10000 1.01 38 21:34 07.10.2021
6037 Clouds 24 1009 84 10000 0.33 50 20:58 07.10.2021
6038 Clouds 25 1008 81 10000 0.93 29 19:45 07.10.2021
6039 Clouds 26 1007 74 10000 1.17 32 19:27 07.10.2021
6040 Clouds 27 1006 72 10000 0.7 13 17:48 07.10.2021
6041 Clouds 29 1006 64 10000 1.51 354 16:43 07.10.2021
6042 Clouds 35 1005 37 10000 0.26 39 15:23 07.10.2021
6043 Clear 36 1007 34 10000 0.38 285 13:45 07.10.2021
6044 Clear 35 1008 35 10000 0.62 261 13:21 07.10.2021
6045 Clear 35 1008 35 10000 0.62 261 12:36 07.10.2021
6046 Clouds 29 1014 70 10000 2.06 180 10:48 07.10.2021
6047 Clear 31 1012 54 10000 0.44 117 10:19 07.10.2021
6048 Clear 27 1013 69 10000 0.37 115 08:56 07.10.2021
6049 Clouds 23 1013 89 10000 0.24 114 08:25 07.10.2021
6050 Clouds 23 1013 89 10000 0.24 114 07:41 07.10.2021
6051 Clouds 21 1012 97 10000 0.06 112 06:54 07.10.2021
6052 Clouds 20 1010 99 10000 1.09 180 02:23 07.10.2021
6053 Rain 21 1012 98 10000 1.29 153 23:39 06.10.2021
6054 Rain 21 1012 98 10000 1 141 22:45 06.10.2021
6055 Clouds 21 1012 98 10000 1.26 141 21:46 06.10.2021
6056 Rain 21 1011 98 10000 1.37 146 20:34 06.10.2021
6057 Clouds 23 1011 90 10000 1.49 149 19:46 06.10.2021
6058 Clouds 24 1010 87 10000 0.65 155 18:34 06.10.2021
6059 Rain 28 1008 72 10000 0.43 253 16:54 06.10.2021
6060 Rain 29 1008 62 10000 2.13 211 15:26 06.10.2021
6061 Clouds 27 1010 66 10000 2.56 204 13:51 06.10.2021
6062 Clouds 26 1012 75 10000 2.26 200 12:55 06.10.2021
6063 Clouds 26 1012 75 10000 2.26 200 12:31 06.10.2021
6064 Clouds 23 1013 94 10000 1.33 187 11:49 06.10.2021
6065 Rain 22 1015 97 10000 0.28 82 09:57 06.10.2021
6066 Rain 22 1015 97 10000 0.28 82 09:38 06.10.2021
6067 Rain 22 1015 98 10000 0.42 111 08:40 06.10.2021
6068 Clouds 21 1013 98 10000 0.36 205 06:47 06.10.2021
6069 Clouds 20 1011 99 10000 0.33 224 05:19 06.10.2021
6070 Clouds 21 1011 99 10000 0.88 253 00:26 06.10.2021
6071 Clouds 21 1011 99 10000 0.88 253 23:52 05.10.2021
6072 Clouds 21 1011 99 10000 0.88 253 23:52 05.10.2021
6073 Clouds 21 1011 99 10000 0.88 253 23:52 05.10.2021
6074 Clouds 21 1011 99 10000 0.88 253 23:32 05.10.2021
6075 Rain 21 1012 99 10000 0.9 242 22:44 05.10.2021
6076 Rain 21 1012 99 10000 1.18 216 21:58 05.10.2021
6077 Rain 21 1012 99 10000 1.18 216 21:35 05.10.2021
6078 Rain 21 1011 98 10000 1.19 226 20:38 05.10.2021
6079 Clouds 22 1010 96 10000 1.16 260 20:19 05.10.2021
6080 Clouds 22 1009 96 10000 1.35 258 19:26 05.10.2021
6081 Clouds 27 1010 78 10000 2.06 220 18:46 05.10.2021
6082 Rain 24 1008 93 10000 1.58 239 16:35 05.10.2021
6083 Rain 29 1009 65 10000 1.71 216 14:29 05.10.2021
6084 Rain 29 1010 67 10000 0.63 230 13:29 05.10.2021
6085 Rain 29 1010 67 10000 0.63 230 12:36 05.10.2021
6086 Rain 29 1011 62 10000 1.16 320 11:59 05.10.2021
6087 Clouds 28 1013 65 10000 1.48 309 10:39 05.10.2021
6088 Rain 23 1015 92 10000 1.23 297 08:39 05.10.2021
6089 Rain 21 1010 99 10000 0.66 318 03:55 05.10.2021
6090 Clouds 21 1011 98 10000 0.85 33 23:53 04.10.2021
6091 Rain 21 1011 99 10000 1.02 272 21:58 04.10.2021
6092 Rain 22 1010 96 10000 1.8 354 18:55 04.10.2021
6093 Rain 24 1009 85 10000 2.76 351 17:59 04.10.2021
6094 Clouds 29 1007 61 10000 1.48 236 16:22 04.10.2021
6095 Clouds 29 1007 61 10000 1.48 236 15:31 04.10.2021
6096 Clouds 31 1012 62 10000 3.09 330 14:42 04.10.2021
6097 Rain 29 1009 65 10000 0.28 149 13:48 04.10.2021
6098 Clouds 32 1009 48 10000 0.35 195 13:24 04.10.2021
6099 Clouds 33 1011 44 10000 0.72 250 11:35 04.10.2021
6100 Clouds 29 1012 57 10000 1.07 202 10:48 04.10.2021
6101 Clouds 28 1013 64 10000 1.01 175 09:51 04.10.2021
6102 Clouds 27 1013 71 10000 0.74 160 08:33 04.10.2021
6103 Clouds 21 1012 97 10000 0.36 167 06:51 04.10.2021
6104 Clouds 21 1012 98 10000 1.11 171 00:28 04.10.2021
6105 Clouds 21 1012 98 10000 0.58 139 22:33 03.10.2021
6106 Clouds 21 1012 98 10000 0.81 131 21:37 03.10.2021
6107 Clouds 22 1011 98 10000 1.21 126 20:54 03.10.2021
6108 Clouds 22 1011 97 10000 0.99 116 19:56 03.10.2021
6109 Clouds 22 1011 97 10000 0.91 133 18:33 03.10.2021
6110 Rain 23 1010 96 10000 1.06 145 17:43 03.10.2021
6111 Rain 25 1009 93 9925 1.73 174 15:51 03.10.2021
6112 Rain 26 1009 91 8399 1.9 168 14:42 03.10.2021
6113 Rain 26 1010 87 9084 1.76 159 13:57 03.10.2021
6114 Rain 27 1011 75 8479 1.51 162 13:20 03.10.2021
6115 Rain 29 1012 62 8815 1.14 143 12:24 03.10.2021
6116 Clouds 29 1013 56 10000 1.4 122 10:35 03.10.2021
6117 Clouds 24 1014 81 10000 1.14 96 08:33 03.10.2021
6118 Clouds 20 1011 99 10000 0.74 49 00:26 03.10.2021
6119 Clouds 21 1012 99 10000 0.38 350 22:23 02.10.2021
6120 Clouds 21 1012 99 10000 0.46 271 20:55 02.10.2021
6121 Rain 21 1012 98 10000 0.55 348 18:59 02.10.2021
6122 Rain 21 1012 98 10000 0.55 348 18:31 02.10.2021
6123 Rain 21 1011 97 10000 0.41 329 17:38 02.10.2021
6124 Rain 28 1010 74 10000 3.09 250 16:46 02.10.2021
6125 Rain 24 1009 85 10000 1.92 308 14:42 02.10.2021
6126 Rain 29 1009 70 10000 2.06 340 15:41 30.09.2021
6127 Rain 29 1009 70 10000 2.06 340 15:41 30.09.2021
6128 Rain 28 1010 74 10000 0 0 14:42 30.09.2021
6129 Clouds 27 1011 70 10000 2.56 262 12:22 30.09.2021
6130 Thunderstorm 23 1013 94 6000 2.06 340 11:31 30.09.2021
6131 Clouds 27 1013 75 10000 2.37 260 10:36 30.09.2021
6132 Rain 22 1013 97 10000 1.04 242 08:54 30.09.2021
6133 Rain 22 1013 98 10000 0.58 205 08:22 30.09.2021
6134 Rain 21 1012 99 10000 1.03 146 05:50 30.09.2021
6135 Clouds 21 1009 98 10000 0.88 91 02:33 30.09.2021
6136 Rain 22 1009 98 10000 1.04 180 00:37 30.09.2021
6137 Rain 22 1012 98 9164 2.75 106 23:21 29.09.2021
6138 Rain 22 1011 96 10000 2.53 108 21:54 29.09.2021
6139 Clouds 22 1008 93 10000 0.65 275 20:42 29.09.2021
6140 Clouds 25 1008 75 10000 0.92 338 20:20 29.09.2021
6141 Clouds 26 1007 73 10000 1.05 293 19:26 29.09.2021
6142 Clouds 27 1006 65 10000 0.73 283 18:18 29.09.2021
6143 Clouds 29 1005 60 10000 0.41 247 16:56 29.09.2021
6144 Clouds 32 1005 45 10000 0.34 274 16:28 29.09.2021
6145 Clouds 32 1005 45 10000 0.34 274 15:35 29.09.2021
6146 Clouds 34 1006 38 10000 1.06 331 14:38 29.09.2021
6147 Clouds 35 1007 37 10000 0.98 320 13:33 29.09.2021
6148 Clouds 30 1011 66 8000 2.06 90 12:39 29.09.2021
6149 Clouds 31 1011 50 10000 1 349 11:23 29.09.2021
6150 Clouds 31 1011 50 10000 1 349 10:31 29.09.2021
6151 Clouds 28 1013 62 10000 1.3 3 09:42 29.09.2021
6152 Clouds 24 1012 82 10000 1.19 15 07:52 29.09.2021
6153 Clouds 22 1011 92 10000 0.52 348 06:49 29.09.2021
6154 Clouds 21 1011 97 10000 0.47 284 00:28 29.09.2021
6155 Clouds 22 1012 96 10000 0.44 290 22:45 28.09.2021
6156 Clouds 22 1012 95 10000 1.02 293 22:22 28.09.2021
6157 Clouds 22 1011 94 10000 0.77 284 21:21 28.09.2021
6158 Clouds 22 1010 90 10000 0.44 319 19:49 28.09.2021
6159 Clouds 23 1009 87 10000 1.01 291 19:29 28.09.2021
6160 Clouds 23 1009 87 10000 1.01 291 18:41 28.09.2021
6161 Clouds 29 1009 70 10000 4.12 340 16:57 28.09.2021
6162 Clouds 29 1008 61 10000 1.2 299 15:21 28.09.2021
6163 Rain 30 1010 61 10000 0.74 270 13:27 28.09.2021
6164 Rain 27 1012 78 10000 0.35 322 12:25 28.09.2021
6165 Rain 27 1012 78 10000 0.35 322 11:51 28.09.2021
6166 Rain 27 1012 78 10000 0.35 322 11:32 28.09.2021
6167 Clouds 25 1014 79 10000 0.5 22 10:30 28.09.2021
6168 Clouds 24 1014 85 10000 0.34 281 09:29 28.09.2021
6169 Clouds 24 1014 85 10000 0.34 281 08:44 28.09.2021
6170 Clouds 22 1013 95 10000 0.28 292 08:20 28.09.2021
6171 Clouds 21 1013 98 10000 0.33 305 06:46 28.09.2021
6172 Clouds 21 1013 98 10000 0.33 305 06:46 28.09.2021
6173 Rain 20 1010 98 10000 0.45 328 02:56 28.09.2021
6174 Rain 21 1010 90 10000 1.33 287 00:34 28.09.2021
6175 Rain 22 1010 78 10000 1.3 279 23:52 27.09.2021
6176 Clouds 24 1010 70 10000 0.16 320 23:25 27.09.2021
6177 Clouds 24 1010 70 10000 0.16 320 22:31 27.09.2021
6178 Clouds 24 1010 68 10000 0.4 149 21:38 27.09.2021
6179 Clouds 25 1008 66 10000 0.85 72 20:29 27.09.2021
6180 Clouds 26 1008 62 10000 0.87 83 19:40 27.09.2021
6181 Clouds 27 1007 58 10000 0.69 44 18:54 27.09.2021
6182 Clouds 28 1006 55 10000 0.64 27 17:41 27.09.2021
6183 Clouds 33 1005 41 10000 0.77 36 17:21 27.09.2021
6184 Clouds 33 1005 41 10000 0.77 36 17:21 27.09.2021
6185 Clouds 33 1005 41 10000 0.77 36 16:37 27.09.2021
6186 Clouds 33 1005 41 10000 0.77 36 16:37 27.09.2021
6187 Clouds 35 1005 33 10000 0.96 50 15:39 27.09.2021
6188 Clouds 36 1007 32 10000 1.07 67 13:57 27.09.2021
6189 Clouds 34 1010 38 10000 1.04 59 12:26 27.09.2021
6190 Clouds 32 1012 43 10000 1.49 45 10:51 27.09.2021
6191 Clouds 30 1013 51 10000 1.61 42 09:46 27.09.2021
6192 Clouds 24 1013 73 10000 1.19 26 08:26 27.09.2021
6193 Clouds 19 1012 97 10000 0.99 21 04:51 27.09.2021
6194 Clouds 20 1013 95 10000 0.71 47 00:21 27.09.2021
6195 Clouds 20 1013 94 10000 0.91 103 22:18 26.09.2021
6196 Clouds 20 1013 94 10000 0.91 103 21:30 26.09.2021
6197 Clouds 20 1012 94 10000 0.99 69 20:38 26.09.2021
6198 Clouds 21 1011 91 10000 1.11 51 19:59 26.09.2021
6199 Clouds 21 1011 91 10000 1.11 51 19:35 26.09.2021
6200 Clouds 21 1010 92 10000 0.84 36 18:45 26.09.2021
6201 Clouds 21 1010 90 10000 1.03 24 17:49 26.09.2021
6202 Clouds 22 1010 88 10000 1.52 51 17:20 26.09.2021
6203 Clouds 23 1011 84 10000 1.55 47 16:24 26.09.2021
6204 Clouds 23 1011 84 10000 1.55 47 15:56 26.09.2021
6205 Rain 23 1013 84 10000 1.88 59 14:26 26.09.2021
6206 Rain 23 1013 84 10000 1.88 59 13:44 26.09.2021
6207 Clouds 23 1014 83 10000 1.9 48 12:31 26.09.2021
6208 Clouds 23 1015 82 10000 1.66 60 11:58 26.09.2021
6209 Clouds 23 1015 82 10000 1.66 60 11:36 26.09.2021
6210 Clouds 23 1016 85 10000 1.8 76 09:52 26.09.2021
6211 Clouds 23 1016 87 10000 1.71 78 08:54 26.09.2021
6212 Clouds 20 1013 97 10000 0.74 56 01:28 26.09.2021
6213 Clouds 21 1013 96 10000 0.73 42 00:20 26.09.2021
6214 Clouds 21 1013 95 10000 0.93 47 22:42 25.09.2021
6215 Rain 21 1013 94 10000 1.11 92 22:23 25.09.2021
6216 Rain 21 1013 94 10000 1.11 92 21:47 25.09.2021
6217 Rain 21 1012 92 10000 0.82 125 20:53 25.09.2021
6218 Clouds 23 1010 79 10000 0.47 157 19:54 25.09.2021
6219 Clouds 24 1009 75 10000 1.42 283 18:39 25.09.2021
6220 Clouds 26 1008 67 10000 1.76 279 17:46 25.09.2021
6221 Clouds 33 1008 38 10000 1.67 296 14:49 25.09.2021
6222 Clouds 34 1009 36 10000 0.99 287 13:56 25.09.2021
6223 Clouds 33 1010 37 10000 0.54 271 12:48 25.09.2021
6224 Clouds 32 1012 41 10000 0.4 72 11:38 25.09.2021
6225 Clouds 26 1014 62 10000 0.84 123 10:21 25.09.2021
6226 Clouds 24 1015 71 10000 0.96 121 09:24 25.09.2021
6227 Clouds 22 1014 83 10000 0.34 105 07:50 25.09.2021
6228 Clouds 19 1013 100 10000 1.13 151 00:59 25.09.2021
6229 Clouds 19 1014 99 10000 1.47 143 23:33 24.09.2021
6230 Clouds 20 1014 99 10000 1.2 163 21:39 24.09.2021
6231 Clouds 20 1014 98 10000 0.5 230 20:33 24.09.2021
6232 Clouds 21 1013 94 10000 0.71 278 19:44 24.09.2021
6233 Clouds 21 1012 93 10000 0.9 257 18:30 24.09.2021
6234 Clouds 23 1012 87 10000 1 276 17:53 24.09.2021
6235 Clouds 23 1012 87 10000 1 276 17:35 24.09.2021
6236 Clouds 24 1011 79 10000 1.41 316 16:35 24.09.2021
6237 Clouds 25 1011 75 10000 1.3 16 13:41 24.09.2021
6238 Clouds 25 1012 75 10000 1.22 24 12:44 24.09.2021
6239 Clouds 26 1014 68 10000 0.5 55 12:26 24.09.2021
6240 Clouds 27 1015 65 10000 1.32 201 11:28 24.09.2021
6241 Clouds 25 1016 72 10000 1.07 172 10:00 24.09.2021
6242 Clouds 22 1015 88 10000 1.52 123 08:24 24.09.2021
6243 Clouds 22 1015 88 10000 1.12 138 07:31 24.09.2021
6244 Clouds 21 1014 93 10000 0.96 134 06:32 24.09.2021
6245 Clouds 20 1013 99 10000 0.65 129 04:53 24.09.2021
6246 Clouds 20 1013 99 10000 1.23 231 22:45 23.09.2021
6247 Clouds 21 1013 98 10000 1.18 227 21:59 23.09.2021
6248 Clouds 21 1013 98 10000 1.18 227 21:38 23.09.2021
6249 Clouds 21 1012 96 10000 1.11 254 20:32 23.09.2021
6250 Clouds 22 1011 87 10000 0.94 291 18:56 23.09.2021
6251 Clouds 27 1007 66 10000 2.85 308 16:49 23.09.2021
6252 Clouds 28 1009 63 10000 2.78 294 15:20 23.09.2021
6253 Clouds 28 1009 63 10000 2.78 294 14:58 23.09.2021
6254 Clouds 28 1010 65 10000 1.92 286 13:40 23.09.2021
6255 Clouds 25 1012 81 10000 1.57 278 13:18 23.09.2021
6256 Clouds 25 1012 81 10000 1.57 278 12:46 23.09.2021
6257 Clouds 23 1013 89 10000 1.26 283 12:21 23.09.2021
6258 Clouds 23 1014 88 10000 1.73 296 11:20 23.09.2021
6259 Clouds 23 1014 93 10000 1.84 311 10:19 23.09.2021
6260 Clouds 23 1014 93 10000 1.84 311 09:48 23.09.2021
6261 Clouds 21 1011 99 10000 2.01 320 06:32 23.09.2021
6262 Clouds 22 1009 97 10000 1.57 72 01:18 23.09.2021
6263 Rain 22 1010 94 10000 0.39 108 22:58 22.09.2021
6264 Rain 22 1010 90 10000 1.02 124 22:23 22.09.2021
6265 Rain 22 1010 90 10000 1.02 124 21:46 22.09.2021
6266 Rain 22 1010 90 10000 1.02 124 21:46 22.09.2021
6267 Rain 25 1008 70 10000 0.82 62 20:59 22.09.2021
6268 Rain 25 1008 70 10000 0.82 62 20:38 22.09.2021
6269 Clouds 27 1005 57 10000 0.35 295 19:27 22.09.2021
6270 Clouds 27 1005 57 10000 0.35 295 18:36 22.09.2021
6271 Clouds 28 1004 56 10000 0.65 286 17:38 22.09.2021
6272 Clear 35 1004 33 10000 0.52 7 15:53 22.09.2021
6273 Clear 36 1005 32 10000 0.67 23 14:37 22.09.2021
6274 Clear 35 1008 35 10000 1.33 23 13:24 22.09.2021
6275 Clear 32 1011 43 10000 1.84 29 11:20 22.09.2021
6276 Clouds 30 1012 49 10000 1.8 36 09:35 22.09.2021
6277 Clouds 27 1013 59 10000 1.76 37 08:51 22.09.2021
6278 Clouds 24 1012 71 10000 1.69 28 07:41 22.09.2021
6279 Clouds 21 1012 88 10000 1.22 30 06:56 22.09.2021
6280 Clouds 20 1012 96 10000 1.16 35 05:49 22.09.2021
6281 Clouds 20 1011 97 10000 1.03 47 05:18 22.09.2021
6282 Clouds 20 1011 97 10000 1.04 31 03:33 22.09.2021
6283 Clouds 22 1011 93 10000 1.15 64 00:19 22.09.2021
6284 Clouds 22 1012 88 10000 0.27 42 22:28 21.09.2021
6285 Clouds 22 1012 88 10000 0.27 42 21:31 21.09.2021
6286 Clouds 22 1011 90 10000 0.62 276 19:38 21.09.2021
6287 Clouds 23 1010 88 10000 0.59 145 19:19 21.09.2021
6288 Clouds 26 1008 71 10000 0.94 4 16:58 21.09.2021
6289 Clouds 26 1009 70 10000 1.35 342 16:27 21.09.2021
6290 Clouds 26 1009 70 10000 1.57 347 15:25 21.09.2021
6291 Clouds 26 1009 70 10000 1.57 347 14:49 21.09.2021
6292 Clouds 29 1009 61 10000 1.46 322 13:40 21.09.2021
6293 Clouds 27 1011 69 10000 1.3 352 12:45 21.09.2021
6294 Rain 24 1014 88 10000 1.55 28 10:51 21.09.2021
6295 Rain 22 1014 97 10000 1.28 20 09:53 21.09.2021
6296 Rain 22 1014 98 10000 1.29 5 07:47 21.09.2021
6297 Rain 21 1012 99 10000 0.97 68 05:42 21.09.2021
6298 Clouds 23 1011 89 10000 0.95 205 23:58 20.09.2021
6299 Clouds 24 1011 79 10000 1.43 252 21:53 20.09.2021
6300 Clouds 24 1011 79 10000 1.43 252 21:32 20.09.2021
6301 Clouds 25 1009 73 10000 0.91 339 20:26 20.09.2021
6302 Rain 25 1008 74 10000 1.3 24 19:24 20.09.2021
6303 Clouds 27 1007 66 10000 1.42 27 17:39 20.09.2021
6304 Clouds 32 1006 45 10000 0.99 8 16:26 20.09.2021
6305 Clouds 32 1006 45 10000 0.99 8 15:47 20.09.2021
6306 Clouds 35 1006 37 10000 0.72 352 15:18 20.09.2021
6307 Clouds 34 1007 38 10000 1.37 38 13:42 20.09.2021
6308 Clouds 34 1009 40 10000 1.22 36 12:34 20.09.2021
6309 Clouds 31 1012 50 10000 1.14 54 11:19 20.09.2021
6310 Clouds 29 1013 58 10000 1.07 69 09:55 20.09.2021
6311 Clouds 29 1013 58 10000 1.07 69 09:34 20.09.2021
6312 Clouds 26 1014 73 10000 0.63 89 08:56 20.09.2021
6313 Clouds 20 1013 97 10000 0.24 188 06:47 20.09.2021
6314 Rain 20 1013 99 10000 0.88 122 23:45 19.09.2021
6315 Rain 22 1013 88 10000 0.91 187 21:56 19.09.2021
6316 Rain 22 1013 88 10000 0.91 187 21:34 19.09.2021
6317 Clouds 24 1012 88 9000 0 0 20:33 19.09.2021
6318 Clouds 25 1009 68 10000 1.24 219 19:18 19.09.2021
6319 Clouds 27 1008 64 10000 0.27 177 18:25 19.09.2021
6320 Clouds 29 1010 65 10000 2.06 250 17:22 19.09.2021
6321 Clouds 32 1008 42 10000 0.43 280 15:52 19.09.2021
6322 Clouds 33 1008 41 10000 1.12 292 14:50 19.09.2021
6323 Clouds 26 1011 68 10000 1.77 312 14:29 19.09.2021
6324 Clouds 27 1012 61 10000 1.84 303 13:19 19.09.2021
6325 Clouds 27 1012 61 10000 1.84 303 12:45 19.09.2021
6326 Clouds 28 1014 59 10000 1.08 273 11:27 19.09.2021
6327 Clouds 25 1015 71 10000 0.49 200 10:24 19.09.2021
6328 Clouds 24 1015 78 10000 1.07 166 09:28 19.09.2021
6329 Clouds 21 1014 94 10000 1 171 07:29 19.09.2021
6330 Clouds 20 1013 98 10000 0.94 109 04:21 19.09.2021
6331 Clouds 21 1015 94 10000 1.06 84 23:35 18.09.2021
6332 Clouds 21 1015 94 10000 1.24 100 21:58 18.09.2021
6333 Clouds 21 1013 95 10000 1.04 70 20:48 18.09.2021
6334 Clouds 22 1013 95 10000 0.74 27 20:27 18.09.2021
6335 Clouds 21 1013 95 10000 0.93 85 19:39 18.09.2021
6336 Clouds 21 1012 94 10000 0.46 69 19:20 18.09.2021
6337 Clouds 21 1012 94 10000 0.46 69 18:31 18.09.2021
6338 Clouds 22 1011 89 10000 0.8 103 17:25 18.09.2021
6339 Clouds 23 1011 86 10000 0.38 37 15:48 18.09.2021
6340 Clouds 23 1013 93 10000 1.67 277 13:46 18.09.2021
6341 Rain 22 1014 98 10000 1.27 251 13:27 18.09.2021
6342 Rain 22 1014 98 10000 1.27 251 12:48 18.09.2021
6343 Rain 23 1016 88 6000 3.09 180 11:37 18.09.2021
6344 Rain 21 1016 99 10000 1.1 280 10:31 18.09.2021
6345 Rain 22 1017 100 2000 3.09 180 09:26 18.09.2021
6346 Rain 22 1017 94 7000 3.09 180 08:31 18.09.2021
6347 Clouds 22 1011 85 10000 0.36 354 00:59 18.09.2021
6348 Clouds 22 1011 85 10000 0.36 354 00:41 18.09.2021
6349 Clouds 22 1012 82 10000 0.41 8 23:44 17.09.2021
6350 Clouds 23 1012 80 10000 0.86 323 22:33 17.09.2021
6351 Clouds 23 1011 76 10000 0.95 309 21:48 17.09.2021
6352 Clouds 23 1010 77 10000 1.17 322 20:18 17.09.2021
6353 Clouds 24 1010 77 10000 1.15 325 18:51 17.09.2021
6354 Clouds 28 1008 64 10000 1.52 342 16:50 17.09.2021
6355 Clouds 30 1008 55 10000 1.39 320 15:50 17.09.2021
6356 Clouds 33 1010 41 10000 1.26 265 12:32 17.09.2021
6357 Clouds 30 1013 49 10000 1.01 270 10:40 17.09.2021
6358 Clouds 23 1014 80 10000 0.88 260 08:19 17.09.2021
6359 Clouds 21 1014 92 10000 0.38 245 06:43 17.09.2021
6360 Clouds 22 1011 96 10000 1.19 263 00:39 17.09.2021
6361 Rain 22 1012 96 10000 1.35 239 22:46 16.09.2021
6362 Clouds 22 1012 94 10000 1.41 249 22:24 16.09.2021
6363 Clouds 22 1012 94 10000 1.41 249 21:36 16.09.2021
6364 Clouds 23 1010 91 10000 1.02 229 20:43 16.09.2021
6365 Clouds 22 1011 95 10000 0.92 252 19:36 16.09.2021
6366 Clouds 24 1008 84 10000 1 235 18:19 16.09.2021
6367 Clouds 25 1008 74 10000 1.3 263 17:22 16.09.2021
6368 Clouds 26 1012 83 8000 3.09 260 14:53 16.09.2021
6369 Clouds 25 1013 88 10000 3.09 270 13:48 16.09.2021
6370 Clouds 23 1012 94 10000 1.65 261 12:47 16.09.2021
6371 Rain 22 1013 97 10000 1.26 253 12:26 16.09.2021
6372 Rain 22 1014 98 10000 1.08 236 11:24 16.09.2021
6373 Rain 22 1014 98 10000 1.08 236 10:30 16.09.2021
6374 Rain 22 1015 98 10000 0.79 232 09:39 16.09.2021
6375 Rain 21 1014 99 10000 0.58 102 08:28 16.09.2021
6376 Rain 21 1014 99 6436 0.92 56 06:58 16.09.2021
6377 Rain 21 1014 99 6436 0.92 56 06:38 16.09.2021
6378 Rain 21 1012 99 10000 0.83 81 03:54 16.09.2021
6379 Rain 21 1011 96 10000 0.98 64 00:59 16.09.2021
6380 Clouds 21 1011 95 10000 0.66 294 23:31 15.09.2021
6381 Rain 21 1011 95 10000 0.78 257 22:44 15.09.2021
6382 Rain 22 1011 94 10000 1.24 197 21:31 15.09.2021
6383 Rain 24 1009 79 10000 1.05 283 20:51 15.09.2021
6384 Clouds 25 1008 69 10000 1.44 278 19:34 15.09.2021
6385 Clouds 27 1007 63 10000 0.77 196 18:57 15.09.2021
6386 Clouds 29 1006 58 10000 0.56 209 17:45 15.09.2021
6387 Clouds 33 1005 46 10000 0.26 305 16:43 15.09.2021
6388 Clouds 36 1006 34 10000 1.28 348 15:25 15.09.2021
6389 Clouds 36 1006 34 10000 1.28 348 14:43 15.09.2021
6390 Clouds 35 1008 36 10000 1.47 345 13:48 15.09.2021
6391 Clouds 35 1009 39 10000 1.55 359 13:28 15.09.2021
6392 Clouds 35 1009 39 10000 1.55 359 12:33 15.09.2021
6393 Clouds 34 1011 44 10000 1.65 3 11:51 15.09.2021
6394 Clouds 32 1012 50 10000 1.68 13 10:58 15.09.2021
6395 Clouds 32 1012 50 10000 1.68 13 10:35 15.09.2021
6396 Clouds 26 1014 75 10000 1.73 24 08:51 15.09.2021
6397 Clouds 21 1013 97 10000 0.53 53 07:27 15.09.2021
6398 Rain 21 1011 98 10000 1.29 39 02:21 15.09.2021
6399 Clouds 22 1012 92 10000 1.19 43 22:26 14.09.2021
6400 Clouds 22 1012 92 10000 1.19 43 21:34 14.09.2021
6401 Rain 22 1010 91 10000 1.19 326 20:25 14.09.2021
6402 Clouds 24 1010 78 10000 0.46 311 19:40 14.09.2021
6403 Clouds 26 1009 71 10000 0.88 202 17:33 14.09.2021
6404 Clouds 30 1007 55 10000 0.77 275 16:43 14.09.2021
6405 Clouds 31 1009 48 10000 1.17 309 15:25 14.09.2021
6406 Clouds 30 1010 55 10000 0.86 307 14:19 14.09.2021
6407 Clouds 28 1012 61 10000 1.43 336 11:48 14.09.2021
6408 Clouds 23 1014 86 10000 0.81 12 10:47 14.09.2021
6409 Clouds 22 1014 93 10000 0.95 356 09:49 14.09.2021
6410 Mist 22 1014 100 3000 0 0 07:58 14.09.2021
6411 Clouds 21 1010 93 10000 1.02 313 02:55 14.09.2021
6412 Clouds 22 1012 86 10000 0.72 306 23:29 13.09.2021
6413 Clouds 23 1011 83 10000 0.96 320 22:28 13.09.2021
6414 Clouds 23 1011 83 10000 0.96 320 21:56 13.09.2021
6415 Clouds 23 1011 83 10000 0.96 320 21:56 13.09.2021
6416 Clouds 23 1011 83 10000 0.96 320 21:32 13.09.2021
6417 Clouds 24 1009 81 10000 0.56 6 19:38 13.09.2021
6418 Clouds 25 1009 76 10000 1.03 55 18:45 13.09.2021
6419 Clouds 27 1008 67 10000 1 306 17:38 13.09.2021
6420 Clouds 29 1007 58 10000 0.58 270 16:49 13.09.2021
6421 Clouds 30 1007 54 10000 0.51 229 14:45 13.09.2021
6422 Clouds 33 1011 42 10000 1.46 349 11:44 13.09.2021
6423 Clouds 32 1012 48 10000 1.21 347 10:41 13.09.2021
6424 Clouds 23 1013 88 10000 0.58 17 08:23 13.09.2021
6425 Clouds 21 1012 97 10000 0.61 245 00:34 13.09.2021
6426 Clouds 21 1014 96 10000 1.16 238 22:51 12.09.2021
6427 Clouds 21 1013 95 10000 1.31 226 22:22 12.09.2021
6428 Rain 21 1013 94 10000 1.26 217 20:57 12.09.2021
6429 Clouds 22 1011 89 10000 1.15 207 20:19 12.09.2021
6430 Clouds 22 1011 89 10000 1.15 207 19:36 12.09.2021
6431 Clouds 23 1011 84 10000 1.09 188 19:18 12.09.2021
6432 Rain 25 1010 77 10000 0.68 125 17:50 12.09.2021
6433 Clouds 26 1010 76 10000 0.28 85 15:54 12.09.2021
6434 Clouds 29 1012 74 10000 2.06 220 14:39 12.09.2021
6435 Clouds 27 1012 62 10000 1.09 312 12:42 12.09.2021
6436 Clouds 25 1015 74 10000 0.7 5 10:30 12.09.2021
6437 Clouds 23 1015 84 10000 0.31 308 08:39 12.09.2021
6438 Clouds 22 1013 92 10000 0.77 322 07:26 12.09.2021
6439 Clouds 21 1012 94 10000 0.83 121 00:47 12.09.2021
6440 Clouds 22 1013 93 10000 0.56 62 22:35 11.09.2021
6441 Clouds 21 1012 97 10000 0.76 47 21:38 11.09.2021
6442 Clouds 22 1012 92 10000 0.84 104 19:39 11.09.2021
6443 Clouds 23 1011 87 10000 1.45 95 17:56 11.09.2021
6444 Clouds 23 1010 89 10000 0.49 63 17:21 11.09.2021
6445 Clouds 23 1011 90 10000 0.62 113 15:24 11.09.2021
6446 Clouds 22 1013 97 10000 1.35 345 13:22 11.09.2021
6447 Clouds 22 1014 97 10000 1.36 8 11:41 11.09.2021
6448 Rain 21 1016 99 10000 1.13 20 09:50 11.09.2021
6449 Rain 21 1015 99 10000 1.21 343 08:42 11.09.2021
6450 Rain 21 1014 98 10000 1.05 70 07:43 11.09.2021
6451 Rain 20 1011 98 10000 0.77 325 02:52 11.09.2021
6452 Clouds 23 1012 86 10000 0.8 38 22:28 10.09.2021
6453 Clouds 23 1012 86 10000 0.8 38 21:56 10.09.2021
6454 Clouds 23 1012 86 10000 0.8 38 21:35 10.09.2021
6455 Clouds 29 1011 58 6000 4.12 160 18:47 10.09.2021
6456 Clouds 27 1009 71 10000 1.6 17 17:54 10.09.2021
6457 Clouds 31 1009 49 10000 0.86 9 15:51 10.09.2021
6458 Clouds 29 1012 58 10000 1.93 23 13:20 10.09.2021
6459 Clouds 26 1014 72 10000 2 21 10:32 10.09.2021
6460 Rain 24 1014 88 7000 0 0 07:52 10.09.2021
6461 Rain 21 1012 98 10000 1.42 83 05:23 10.09.2021
6462 Rain 23 1012 84 10000 1.38 145 23:52 09.09.2021
6463 Clouds 24 1012 76 10000 1.03 81 21:48 09.09.2021
6464 Clouds 24 1010 75 10000 0.99 129 20:47 09.09.2021
6465 Clouds 26 1009 67 10000 1.06 137 20:24 09.09.2021
6466 Clouds 27 1008 61 10000 0.18 186 18:39 09.09.2021
6467 Clouds 28 1007 60 10000 1.06 269 17:41 09.09.2021
6468 Clouds 33 1007 42 10000 0.44 307 16:27 09.09.2021
6469 Clouds 36 1008 34 10000 0.77 308 13:35 09.09.2021
6470 Clouds 30 1015 62 10000 2.06 360 11:50 09.09.2021
6471 Clouds 33 1013 46 10000 0.7 345 10:54 09.09.2021
6472 Clouds 30 1013 54 10000 0.66 345 09:34 09.09.2021
6473 Clouds 24 1014 82 10000 0.37 14 07:34 09.09.2021
6474 Clouds 21 1012 88 10000 0.44 88 04:47 09.09.2021
6475 Clouds 22 1012 82 10000 0.93 197 22:58 08.09.2021
6476 Clouds 23 1011 81 10000 1.09 165 21:47 08.09.2021
6477 Clouds 23 1010 80 10000 1.04 174 20:37 08.09.2021
6478 Clouds 24 1010 77 10000 1.19 159 19:44 08.09.2021
6479 Clouds 25 1009 72 10000 1.18 168 18:34 08.09.2021
6480 Clouds 27 1008 66 10000 0.89 177 17:58 08.09.2021
6481 Clouds 27 1008 66 10000 0.89 177 17:39 08.09.2021
6482 Clouds 27 1008 66 10000 0.89 177 17:39 08.09.2021
6483 Clouds 34 1008 37 10000 0.61 149 14:57 08.09.2021
6484 Clouds 29 1012 57 10000 0.42 30 13:25 08.09.2021
6485 Clouds 27 1015 69 10000 0 0 12:41 08.09.2021
6486 Clouds 27 1015 69 10000 0 0 12:21 08.09.2021
6487 Clouds 23 1015 88 10000 0.97 49 11:23 08.09.2021
6488 Clouds 21 1016 94 10000 0.22 34 10:29 08.09.2021
6489 Clouds 21 1016 94 10000 0.22 34 09:36 08.09.2021
6490 Clouds 20 1016 99 10000 0.26 8 07:43 08.09.2021
6491 Rain 20 1014 99 10000 1.3 357 05:46 08.09.2021
6492 Rain 20 1015 100 10000 0.87 354 22:51 07.09.2021
6493 Rain 20 1015 99 10000 0.29 48 22:19 07.09.2021
6494 Rain 20 1015 99 10000 0.71 286 20:37 07.09.2021
6495 Clouds 21 1013 98 10000 1.22 322 18:49 07.09.2021
6496 Clouds 22 1012 94 10000 2.02 317 18:24 07.09.2021
6497 Rain 23 1012 92 10000 2.32 306 16:59 07.09.2021
6498 Rain 22 1012 94 10000 2.25 297 15:55 07.09.2021
6499 Rain 22 1012 98 10000 2.06 293 14:46 07.09.2021
6500 Rain 24 1013 92 6503 2.46 310 13:29 07.09.2021
6501 Rain 23 1014 95 10000 2.12 309 11:51 07.09.2021
6502 Rain 22 1015 98 10000 1.31 307 10:43 07.09.2021
6503 Rain 22 1016 98 10000 0.99 315 08:47 07.09.2021
6504 Clouds 22 1015 97 10000 1.12 312 07:45 07.09.2021
6505 Rain 21 1013 100 4609 0.96 310 05:47 07.09.2021
6506 Rain 21 1012 99 10000 1.36 313 02:38 07.09.2021
6507 Rain 21 1012 98 9750 1.32 311 00:54 07.09.2021
6508 Rain 21 1012 96 10000 0.49 268 23:43 06.09.2021
6509 Clouds 21 1012 96 10000 0.88 89 23:20 06.09.2021
6510 Clouds 21 1012 96 10000 0.88 89 22:45 06.09.2021
6511 Clouds 21 1012 95 10000 0.95 135 21:31 06.09.2021
6512 Clouds 23 1010 88 10000 0.82 7 19:32 06.09.2021
6513 Rain 23 1009 87 10000 1.08 13 18:58 06.09.2021
6514 Rain 25 1008 77 10000 2.03 54 18:27 06.09.2021
6515 Rain 25 1008 77 10000 2.03 54 18:27 06.09.2021
6516 Rain 25 1008 77 10000 2.03 54 17:36 06.09.2021
6517 Clouds 30 1007 56 10000 1.05 272 15:58 06.09.2021
6518 Clouds 31 1007 49 10000 1.04 225 14:34 06.09.2021
6519 Clouds 35 1009 39 10000 0.62 328 12:48 06.09.2021
6520 Clouds 33 1011 42 10000 1.03 343 11:33 06.09.2021
6521 Clouds 30 1013 55 10000 0.7 5 09:59 06.09.2021
6522 Clouds 24 1013 84 10000 0.49 82 07:34 06.09.2021
6523 Clouds 22 1012 94 10000 1.02 312 00:22 06.09.2021
6524 Rain 22 1013 94 10000 1.01 326 23:20 05.09.2021
6525 Rain 22 1013 94 10000 1.01 326 22:30 05.09.2021
6526 Rain 22 1013 91 10000 0.99 332 21:55 05.09.2021
6527 Rain 23 1012 86 10000 0.7 284 20:55 05.09.2021
6528 Clouds 25 1009 74 10000 1.23 231 19:22 05.09.2021
6529 Clouds 26 1009 71 10000 1.28 260 17:36 05.09.2021
6530 Clouds 26 1009 71 10000 1.28 260 17:36 05.09.2021
6531 Clouds 30 1008 55 10000 1.56 272 15:40 05.09.2021
6532 Clouds 30 1009 51 10000 1.54 286 14:45 05.09.2021
6533 Clouds 30 1011 51 10000 1.6 306 12:34 05.09.2021
6534 Clouds 29 1014 57 10000 1.19 311 10:59 05.09.2021
6535 Clouds 29 1014 57 10000 1.19 311 10:34 05.09.2021
6536 Clouds 24 1015 80 10000 0.96 17 09:26 05.09.2021
6537 Clouds 23 1014 86 10000 0.74 23 08:23 05.09.2021
6538 Clouds 21 1012 95 10000 0.2 353 03:20 05.09.2021
6539 Clouds 21 1012 95 10000 0.12 315 00:32 05.09.2021
6540 Clouds 21 1013 96 10000 0.39 133 23:46 04.09.2021
6541 Clouds 20 1014 97 10000 0.5 70 22:36 04.09.2021
6542 Clouds 21 1013 95 10000 0.09 15 21:59 04.09.2021
6543 Clouds 21 1012 95 10000 0.78 15 19:58 04.09.2021
6544 Clouds 22 1012 92 10000 1.18 18 19:32 04.09.2021
6545 Clouds 25 1010 72 10000 2.14 358 16:47 04.09.2021
6546 Clouds 24 1011 83 10000 2 358 13:49 04.09.2021
6547 Rain 22 1014 97 10000 0.9 30 11:21 04.09.2021
6548 Rain 22 1015 97 10000 0.86 10 09:39 04.09.2021
6549 Rain 21 1013 99 10000 0.43 335 07:28 04.09.2021
6550 Clouds 21 1011 96 10000 0.91 281 00:30 04.09.2021
6551 Clouds 21 1012 96 10000 1.08 273 23:32 03.09.2021
6552 Clouds 21 1012 96 10000 1.08 273 23:32 03.09.2021
6553 Clouds 21 1012 94 10000 1.41 296 22:45 03.09.2021
6554 Clouds 22 1012 93 10000 0.16 200 21:36 03.09.2021
6555 Clouds 22 1011 91 10000 0.58 129 20:53 03.09.2021
6556 Rain 22 1011 90 10000 0.52 133 19:57 03.09.2021
6557 Rain 22 1010 90 10000 0.25 9 19:30 03.09.2021
6558 Clouds 26 1008 71 10000 0.99 149 17:58 03.09.2021
6559 Clouds 29 1006 56 10000 1.04 161 16:44 03.09.2021
6560 Clouds 29 1007 56 10000 1.3 158 15:38 03.09.2021
6561 Clouds 30 1009 51 10000 0.63 68 12:59 03.09.2021
6562 Clouds 29 1012 58 10000 0.74 24 10:43 03.09.2021
6563 Clouds 24 1013 77 10000 1.11 303 09:20 03.09.2021
6564 Clouds 22 1013 82 10000 1.04 114 07:51 03.09.2021
6565 Clouds 20 1012 94 10000 0.68 140 06:21 03.09.2021
6566 Clouds 20 1011 95 10000 0.74 96 23:54 02.09.2021
6567 Clouds 21 1011 94 10000 0.45 154 21:42 02.09.2021
6568 Clouds 22 1010 88 10000 0.59 82 20:25 02.09.2021
6569 Clouds 23 1009 85 10000 0.95 65 17:33 02.09.2021
6570 Clouds 24 1009 83 10000 0.7 86 16:20 02.09.2021
6571 Clouds 24 1009 82 10000 0.95 94 15:29 02.09.2021
6572 Clouds 25 1010 70 10000 1.43 45 13:23 02.09.2021
6573 Clouds 26 1011 66 10000 1.49 44 11:41 02.09.2021
6574 Clouds 28 1012 60 10000 1.49 18 10:52 02.09.2021
6575 Clouds 24 1012 85 10000 1.07 338 08:49 02.09.2021
6576 Clouds 21 1011 97 10000 1.64 23 07:20 02.09.2021
6577 Clouds 21 1011 97 10000 1.64 23 07:20 02.09.2021
6578 Clouds 21 1011 98 10000 1.56 22 05:31 02.09.2021
6579 Clouds 21 1011 98 10000 1.56 22 05:31 02.09.2021
6580 Rain 21 1011 98 10000 1.61 66 02:35 02.09.2021
6581 Clouds 21 1011 97 10000 0.83 64 01:36 02.09.2021
6582 Rain 21 1012 97 10000 0.35 97 23:40 01.09.2021
6583 Rain 21 1012 95 10000 0.63 31 22:42 01.09.2021
6584 Clouds 21 1011 90 10000 0.93 1 21:41 01.09.2021
6585 Clouds 22 1010 87 10000 0.98 350 20:54 01.09.2021
6586 Clouds 23 1009 84 10000 1.94 304 19:23 01.09.2021
6587 Clouds 25 1008 78 10000 1.47 315 17:50 01.09.2021
6588 Clouds 27 1006 68 10000 0.71 253 16:48 01.09.2021
6589 Clouds 26 1006 71 10000 0.48 260 16:21 01.09.2021
6590 Clouds 29 1008 57 10000 1.11 280 13:40 01.09.2021
6591 Clouds 30 1010 54 10000 1.45 187 11:46 01.09.2021
6592 Clouds 30 1012 57 10000 0.16 224 09:35 01.09.2021
6593 Clouds 23 1011 91 10000 1.1 317 07:57 01.09.2021
6594 Rain 21 1010 98 10000 0.7 317 05:40 01.09.2021
6595 Rain 22 1010 95 10000 0.49 271 23:20 31.08.2021
6596 Rain 24 1010 83 10000 2.12 246 21:41 31.08.2021
6597 Rain 25 1008 75 10000 1.82 152 19:49 31.08.2021
6598 Clouds 26 1006 68 10000 0.76 137 18:44 31.08.2021
6599 Clouds 29 1005 59 10000 0.66 80 17:39 31.08.2021
6600 Clouds 33 1004 44 10000 0.95 296 17:20 31.08.2021
6601 Clouds 32 1004 47 10000 0.79 263 16:24 31.08.2021
6602 Clouds 36 1006 35 10000 1.16 292 14:28 31.08.2021
6603 Clouds 34 1009 41 10000 0.88 265 11:36 31.08.2021
6604 Clouds 32 1010 48 10000 0.8 261 10:56 31.08.2021
6605 Clouds 30 1011 57 10000 0.29 255 09:45 31.08.2021
6606 Clouds 27 1011 74 10000 0.5 221 08:41 31.08.2021
6607 Clouds 24 1011 89 10000 0.9 174 07:38 31.08.2021
6608 Rain 21 1010 98 10000 0.76 172 05:55 31.08.2021
6609 Clouds 23 1010 85 10000 0.96 223 23:35 30.08.2021
6610 Clouds 23 1010 85 10000 0.96 223 23:35 30.08.2021
6611 Clouds 24 1009 80 10000 1.54 238 21:53 30.08.2021
6612 Clouds 24 1009 80 10000 1.54 238 21:35 30.08.2021
6613 Clouds 25 1008 75 10000 0.77 328 20:32 30.08.2021
6614 Clouds 26 1007 66 10000 1.58 265 19:30 30.08.2021
6615 Clouds 27 1006 59 10000 1.2 304 18:44 30.08.2021
6616 Clouds 30 1004 53 10000 1 331 17:47 30.08.2021
6617 Clouds 35 1004 35 10000 1.08 279 16:25 30.08.2021
6618 Clouds 35 1004 35 10000 1.08 279 15:39 30.08.2021
6619 Clouds 36 1006 35 10000 1.08 295 13:46 30.08.2021
6620 Clouds 35 1008 37 10000 0.99 298 12:49 30.08.2021
6621 Clouds 33 1011 46 10000 0.51 309 10:41 30.08.2021
6622 Clouds 21 1010 98 10000 0.84 27 02:37 30.08.2021
6623 Clouds 24 1009 79 10000 1.18 311 21:33 29.08.2021
6624 Rain 25 1008 74 10000 1.57 300 20:34 29.08.2021
6625 Clouds 27 1005 61 10000 2.06 167 19:20 29.08.2021
6626 Clouds 29 1004 53 10000 0.8 307 17:58 29.08.2021
6627 Clouds 34 1004 39 10000 0.97 311 15:49 29.08.2021
6628 Clouds 37 1006 29 10000 1.44 277 14:25 29.08.2021
6629 Clear 38 1005 28 10000 0.94 256 13:44 29.08.2021
6630 Clear 37 1007 30 10000 0.98 275 12:41 29.08.2021
6631 Clear 36 1009 34 10000